<?xml version="1.0" encoding="UTF-8" standalone="no" ?>
<gpx xmlns="http://www.topografix.com/GPX/1/1" xmlns:xsi="http://www.w3.org/2001/XMLSchema-instance" xsi:schemaLocation="http://www.topografix.com/GPX/1/1 http://www.topografix.com/GPX/1/1/gpx.xsd" version="1.1" creator="VisuGPX - https://www.visugpx.com">
  <metadata>
    <name>Yoyo autour du port de Campbieil</name>
  </metadata>
  <trk>
    <name><![CDATA[Yoyo autour du port de Campbieil_1]]></name>
    <trkseg>
      <trkpt lat="42.78609" lon="0.15242">
        <ele>1841</ele>
        <time>2022-03-27T07:56:38Z</time>
      </trkpt>
      <trkpt lat="42.78609" lon="0.15238">
        <ele>1841</ele>
        <time>2022-03-27T07:56:39Z</time>
      </trkpt>
      <trkpt lat="42.78609" lon="0.15233">
        <ele>1840</ele>
        <time>2022-03-27T07:56:41Z</time>
      </trkpt>
      <trkpt lat="42.78609" lon="0.1523">
        <ele>1840</ele>
        <time>2022-03-27T07:56:42Z</time>
      </trkpt>
      <trkpt lat="42.7861" lon="0.15228">
        <ele>1840</ele>
        <time>2022-03-27T07:56:43Z</time>
      </trkpt>
      <trkpt lat="42.7861" lon="0.15225">
        <ele>1840</ele>
        <time>2022-03-27T07:56:44Z</time>
      </trkpt>
      <trkpt lat="42.7861" lon="0.15221">
        <ele>1840</ele>
        <time>2022-03-27T07:56:46Z</time>
      </trkpt>
      <trkpt lat="42.7861" lon="0.15216">
        <ele>1840</ele>
        <time>2022-03-27T07:56:48Z</time>
      </trkpt>
      <trkpt lat="42.78611" lon="0.15212">
        <ele>1840</ele>
        <time>2022-03-27T07:56:50Z</time>
      </trkpt>
      <trkpt lat="42.78611" lon="0.15209">
        <ele>1840</ele>
        <time>2022-03-27T07:56:52Z</time>
      </trkpt>
      <trkpt lat="42.78611" lon="0.15206">
        <ele>1840</ele>
        <time>2022-03-27T07:56:54Z</time>
      </trkpt>
      <trkpt lat="42.78611" lon="0.15203">
        <ele>1839</ele>
        <time>2022-03-27T07:56:56Z</time>
      </trkpt>
      <trkpt lat="42.78612" lon="0.15199">
        <ele>1838</ele>
        <time>2022-03-27T07:56:58Z</time>
      </trkpt>
      <trkpt lat="42.78612" lon="0.15195">
        <ele>1838</ele>
        <time>2022-03-27T07:57:00Z</time>
      </trkpt>
      <trkpt lat="42.78612" lon="0.15191">
        <ele>1838</ele>
        <time>2022-03-27T07:57:02Z</time>
      </trkpt>
      <trkpt lat="42.78612" lon="0.15188">
        <ele>1838</ele>
        <time>2022-03-27T07:57:04Z</time>
      </trkpt>
      <trkpt lat="42.78613" lon="0.15184">
        <ele>1838</ele>
        <time>2022-03-27T07:57:06Z</time>
      </trkpt>
      <trkpt lat="42.78613" lon="0.15181">
        <ele>1837</ele>
        <time>2022-03-27T07:57:08Z</time>
      </trkpt>
      <trkpt lat="42.78614" lon="0.15177">
        <ele>1838</ele>
        <time>2022-03-27T07:57:10Z</time>
      </trkpt>
      <trkpt lat="42.78614" lon="0.15174">
        <ele>1838</ele>
        <time>2022-03-27T07:57:12Z</time>
      </trkpt>
      <trkpt lat="42.78614" lon="0.15171">
        <ele>1837</ele>
        <time>2022-03-27T07:57:14Z</time>
      </trkpt>
      <trkpt lat="42.78615" lon="0.15168">
        <ele>1837</ele>
        <time>2022-03-27T07:57:15Z</time>
      </trkpt>
      <trkpt lat="42.78615" lon="0.15164">
        <ele>1837</ele>
        <time>2022-03-27T07:57:18Z</time>
      </trkpt>
      <trkpt lat="42.78615" lon="0.1516">
        <ele>1837</ele>
        <time>2022-03-27T07:57:20Z</time>
      </trkpt>
      <trkpt lat="42.78616" lon="0.15157">
        <ele>1837</ele>
        <time>2022-03-27T07:57:22Z</time>
      </trkpt>
      <trkpt lat="42.78616" lon="0.15153">
        <ele>1837</ele>
        <time>2022-03-27T07:57:24Z</time>
      </trkpt>
      <trkpt lat="42.78616" lon="0.15149">
        <ele>1837</ele>
        <time>2022-03-27T07:57:26Z</time>
      </trkpt>
      <trkpt lat="42.78617" lon="0.15146">
        <ele>1837</ele>
        <time>2022-03-27T07:57:28Z</time>
      </trkpt>
      <trkpt lat="42.78617" lon="0.15143">
        <ele>1836</ele>
        <time>2022-03-27T07:57:30Z</time>
      </trkpt>
      <trkpt lat="42.78618" lon="0.1514">
        <ele>1836</ele>
        <time>2022-03-27T07:57:32Z</time>
      </trkpt>
      <trkpt lat="42.78618" lon="0.15136">
        <ele>1836</ele>
        <time>2022-03-27T07:57:34Z</time>
      </trkpt>
      <trkpt lat="42.78619" lon="0.15133">
        <ele>1836</ele>
        <time>2022-03-27T07:57:36Z</time>
      </trkpt>
      <trkpt lat="42.7862" lon="0.15129">
        <ele>1836</ele>
        <time>2022-03-27T07:57:38Z</time>
      </trkpt>
      <trkpt lat="42.7862" lon="0.15126">
        <ele>1836</ele>
        <time>2022-03-27T07:57:40Z</time>
      </trkpt>
      <trkpt lat="42.78621" lon="0.15124">
        <ele>1836</ele>
        <time>2022-03-27T07:57:42Z</time>
      </trkpt>
      <trkpt lat="42.78621" lon="0.15121">
        <ele>1836</ele>
        <time>2022-03-27T07:57:44Z</time>
      </trkpt>
      <trkpt lat="42.78621" lon="0.15118">
        <ele>1836</ele>
        <time>2022-03-27T07:57:46Z</time>
      </trkpt>
      <trkpt lat="42.78621" lon="0.15115">
        <ele>1836</ele>
        <time>2022-03-27T07:57:48Z</time>
      </trkpt>
      <trkpt lat="42.78622" lon="0.15113">
        <ele>1836</ele>
        <time>2022-03-27T07:57:50Z</time>
      </trkpt>
      <trkpt lat="42.78624" lon="0.1511">
        <ele>1836</ele>
        <time>2022-03-27T07:57:52Z</time>
      </trkpt>
      <trkpt lat="42.78625" lon="0.15108">
        <ele>1836</ele>
        <time>2022-03-27T07:57:53Z</time>
      </trkpt>
      <trkpt lat="42.78627" lon="0.15106">
        <ele>1836</ele>
        <time>2022-03-27T07:57:56Z</time>
      </trkpt>
      <trkpt lat="42.78629" lon="0.15104">
        <ele>1836</ele>
        <time>2022-03-27T07:57:58Z</time>
      </trkpt>
      <trkpt lat="42.78631" lon="0.15102">
        <ele>1836</ele>
        <time>2022-03-27T07:58:00Z</time>
      </trkpt>
      <trkpt lat="42.78633" lon="0.15101">
        <ele>1836</ele>
        <time>2022-03-27T07:58:03Z</time>
      </trkpt>
      <trkpt lat="42.78634" lon="0.15099">
        <ele>1836</ele>
        <time>2022-03-27T07:58:05Z</time>
      </trkpt>
      <trkpt lat="42.78636" lon="0.15096">
        <ele>1836</ele>
        <time>2022-03-27T07:58:07Z</time>
      </trkpt>
      <trkpt lat="42.78638" lon="0.15093">
        <ele>1836</ele>
        <time>2022-03-27T07:58:09Z</time>
      </trkpt>
      <trkpt lat="42.78641" lon="0.1509">
        <ele>1836</ele>
        <time>2022-03-27T07:58:11Z</time>
      </trkpt>
      <trkpt lat="42.78643" lon="0.15087">
        <ele>1836</ele>
        <time>2022-03-27T07:58:12Z</time>
      </trkpt>
      <trkpt lat="42.78644" lon="0.15084">
        <ele>1836</ele>
        <time>2022-03-27T07:58:15Z</time>
      </trkpt>
      <trkpt lat="42.78646" lon="0.15081">
        <ele>1835</ele>
        <time>2022-03-27T07:58:17Z</time>
      </trkpt>
      <trkpt lat="42.78647" lon="0.15078">
        <ele>1834</ele>
        <time>2022-03-27T07:58:19Z</time>
      </trkpt>
      <trkpt lat="42.78648" lon="0.15076">
        <ele>1834</ele>
        <time>2022-03-27T07:58:21Z</time>
      </trkpt>
      <trkpt lat="42.78649" lon="0.15073">
        <ele>1834</ele>
        <time>2022-03-27T07:58:23Z</time>
      </trkpt>
      <trkpt lat="42.7865" lon="0.15071">
        <ele>1834</ele>
        <time>2022-03-27T07:58:25Z</time>
      </trkpt>
      <trkpt lat="42.78651" lon="0.15068">
        <ele>1835</ele>
        <time>2022-03-27T07:58:27Z</time>
      </trkpt>
      <trkpt lat="42.78652" lon="0.15065">
        <ele>1834</ele>
        <time>2022-03-27T07:58:30Z</time>
      </trkpt>
      <trkpt lat="42.78654" lon="0.15063">
        <ele>1834</ele>
        <time>2022-03-27T07:58:33Z</time>
      </trkpt>
      <trkpt lat="42.78655" lon="0.1506">
        <ele>1834</ele>
        <time>2022-03-27T07:58:36Z</time>
      </trkpt>
      <trkpt lat="42.78655" lon="0.15057">
        <ele>1834</ele>
        <time>2022-03-27T07:58:39Z</time>
      </trkpt>
      <trkpt lat="42.78655" lon="0.15054">
        <ele>1834</ele>
        <time>2022-03-27T07:58:58Z</time>
      </trkpt>
      <trkpt lat="42.78654" lon="0.15051">
        <ele>1835</ele>
        <time>2022-03-27T07:59:05Z</time>
      </trkpt>
      <trkpt lat="42.78653" lon="0.15048">
        <ele>1835</ele>
        <time>2022-03-27T07:59:07Z</time>
      </trkpt>
      <trkpt lat="42.78654" lon="0.15045">
        <ele>1835</ele>
        <time>2022-03-27T07:59:47Z</time>
      </trkpt>
      <trkpt lat="42.78654" lon="0.15048">
        <ele>1835</ele>
        <time>2022-03-27T08:01:26Z</time>
      </trkpt>
      <trkpt lat="42.78654" lon="0.15045">
        <ele>1835</ele>
        <time>2022-03-27T08:02:02Z</time>
      </trkpt>
      <trkpt lat="42.78654" lon="0.15042">
        <ele>1835</ele>
        <time>2022-03-27T08:02:08Z</time>
      </trkpt>
      <trkpt lat="42.78653" lon="0.1504">
        <ele>1835</ele>
        <time>2022-03-27T08:02:18Z</time>
      </trkpt>
      <trkpt lat="42.78651" lon="0.15039">
        <ele>1835</ele>
        <time>2022-03-27T08:02:21Z</time>
      </trkpt>
      <trkpt lat="42.78649" lon="0.15037">
        <ele>1835</ele>
        <time>2022-03-27T08:02:25Z</time>
      </trkpt>
      <trkpt lat="42.78647" lon="0.15036">
        <ele>1835</ele>
        <time>2022-03-27T08:02:28Z</time>
      </trkpt>
      <trkpt lat="42.78645" lon="0.15035">
        <ele>1835</ele>
        <time>2022-03-27T08:02:30Z</time>
      </trkpt>
      <trkpt lat="42.78643" lon="0.15035">
        <ele>1835</ele>
        <time>2022-03-27T08:02:33Z</time>
      </trkpt>
      <trkpt lat="42.78641" lon="0.15034">
        <ele>1835</ele>
        <time>2022-03-27T08:02:36Z</time>
      </trkpt>
      <trkpt lat="42.78638" lon="0.15033">
        <ele>1836</ele>
        <time>2022-03-27T08:02:38Z</time>
      </trkpt>
      <trkpt lat="42.78636" lon="0.15033">
        <ele>1837</ele>
        <time>2022-03-27T08:02:42Z</time>
      </trkpt>
      <trkpt lat="42.78633" lon="0.15032">
        <ele>1836</ele>
        <time>2022-03-27T08:02:45Z</time>
      </trkpt>
      <trkpt lat="42.78632" lon="0.1503">
        <ele>1836</ele>
        <time>2022-03-27T08:02:47Z</time>
      </trkpt>
      <trkpt lat="42.7863" lon="0.15029">
        <ele>1836</ele>
        <time>2022-03-27T08:02:49Z</time>
      </trkpt>
      <trkpt lat="42.78628" lon="0.15028">
        <ele>1836</ele>
        <time>2022-03-27T08:02:51Z</time>
      </trkpt>
      <trkpt lat="42.78627" lon="0.15026">
        <ele>1836</ele>
        <time>2022-03-27T08:02:53Z</time>
      </trkpt>
      <trkpt lat="42.78625" lon="0.15024">
        <ele>1837</ele>
        <time>2022-03-27T08:02:56Z</time>
      </trkpt>
      <trkpt lat="42.78623" lon="0.15022">
        <ele>1836</ele>
        <time>2022-03-27T08:02:59Z</time>
      </trkpt>
      <trkpt lat="42.78621" lon="0.15021">
        <ele>1836</ele>
        <time>2022-03-27T08:03:01Z</time>
      </trkpt>
      <trkpt lat="42.78619" lon="0.15019">
        <ele>1836</ele>
        <time>2022-03-27T08:03:03Z</time>
      </trkpt>
      <trkpt lat="42.78618" lon="0.15018">
        <ele>1836</ele>
        <time>2022-03-27T08:03:05Z</time>
      </trkpt>
      <trkpt lat="42.78617" lon="0.15016">
        <ele>1837</ele>
        <time>2022-03-27T08:03:07Z</time>
      </trkpt>
      <trkpt lat="42.78615" lon="0.15013">
        <ele>1837</ele>
        <time>2022-03-27T08:03:10Z</time>
      </trkpt>
      <trkpt lat="42.78614" lon="0.1501">
        <ele>1837</ele>
        <time>2022-03-27T08:03:12Z</time>
      </trkpt>
      <trkpt lat="42.78613" lon="0.15008">
        <ele>1837</ele>
        <time>2022-03-27T08:03:14Z</time>
      </trkpt>
      <trkpt lat="42.78612" lon="0.15006">
        <ele>1837</ele>
        <time>2022-03-27T08:03:16Z</time>
      </trkpt>
      <trkpt lat="42.7861" lon="0.15003">
        <ele>1837</ele>
        <time>2022-03-27T08:03:19Z</time>
      </trkpt>
      <trkpt lat="42.78609" lon="0.15">
        <ele>1837</ele>
        <time>2022-03-27T08:03:22Z</time>
      </trkpt>
      <trkpt lat="42.78608" lon="0.14998">
        <ele>1837</ele>
        <time>2022-03-27T08:03:24Z</time>
      </trkpt>
      <trkpt lat="42.78606" lon="0.14995">
        <ele>1837</ele>
        <time>2022-03-27T08:03:27Z</time>
      </trkpt>
      <trkpt lat="42.78606" lon="0.14992">
        <ele>1837</ele>
        <time>2022-03-27T08:03:29Z</time>
      </trkpt>
      <trkpt lat="42.78605" lon="0.1499">
        <ele>1837</ele>
        <time>2022-03-27T08:03:31Z</time>
      </trkpt>
      <trkpt lat="42.78605" lon="0.14987">
        <ele>1837</ele>
        <time>2022-03-27T08:03:33Z</time>
      </trkpt>
      <trkpt lat="42.78604" lon="0.14985">
        <ele>1837</ele>
        <time>2022-03-27T08:03:35Z</time>
      </trkpt>
      <trkpt lat="42.78603" lon="0.14982">
        <ele>1837</ele>
        <time>2022-03-27T08:03:37Z</time>
      </trkpt>
      <trkpt lat="42.78603" lon="0.14979">
        <ele>1837</ele>
        <time>2022-03-27T08:03:39Z</time>
      </trkpt>
      <trkpt lat="42.78602" lon="0.14977">
        <ele>1838</ele>
        <time>2022-03-27T08:03:41Z</time>
      </trkpt>
      <trkpt lat="42.78602" lon="0.14974">
        <ele>1838</ele>
        <time>2022-03-27T08:03:43Z</time>
      </trkpt>
      <trkpt lat="42.78601" lon="0.14971">
        <ele>1838</ele>
        <time>2022-03-27T08:03:45Z</time>
      </trkpt>
      <trkpt lat="42.78601" lon="0.14969">
        <ele>1838</ele>
        <time>2022-03-27T08:03:47Z</time>
      </trkpt>
      <trkpt lat="42.786" lon="0.14966">
        <ele>1838</ele>
        <time>2022-03-27T08:03:50Z</time>
      </trkpt>
      <trkpt lat="42.786" lon="0.14962">
        <ele>1838</ele>
        <time>2022-03-27T08:03:53Z</time>
      </trkpt>
      <trkpt lat="42.78599" lon="0.14959">
        <ele>1838</ele>
        <time>2022-03-27T08:03:54Z</time>
      </trkpt>
      <trkpt lat="42.78599" lon="0.14957">
        <ele>1839</ele>
        <time>2022-03-27T08:03:57Z</time>
      </trkpt>
      <trkpt lat="42.78598" lon="0.14954">
        <ele>1839</ele>
        <time>2022-03-27T08:03:59Z</time>
      </trkpt>
      <trkpt lat="42.78598" lon="0.14951">
        <ele>1839</ele>
        <time>2022-03-27T08:04:01Z</time>
      </trkpt>
      <trkpt lat="42.78597" lon="0.14949">
        <ele>1839</ele>
        <time>2022-03-27T08:04:03Z</time>
      </trkpt>
      <trkpt lat="42.78597" lon="0.14946">
        <ele>1839</ele>
        <time>2022-03-27T08:04:05Z</time>
      </trkpt>
      <trkpt lat="42.78596" lon="0.14943">
        <ele>1839</ele>
        <time>2022-03-27T08:04:07Z</time>
      </trkpt>
      <trkpt lat="42.78596" lon="0.14941">
        <ele>1839</ele>
        <time>2022-03-27T08:04:09Z</time>
      </trkpt>
      <trkpt lat="42.78595" lon="0.14937">
        <ele>1839</ele>
        <time>2022-03-27T08:04:12Z</time>
      </trkpt>
      <trkpt lat="42.78594" lon="0.14935">
        <ele>1839</ele>
        <time>2022-03-27T08:04:13Z</time>
      </trkpt>
      <trkpt lat="42.78594" lon="0.14933">
        <ele>1839</ele>
        <time>2022-03-27T08:04:16Z</time>
      </trkpt>
      <trkpt lat="42.78593" lon="0.1493">
        <ele>1840</ele>
        <time>2022-03-27T08:04:18Z</time>
      </trkpt>
      <trkpt lat="42.78592" lon="0.14927">
        <ele>1840</ele>
        <time>2022-03-27T08:04:20Z</time>
      </trkpt>
      <trkpt lat="42.78591" lon="0.14925">
        <ele>1840</ele>
        <time>2022-03-27T08:04:22Z</time>
      </trkpt>
      <trkpt lat="42.78591" lon="0.14922">
        <ele>1840</ele>
        <time>2022-03-27T08:04:24Z</time>
      </trkpt>
      <trkpt lat="42.7859" lon="0.14919">
        <ele>1840</ele>
        <time>2022-03-27T08:04:26Z</time>
      </trkpt>
      <trkpt lat="42.7859" lon="0.14916">
        <ele>1840</ele>
        <time>2022-03-27T08:04:28Z</time>
      </trkpt>
      <trkpt lat="42.78589" lon="0.14914">
        <ele>1841</ele>
        <time>2022-03-27T08:04:30Z</time>
      </trkpt>
      <trkpt lat="42.78589" lon="0.14911">
        <ele>1841</ele>
        <time>2022-03-27T08:04:32Z</time>
      </trkpt>
      <trkpt lat="42.78588" lon="0.14908">
        <ele>1841</ele>
        <time>2022-03-27T08:04:34Z</time>
      </trkpt>
      <trkpt lat="42.78587" lon="0.14906">
        <ele>1841</ele>
        <time>2022-03-27T08:04:36Z</time>
      </trkpt>
      <trkpt lat="42.78587" lon="0.14902">
        <ele>1841</ele>
        <time>2022-03-27T08:04:39Z</time>
      </trkpt>
      <trkpt lat="42.78586" lon="0.149">
        <ele>1841</ele>
        <time>2022-03-27T08:04:41Z</time>
      </trkpt>
      <trkpt lat="42.78585" lon="0.14896">
        <ele>1841</ele>
        <time>2022-03-27T08:04:44Z</time>
      </trkpt>
      <trkpt lat="42.78585" lon="0.14894">
        <ele>1841</ele>
        <time>2022-03-27T08:04:46Z</time>
      </trkpt>
      <trkpt lat="42.78584" lon="0.14891">
        <ele>1841</ele>
        <time>2022-03-27T08:04:48Z</time>
      </trkpt>
      <trkpt lat="42.78583" lon="0.14889">
        <ele>1841</ele>
        <time>2022-03-27T08:04:50Z</time>
      </trkpt>
      <trkpt lat="42.78582" lon="0.14886">
        <ele>1841</ele>
        <time>2022-03-27T08:04:51Z</time>
      </trkpt>
      <trkpt lat="42.78582" lon="0.14884">
        <ele>1842</ele>
        <time>2022-03-27T08:04:54Z</time>
      </trkpt>
      <trkpt lat="42.78581" lon="0.14881">
        <ele>1842</ele>
        <time>2022-03-27T08:04:56Z</time>
      </trkpt>
      <trkpt lat="42.78581" lon="0.14879">
        <ele>1842</ele>
        <time>2022-03-27T08:04:58Z</time>
      </trkpt>
      <trkpt lat="42.7858" lon="0.14875">
        <ele>1843</ele>
        <time>2022-03-27T08:05:01Z</time>
      </trkpt>
      <trkpt lat="42.78579" lon="0.14872">
        <ele>1843</ele>
        <time>2022-03-27T08:05:04Z</time>
      </trkpt>
      <trkpt lat="42.78579" lon="0.14869">
        <ele>1843</ele>
        <time>2022-03-27T08:05:06Z</time>
      </trkpt>
      <trkpt lat="42.78579" lon="0.14867">
        <ele>1844</ele>
        <time>2022-03-27T08:05:08Z</time>
      </trkpt>
      <trkpt lat="42.78578" lon="0.14865">
        <ele>1844</ele>
        <time>2022-03-27T08:05:10Z</time>
      </trkpt>
      <trkpt lat="42.78578" lon="0.14862">
        <ele>1844</ele>
        <time>2022-03-27T08:05:12Z</time>
      </trkpt>
      <trkpt lat="42.78577" lon="0.1486">
        <ele>1844</ele>
        <time>2022-03-27T08:05:14Z</time>
      </trkpt>
      <trkpt lat="42.78576" lon="0.14857">
        <ele>1844</ele>
        <time>2022-03-27T08:05:16Z</time>
      </trkpt>
      <trkpt lat="42.78576" lon="0.14855">
        <ele>1844</ele>
        <time>2022-03-27T08:05:18Z</time>
      </trkpt>
      <trkpt lat="42.78575" lon="0.14852">
        <ele>1844</ele>
        <time>2022-03-27T08:05:20Z</time>
      </trkpt>
      <trkpt lat="42.78575" lon="0.1485">
        <ele>1844</ele>
        <time>2022-03-27T08:05:22Z</time>
      </trkpt>
      <trkpt lat="42.78574" lon="0.14847">
        <ele>1844</ele>
        <time>2022-03-27T08:05:24Z</time>
      </trkpt>
      <trkpt lat="42.78573" lon="0.14845">
        <ele>1844</ele>
        <time>2022-03-27T08:05:26Z</time>
      </trkpt>
      <trkpt lat="42.78573" lon="0.14842">
        <ele>1844</ele>
        <time>2022-03-27T08:05:28Z</time>
      </trkpt>
      <trkpt lat="42.78572" lon="0.1484">
        <ele>1845</ele>
        <time>2022-03-27T08:05:29Z</time>
      </trkpt>
      <trkpt lat="42.78571" lon="0.14838">
        <ele>1845</ele>
        <time>2022-03-27T08:05:32Z</time>
      </trkpt>
      <trkpt lat="42.78571" lon="0.14835">
        <ele>1845</ele>
        <time>2022-03-27T08:05:34Z</time>
      </trkpt>
      <trkpt lat="42.7857" lon="0.14833">
        <ele>1845</ele>
        <time>2022-03-27T08:05:36Z</time>
      </trkpt>
      <trkpt lat="42.78569" lon="0.14831">
        <ele>1845</ele>
        <time>2022-03-27T08:05:38Z</time>
      </trkpt>
      <trkpt lat="42.78568" lon="0.14828">
        <ele>1845</ele>
        <time>2022-03-27T08:05:40Z</time>
      </trkpt>
      <trkpt lat="42.78567" lon="0.14825">
        <ele>1845</ele>
        <time>2022-03-27T08:05:42Z</time>
      </trkpt>
      <trkpt lat="42.78567" lon="0.14823">
        <ele>1845</ele>
        <time>2022-03-27T08:05:44Z</time>
      </trkpt>
      <trkpt lat="42.78566" lon="0.1482">
        <ele>1846</ele>
        <time>2022-03-27T08:05:46Z</time>
      </trkpt>
      <trkpt lat="42.78565" lon="0.14818">
        <ele>1847</ele>
        <time>2022-03-27T08:05:48Z</time>
      </trkpt>
      <trkpt lat="42.78564" lon="0.14815">
        <ele>1847</ele>
        <time>2022-03-27T08:05:50Z</time>
      </trkpt>
      <trkpt lat="42.78564" lon="0.14813">
        <ele>1846</ele>
        <time>2022-03-27T08:05:52Z</time>
      </trkpt>
      <trkpt lat="42.78563" lon="0.1481">
        <ele>1846</ele>
        <time>2022-03-27T08:05:54Z</time>
      </trkpt>
      <trkpt lat="42.78562" lon="0.14808">
        <ele>1847</ele>
        <time>2022-03-27T08:05:56Z</time>
      </trkpt>
      <trkpt lat="42.78561" lon="0.14804">
        <ele>1847</ele>
        <time>2022-03-27T08:05:59Z</time>
      </trkpt>
      <trkpt lat="42.7856" lon="0.14802">
        <ele>1847</ele>
        <time>2022-03-27T08:06:01Z</time>
      </trkpt>
      <trkpt lat="42.7856" lon="0.148">
        <ele>1848</ele>
        <time>2022-03-27T08:06:03Z</time>
      </trkpt>
      <trkpt lat="42.78559" lon="0.14797">
        <ele>1848</ele>
        <time>2022-03-27T08:06:05Z</time>
      </trkpt>
      <trkpt lat="42.78558" lon="0.14795">
        <ele>1848</ele>
        <time>2022-03-27T08:06:07Z</time>
      </trkpt>
      <trkpt lat="42.78557" lon="0.14793">
        <ele>1848</ele>
        <time>2022-03-27T08:06:09Z</time>
      </trkpt>
      <trkpt lat="42.78557" lon="0.1479">
        <ele>1848</ele>
        <time>2022-03-27T08:06:11Z</time>
      </trkpt>
      <trkpt lat="42.78556" lon="0.14787">
        <ele>1848</ele>
        <time>2022-03-27T08:06:14Z</time>
      </trkpt>
      <trkpt lat="42.78555" lon="0.14785">
        <ele>1848</ele>
        <time>2022-03-27T08:06:16Z</time>
      </trkpt>
      <trkpt lat="42.78554" lon="0.14782">
        <ele>1849</ele>
        <time>2022-03-27T08:06:18Z</time>
      </trkpt>
      <trkpt lat="42.78553" lon="0.1478">
        <ele>1849</ele>
        <time>2022-03-27T08:06:20Z</time>
      </trkpt>
      <trkpt lat="42.78552" lon="0.14776">
        <ele>1849</ele>
        <time>2022-03-27T08:06:23Z</time>
      </trkpt>
      <trkpt lat="42.78551" lon="0.14773">
        <ele>1849</ele>
        <time>2022-03-27T08:06:26Z</time>
      </trkpt>
      <trkpt lat="42.78551" lon="0.1477">
        <ele>1849</ele>
        <time>2022-03-27T08:06:28Z</time>
      </trkpt>
      <trkpt lat="42.7855" lon="0.14768">
        <ele>1849</ele>
        <time>2022-03-27T08:06:30Z</time>
      </trkpt>
      <trkpt lat="42.78549" lon="0.14765">
        <ele>1849</ele>
        <time>2022-03-27T08:06:32Z</time>
      </trkpt>
      <trkpt lat="42.78548" lon="0.14763">
        <ele>1850</ele>
        <time>2022-03-27T08:06:34Z</time>
      </trkpt>
      <trkpt lat="42.78548" lon="0.1476">
        <ele>1850</ele>
        <time>2022-03-27T08:06:36Z</time>
      </trkpt>
      <trkpt lat="42.78547" lon="0.14758">
        <ele>1850</ele>
        <time>2022-03-27T08:06:38Z</time>
      </trkpt>
      <trkpt lat="42.78546" lon="0.14755">
        <ele>1850</ele>
        <time>2022-03-27T08:06:41Z</time>
      </trkpt>
      <trkpt lat="42.78545" lon="0.14751">
        <ele>1850</ele>
        <time>2022-03-27T08:06:44Z</time>
      </trkpt>
      <trkpt lat="42.78545" lon="0.14749">
        <ele>1850</ele>
        <time>2022-03-27T08:06:45Z</time>
      </trkpt>
      <trkpt lat="42.78545" lon="0.14746">
        <ele>1850</ele>
        <time>2022-03-27T08:06:48Z</time>
      </trkpt>
      <trkpt lat="42.78544" lon="0.14742">
        <ele>1851</ele>
        <time>2022-03-27T08:06:51Z</time>
      </trkpt>
      <trkpt lat="42.78544" lon="0.1474">
        <ele>1851</ele>
        <time>2022-03-27T08:06:53Z</time>
      </trkpt>
      <trkpt lat="42.78543" lon="0.14737">
        <ele>1851</ele>
        <time>2022-03-27T08:06:55Z</time>
      </trkpt>
      <trkpt lat="42.78543" lon="0.14735">
        <ele>1851</ele>
        <time>2022-03-27T08:06:57Z</time>
      </trkpt>
      <trkpt lat="42.78542" lon="0.14732">
        <ele>1852</ele>
        <time>2022-03-27T08:06:59Z</time>
      </trkpt>
      <trkpt lat="42.78542" lon="0.14729">
        <ele>1851</ele>
        <time>2022-03-27T08:07:01Z</time>
      </trkpt>
      <trkpt lat="42.78541" lon="0.14727">
        <ele>1852</ele>
        <time>2022-03-27T08:07:03Z</time>
      </trkpt>
      <trkpt lat="42.7854" lon="0.14724">
        <ele>1852</ele>
        <time>2022-03-27T08:07:06Z</time>
      </trkpt>
      <trkpt lat="42.78539" lon="0.1472">
        <ele>1852</ele>
        <time>2022-03-27T08:07:09Z</time>
      </trkpt>
      <trkpt lat="42.78538" lon="0.14718">
        <ele>1853</ele>
        <time>2022-03-27T08:07:11Z</time>
      </trkpt>
      <trkpt lat="42.78538" lon="0.14715">
        <ele>1853</ele>
        <time>2022-03-27T08:07:13Z</time>
      </trkpt>
      <trkpt lat="42.78537" lon="0.14713">
        <ele>1853</ele>
        <time>2022-03-27T08:07:15Z</time>
      </trkpt>
      <trkpt lat="42.78537" lon="0.1471">
        <ele>1853</ele>
        <time>2022-03-27T08:07:17Z</time>
      </trkpt>
      <trkpt lat="42.78536" lon="0.14707">
        <ele>1853</ele>
        <time>2022-03-27T08:07:19Z</time>
      </trkpt>
      <trkpt lat="42.78536" lon="0.14705">
        <ele>1853</ele>
        <time>2022-03-27T08:07:21Z</time>
      </trkpt>
      <trkpt lat="42.78535" lon="0.14702">
        <ele>1854</ele>
        <time>2022-03-27T08:07:23Z</time>
      </trkpt>
      <trkpt lat="42.78534" lon="0.147">
        <ele>1854</ele>
        <time>2022-03-27T08:07:25Z</time>
      </trkpt>
      <trkpt lat="42.78534" lon="0.14697">
        <ele>1854</ele>
        <time>2022-03-27T08:07:27Z</time>
      </trkpt>
      <trkpt lat="42.78533" lon="0.14695">
        <ele>1854</ele>
        <time>2022-03-27T08:07:29Z</time>
      </trkpt>
      <trkpt lat="42.78532" lon="0.14692">
        <ele>1854</ele>
        <time>2022-03-27T08:07:31Z</time>
      </trkpt>
      <trkpt lat="42.78532" lon="0.1469">
        <ele>1854</ele>
        <time>2022-03-27T08:07:33Z</time>
      </trkpt>
      <trkpt lat="42.78531" lon="0.14687">
        <ele>1854</ele>
        <time>2022-03-27T08:07:35Z</time>
      </trkpt>
      <trkpt lat="42.7853" lon="0.14684">
        <ele>1854</ele>
        <time>2022-03-27T08:07:37Z</time>
      </trkpt>
      <trkpt lat="42.7853" lon="0.14682">
        <ele>1855</ele>
        <time>2022-03-27T08:07:39Z</time>
      </trkpt>
      <trkpt lat="42.78529" lon="0.14679">
        <ele>1855</ele>
        <time>2022-03-27T08:07:41Z</time>
      </trkpt>
      <trkpt lat="42.78528" lon="0.14676">
        <ele>1855</ele>
        <time>2022-03-27T08:07:44Z</time>
      </trkpt>
      <trkpt lat="42.78527" lon="0.14673">
        <ele>1855</ele>
        <time>2022-03-27T08:07:46Z</time>
      </trkpt>
      <trkpt lat="42.78527" lon="0.1467">
        <ele>1855</ele>
        <time>2022-03-27T08:07:48Z</time>
      </trkpt>
      <trkpt lat="42.78526" lon="0.14668">
        <ele>1855</ele>
        <time>2022-03-27T08:07:50Z</time>
      </trkpt>
      <trkpt lat="42.78526" lon="0.14665">
        <ele>1855</ele>
        <time>2022-03-27T08:07:52Z</time>
      </trkpt>
      <trkpt lat="42.78525" lon="0.14663">
        <ele>1855</ele>
        <time>2022-03-27T08:07:54Z</time>
      </trkpt>
      <trkpt lat="42.78524" lon="0.1466">
        <ele>1855</ele>
        <time>2022-03-27T08:07:56Z</time>
      </trkpt>
      <trkpt lat="42.78524" lon="0.14657">
        <ele>1855</ele>
        <time>2022-03-27T08:07:58Z</time>
      </trkpt>
      <trkpt lat="42.78523" lon="0.14655">
        <ele>1855</ele>
        <time>2022-03-27T08:08:00Z</time>
      </trkpt>
      <trkpt lat="42.78522" lon="0.14652">
        <ele>1855</ele>
        <time>2022-03-27T08:08:01Z</time>
      </trkpt>
      <trkpt lat="42.78522" lon="0.1465">
        <ele>1856</ele>
        <time>2022-03-27T08:08:04Z</time>
      </trkpt>
      <trkpt lat="42.78521" lon="0.14647">
        <ele>1856</ele>
        <time>2022-03-27T08:08:06Z</time>
      </trkpt>
      <trkpt lat="42.7852" lon="0.14645">
        <ele>1856</ele>
        <time>2022-03-27T08:08:08Z</time>
      </trkpt>
      <trkpt lat="42.78519" lon="0.14642">
        <ele>1857</ele>
        <time>2022-03-27T08:08:10Z</time>
      </trkpt>
      <trkpt lat="42.78519" lon="0.1464">
        <ele>1857</ele>
        <time>2022-03-27T08:08:11Z</time>
      </trkpt>
      <trkpt lat="42.78518" lon="0.14637">
        <ele>1856</ele>
        <time>2022-03-27T08:08:14Z</time>
      </trkpt>
      <trkpt lat="42.78517" lon="0.14635">
        <ele>1856</ele>
        <time>2022-03-27T08:08:16Z</time>
      </trkpt>
      <trkpt lat="42.78516" lon="0.14632">
        <ele>1857</ele>
        <time>2022-03-27T08:08:18Z</time>
      </trkpt>
      <trkpt lat="42.78516" lon="0.14629">
        <ele>1857</ele>
        <time>2022-03-27T08:08:20Z</time>
      </trkpt>
      <trkpt lat="42.78515" lon="0.14627">
        <ele>1857</ele>
        <time>2022-03-27T08:08:22Z</time>
      </trkpt>
      <trkpt lat="42.78515" lon="0.14624">
        <ele>1857</ele>
        <time>2022-03-27T08:08:24Z</time>
      </trkpt>
      <trkpt lat="42.78514" lon="0.14622">
        <ele>1857</ele>
        <time>2022-03-27T08:08:26Z</time>
      </trkpt>
      <trkpt lat="42.78513" lon="0.14619">
        <ele>1857</ele>
        <time>2022-03-27T08:08:28Z</time>
      </trkpt>
      <trkpt lat="42.78512" lon="0.14617">
        <ele>1858</ele>
        <time>2022-03-27T08:08:30Z</time>
      </trkpt>
      <trkpt lat="42.78512" lon="0.14614">
        <ele>1858</ele>
        <time>2022-03-27T08:08:32Z</time>
      </trkpt>
      <trkpt lat="42.78511" lon="0.14612">
        <ele>1858</ele>
        <time>2022-03-27T08:08:34Z</time>
      </trkpt>
      <trkpt lat="42.7851" lon="0.14609">
        <ele>1858</ele>
        <time>2022-03-27T08:08:36Z</time>
      </trkpt>
      <trkpt lat="42.78509" lon="0.14607">
        <ele>1858</ele>
        <time>2022-03-27T08:08:38Z</time>
      </trkpt>
      <trkpt lat="42.78508" lon="0.14605">
        <ele>1858</ele>
        <time>2022-03-27T08:08:39Z</time>
      </trkpt>
      <trkpt lat="42.78507" lon="0.14601">
        <ele>1859</ele>
        <time>2022-03-27T08:08:43Z</time>
      </trkpt>
      <trkpt lat="42.78506" lon="0.14599">
        <ele>1859</ele>
        <time>2022-03-27T08:08:45Z</time>
      </trkpt>
      <trkpt lat="42.78505" lon="0.14597">
        <ele>1859</ele>
        <time>2022-03-27T08:08:47Z</time>
      </trkpt>
      <trkpt lat="42.78504" lon="0.14594">
        <ele>1859</ele>
        <time>2022-03-27T08:08:49Z</time>
      </trkpt>
      <trkpt lat="42.78503" lon="0.14592">
        <ele>1859</ele>
        <time>2022-03-27T08:08:51Z</time>
      </trkpt>
      <trkpt lat="42.78503" lon="0.14589">
        <ele>1859</ele>
        <time>2022-03-27T08:08:53Z</time>
      </trkpt>
      <trkpt lat="42.78502" lon="0.14587">
        <ele>1860</ele>
        <time>2022-03-27T08:08:55Z</time>
      </trkpt>
      <trkpt lat="42.78501" lon="0.14584">
        <ele>1860</ele>
        <time>2022-03-27T08:08:57Z</time>
      </trkpt>
      <trkpt lat="42.785" lon="0.14581">
        <ele>1860</ele>
        <time>2022-03-27T08:09:00Z</time>
      </trkpt>
      <trkpt lat="42.78499" lon="0.14578">
        <ele>1860</ele>
        <time>2022-03-27T08:09:03Z</time>
      </trkpt>
      <trkpt lat="42.78498" lon="0.14575">
        <ele>1860</ele>
        <time>2022-03-27T08:09:05Z</time>
      </trkpt>
      <trkpt lat="42.78497" lon="0.14573">
        <ele>1860</ele>
        <time>2022-03-27T08:09:07Z</time>
      </trkpt>
      <trkpt lat="42.78496" lon="0.1457">
        <ele>1860</ele>
        <time>2022-03-27T08:09:10Z</time>
      </trkpt>
      <trkpt lat="42.78495" lon="0.14567">
        <ele>1860</ele>
        <time>2022-03-27T08:09:12Z</time>
      </trkpt>
      <trkpt lat="42.78495" lon="0.14564">
        <ele>1861</ele>
        <time>2022-03-27T08:09:15Z</time>
      </trkpt>
      <trkpt lat="42.78494" lon="0.14561">
        <ele>1861</ele>
        <time>2022-03-27T08:09:17Z</time>
      </trkpt>
      <trkpt lat="42.78493" lon="0.14559">
        <ele>1861</ele>
        <time>2022-03-27T08:09:19Z</time>
      </trkpt>
      <trkpt lat="42.78492" lon="0.14557">
        <ele>1862</ele>
        <time>2022-03-27T08:09:21Z</time>
      </trkpt>
      <trkpt lat="42.78491" lon="0.14554">
        <ele>1863</ele>
        <time>2022-03-27T08:09:23Z</time>
      </trkpt>
      <trkpt lat="42.78491" lon="0.14552">
        <ele>1863</ele>
        <time>2022-03-27T08:09:25Z</time>
      </trkpt>
      <trkpt lat="42.78489" lon="0.14549">
        <ele>1863</ele>
        <time>2022-03-27T08:09:28Z</time>
      </trkpt>
      <trkpt lat="42.78488" lon="0.14547">
        <ele>1863</ele>
        <time>2022-03-27T08:09:30Z</time>
      </trkpt>
      <trkpt lat="42.78488" lon="0.14545">
        <ele>1863</ele>
        <time>2022-03-27T08:09:32Z</time>
      </trkpt>
      <trkpt lat="42.78487" lon="0.14543">
        <ele>1863</ele>
        <time>2022-03-27T08:09:34Z</time>
      </trkpt>
      <trkpt lat="42.78485" lon="0.1454">
        <ele>1864</ele>
        <time>2022-03-27T08:09:36Z</time>
      </trkpt>
      <trkpt lat="42.78484" lon="0.14537">
        <ele>1864</ele>
        <time>2022-03-27T08:09:40Z</time>
      </trkpt>
      <trkpt lat="42.78483" lon="0.14535">
        <ele>1864</ele>
        <time>2022-03-27T08:09:43Z</time>
      </trkpt>
      <trkpt lat="42.78481" lon="0.14534">
        <ele>1865</ele>
        <time>2022-03-27T08:09:46Z</time>
      </trkpt>
      <trkpt lat="42.78479" lon="0.14532">
        <ele>1865</ele>
        <time>2022-03-27T08:09:49Z</time>
      </trkpt>
      <trkpt lat="42.78478" lon="0.1453">
        <ele>1866</ele>
        <time>2022-03-27T08:09:51Z</time>
      </trkpt>
      <trkpt lat="42.78476" lon="0.14527">
        <ele>1866</ele>
        <time>2022-03-27T08:09:54Z</time>
      </trkpt>
      <trkpt lat="42.78474" lon="0.14525">
        <ele>1866</ele>
        <time>2022-03-27T08:09:57Z</time>
      </trkpt>
      <trkpt lat="42.78473" lon="0.14523">
        <ele>1866</ele>
        <time>2022-03-27T08:10:00Z</time>
      </trkpt>
      <trkpt lat="42.78472" lon="0.14521">
        <ele>1867</ele>
        <time>2022-03-27T08:10:02Z</time>
      </trkpt>
      <trkpt lat="42.78471" lon="0.14518">
        <ele>1867</ele>
        <time>2022-03-27T08:10:05Z</time>
      </trkpt>
      <trkpt lat="42.78469" lon="0.14515">
        <ele>1867</ele>
        <time>2022-03-27T08:10:08Z</time>
      </trkpt>
      <trkpt lat="42.78468" lon="0.14512">
        <ele>1867</ele>
        <time>2022-03-27T08:10:11Z</time>
      </trkpt>
      <trkpt lat="42.78467" lon="0.1451">
        <ele>1868</ele>
        <time>2022-03-27T08:10:17Z</time>
      </trkpt>
      <trkpt lat="42.78465" lon="0.14507">
        <ele>1869</ele>
        <time>2022-03-27T08:10:20Z</time>
      </trkpt>
      <trkpt lat="42.78464" lon="0.14504">
        <ele>1869</ele>
        <time>2022-03-27T08:10:23Z</time>
      </trkpt>
      <trkpt lat="42.78463" lon="0.14502">
        <ele>1869</ele>
        <time>2022-03-27T08:10:25Z</time>
      </trkpt>
      <trkpt lat="42.78462" lon="0.145">
        <ele>1869</ele>
        <time>2022-03-27T08:10:27Z</time>
      </trkpt>
      <trkpt lat="42.7846" lon="0.14496">
        <ele>1869</ele>
        <time>2022-03-27T08:10:30Z</time>
      </trkpt>
      <trkpt lat="42.78459" lon="0.14494">
        <ele>1870</ele>
        <time>2022-03-27T08:10:32Z</time>
      </trkpt>
      <trkpt lat="42.78457" lon="0.14492">
        <ele>1870</ele>
        <time>2022-03-27T08:10:35Z</time>
      </trkpt>
      <trkpt lat="42.78456" lon="0.1449">
        <ele>1870</ele>
        <time>2022-03-27T08:10:38Z</time>
      </trkpt>
      <trkpt lat="42.78454" lon="0.14488">
        <ele>1870</ele>
        <time>2022-03-27T08:10:41Z</time>
      </trkpt>
      <trkpt lat="42.78452" lon="0.14486">
        <ele>1871</ele>
        <time>2022-03-27T08:10:44Z</time>
      </trkpt>
      <trkpt lat="42.78451" lon="0.14484">
        <ele>1871</ele>
        <time>2022-03-27T08:10:47Z</time>
      </trkpt>
      <trkpt lat="42.78449" lon="0.14483">
        <ele>1873</ele>
        <time>2022-03-27T08:10:50Z</time>
      </trkpt>
      <trkpt lat="42.78447" lon="0.14481">
        <ele>1873</ele>
        <time>2022-03-27T08:10:54Z</time>
      </trkpt>
      <trkpt lat="42.78446" lon="0.14479">
        <ele>1873</ele>
        <time>2022-03-27T08:10:57Z</time>
      </trkpt>
      <trkpt lat="42.78444" lon="0.14477">
        <ele>1873</ele>
        <time>2022-03-27T08:11:00Z</time>
      </trkpt>
      <trkpt lat="42.78442" lon="0.14476">
        <ele>1874</ele>
        <time>2022-03-27T08:11:03Z</time>
      </trkpt>
      <trkpt lat="42.78441" lon="0.14474">
        <ele>1874</ele>
        <time>2022-03-27T08:11:06Z</time>
      </trkpt>
      <trkpt lat="42.7844" lon="0.14471">
        <ele>1874</ele>
        <time>2022-03-27T08:11:09Z</time>
      </trkpt>
      <trkpt lat="42.78438" lon="0.14468">
        <ele>1875</ele>
        <time>2022-03-27T08:11:11Z</time>
      </trkpt>
      <trkpt lat="42.78437" lon="0.14465">
        <ele>1875</ele>
        <time>2022-03-27T08:11:15Z</time>
      </trkpt>
      <trkpt lat="42.78435" lon="0.14462">
        <ele>1875</ele>
        <time>2022-03-27T08:11:18Z</time>
      </trkpt>
      <trkpt lat="42.78434" lon="0.1446">
        <ele>1875</ele>
        <time>2022-03-27T08:11:21Z</time>
      </trkpt>
      <trkpt lat="42.78433" lon="0.14458">
        <ele>1875</ele>
        <time>2022-03-27T08:11:23Z</time>
      </trkpt>
      <trkpt lat="42.78431" lon="0.14455">
        <ele>1876</ele>
        <time>2022-03-27T08:11:26Z</time>
      </trkpt>
      <trkpt lat="42.7843" lon="0.14453">
        <ele>1876</ele>
        <time>2022-03-27T08:11:28Z</time>
      </trkpt>
      <trkpt lat="42.78429" lon="0.1445">
        <ele>1876</ele>
        <time>2022-03-27T08:11:30Z</time>
      </trkpt>
      <trkpt lat="42.78428" lon="0.14448">
        <ele>1877</ele>
        <time>2022-03-27T08:11:33Z</time>
      </trkpt>
      <trkpt lat="42.78427" lon="0.14446">
        <ele>1878</ele>
        <time>2022-03-27T08:11:35Z</time>
      </trkpt>
      <trkpt lat="42.78425" lon="0.14443">
        <ele>1879</ele>
        <time>2022-03-27T08:11:38Z</time>
      </trkpt>
      <trkpt lat="42.78423" lon="0.14442">
        <ele>1879</ele>
        <time>2022-03-27T08:11:41Z</time>
      </trkpt>
      <trkpt lat="42.78422" lon="0.14439">
        <ele>1879</ele>
        <time>2022-03-27T08:11:44Z</time>
      </trkpt>
      <trkpt lat="42.78421" lon="0.14436">
        <ele>1879</ele>
        <time>2022-03-27T08:11:47Z</time>
      </trkpt>
      <trkpt lat="42.7842" lon="0.14434">
        <ele>1879</ele>
        <time>2022-03-27T08:11:49Z</time>
      </trkpt>
      <trkpt lat="42.78419" lon="0.14431">
        <ele>1879</ele>
        <time>2022-03-27T08:11:52Z</time>
      </trkpt>
      <trkpt lat="42.78417" lon="0.14431">
        <ele>1880</ele>
        <time>2022-03-27T08:11:55Z</time>
      </trkpt>
      <trkpt lat="42.78415" lon="0.14429">
        <ele>1881</ele>
        <time>2022-03-27T08:11:58Z</time>
      </trkpt>
      <trkpt lat="42.78413" lon="0.14427">
        <ele>1881</ele>
        <time>2022-03-27T08:12:01Z</time>
      </trkpt>
      <trkpt lat="42.78412" lon="0.14424">
        <ele>1881</ele>
        <time>2022-03-27T08:12:03Z</time>
      </trkpt>
      <trkpt lat="42.78411" lon="0.14422">
        <ele>1882</ele>
        <time>2022-03-27T08:12:05Z</time>
      </trkpt>
      <trkpt lat="42.7841" lon="0.14419">
        <ele>1882</ele>
        <time>2022-03-27T08:12:07Z</time>
      </trkpt>
      <trkpt lat="42.78409" lon="0.14417">
        <ele>1882</ele>
        <time>2022-03-27T08:12:08Z</time>
      </trkpt>
      <trkpt lat="42.78408" lon="0.14415">
        <ele>1882</ele>
        <time>2022-03-27T08:12:11Z</time>
      </trkpt>
      <trkpt lat="42.78407" lon="0.14413">
        <ele>1882</ele>
        <time>2022-03-27T08:12:13Z</time>
      </trkpt>
      <trkpt lat="42.78405" lon="0.14411">
        <ele>1882</ele>
        <time>2022-03-27T08:12:15Z</time>
      </trkpt>
      <trkpt lat="42.78404" lon="0.14409">
        <ele>1882</ele>
        <time>2022-03-27T08:12:17Z</time>
      </trkpt>
      <trkpt lat="42.78403" lon="0.14407">
        <ele>1883</ele>
        <time>2022-03-27T08:12:19Z</time>
      </trkpt>
      <trkpt lat="42.78401" lon="0.14404">
        <ele>1883</ele>
        <time>2022-03-27T08:12:22Z</time>
      </trkpt>
      <trkpt lat="42.784" lon="0.14402">
        <ele>1883</ele>
        <time>2022-03-27T08:12:24Z</time>
      </trkpt>
      <trkpt lat="42.78399" lon="0.144">
        <ele>1883</ele>
        <time>2022-03-27T08:12:26Z</time>
      </trkpt>
      <trkpt lat="42.78397" lon="0.14398">
        <ele>1883</ele>
        <time>2022-03-27T08:12:27Z</time>
      </trkpt>
      <trkpt lat="42.78396" lon="0.14396">
        <ele>1883</ele>
        <time>2022-03-27T08:12:30Z</time>
      </trkpt>
      <trkpt lat="42.78395" lon="0.14394">
        <ele>1883</ele>
        <time>2022-03-27T08:12:32Z</time>
      </trkpt>
      <trkpt lat="42.78393" lon="0.14392">
        <ele>1884</ele>
        <time>2022-03-27T08:12:34Z</time>
      </trkpt>
      <trkpt lat="42.78392" lon="0.1439">
        <ele>1884</ele>
        <time>2022-03-27T08:12:36Z</time>
      </trkpt>
      <trkpt lat="42.78391" lon="0.14388">
        <ele>1884</ele>
        <time>2022-03-27T08:12:38Z</time>
      </trkpt>
      <trkpt lat="42.78389" lon="0.14386">
        <ele>1884</ele>
        <time>2022-03-27T08:12:40Z</time>
      </trkpt>
      <trkpt lat="42.78388" lon="0.14384">
        <ele>1884</ele>
        <time>2022-03-27T08:12:42Z</time>
      </trkpt>
      <trkpt lat="42.78387" lon="0.14382">
        <ele>1884</ele>
        <time>2022-03-27T08:12:44Z</time>
      </trkpt>
      <trkpt lat="42.78385" lon="0.14379">
        <ele>1884</ele>
        <time>2022-03-27T08:12:46Z</time>
      </trkpt>
      <trkpt lat="42.78384" lon="0.14377">
        <ele>1885</ele>
        <time>2022-03-27T08:12:49Z</time>
      </trkpt>
      <trkpt lat="42.78382" lon="0.14375">
        <ele>1885</ele>
        <time>2022-03-27T08:12:51Z</time>
      </trkpt>
      <trkpt lat="42.78381" lon="0.14372">
        <ele>1885</ele>
        <time>2022-03-27T08:12:53Z</time>
      </trkpt>
      <trkpt lat="42.7838" lon="0.1437">
        <ele>1885</ele>
        <time>2022-03-27T08:12:55Z</time>
      </trkpt>
      <trkpt lat="42.78378" lon="0.14368">
        <ele>1885</ele>
        <time>2022-03-27T08:12:57Z</time>
      </trkpt>
      <trkpt lat="42.78377" lon="0.14365">
        <ele>1885</ele>
        <time>2022-03-27T08:12:59Z</time>
      </trkpt>
      <trkpt lat="42.78376" lon="0.14363">
        <ele>1885</ele>
        <time>2022-03-27T08:13:01Z</time>
      </trkpt>
      <trkpt lat="42.78374" lon="0.1436">
        <ele>1885</ele>
        <time>2022-03-27T08:13:03Z</time>
      </trkpt>
      <trkpt lat="42.78373" lon="0.14358">
        <ele>1885</ele>
        <time>2022-03-27T08:13:05Z</time>
      </trkpt>
      <trkpt lat="42.78372" lon="0.14356">
        <ele>1886</ele>
        <time>2022-03-27T08:13:07Z</time>
      </trkpt>
      <trkpt lat="42.7837" lon="0.14353">
        <ele>1886</ele>
        <time>2022-03-27T08:13:09Z</time>
      </trkpt>
      <trkpt lat="42.78369" lon="0.14351">
        <ele>1887</ele>
        <time>2022-03-27T08:13:11Z</time>
      </trkpt>
      <trkpt lat="42.78368" lon="0.14348">
        <ele>1887</ele>
        <time>2022-03-27T08:13:13Z</time>
      </trkpt>
      <trkpt lat="42.78367" lon="0.14346">
        <ele>1887</ele>
        <time>2022-03-27T08:13:15Z</time>
      </trkpt>
      <trkpt lat="42.78366" lon="0.14344">
        <ele>1887</ele>
        <time>2022-03-27T08:13:17Z</time>
      </trkpt>
      <trkpt lat="42.78365" lon="0.14341">
        <ele>1887</ele>
        <time>2022-03-27T08:13:19Z</time>
      </trkpt>
      <trkpt lat="42.78364" lon="0.14339">
        <ele>1888</ele>
        <time>2022-03-27T08:13:21Z</time>
      </trkpt>
      <trkpt lat="42.78363" lon="0.14337">
        <ele>1888</ele>
        <time>2022-03-27T08:13:23Z</time>
      </trkpt>
      <trkpt lat="42.78362" lon="0.14334">
        <ele>1888</ele>
        <time>2022-03-27T08:13:24Z</time>
      </trkpt>
      <trkpt lat="42.78361" lon="0.14331">
        <ele>1888</ele>
        <time>2022-03-27T08:13:27Z</time>
      </trkpt>
      <trkpt lat="42.7836" lon="0.14328">
        <ele>1889</ele>
        <time>2022-03-27T08:13:29Z</time>
      </trkpt>
      <trkpt lat="42.78359" lon="0.14326">
        <ele>1889</ele>
        <time>2022-03-27T08:13:31Z</time>
      </trkpt>
      <trkpt lat="42.78358" lon="0.14323">
        <ele>1889</ele>
        <time>2022-03-27T08:13:33Z</time>
      </trkpt>
      <trkpt lat="42.78358" lon="0.1432">
        <ele>1890</ele>
        <time>2022-03-27T08:13:35Z</time>
      </trkpt>
      <trkpt lat="42.78357" lon="0.14318">
        <ele>1890</ele>
        <time>2022-03-27T08:13:37Z</time>
      </trkpt>
      <trkpt lat="42.78356" lon="0.14315">
        <ele>1890</ele>
        <time>2022-03-27T08:13:39Z</time>
      </trkpt>
      <trkpt lat="42.78355" lon="0.14312">
        <ele>1890</ele>
        <time>2022-03-27T08:13:41Z</time>
      </trkpt>
      <trkpt lat="42.78354" lon="0.1431">
        <ele>1890</ele>
        <time>2022-03-27T08:13:43Z</time>
      </trkpt>
      <trkpt lat="42.78353" lon="0.14307">
        <ele>1890</ele>
        <time>2022-03-27T08:13:45Z</time>
      </trkpt>
      <trkpt lat="42.78353" lon="0.14304">
        <ele>1891</ele>
        <time>2022-03-27T08:13:47Z</time>
      </trkpt>
      <trkpt lat="42.78352" lon="0.14302">
        <ele>1892</ele>
        <time>2022-03-27T08:13:49Z</time>
      </trkpt>
      <trkpt lat="42.78351" lon="0.143">
        <ele>1893</ele>
        <time>2022-03-27T08:13:51Z</time>
      </trkpt>
      <trkpt lat="42.7835" lon="0.14297">
        <ele>1893</ele>
        <time>2022-03-27T08:13:54Z</time>
      </trkpt>
      <trkpt lat="42.78348" lon="0.14294">
        <ele>1893</ele>
        <time>2022-03-27T08:13:57Z</time>
      </trkpt>
      <trkpt lat="42.78347" lon="0.1429">
        <ele>1894</ele>
        <time>2022-03-27T08:14:00Z</time>
      </trkpt>
      <trkpt lat="42.78346" lon="0.14288">
        <ele>1894</ele>
        <time>2022-03-27T08:14:02Z</time>
      </trkpt>
      <trkpt lat="42.78345" lon="0.14286">
        <ele>1894</ele>
        <time>2022-03-27T08:14:04Z</time>
      </trkpt>
      <trkpt lat="42.78344" lon="0.14283">
        <ele>1895</ele>
        <time>2022-03-27T08:14:07Z</time>
      </trkpt>
      <trkpt lat="42.78343" lon="0.14281">
        <ele>1895</ele>
        <time>2022-03-27T08:14:09Z</time>
      </trkpt>
      <trkpt lat="42.78341" lon="0.14278">
        <ele>1895</ele>
        <time>2022-03-27T08:14:12Z</time>
      </trkpt>
      <trkpt lat="42.78341" lon="0.14275">
        <ele>1896</ele>
        <time>2022-03-27T08:14:15Z</time>
      </trkpt>
      <trkpt lat="42.78341" lon="0.14272">
        <ele>1896</ele>
        <time>2022-03-27T08:14:19Z</time>
      </trkpt>
      <trkpt lat="42.78341" lon="0.14269">
        <ele>1896</ele>
        <time>2022-03-27T08:14:21Z</time>
      </trkpt>
      <trkpt lat="42.78341" lon="0.14266">
        <ele>1896</ele>
        <time>2022-03-27T08:14:24Z</time>
      </trkpt>
      <trkpt lat="42.7834" lon="0.14264">
        <ele>1896</ele>
        <time>2022-03-27T08:14:26Z</time>
      </trkpt>
      <trkpt lat="42.78339" lon="0.1426">
        <ele>1896</ele>
        <time>2022-03-27T08:14:29Z</time>
      </trkpt>
      <trkpt lat="42.78338" lon="0.14257">
        <ele>1895</ele>
        <time>2022-03-27T08:14:31Z</time>
      </trkpt>
      <trkpt lat="42.78337" lon="0.14253">
        <ele>1894</ele>
        <time>2022-03-27T08:14:33Z</time>
      </trkpt>
      <trkpt lat="42.78336" lon="0.14248">
        <ele>1892</ele>
        <time>2022-03-27T08:14:35Z</time>
      </trkpt>
      <trkpt lat="42.78335" lon="0.14245">
        <ele>1892</ele>
        <time>2022-03-27T08:14:37Z</time>
      </trkpt>
      <trkpt lat="42.78333" lon="0.14242">
        <ele>1891</ele>
        <time>2022-03-27T08:14:40Z</time>
      </trkpt>
      <trkpt lat="42.78332" lon="0.14239">
        <ele>1891</ele>
        <time>2022-03-27T08:14:42Z</time>
      </trkpt>
      <trkpt lat="42.78331" lon="0.14236">
        <ele>1891</ele>
        <time>2022-03-27T08:14:44Z</time>
      </trkpt>
      <trkpt lat="42.7833" lon="0.14232">
        <ele>1890</ele>
        <time>2022-03-27T08:14:46Z</time>
      </trkpt>
      <trkpt lat="42.78328" lon="0.14228">
        <ele>1890</ele>
        <time>2022-03-27T08:14:48Z</time>
      </trkpt>
      <trkpt lat="42.78327" lon="0.14224">
        <ele>1890</ele>
        <time>2022-03-27T08:14:50Z</time>
      </trkpt>
      <trkpt lat="42.78326" lon="0.14222">
        <ele>1890</ele>
        <time>2022-03-27T08:14:51Z</time>
      </trkpt>
      <trkpt lat="42.78325" lon="0.14218">
        <ele>1890</ele>
        <time>2022-03-27T08:14:53Z</time>
      </trkpt>
      <trkpt lat="42.78324" lon="0.14215">
        <ele>1889</ele>
        <time>2022-03-27T08:14:55Z</time>
      </trkpt>
      <trkpt lat="42.78323" lon="0.14212">
        <ele>1889</ele>
        <time>2022-03-27T08:14:57Z</time>
      </trkpt>
      <trkpt lat="42.78321" lon="0.14209">
        <ele>1889</ele>
        <time>2022-03-27T08:14:59Z</time>
      </trkpt>
      <trkpt lat="42.78321" lon="0.14206">
        <ele>1889</ele>
        <time>2022-03-27T08:15:00Z</time>
      </trkpt>
      <trkpt lat="42.7832" lon="0.14204">
        <ele>1887</ele>
        <time>2022-03-27T08:15:03Z</time>
      </trkpt>
      <trkpt lat="42.78319" lon="0.14201">
        <ele>1887</ele>
        <time>2022-03-27T08:15:05Z</time>
      </trkpt>
      <trkpt lat="42.78318" lon="0.14198">
        <ele>1887</ele>
        <time>2022-03-27T08:15:06Z</time>
      </trkpt>
      <trkpt lat="42.78316" lon="0.14194">
        <ele>1886</ele>
        <time>2022-03-27T08:15:09Z</time>
      </trkpt>
      <trkpt lat="42.78315" lon="0.14192">
        <ele>1886</ele>
        <time>2022-03-27T08:15:10Z</time>
      </trkpt>
      <trkpt lat="42.78314" lon="0.14188">
        <ele>1886</ele>
        <time>2022-03-27T08:15:12Z</time>
      </trkpt>
      <trkpt lat="42.78313" lon="0.14185">
        <ele>1886</ele>
        <time>2022-03-27T08:15:14Z</time>
      </trkpt>
      <trkpt lat="42.78311" lon="0.14181">
        <ele>1886</ele>
        <time>2022-03-27T08:15:16Z</time>
      </trkpt>
      <trkpt lat="42.7831" lon="0.14178">
        <ele>1886</ele>
        <time>2022-03-27T08:15:18Z</time>
      </trkpt>
      <trkpt lat="42.7831" lon="0.14174">
        <ele>1885</ele>
        <time>2022-03-27T08:15:20Z</time>
      </trkpt>
      <trkpt lat="42.78309" lon="0.14171">
        <ele>1885</ele>
        <time>2022-03-27T08:15:22Z</time>
      </trkpt>
      <trkpt lat="42.78308" lon="0.14168">
        <ele>1885</ele>
        <time>2022-03-27T08:15:25Z</time>
      </trkpt>
      <trkpt lat="42.78307" lon="0.14164">
        <ele>1885</ele>
        <time>2022-03-27T08:15:27Z</time>
      </trkpt>
      <trkpt lat="42.78306" lon="0.14161">
        <ele>1884</ele>
        <time>2022-03-27T08:15:29Z</time>
      </trkpt>
      <trkpt lat="42.78304" lon="0.14158">
        <ele>1884</ele>
        <time>2022-03-27T08:15:31Z</time>
      </trkpt>
      <trkpt lat="42.78303" lon="0.14155">
        <ele>1884</ele>
        <time>2022-03-27T08:15:33Z</time>
      </trkpt>
      <trkpt lat="42.78303" lon="0.14152">
        <ele>1884</ele>
        <time>2022-03-27T08:15:35Z</time>
      </trkpt>
      <trkpt lat="42.78302" lon="0.14148">
        <ele>1884</ele>
        <time>2022-03-27T08:15:37Z</time>
      </trkpt>
      <trkpt lat="42.783" lon="0.14145">
        <ele>1883</ele>
        <time>2022-03-27T08:15:39Z</time>
      </trkpt>
      <trkpt lat="42.78299" lon="0.14143">
        <ele>1883</ele>
        <time>2022-03-27T08:15:41Z</time>
      </trkpt>
      <trkpt lat="42.78299" lon="0.14141">
        <ele>1883</ele>
        <time>2022-03-27T08:16:02Z</time>
      </trkpt>
      <trkpt lat="42.783" lon="0.14143">
        <ele>1881</ele>
        <time>2022-03-27T08:17:10Z</time>
      </trkpt>
      <trkpt lat="42.783" lon="0.14141">
        <ele>1882</ele>
        <time>2022-03-27T08:18:40Z</time>
      </trkpt>
      <trkpt lat="42.783" lon="0.14138">
        <ele>1880</ele>
        <time>2022-03-27T08:19:19Z</time>
      </trkpt>
      <trkpt lat="42.78301" lon="0.14136">
        <ele>1880</ele>
        <time>2022-03-27T08:19:21Z</time>
      </trkpt>
      <trkpt lat="42.78302" lon="0.14133">
        <ele>1880</ele>
        <time>2022-03-27T08:19:23Z</time>
      </trkpt>
      <trkpt lat="42.78304" lon="0.1413">
        <ele>1880</ele>
        <time>2022-03-27T08:19:25Z</time>
      </trkpt>
      <trkpt lat="42.78304" lon="0.14127">
        <ele>1880</ele>
        <time>2022-03-27T08:19:27Z</time>
      </trkpt>
      <trkpt lat="42.78304" lon="0.14124">
        <ele>1881</ele>
        <time>2022-03-27T08:19:29Z</time>
      </trkpt>
      <trkpt lat="42.78302" lon="0.14121">
        <ele>1882</ele>
        <time>2022-03-27T08:19:32Z</time>
      </trkpt>
      <trkpt lat="42.78301" lon="0.14119">
        <ele>1882</ele>
        <time>2022-03-27T08:19:34Z</time>
      </trkpt>
      <trkpt lat="42.78299" lon="0.14116">
        <ele>1881</ele>
        <time>2022-03-27T08:19:36Z</time>
      </trkpt>
      <trkpt lat="42.78297" lon="0.14114">
        <ele>1881</ele>
        <time>2022-03-27T08:19:38Z</time>
      </trkpt>
      <trkpt lat="42.78296" lon="0.1411">
        <ele>1881</ele>
        <time>2022-03-27T08:19:40Z</time>
      </trkpt>
      <trkpt lat="42.78294" lon="0.14108">
        <ele>1881</ele>
        <time>2022-03-27T08:19:42Z</time>
      </trkpt>
      <trkpt lat="42.78293" lon="0.14105">
        <ele>1882</ele>
        <time>2022-03-27T08:19:44Z</time>
      </trkpt>
      <trkpt lat="42.78291" lon="0.14103">
        <ele>1882</ele>
        <time>2022-03-27T08:19:46Z</time>
      </trkpt>
      <trkpt lat="42.78289" lon="0.14101">
        <ele>1882</ele>
        <time>2022-03-27T08:19:48Z</time>
      </trkpt>
      <trkpt lat="42.78287" lon="0.14099">
        <ele>1882</ele>
        <time>2022-03-27T08:19:50Z</time>
      </trkpt>
      <trkpt lat="42.78285" lon="0.14097">
        <ele>1882</ele>
        <time>2022-03-27T08:19:52Z</time>
      </trkpt>
      <trkpt lat="42.78283" lon="0.14096">
        <ele>1882</ele>
        <time>2022-03-27T08:19:54Z</time>
      </trkpt>
      <trkpt lat="42.78282" lon="0.14094">
        <ele>1882</ele>
        <time>2022-03-27T08:19:56Z</time>
      </trkpt>
      <trkpt lat="42.7828" lon="0.14092">
        <ele>1883</ele>
        <time>2022-03-27T08:19:58Z</time>
      </trkpt>
      <trkpt lat="42.78278" lon="0.14091">
        <ele>1883</ele>
        <time>2022-03-27T08:20:00Z</time>
      </trkpt>
      <trkpt lat="42.78276" lon="0.14089">
        <ele>1883</ele>
        <time>2022-03-27T08:20:11Z</time>
      </trkpt>
      <trkpt lat="42.78274" lon="0.14088">
        <ele>1883</ele>
        <time>2022-03-27T08:20:13Z</time>
      </trkpt>
      <trkpt lat="42.78272" lon="0.14087">
        <ele>1883</ele>
        <time>2022-03-27T08:20:15Z</time>
      </trkpt>
      <trkpt lat="42.78271" lon="0.14085">
        <ele>1883</ele>
        <time>2022-03-27T08:20:17Z</time>
      </trkpt>
      <trkpt lat="42.78269" lon="0.14084">
        <ele>1884</ele>
        <time>2022-03-27T08:20:19Z</time>
      </trkpt>
      <trkpt lat="42.78267" lon="0.14082">
        <ele>1884</ele>
        <time>2022-03-27T08:20:22Z</time>
      </trkpt>
      <trkpt lat="42.78265" lon="0.14081">
        <ele>1884</ele>
        <time>2022-03-27T08:20:25Z</time>
      </trkpt>
      <trkpt lat="42.78264" lon="0.1408">
        <ele>1884</ele>
        <time>2022-03-27T08:20:27Z</time>
      </trkpt>
      <trkpt lat="42.78262" lon="0.14079">
        <ele>1884</ele>
        <time>2022-03-27T08:20:29Z</time>
      </trkpt>
      <trkpt lat="42.7826" lon="0.14077">
        <ele>1884</ele>
        <time>2022-03-27T08:20:32Z</time>
      </trkpt>
      <trkpt lat="42.78258" lon="0.14075">
        <ele>1884</ele>
        <time>2022-03-27T08:20:35Z</time>
      </trkpt>
      <trkpt lat="42.78257" lon="0.14073">
        <ele>1885</ele>
        <time>2022-03-27T08:20:38Z</time>
      </trkpt>
      <trkpt lat="42.78255" lon="0.14072">
        <ele>1885</ele>
        <time>2022-03-27T08:20:40Z</time>
      </trkpt>
      <trkpt lat="42.78253" lon="0.1407">
        <ele>1885</ele>
        <time>2022-03-27T08:20:41Z</time>
      </trkpt>
      <trkpt lat="42.78251" lon="0.14069">
        <ele>1885</ele>
        <time>2022-03-27T08:20:44Z</time>
      </trkpt>
      <trkpt lat="42.78249" lon="0.14067">
        <ele>1885</ele>
        <time>2022-03-27T08:20:47Z</time>
      </trkpt>
      <trkpt lat="42.78248" lon="0.14065">
        <ele>1885</ele>
        <time>2022-03-27T08:20:49Z</time>
      </trkpt>
      <trkpt lat="42.78249" lon="0.14063">
        <ele>1884</ele>
        <time>2022-03-27T08:25:32Z</time>
      </trkpt>
      <trkpt lat="42.78248" lon="0.1406">
        <ele>1884</ele>
        <time>2022-03-27T08:26:00Z</time>
      </trkpt>
      <trkpt lat="42.78246" lon="0.14059">
        <ele>1884</ele>
        <time>2022-03-27T08:26:02Z</time>
      </trkpt>
      <trkpt lat="42.78244" lon="0.14056">
        <ele>1884</ele>
        <time>2022-03-27T08:26:04Z</time>
      </trkpt>
      <trkpt lat="42.78241" lon="0.14054">
        <ele>1884</ele>
        <time>2022-03-27T08:26:06Z</time>
      </trkpt>
      <trkpt lat="42.78239" lon="0.14051">
        <ele>1884</ele>
        <time>2022-03-27T08:26:08Z</time>
      </trkpt>
      <trkpt lat="42.78238" lon="0.14049">
        <ele>1884</ele>
        <time>2022-03-27T08:26:10Z</time>
      </trkpt>
      <trkpt lat="42.78236" lon="0.14046">
        <ele>1884</ele>
        <time>2022-03-27T08:26:12Z</time>
      </trkpt>
      <trkpt lat="42.78234" lon="0.14045">
        <ele>1885</ele>
        <time>2022-03-27T08:26:14Z</time>
      </trkpt>
      <trkpt lat="42.78232" lon="0.14042">
        <ele>1885</ele>
        <time>2022-03-27T08:26:16Z</time>
      </trkpt>
      <trkpt lat="42.7823" lon="0.1404">
        <ele>1885</ele>
        <time>2022-03-27T08:26:18Z</time>
      </trkpt>
      <trkpt lat="42.78228" lon="0.14039">
        <ele>1885</ele>
        <time>2022-03-27T08:26:20Z</time>
      </trkpt>
      <trkpt lat="42.78227" lon="0.14037">
        <ele>1885</ele>
        <time>2022-03-27T08:26:22Z</time>
      </trkpt>
      <trkpt lat="42.78229" lon="0.14036">
        <ele>1885</ele>
        <time>2022-03-27T08:26:39Z</time>
      </trkpt>
      <trkpt lat="42.78227" lon="0.14034">
        <ele>1886</ele>
        <time>2022-03-27T08:27:23Z</time>
      </trkpt>
      <trkpt lat="42.78226" lon="0.14031">
        <ele>1886</ele>
        <time>2022-03-27T08:27:25Z</time>
      </trkpt>
      <trkpt lat="42.78224" lon="0.14029">
        <ele>1886</ele>
        <time>2022-03-27T08:27:27Z</time>
      </trkpt>
      <trkpt lat="42.78222" lon="0.14026">
        <ele>1886</ele>
        <time>2022-03-27T08:27:29Z</time>
      </trkpt>
      <trkpt lat="42.7822" lon="0.14024">
        <ele>1886</ele>
        <time>2022-03-27T08:27:31Z</time>
      </trkpt>
      <trkpt lat="42.78218" lon="0.14021">
        <ele>1886</ele>
        <time>2022-03-27T08:27:33Z</time>
      </trkpt>
      <trkpt lat="42.78217" lon="0.14019">
        <ele>1886</ele>
        <time>2022-03-27T08:27:35Z</time>
      </trkpt>
      <trkpt lat="42.78215" lon="0.14016">
        <ele>1886</ele>
        <time>2022-03-27T08:27:37Z</time>
      </trkpt>
      <trkpt lat="42.78214" lon="0.14014">
        <ele>1886</ele>
        <time>2022-03-27T08:27:39Z</time>
      </trkpt>
      <trkpt lat="42.78212" lon="0.14013">
        <ele>1886</ele>
        <time>2022-03-27T08:27:41Z</time>
      </trkpt>
      <trkpt lat="42.78211" lon="0.1401">
        <ele>1886</ele>
        <time>2022-03-27T08:27:43Z</time>
      </trkpt>
      <trkpt lat="42.78209" lon="0.14009">
        <ele>1886</ele>
        <time>2022-03-27T08:27:45Z</time>
      </trkpt>
      <trkpt lat="42.78207" lon="0.14006">
        <ele>1886</ele>
        <time>2022-03-27T08:27:47Z</time>
      </trkpt>
      <trkpt lat="42.78205" lon="0.14003">
        <ele>1886</ele>
        <time>2022-03-27T08:27:49Z</time>
      </trkpt>
      <trkpt lat="42.78203" lon="0.14001">
        <ele>1886</ele>
        <time>2022-03-27T08:27:51Z</time>
      </trkpt>
      <trkpt lat="42.782" lon="0.13998">
        <ele>1886</ele>
        <time>2022-03-27T08:27:53Z</time>
      </trkpt>
      <trkpt lat="42.78198" lon="0.13995">
        <ele>1886</ele>
        <time>2022-03-27T08:27:55Z</time>
      </trkpt>
      <trkpt lat="42.78196" lon="0.13993">
        <ele>1887</ele>
        <time>2022-03-27T08:27:57Z</time>
      </trkpt>
      <trkpt lat="42.78194" lon="0.13991">
        <ele>1887</ele>
        <time>2022-03-27T08:27:58Z</time>
      </trkpt>
      <trkpt lat="42.78192" lon="0.13989">
        <ele>1887</ele>
        <time>2022-03-27T08:28:01Z</time>
      </trkpt>
      <trkpt lat="42.7819" lon="0.13987">
        <ele>1886</ele>
        <time>2022-03-27T08:28:03Z</time>
      </trkpt>
      <trkpt lat="42.78188" lon="0.13985">
        <ele>1886</ele>
        <time>2022-03-27T08:28:05Z</time>
      </trkpt>
      <trkpt lat="42.78186" lon="0.13983">
        <ele>1886</ele>
        <time>2022-03-27T08:28:07Z</time>
      </trkpt>
      <trkpt lat="42.78183" lon="0.1398">
        <ele>1886</ele>
        <time>2022-03-27T08:28:09Z</time>
      </trkpt>
      <trkpt lat="42.78181" lon="0.13978">
        <ele>1886</ele>
        <time>2022-03-27T08:28:11Z</time>
      </trkpt>
      <trkpt lat="42.7818" lon="0.13976">
        <ele>1886</ele>
        <time>2022-03-27T08:28:13Z</time>
      </trkpt>
      <trkpt lat="42.78178" lon="0.13974">
        <ele>1886</ele>
        <time>2022-03-27T08:28:15Z</time>
      </trkpt>
      <trkpt lat="42.78176" lon="0.13971">
        <ele>1886</ele>
        <time>2022-03-27T08:28:17Z</time>
      </trkpt>
      <trkpt lat="42.78174" lon="0.13969">
        <ele>1886</ele>
        <time>2022-03-27T08:28:19Z</time>
      </trkpt>
      <trkpt lat="42.78172" lon="0.13967">
        <ele>1886</ele>
        <time>2022-03-27T08:28:21Z</time>
      </trkpt>
      <trkpt lat="42.78171" lon="0.13965">
        <ele>1886</ele>
        <time>2022-03-27T08:28:23Z</time>
      </trkpt>
      <trkpt lat="42.78169" lon="0.13963">
        <ele>1886</ele>
        <time>2022-03-27T08:28:25Z</time>
      </trkpt>
      <trkpt lat="42.78167" lon="0.1396">
        <ele>1886</ele>
        <time>2022-03-27T08:28:27Z</time>
      </trkpt>
      <trkpt lat="42.78166" lon="0.13958">
        <ele>1887</ele>
        <time>2022-03-27T08:28:29Z</time>
      </trkpt>
      <trkpt lat="42.78164" lon="0.13956">
        <ele>1887</ele>
        <time>2022-03-27T08:28:31Z</time>
      </trkpt>
      <trkpt lat="42.78162" lon="0.13953">
        <ele>1887</ele>
        <time>2022-03-27T08:28:33Z</time>
      </trkpt>
      <trkpt lat="42.7816" lon="0.13951">
        <ele>1887</ele>
        <time>2022-03-27T08:28:35Z</time>
      </trkpt>
      <trkpt lat="42.78159" lon="0.13949">
        <ele>1887</ele>
        <time>2022-03-27T08:28:36Z</time>
      </trkpt>
      <trkpt lat="42.78157" lon="0.13946">
        <ele>1886</ele>
        <time>2022-03-27T08:28:39Z</time>
      </trkpt>
      <trkpt lat="42.78155" lon="0.13944">
        <ele>1886</ele>
        <time>2022-03-27T08:28:41Z</time>
      </trkpt>
      <trkpt lat="42.78153" lon="0.13941">
        <ele>1887</ele>
        <time>2022-03-27T08:28:43Z</time>
      </trkpt>
      <trkpt lat="42.78151" lon="0.13938">
        <ele>1887</ele>
        <time>2022-03-27T08:28:45Z</time>
      </trkpt>
      <trkpt lat="42.7815" lon="0.13935">
        <ele>1887</ele>
        <time>2022-03-27T08:28:47Z</time>
      </trkpt>
      <trkpt lat="42.78148" lon="0.13932">
        <ele>1887</ele>
        <time>2022-03-27T08:28:49Z</time>
      </trkpt>
      <trkpt lat="42.78145" lon="0.1393">
        <ele>1887</ele>
        <time>2022-03-27T08:28:51Z</time>
      </trkpt>
      <trkpt lat="42.78143" lon="0.13927">
        <ele>1887</ele>
        <time>2022-03-27T08:28:53Z</time>
      </trkpt>
      <trkpt lat="42.78142" lon="0.13924">
        <ele>1887</ele>
        <time>2022-03-27T08:28:55Z</time>
      </trkpt>
      <trkpt lat="42.7814" lon="0.13921">
        <ele>1887</ele>
        <time>2022-03-27T08:28:57Z</time>
      </trkpt>
      <trkpt lat="42.78138" lon="0.13918">
        <ele>1887</ele>
        <time>2022-03-27T08:28:59Z</time>
      </trkpt>
      <trkpt lat="42.78137" lon="0.13916">
        <ele>1887</ele>
        <time>2022-03-27T08:29:01Z</time>
      </trkpt>
      <trkpt lat="42.78135" lon="0.13913">
        <ele>1887</ele>
        <time>2022-03-27T08:29:03Z</time>
      </trkpt>
      <trkpt lat="42.78134" lon="0.1391">
        <ele>1887</ele>
        <time>2022-03-27T08:29:05Z</time>
      </trkpt>
      <trkpt lat="42.78132" lon="0.13907">
        <ele>1887</ele>
        <time>2022-03-27T08:29:07Z</time>
      </trkpt>
      <trkpt lat="42.7813" lon="0.13904">
        <ele>1887</ele>
        <time>2022-03-27T08:29:09Z</time>
      </trkpt>
      <trkpt lat="42.78128" lon="0.13902">
        <ele>1887</ele>
        <time>2022-03-27T08:29:11Z</time>
      </trkpt>
      <trkpt lat="42.78127" lon="0.13899">
        <ele>1887</ele>
        <time>2022-03-27T08:29:13Z</time>
      </trkpt>
      <trkpt lat="42.78125" lon="0.13896">
        <ele>1887</ele>
        <time>2022-03-27T08:29:14Z</time>
      </trkpt>
      <trkpt lat="42.78123" lon="0.13894">
        <ele>1887</ele>
        <time>2022-03-27T08:29:17Z</time>
      </trkpt>
      <trkpt lat="42.78121" lon="0.13891">
        <ele>1887</ele>
        <time>2022-03-27T08:29:19Z</time>
      </trkpt>
      <trkpt lat="42.7812" lon="0.13888">
        <ele>1887</ele>
        <time>2022-03-27T08:29:21Z</time>
      </trkpt>
      <trkpt lat="42.78118" lon="0.13886">
        <ele>1887</ele>
        <time>2022-03-27T08:29:23Z</time>
      </trkpt>
      <trkpt lat="42.78117" lon="0.13883">
        <ele>1887</ele>
        <time>2022-03-27T08:29:29Z</time>
      </trkpt>
      <trkpt lat="42.78115" lon="0.13881">
        <ele>1887</ele>
        <time>2022-03-27T08:29:31Z</time>
      </trkpt>
      <trkpt lat="42.78114" lon="0.13879">
        <ele>1887</ele>
        <time>2022-03-27T08:29:33Z</time>
      </trkpt>
      <trkpt lat="42.78112" lon="0.13877">
        <ele>1887</ele>
        <time>2022-03-27T08:29:35Z</time>
      </trkpt>
      <trkpt lat="42.78111" lon="0.13874">
        <ele>1887</ele>
        <time>2022-03-27T08:29:37Z</time>
      </trkpt>
      <trkpt lat="42.78109" lon="0.13872">
        <ele>1886</ele>
        <time>2022-03-27T08:29:39Z</time>
      </trkpt>
      <trkpt lat="42.78108" lon="0.13869">
        <ele>1886</ele>
        <time>2022-03-27T08:29:41Z</time>
      </trkpt>
      <trkpt lat="42.78106" lon="0.13867">
        <ele>1886</ele>
        <time>2022-03-27T08:29:43Z</time>
      </trkpt>
      <trkpt lat="42.78105" lon="0.13865">
        <ele>1886</ele>
        <time>2022-03-27T08:29:45Z</time>
      </trkpt>
      <trkpt lat="42.78103" lon="0.13862">
        <ele>1886</ele>
        <time>2022-03-27T08:29:47Z</time>
      </trkpt>
      <trkpt lat="42.781" lon="0.13859">
        <ele>1886</ele>
        <time>2022-03-27T08:29:49Z</time>
      </trkpt>
      <trkpt lat="42.78098" lon="0.13856">
        <ele>1886</ele>
        <time>2022-03-27T08:29:51Z</time>
      </trkpt>
      <trkpt lat="42.78095" lon="0.13853">
        <ele>1886</ele>
        <time>2022-03-27T08:29:52Z</time>
      </trkpt>
      <trkpt lat="42.78093" lon="0.1385">
        <ele>1886</ele>
        <time>2022-03-27T08:29:55Z</time>
      </trkpt>
      <trkpt lat="42.78091" lon="0.13847">
        <ele>1886</ele>
        <time>2022-03-27T08:29:57Z</time>
      </trkpt>
      <trkpt lat="42.78089" lon="0.13845">
        <ele>1886</ele>
        <time>2022-03-27T08:29:59Z</time>
      </trkpt>
      <trkpt lat="42.78086" lon="0.13843">
        <ele>1885</ele>
        <time>2022-03-27T08:30:00Z</time>
      </trkpt>
      <trkpt lat="42.78085" lon="0.13841">
        <ele>1886</ele>
        <time>2022-03-27T08:30:03Z</time>
      </trkpt>
      <trkpt lat="42.78083" lon="0.13838">
        <ele>1886</ele>
        <time>2022-03-27T08:30:05Z</time>
      </trkpt>
      <trkpt lat="42.78081" lon="0.13836">
        <ele>1886</ele>
        <time>2022-03-27T08:30:07Z</time>
      </trkpt>
      <trkpt lat="42.78079" lon="0.13833">
        <ele>1886</ele>
        <time>2022-03-27T08:30:09Z</time>
      </trkpt>
      <trkpt lat="42.78078" lon="0.1383">
        <ele>1886</ele>
        <time>2022-03-27T08:30:11Z</time>
      </trkpt>
      <trkpt lat="42.78076" lon="0.13828">
        <ele>1886</ele>
        <time>2022-03-27T08:30:13Z</time>
      </trkpt>
      <trkpt lat="42.78074" lon="0.13826">
        <ele>1886</ele>
        <time>2022-03-27T08:30:15Z</time>
      </trkpt>
      <trkpt lat="42.78073" lon="0.13823">
        <ele>1886</ele>
        <time>2022-03-27T08:30:17Z</time>
      </trkpt>
      <trkpt lat="42.78071" lon="0.13821">
        <ele>1886</ele>
        <time>2022-03-27T08:30:19Z</time>
      </trkpt>
      <trkpt lat="42.78069" lon="0.13818">
        <ele>1886</ele>
        <time>2022-03-27T08:30:20Z</time>
      </trkpt>
      <trkpt lat="42.78068" lon="0.13816">
        <ele>1887</ele>
        <time>2022-03-27T08:30:23Z</time>
      </trkpt>
      <trkpt lat="42.78066" lon="0.13814">
        <ele>1887</ele>
        <time>2022-03-27T08:30:25Z</time>
      </trkpt>
      <trkpt lat="42.78065" lon="0.13812">
        <ele>1887</ele>
        <time>2022-03-27T08:30:27Z</time>
      </trkpt>
      <trkpt lat="42.78063" lon="0.1381">
        <ele>1888</ele>
        <time>2022-03-27T08:30:29Z</time>
      </trkpt>
      <trkpt lat="42.78061" lon="0.13808">
        <ele>1888</ele>
        <time>2022-03-27T08:30:30Z</time>
      </trkpt>
      <trkpt lat="42.78059" lon="0.13805">
        <ele>1888</ele>
        <time>2022-03-27T08:30:33Z</time>
      </trkpt>
      <trkpt lat="42.78057" lon="0.13803">
        <ele>1888</ele>
        <time>2022-03-27T08:30:35Z</time>
      </trkpt>
      <trkpt lat="42.78055" lon="0.138">
        <ele>1888</ele>
        <time>2022-03-27T08:30:37Z</time>
      </trkpt>
      <trkpt lat="42.78053" lon="0.13798">
        <ele>1888</ele>
        <time>2022-03-27T08:30:39Z</time>
      </trkpt>
      <trkpt lat="42.78051" lon="0.13795">
        <ele>1887</ele>
        <time>2022-03-27T08:30:41Z</time>
      </trkpt>
      <trkpt lat="42.78049" lon="0.13793">
        <ele>1887</ele>
        <time>2022-03-27T08:30:43Z</time>
      </trkpt>
      <trkpt lat="42.78046" lon="0.1379">
        <ele>1887</ele>
        <time>2022-03-27T08:30:45Z</time>
      </trkpt>
      <trkpt lat="42.78044" lon="0.13788">
        <ele>1887</ele>
        <time>2022-03-27T08:30:47Z</time>
      </trkpt>
      <trkpt lat="42.78042" lon="0.13786">
        <ele>1887</ele>
        <time>2022-03-27T08:30:49Z</time>
      </trkpt>
      <trkpt lat="42.7804" lon="0.13783">
        <ele>1887</ele>
        <time>2022-03-27T08:30:51Z</time>
      </trkpt>
      <trkpt lat="42.78038" lon="0.13781">
        <ele>1887</ele>
        <time>2022-03-27T08:30:53Z</time>
      </trkpt>
      <trkpt lat="42.78036" lon="0.13779">
        <ele>1888</ele>
        <time>2022-03-27T08:30:55Z</time>
      </trkpt>
      <trkpt lat="42.78035" lon="0.13777">
        <ele>1888</ele>
        <time>2022-03-27T08:30:57Z</time>
      </trkpt>
      <trkpt lat="42.78033" lon="0.13775">
        <ele>1888</ele>
        <time>2022-03-27T08:30:59Z</time>
      </trkpt>
      <trkpt lat="42.78031" lon="0.13773">
        <ele>1888</ele>
        <time>2022-03-27T08:31:01Z</time>
      </trkpt>
      <trkpt lat="42.78029" lon="0.13771">
        <ele>1888</ele>
        <time>2022-03-27T08:31:03Z</time>
      </trkpt>
      <trkpt lat="42.78027" lon="0.13768">
        <ele>1888</ele>
        <time>2022-03-27T08:31:05Z</time>
      </trkpt>
      <trkpt lat="42.78025" lon="0.13766">
        <ele>1888</ele>
        <time>2022-03-27T08:31:07Z</time>
      </trkpt>
      <trkpt lat="42.78024" lon="0.13764">
        <ele>1888</ele>
        <time>2022-03-27T08:31:08Z</time>
      </trkpt>
      <trkpt lat="42.78022" lon="0.13761">
        <ele>1888</ele>
        <time>2022-03-27T08:31:11Z</time>
      </trkpt>
      <trkpt lat="42.7802" lon="0.13759">
        <ele>1888</ele>
        <time>2022-03-27T08:31:13Z</time>
      </trkpt>
      <trkpt lat="42.78018" lon="0.13757">
        <ele>1888</ele>
        <time>2022-03-27T08:31:15Z</time>
      </trkpt>
      <trkpt lat="42.78016" lon="0.13754">
        <ele>1888</ele>
        <time>2022-03-27T08:31:17Z</time>
      </trkpt>
      <trkpt lat="42.78014" lon="0.13752">
        <ele>1888</ele>
        <time>2022-03-27T08:31:19Z</time>
      </trkpt>
      <trkpt lat="42.78012" lon="0.1375">
        <ele>1888</ele>
        <time>2022-03-27T08:31:21Z</time>
      </trkpt>
      <trkpt lat="42.7801" lon="0.13747">
        <ele>1888</ele>
        <time>2022-03-27T08:31:23Z</time>
      </trkpt>
      <trkpt lat="42.78008" lon="0.13745">
        <ele>1888</ele>
        <time>2022-03-27T08:31:25Z</time>
      </trkpt>
      <trkpt lat="42.78006" lon="0.13742">
        <ele>1888</ele>
        <time>2022-03-27T08:31:27Z</time>
      </trkpt>
      <trkpt lat="42.78003" lon="0.1374">
        <ele>1887</ele>
        <time>2022-03-27T08:31:29Z</time>
      </trkpt>
      <trkpt lat="42.78001" lon="0.13737">
        <ele>1887</ele>
        <time>2022-03-27T08:31:31Z</time>
      </trkpt>
      <trkpt lat="42.78" lon="0.13734">
        <ele>1888</ele>
        <time>2022-03-27T08:31:33Z</time>
      </trkpt>
      <trkpt lat="42.77998" lon="0.13732">
        <ele>1887</ele>
        <time>2022-03-27T08:31:35Z</time>
      </trkpt>
      <trkpt lat="42.77996" lon="0.13729">
        <ele>1887</ele>
        <time>2022-03-27T08:31:37Z</time>
      </trkpt>
      <trkpt lat="42.77994" lon="0.13727">
        <ele>1887</ele>
        <time>2022-03-27T08:31:39Z</time>
      </trkpt>
      <trkpt lat="42.77991" lon="0.13725">
        <ele>1887</ele>
        <time>2022-03-27T08:31:41Z</time>
      </trkpt>
      <trkpt lat="42.77989" lon="0.13722">
        <ele>1887</ele>
        <time>2022-03-27T08:31:43Z</time>
      </trkpt>
      <trkpt lat="42.77988" lon="0.1372">
        <ele>1887</ele>
        <time>2022-03-27T08:31:45Z</time>
      </trkpt>
      <trkpt lat="42.77986" lon="0.13718">
        <ele>1887</ele>
        <time>2022-03-27T08:31:46Z</time>
      </trkpt>
      <trkpt lat="42.77985" lon="0.13716">
        <ele>1887</ele>
        <time>2022-03-27T08:31:50Z</time>
      </trkpt>
      <trkpt lat="42.77983" lon="0.13716">
        <ele>1887</ele>
        <time>2022-03-27T08:31:56Z</time>
      </trkpt>
      <trkpt lat="42.77981" lon="0.13713">
        <ele>1887</ele>
        <time>2022-03-27T08:31:58Z</time>
      </trkpt>
      <trkpt lat="42.77979" lon="0.1371">
        <ele>1887</ele>
        <time>2022-03-27T08:32:00Z</time>
      </trkpt>
      <trkpt lat="42.77977" lon="0.13707">
        <ele>1887</ele>
        <time>2022-03-27T08:32:02Z</time>
      </trkpt>
      <trkpt lat="42.77975" lon="0.13704">
        <ele>1887</ele>
        <time>2022-03-27T08:32:04Z</time>
      </trkpt>
      <trkpt lat="42.77973" lon="0.13702">
        <ele>1887</ele>
        <time>2022-03-27T08:32:05Z</time>
      </trkpt>
      <trkpt lat="42.7797" lon="0.13699">
        <ele>1887</ele>
        <time>2022-03-27T08:32:08Z</time>
      </trkpt>
      <trkpt lat="42.77968" lon="0.13696">
        <ele>1887</ele>
        <time>2022-03-27T08:32:10Z</time>
      </trkpt>
      <trkpt lat="42.77966" lon="0.13693">
        <ele>1887</ele>
        <time>2022-03-27T08:32:12Z</time>
      </trkpt>
      <trkpt lat="42.77959" lon="0.13684">
        <ele>1887</ele>
        <time>2022-03-27T08:32:19Z</time>
      </trkpt>
      <trkpt lat="42.77955" lon="0.1368">
        <ele>1887</ele>
        <time>2022-03-27T08:32:23Z</time>
      </trkpt>
      <trkpt lat="42.77953" lon="0.13678">
        <ele>1887</ele>
        <time>2022-03-27T08:32:24Z</time>
      </trkpt>
      <trkpt lat="42.77951" lon="0.13676">
        <ele>1887</ele>
        <time>2022-03-27T08:32:27Z</time>
      </trkpt>
      <trkpt lat="42.7795" lon="0.13674">
        <ele>1888</ele>
        <time>2022-03-27T08:32:29Z</time>
      </trkpt>
      <trkpt lat="42.77948" lon="0.13672">
        <ele>1888</ele>
        <time>2022-03-27T08:32:31Z</time>
      </trkpt>
      <trkpt lat="42.77946" lon="0.1367">
        <ele>1888</ele>
        <time>2022-03-27T08:32:33Z</time>
      </trkpt>
      <trkpt lat="42.77944" lon="0.13668">
        <ele>1888</ele>
        <time>2022-03-27T08:32:35Z</time>
      </trkpt>
      <trkpt lat="42.77942" lon="0.13666">
        <ele>1888</ele>
        <time>2022-03-27T08:32:37Z</time>
      </trkpt>
      <trkpt lat="42.7794" lon="0.13664">
        <ele>1888</ele>
        <time>2022-03-27T08:32:39Z</time>
      </trkpt>
      <trkpt lat="42.77938" lon="0.13661">
        <ele>1888</ele>
        <time>2022-03-27T08:32:41Z</time>
      </trkpt>
      <trkpt lat="42.77937" lon="0.13659">
        <ele>1888</ele>
        <time>2022-03-27T08:32:43Z</time>
      </trkpt>
      <trkpt lat="42.77935" lon="0.13657">
        <ele>1888</ele>
        <time>2022-03-27T08:32:45Z</time>
      </trkpt>
      <trkpt lat="42.77933" lon="0.13655">
        <ele>1888</ele>
        <time>2022-03-27T08:32:47Z</time>
      </trkpt>
      <trkpt lat="42.77931" lon="0.13652">
        <ele>1888</ele>
        <time>2022-03-27T08:32:49Z</time>
      </trkpt>
      <trkpt lat="42.77929" lon="0.1365">
        <ele>1888</ele>
        <time>2022-03-27T08:32:51Z</time>
      </trkpt>
      <trkpt lat="42.77927" lon="0.13648">
        <ele>1888</ele>
        <time>2022-03-27T08:32:53Z</time>
      </trkpt>
      <trkpt lat="42.77925" lon="0.13646">
        <ele>1888</ele>
        <time>2022-03-27T08:32:55Z</time>
      </trkpt>
      <trkpt lat="42.77923" lon="0.13644">
        <ele>1888</ele>
        <time>2022-03-27T08:32:57Z</time>
      </trkpt>
      <trkpt lat="42.77921" lon="0.13642">
        <ele>1889</ele>
        <time>2022-03-27T08:32:59Z</time>
      </trkpt>
      <trkpt lat="42.77919" lon="0.1364">
        <ele>1889</ele>
        <time>2022-03-27T08:33:01Z</time>
      </trkpt>
      <trkpt lat="42.77917" lon="0.13637">
        <ele>1889</ele>
        <time>2022-03-27T08:33:02Z</time>
      </trkpt>
      <trkpt lat="42.7791" lon="0.1363">
        <ele>1889</ele>
        <time>2022-03-27T08:33:11Z</time>
      </trkpt>
      <trkpt lat="42.77902" lon="0.13621">
        <ele>1890</ele>
        <time>2022-03-27T08:33:19Z</time>
      </trkpt>
      <trkpt lat="42.77895" lon="0.13613">
        <ele>1890</ele>
        <time>2022-03-27T08:33:27Z</time>
      </trkpt>
      <trkpt lat="42.7789" lon="0.13603">
        <ele>1891</ele>
        <time>2022-03-27T08:33:40Z</time>
      </trkpt>
      <trkpt lat="42.77883" lon="0.13596">
        <ele>1894</ele>
        <time>2022-03-27T08:33:50Z</time>
      </trkpt>
      <trkpt lat="42.77875" lon="0.13587">
        <ele>1894</ele>
        <time>2022-03-27T08:33:59Z</time>
      </trkpt>
      <trkpt lat="42.77868" lon="0.13577">
        <ele>1895</ele>
        <time>2022-03-27T08:34:11Z</time>
      </trkpt>
      <trkpt lat="42.7786" lon="0.13572">
        <ele>1897</ele>
        <time>2022-03-27T08:34:22Z</time>
      </trkpt>
      <trkpt lat="42.77851" lon="0.1357">
        <ele>1899</ele>
        <time>2022-03-27T08:34:34Z</time>
      </trkpt>
      <trkpt lat="42.77842" lon="0.13564">
        <ele>1901</ele>
        <time>2022-03-27T08:34:45Z</time>
      </trkpt>
      <trkpt lat="42.77834" lon="0.13566">
        <ele>1902</ele>
        <time>2022-03-27T08:34:56Z</time>
      </trkpt>
      <trkpt lat="42.77824" lon="0.13563">
        <ele>1904</ele>
        <time>2022-03-27T08:35:10Z</time>
      </trkpt>
      <trkpt lat="42.77814" lon="0.13561">
        <ele>1907</ele>
        <time>2022-03-27T08:35:24Z</time>
      </trkpt>
      <trkpt lat="42.77805" lon="0.13561">
        <ele>1909</ele>
        <time>2022-03-27T08:35:34Z</time>
      </trkpt>
      <trkpt lat="42.77795" lon="0.13559">
        <ele>1912</ele>
        <time>2022-03-27T08:35:53Z</time>
      </trkpt>
      <trkpt lat="42.77786" lon="0.13559">
        <ele>1914</ele>
        <time>2022-03-27T08:36:07Z</time>
      </trkpt>
      <trkpt lat="42.77776" lon="0.13558">
        <ele>1917</ele>
        <time>2022-03-27T08:36:20Z</time>
      </trkpt>
      <trkpt lat="42.77767" lon="0.13559">
        <ele>1917</ele>
        <time>2022-03-27T08:36:31Z</time>
      </trkpt>
      <trkpt lat="42.77758" lon="0.13556">
        <ele>1919</ele>
        <time>2022-03-27T08:36:42Z</time>
      </trkpt>
      <trkpt lat="42.77748" lon="0.13555">
        <ele>1921</ele>
        <time>2022-03-27T08:36:53Z</time>
      </trkpt>
      <trkpt lat="42.77739" lon="0.13551">
        <ele>1922</ele>
        <time>2022-03-27T08:37:05Z</time>
      </trkpt>
      <trkpt lat="42.7773" lon="0.13546">
        <ele>1924</ele>
        <time>2022-03-27T08:37:16Z</time>
      </trkpt>
      <trkpt lat="42.77722" lon="0.1354">
        <ele>1924</ele>
        <time>2022-03-27T08:37:27Z</time>
      </trkpt>
      <trkpt lat="42.77714" lon="0.13535">
        <ele>1926</ele>
        <time>2022-03-27T08:37:38Z</time>
      </trkpt>
      <trkpt lat="42.77705" lon="0.1353">
        <ele>1926</ele>
        <time>2022-03-27T08:37:50Z</time>
      </trkpt>
      <trkpt lat="42.77696" lon="0.13524">
        <ele>1927</ele>
        <time>2022-03-27T08:38:02Z</time>
      </trkpt>
      <trkpt lat="42.77688" lon="0.13518">
        <ele>1928</ele>
        <time>2022-03-27T08:38:14Z</time>
      </trkpt>
      <trkpt lat="42.77679" lon="0.13513">
        <ele>1931</ele>
        <time>2022-03-27T08:38:24Z</time>
      </trkpt>
      <trkpt lat="42.77671" lon="0.13507">
        <ele>1932</ele>
        <time>2022-03-27T08:38:35Z</time>
      </trkpt>
      <trkpt lat="42.77662" lon="0.13504">
        <ele>1934</ele>
        <time>2022-03-27T08:38:47Z</time>
      </trkpt>
      <trkpt lat="42.77652" lon="0.13501">
        <ele>1935</ele>
        <time>2022-03-27T08:38:58Z</time>
      </trkpt>
      <trkpt lat="42.77644" lon="0.13495">
        <ele>1937</ele>
        <time>2022-03-27T08:39:05Z</time>
      </trkpt>
      <trkpt lat="42.77636" lon="0.13489">
        <ele>1938</ele>
        <time>2022-03-27T08:39:15Z</time>
      </trkpt>
      <trkpt lat="42.77628" lon="0.13481">
        <ele>1938</ele>
        <time>2022-03-27T08:39:24Z</time>
      </trkpt>
      <trkpt lat="42.7762" lon="0.13474">
        <ele>1939</ele>
        <time>2022-03-27T08:39:34Z</time>
      </trkpt>
      <trkpt lat="42.77611" lon="0.1347">
        <ele>1940</ele>
        <time>2022-03-27T08:39:41Z</time>
      </trkpt>
      <trkpt lat="42.77601" lon="0.13469">
        <ele>1941</ele>
        <time>2022-03-27T08:39:51Z</time>
      </trkpt>
      <trkpt lat="42.77592" lon="0.13468">
        <ele>1943</ele>
        <time>2022-03-27T08:40:06Z</time>
      </trkpt>
      <trkpt lat="42.77583" lon="0.13466">
        <ele>1945</ele>
        <time>2022-03-27T08:40:27Z</time>
      </trkpt>
      <trkpt lat="42.77574" lon="0.13471">
        <ele>1946</ele>
        <time>2022-03-27T08:40:38Z</time>
      </trkpt>
      <trkpt lat="42.77567" lon="0.1348">
        <ele>1945</ele>
        <time>2022-03-27T08:42:47Z</time>
      </trkpt>
      <trkpt lat="42.77559" lon="0.13485">
        <ele>1945</ele>
        <time>2022-03-27T08:43:35Z</time>
      </trkpt>
      <trkpt lat="42.77552" lon="0.13473">
        <ele>1947</ele>
        <time>2022-03-27T08:43:46Z</time>
      </trkpt>
      <trkpt lat="42.77545" lon="0.13467">
        <ele>1948</ele>
        <time>2022-03-27T08:43:54Z</time>
      </trkpt>
      <trkpt lat="42.77536" lon="0.13461">
        <ele>1949</ele>
        <time>2022-03-27T08:44:02Z</time>
      </trkpt>
      <trkpt lat="42.77528" lon="0.13455">
        <ele>1950</ele>
        <time>2022-03-27T08:44:13Z</time>
      </trkpt>
      <trkpt lat="42.7752" lon="0.13449">
        <ele>1952</ele>
        <time>2022-03-27T08:44:24Z</time>
      </trkpt>
      <trkpt lat="42.77513" lon="0.13439">
        <ele>1954</ele>
        <time>2022-03-27T08:46:56Z</time>
      </trkpt>
      <trkpt lat="42.77505" lon="0.13432">
        <ele>1955</ele>
        <time>2022-03-27T08:47:06Z</time>
      </trkpt>
      <trkpt lat="42.77496" lon="0.1343">
        <ele>1957</ele>
        <time>2022-03-27T08:47:15Z</time>
      </trkpt>
      <trkpt lat="42.77487" lon="0.13426">
        <ele>1958</ele>
        <time>2022-03-27T08:47:23Z</time>
      </trkpt>
      <trkpt lat="42.77478" lon="0.13422">
        <ele>1959</ele>
        <time>2022-03-27T08:47:35Z</time>
      </trkpt>
      <trkpt lat="42.77472" lon="0.13412">
        <ele>1962</ele>
        <time>2022-03-27T08:47:51Z</time>
      </trkpt>
      <trkpt lat="42.77475" lon="0.134">
        <ele>1964</ele>
        <time>2022-03-27T08:48:03Z</time>
      </trkpt>
      <trkpt lat="42.77479" lon="0.13388">
        <ele>1965</ele>
        <time>2022-03-27T08:48:14Z</time>
      </trkpt>
      <trkpt lat="42.77482" lon="0.13376">
        <ele>1967</ele>
        <time>2022-03-27T08:48:27Z</time>
      </trkpt>
      <trkpt lat="42.77485" lon="0.13364">
        <ele>1969</ele>
        <time>2022-03-27T08:48:38Z</time>
      </trkpt>
      <trkpt lat="42.77489" lon="0.13352">
        <ele>1971</ele>
        <time>2022-03-27T08:48:49Z</time>
      </trkpt>
      <trkpt lat="42.77488" lon="0.1334">
        <ele>1974</ele>
        <time>2022-03-27T08:49:02Z</time>
      </trkpt>
      <trkpt lat="42.77478" lon="0.13339">
        <ele>1976</ele>
        <time>2022-03-27T08:49:15Z</time>
      </trkpt>
      <trkpt lat="42.77469" lon="0.1334">
        <ele>1977</ele>
        <time>2022-03-27T08:49:26Z</time>
      </trkpt>
      <trkpt lat="42.77459" lon="0.13343">
        <ele>1979</ele>
        <time>2022-03-27T08:49:53Z</time>
      </trkpt>
      <trkpt lat="42.77451" lon="0.13343">
        <ele>1982</ele>
        <time>2022-03-27T08:50:05Z</time>
      </trkpt>
      <trkpt lat="42.77442" lon="0.13347">
        <ele>1985</ele>
        <time>2022-03-27T08:50:30Z</time>
      </trkpt>
      <trkpt lat="42.77443" lon="0.13334">
        <ele>1990</ele>
        <time>2022-03-27T08:51:17Z</time>
      </trkpt>
      <trkpt lat="42.77445" lon="0.13321">
        <ele>1991</ele>
        <time>2022-03-27T08:51:26Z</time>
      </trkpt>
      <trkpt lat="42.77444" lon="0.13307">
        <ele>1995</ele>
        <time>2022-03-27T08:51:43Z</time>
      </trkpt>
      <trkpt lat="42.77435" lon="0.13313">
        <ele>1997</ele>
        <time>2022-03-27T08:53:01Z</time>
      </trkpt>
      <trkpt lat="42.77427" lon="0.13318">
        <ele>2000</ele>
        <time>2022-03-27T08:53:10Z</time>
      </trkpt>
      <trkpt lat="42.77417" lon="0.13321">
        <ele>2002</ele>
        <time>2022-03-27T08:53:21Z</time>
      </trkpt>
      <trkpt lat="42.77407" lon="0.13322">
        <ele>2004</ele>
        <time>2022-03-27T08:54:33Z</time>
      </trkpt>
      <trkpt lat="42.77415" lon="0.13315">
        <ele>2005</ele>
        <time>2022-03-27T08:54:55Z</time>
      </trkpt>
      <trkpt lat="42.77418" lon="0.13304">
        <ele>2007</ele>
        <time>2022-03-27T08:55:09Z</time>
      </trkpt>
      <trkpt lat="42.77422" lon="0.13291">
        <ele>2009</ele>
        <time>2022-03-27T08:55:19Z</time>
      </trkpt>
      <trkpt lat="42.77417" lon="0.13302">
        <ele>2010</ele>
        <time>2022-03-27T08:55:48Z</time>
      </trkpt>
      <trkpt lat="42.77408" lon="0.13305">
        <ele>2012</ele>
        <time>2022-03-27T08:56:02Z</time>
      </trkpt>
      <trkpt lat="42.77399" lon="0.13309">
        <ele>2015</ele>
        <time>2022-03-27T08:56:14Z</time>
      </trkpt>
      <trkpt lat="42.774" lon="0.13296">
        <ele>2016</ele>
        <time>2022-03-27T08:56:47Z</time>
      </trkpt>
      <trkpt lat="42.77403" lon="0.13284">
        <ele>2020</ele>
        <time>2022-03-27T08:57:06Z</time>
      </trkpt>
      <trkpt lat="42.77403" lon="0.13271">
        <ele>2021</ele>
        <time>2022-03-27T08:58:34Z</time>
      </trkpt>
      <trkpt lat="42.77394" lon="0.13276">
        <ele>2023</ele>
        <time>2022-03-27T08:58:53Z</time>
      </trkpt>
      <trkpt lat="42.77385" lon="0.1328">
        <ele>2025</ele>
        <time>2022-03-27T08:59:03Z</time>
      </trkpt>
      <trkpt lat="42.77386" lon="0.13267">
        <ele>2029</ele>
        <time>2022-03-27T09:00:25Z</time>
      </trkpt>
      <trkpt lat="42.77376" lon="0.13268">
        <ele>2032</ele>
        <time>2022-03-27T09:01:17Z</time>
      </trkpt>
      <trkpt lat="42.77368" lon="0.13276">
        <ele>2035</ele>
        <time>2022-03-27T09:01:28Z</time>
      </trkpt>
      <trkpt lat="42.77361" lon="0.13285">
        <ele>2037</ele>
        <time>2022-03-27T09:01:49Z</time>
      </trkpt>
      <trkpt lat="42.77359" lon="0.13272">
        <ele>2042</ele>
        <time>2022-03-27T09:02:39Z</time>
      </trkpt>
      <trkpt lat="42.77361" lon="0.1326">
        <ele>2043</ele>
        <time>2022-03-27T09:02:50Z</time>
      </trkpt>
      <trkpt lat="42.77365" lon="0.13248">
        <ele>2045</ele>
        <time>2022-03-27T09:03:05Z</time>
      </trkpt>
      <trkpt lat="42.77374" lon="0.13243">
        <ele>2047</ele>
        <time>2022-03-27T09:04:53Z</time>
      </trkpt>
      <trkpt lat="42.77366" lon="0.13249">
        <ele>2047</ele>
        <time>2022-03-27T09:05:44Z</time>
      </trkpt>
      <trkpt lat="42.77358" lon="0.13256">
        <ele>2050</ele>
        <time>2022-03-27T09:06:13Z</time>
      </trkpt>
      <trkpt lat="42.7735" lon="0.13263">
        <ele>2051</ele>
        <time>2022-03-27T09:06:24Z</time>
      </trkpt>
      <trkpt lat="42.77341" lon="0.13268">
        <ele>2052</ele>
        <time>2022-03-27T09:06:40Z</time>
      </trkpt>
      <trkpt lat="42.77333" lon="0.13275">
        <ele>2053</ele>
        <time>2022-03-27T09:06:49Z</time>
      </trkpt>
      <trkpt lat="42.77331" lon="0.13261">
        <ele>2058</ele>
        <time>2022-03-27T09:07:27Z</time>
      </trkpt>
      <trkpt lat="42.77335" lon="0.1325">
        <ele>2060</ele>
        <time>2022-03-27T09:07:39Z</time>
      </trkpt>
      <trkpt lat="42.77339" lon="0.13239">
        <ele>2061</ele>
        <time>2022-03-27T09:07:58Z</time>
      </trkpt>
      <trkpt lat="42.7733" lon="0.13242">
        <ele>2063</ele>
        <time>2022-03-27T09:08:34Z</time>
      </trkpt>
      <trkpt lat="42.77322" lon="0.13249">
        <ele>2066</ele>
        <time>2022-03-27T09:08:44Z</time>
      </trkpt>
      <trkpt lat="42.77313" lon="0.13256">
        <ele>2068</ele>
        <time>2022-03-27T09:08:58Z</time>
      </trkpt>
      <trkpt lat="42.77307" lon="0.13264">
        <ele>2069</ele>
        <time>2022-03-27T09:09:10Z</time>
      </trkpt>
      <trkpt lat="42.77307" lon="0.13252">
        <ele>2073</ele>
        <time>2022-03-27T09:09:55Z</time>
      </trkpt>
      <trkpt lat="42.7731" lon="0.1324">
        <ele>2075</ele>
        <time>2022-03-27T09:10:09Z</time>
      </trkpt>
      <trkpt lat="42.77313" lon="0.13228">
        <ele>2077</ele>
        <time>2022-03-27T09:10:22Z</time>
      </trkpt>
      <trkpt lat="42.77317" lon="0.13217">
        <ele>2079</ele>
        <time>2022-03-27T09:10:35Z</time>
      </trkpt>
      <trkpt lat="42.77325" lon="0.13211">
        <ele>2082</ele>
        <time>2022-03-27T09:10:55Z</time>
      </trkpt>
      <trkpt lat="42.77316" lon="0.13208">
        <ele>2083</ele>
        <time>2022-03-27T09:12:01Z</time>
      </trkpt>
      <trkpt lat="42.77308" lon="0.13215">
        <ele>2085</ele>
        <time>2022-03-27T09:12:15Z</time>
      </trkpt>
      <trkpt lat="42.773" lon="0.13222">
        <ele>2086</ele>
        <time>2022-03-27T09:12:24Z</time>
      </trkpt>
      <trkpt lat="42.77293" lon="0.1323">
        <ele>2087</ele>
        <time>2022-03-27T09:12:34Z</time>
      </trkpt>
      <trkpt lat="42.77285" lon="0.13237">
        <ele>2088</ele>
        <time>2022-03-27T09:12:45Z</time>
      </trkpt>
      <trkpt lat="42.77278" lon="0.13244">
        <ele>2090</ele>
        <time>2022-03-27T09:12:55Z</time>
      </trkpt>
      <trkpt lat="42.7727" lon="0.13251">
        <ele>2092</ele>
        <time>2022-03-27T09:13:07Z</time>
      </trkpt>
      <trkpt lat="42.77262" lon="0.13257">
        <ele>2094</ele>
        <time>2022-03-27T09:13:18Z</time>
      </trkpt>
      <trkpt lat="42.77253" lon="0.13263">
        <ele>2096</ele>
        <time>2022-03-27T09:13:29Z</time>
      </trkpt>
      <trkpt lat="42.77247" lon="0.13272">
        <ele>2098</ele>
        <time>2022-03-27T09:15:12Z</time>
      </trkpt>
      <trkpt lat="42.7725" lon="0.1326">
        <ele>2098</ele>
        <time>2022-03-27T09:15:49Z</time>
      </trkpt>
      <trkpt lat="42.7725" lon="0.13245">
        <ele>2098</ele>
        <time>2022-03-27T09:16:13Z</time>
      </trkpt>
      <trkpt lat="42.77253" lon="0.13232">
        <ele>2098</ele>
        <time>2022-03-27T09:16:29Z</time>
      </trkpt>
      <trkpt lat="42.77255" lon="0.13244">
        <ele>2098</ele>
        <time>2022-03-27T09:17:09Z</time>
      </trkpt>
      <trkpt lat="42.7725" lon="0.13256">
        <ele>2097</ele>
        <time>2022-03-27T09:17:20Z</time>
      </trkpt>
      <trkpt lat="42.77247" lon="0.13268">
        <ele>2098</ele>
        <time>2022-03-27T09:18:42Z</time>
      </trkpt>
      <trkpt lat="42.77238" lon="0.13266">
        <ele>2101</ele>
        <time>2022-03-27T09:20:39Z</time>
      </trkpt>
      <trkpt lat="42.7723" lon="0.13258">
        <ele>2102</ele>
        <time>2022-03-27T09:20:50Z</time>
      </trkpt>
      <trkpt lat="42.77223" lon="0.13251">
        <ele>2103</ele>
        <time>2022-03-27T09:21:02Z</time>
      </trkpt>
      <trkpt lat="42.77223" lon="0.13248">
        <ele>2103</ele>
        <time>2022-03-27T09:21:05Z</time>
      </trkpt>
      <trkpt lat="42.77225" lon="0.13245">
        <ele>2104</ele>
        <time>2022-03-27T09:21:09Z</time>
      </trkpt>
      <trkpt lat="42.77226" lon="0.13243">
        <ele>2104</ele>
        <time>2022-03-27T09:21:12Z</time>
      </trkpt>
      <trkpt lat="42.77228" lon="0.13241">
        <ele>2105</ele>
        <time>2022-03-27T09:21:15Z</time>
      </trkpt>
      <trkpt lat="42.7723" lon="0.1324">
        <ele>2106</ele>
        <time>2022-03-27T09:21:21Z</time>
      </trkpt>
      <trkpt lat="42.77232" lon="0.13238">
        <ele>2106</ele>
        <time>2022-03-27T09:21:23Z</time>
      </trkpt>
      <trkpt lat="42.77234" lon="0.13236">
        <ele>2106</ele>
        <time>2022-03-27T09:21:26Z</time>
      </trkpt>
      <trkpt lat="42.77235" lon="0.13234">
        <ele>2106</ele>
        <time>2022-03-27T09:21:29Z</time>
      </trkpt>
      <trkpt lat="42.77237" lon="0.13232">
        <ele>2107</ele>
        <time>2022-03-27T09:21:33Z</time>
      </trkpt>
      <trkpt lat="42.77238" lon="0.13229">
        <ele>2107</ele>
        <time>2022-03-27T09:21:37Z</time>
      </trkpt>
      <trkpt lat="42.77239" lon="0.13227">
        <ele>2108</ele>
        <time>2022-03-27T09:21:40Z</time>
      </trkpt>
      <trkpt lat="42.77241" lon="0.13225">
        <ele>2108</ele>
        <time>2022-03-27T09:21:43Z</time>
      </trkpt>
      <trkpt lat="42.77242" lon="0.13223">
        <ele>2109</ele>
        <time>2022-03-27T09:21:46Z</time>
      </trkpt>
      <trkpt lat="42.77243" lon="0.13221">
        <ele>2109</ele>
        <time>2022-03-27T09:21:49Z</time>
      </trkpt>
      <trkpt lat="42.77245" lon="0.13218">
        <ele>2109</ele>
        <time>2022-03-27T09:21:53Z</time>
      </trkpt>
      <trkpt lat="42.77246" lon="0.13215">
        <ele>2109</ele>
        <time>2022-03-27T09:21:56Z</time>
      </trkpt>
      <trkpt lat="42.77246" lon="0.13212">
        <ele>2110</ele>
        <time>2022-03-27T09:21:59Z</time>
      </trkpt>
      <trkpt lat="42.77246" lon="0.13208">
        <ele>2110</ele>
        <time>2022-03-27T09:22:02Z</time>
      </trkpt>
      <trkpt lat="42.77246" lon="0.13206">
        <ele>2111</ele>
        <time>2022-03-27T09:22:05Z</time>
      </trkpt>
      <trkpt lat="42.77245" lon="0.13202">
        <ele>2111</ele>
        <time>2022-03-27T09:22:08Z</time>
      </trkpt>
      <trkpt lat="42.77244" lon="0.13199">
        <ele>2111</ele>
        <time>2022-03-27T09:22:11Z</time>
      </trkpt>
      <trkpt lat="42.77243" lon="0.13196">
        <ele>2112</ele>
        <time>2022-03-27T09:22:14Z</time>
      </trkpt>
      <trkpt lat="42.77242" lon="0.13193">
        <ele>2112</ele>
        <time>2022-03-27T09:22:17Z</time>
      </trkpt>
      <trkpt lat="42.77241" lon="0.13191">
        <ele>2112</ele>
        <time>2022-03-27T09:22:20Z</time>
      </trkpt>
      <trkpt lat="42.77239" lon="0.13187">
        <ele>2113</ele>
        <time>2022-03-27T09:22:23Z</time>
      </trkpt>
      <trkpt lat="42.77238" lon="0.13185">
        <ele>2114</ele>
        <time>2022-03-27T09:22:25Z</time>
      </trkpt>
      <trkpt lat="42.77236" lon="0.13183">
        <ele>2114</ele>
        <time>2022-03-27T09:22:27Z</time>
      </trkpt>
      <trkpt lat="42.77234" lon="0.1318">
        <ele>2114</ele>
        <time>2022-03-27T09:22:30Z</time>
      </trkpt>
      <trkpt lat="42.77233" lon="0.13178">
        <ele>2115</ele>
        <time>2022-03-27T09:22:33Z</time>
      </trkpt>
      <trkpt lat="42.77232" lon="0.13177">
        <ele>2115</ele>
        <time>2022-03-27T09:22:35Z</time>
      </trkpt>
      <trkpt lat="42.77231" lon="0.13174">
        <ele>2116</ele>
        <time>2022-03-27T09:22:43Z</time>
      </trkpt>
      <trkpt lat="42.77229" lon="0.13171">
        <ele>2116</ele>
        <time>2022-03-27T09:22:46Z</time>
      </trkpt>
      <trkpt lat="42.77228" lon="0.13169">
        <ele>2116</ele>
        <time>2022-03-27T09:22:48Z</time>
      </trkpt>
      <trkpt lat="42.77226" lon="0.13167">
        <ele>2118</ele>
        <time>2022-03-27T09:22:51Z</time>
      </trkpt>
      <trkpt lat="42.77225" lon="0.13164">
        <ele>2118</ele>
        <time>2022-03-27T09:22:54Z</time>
      </trkpt>
      <trkpt lat="42.77223" lon="0.13162">
        <ele>2119</ele>
        <time>2022-03-27T09:22:56Z</time>
      </trkpt>
      <trkpt lat="42.77222" lon="0.13159">
        <ele>2119</ele>
        <time>2022-03-27T09:22:59Z</time>
      </trkpt>
      <trkpt lat="42.7722" lon="0.13157">
        <ele>2120</ele>
        <time>2022-03-27T09:23:02Z</time>
      </trkpt>
      <trkpt lat="42.7722" lon="0.13154">
        <ele>2120</ele>
        <time>2022-03-27T09:23:05Z</time>
      </trkpt>
      <trkpt lat="42.7722" lon="0.13151">
        <ele>2121</ele>
        <time>2022-03-27T09:23:08Z</time>
      </trkpt>
      <trkpt lat="42.7722" lon="0.13148">
        <ele>2122</ele>
        <time>2022-03-27T09:23:11Z</time>
      </trkpt>
      <trkpt lat="42.7722" lon="0.13145">
        <ele>2122</ele>
        <time>2022-03-27T09:23:14Z</time>
      </trkpt>
      <trkpt lat="42.77221" lon="0.13143">
        <ele>2123</ele>
        <time>2022-03-27T09:23:17Z</time>
      </trkpt>
      <trkpt lat="42.77223" lon="0.13141">
        <ele>2124</ele>
        <time>2022-03-27T09:23:20Z</time>
      </trkpt>
      <trkpt lat="42.77225" lon="0.13139">
        <ele>2124</ele>
        <time>2022-03-27T09:23:23Z</time>
      </trkpt>
      <trkpt lat="42.77226" lon="0.13137">
        <ele>2125</ele>
        <time>2022-03-27T09:23:26Z</time>
      </trkpt>
      <trkpt lat="42.77228" lon="0.13136">
        <ele>2125</ele>
        <time>2022-03-27T09:23:29Z</time>
      </trkpt>
      <trkpt lat="42.7723" lon="0.13134">
        <ele>2125</ele>
        <time>2022-03-27T09:23:32Z</time>
      </trkpt>
      <trkpt lat="42.77232" lon="0.13132">
        <ele>2125</ele>
        <time>2022-03-27T09:23:35Z</time>
      </trkpt>
      <trkpt lat="42.77233" lon="0.13131">
        <ele>2125</ele>
        <time>2022-03-27T09:23:38Z</time>
      </trkpt>
      <trkpt lat="42.77235" lon="0.13129">
        <ele>2127</ele>
        <time>2022-03-27T09:23:41Z</time>
      </trkpt>
      <trkpt lat="42.77237" lon="0.13128">
        <ele>2127</ele>
        <time>2022-03-27T09:23:44Z</time>
      </trkpt>
      <trkpt lat="42.77239" lon="0.13127">
        <ele>2127</ele>
        <time>2022-03-27T09:23:47Z</time>
      </trkpt>
      <trkpt lat="42.7724" lon="0.13126">
        <ele>2128</ele>
        <time>2022-03-27T09:23:50Z</time>
      </trkpt>
      <trkpt lat="42.77242" lon="0.13124">
        <ele>2128</ele>
        <time>2022-03-27T09:23:53Z</time>
      </trkpt>
      <trkpt lat="42.77244" lon="0.13122">
        <ele>2129</ele>
        <time>2022-03-27T09:23:56Z</time>
      </trkpt>
      <trkpt lat="42.77246" lon="0.13121">
        <ele>2129</ele>
        <time>2022-03-27T09:23:59Z</time>
      </trkpt>
      <trkpt lat="42.77247" lon="0.13119">
        <ele>2129</ele>
        <time>2022-03-27T09:24:02Z</time>
      </trkpt>
      <trkpt lat="42.77249" lon="0.13117">
        <ele>2129</ele>
        <time>2022-03-27T09:24:06Z</time>
      </trkpt>
      <trkpt lat="42.77251" lon="0.13115">
        <ele>2131</ele>
        <time>2022-03-27T09:24:10Z</time>
      </trkpt>
      <trkpt lat="42.77253" lon="0.13113">
        <ele>2131</ele>
        <time>2022-03-27T09:24:13Z</time>
      </trkpt>
      <trkpt lat="42.77254" lon="0.13112">
        <ele>2131</ele>
        <time>2022-03-27T09:24:16Z</time>
      </trkpt>
      <trkpt lat="42.77255" lon="0.1311">
        <ele>2132</ele>
        <time>2022-03-27T09:24:19Z</time>
      </trkpt>
      <trkpt lat="42.77256" lon="0.13107">
        <ele>2132</ele>
        <time>2022-03-27T09:24:22Z</time>
      </trkpt>
      <trkpt lat="42.77257" lon="0.13105">
        <ele>2133</ele>
        <time>2022-03-27T09:24:25Z</time>
      </trkpt>
      <trkpt lat="42.77256" lon="0.13102">
        <ele>2133</ele>
        <time>2022-03-27T09:24:28Z</time>
      </trkpt>
      <trkpt lat="42.77255" lon="0.13101">
        <ele>2134</ele>
        <time>2022-03-27T09:24:31Z</time>
      </trkpt>
      <trkpt lat="42.77253" lon="0.13098">
        <ele>2135</ele>
        <time>2022-03-27T09:24:34Z</time>
      </trkpt>
      <trkpt lat="42.77252" lon="0.13095">
        <ele>2136</ele>
        <time>2022-03-27T09:24:40Z</time>
      </trkpt>
      <trkpt lat="42.77251" lon="0.13092">
        <ele>2136</ele>
        <time>2022-03-27T09:24:43Z</time>
      </trkpt>
      <trkpt lat="42.7725" lon="0.1309">
        <ele>2136</ele>
        <time>2022-03-27T09:24:46Z</time>
      </trkpt>
      <trkpt lat="42.77249" lon="0.13087">
        <ele>2137</ele>
        <time>2022-03-27T09:24:49Z</time>
      </trkpt>
      <trkpt lat="42.77248" lon="0.13085">
        <ele>2137</ele>
        <time>2022-03-27T09:24:52Z</time>
      </trkpt>
      <trkpt lat="42.77247" lon="0.13082">
        <ele>2138</ele>
        <time>2022-03-27T09:24:55Z</time>
      </trkpt>
      <trkpt lat="42.77247" lon="0.13079">
        <ele>2138</ele>
        <time>2022-03-27T09:24:58Z</time>
      </trkpt>
      <trkpt lat="42.77247" lon="0.13076">
        <ele>2139</ele>
        <time>2022-03-27T09:25:01Z</time>
      </trkpt>
      <trkpt lat="42.77247" lon="0.13074">
        <ele>2139</ele>
        <time>2022-03-27T09:25:04Z</time>
      </trkpt>
      <trkpt lat="42.77249" lon="0.13072">
        <ele>2139</ele>
        <time>2022-03-27T09:25:07Z</time>
      </trkpt>
      <trkpt lat="42.77251" lon="0.1307">
        <ele>2139</ele>
        <time>2022-03-27T09:25:10Z</time>
      </trkpt>
      <trkpt lat="42.77253" lon="0.13069">
        <ele>2141</ele>
        <time>2022-03-27T09:25:13Z</time>
      </trkpt>
      <trkpt lat="42.77255" lon="0.13067">
        <ele>2141</ele>
        <time>2022-03-27T09:25:16Z</time>
      </trkpt>
      <trkpt lat="42.77257" lon="0.13065">
        <ele>2141</ele>
        <time>2022-03-27T09:25:19Z</time>
      </trkpt>
      <trkpt lat="42.77259" lon="0.13064">
        <ele>2142</ele>
        <time>2022-03-27T09:25:22Z</time>
      </trkpt>
      <trkpt lat="42.7726" lon="0.13062">
        <ele>2142</ele>
        <time>2022-03-27T09:25:25Z</time>
      </trkpt>
      <trkpt lat="42.77262" lon="0.1306">
        <ele>2144</ele>
        <time>2022-03-27T09:25:28Z</time>
      </trkpt>
      <trkpt lat="42.77264" lon="0.13058">
        <ele>2144</ele>
        <time>2022-03-27T09:25:31Z</time>
      </trkpt>
      <trkpt lat="42.77266" lon="0.13056">
        <ele>2144</ele>
        <time>2022-03-27T09:25:34Z</time>
      </trkpt>
      <trkpt lat="42.77267" lon="0.13055">
        <ele>2145</ele>
        <time>2022-03-27T09:25:37Z</time>
      </trkpt>
      <trkpt lat="42.77269" lon="0.13053">
        <ele>2145</ele>
        <time>2022-03-27T09:25:40Z</time>
      </trkpt>
      <trkpt lat="42.7727" lon="0.13051">
        <ele>2145</ele>
        <time>2022-03-27T09:25:43Z</time>
      </trkpt>
      <trkpt lat="42.77272" lon="0.1305">
        <ele>2146</ele>
        <time>2022-03-27T09:25:47Z</time>
      </trkpt>
      <trkpt lat="42.77272" lon="0.13047">
        <ele>2147</ele>
        <time>2022-03-27T09:25:51Z</time>
      </trkpt>
      <trkpt lat="42.77272" lon="0.13044">
        <ele>2147</ele>
        <time>2022-03-27T09:25:55Z</time>
      </trkpt>
      <trkpt lat="42.77269" lon="0.13037">
        <ele>2148</ele>
        <time>2022-03-27T09:25:59Z</time>
      </trkpt>
      <trkpt lat="42.77268" lon="0.13035">
        <ele>2148</ele>
        <time>2022-03-27T09:26:12Z</time>
      </trkpt>
      <trkpt lat="42.77266" lon="0.13033">
        <ele>2149</ele>
        <time>2022-03-27T09:26:16Z</time>
      </trkpt>
      <trkpt lat="42.77265" lon="0.13031">
        <ele>2149</ele>
        <time>2022-03-27T09:26:20Z</time>
      </trkpt>
      <trkpt lat="42.77263" lon="0.13029">
        <ele>2149</ele>
        <time>2022-03-27T09:26:24Z</time>
      </trkpt>
      <trkpt lat="42.77262" lon="0.13027">
        <ele>2150</ele>
        <time>2022-03-27T09:26:28Z</time>
      </trkpt>
      <trkpt lat="42.7726" lon="0.13025">
        <ele>2151</ele>
        <time>2022-03-27T09:26:31Z</time>
      </trkpt>
      <trkpt lat="42.77258" lon="0.13023">
        <ele>2151</ele>
        <time>2022-03-27T09:26:34Z</time>
      </trkpt>
      <trkpt lat="42.77256" lon="0.1302">
        <ele>2151</ele>
        <time>2022-03-27T09:26:37Z</time>
      </trkpt>
      <trkpt lat="42.77255" lon="0.13018">
        <ele>2152</ele>
        <time>2022-03-27T09:26:40Z</time>
      </trkpt>
      <trkpt lat="42.77253" lon="0.13016">
        <ele>2152</ele>
        <time>2022-03-27T09:26:43Z</time>
      </trkpt>
      <trkpt lat="42.77252" lon="0.13014">
        <ele>2153</ele>
        <time>2022-03-27T09:26:46Z</time>
      </trkpt>
      <trkpt lat="42.7725" lon="0.13012">
        <ele>2153</ele>
        <time>2022-03-27T09:26:49Z</time>
      </trkpt>
      <trkpt lat="42.77249" lon="0.1301">
        <ele>2153</ele>
        <time>2022-03-27T09:26:53Z</time>
      </trkpt>
      <trkpt lat="42.77248" lon="0.13007">
        <ele>2154</ele>
        <time>2022-03-27T09:26:58Z</time>
      </trkpt>
      <trkpt lat="42.7725" lon="0.13005">
        <ele>2155</ele>
        <time>2022-03-27T09:27:02Z</time>
      </trkpt>
      <trkpt lat="42.77251" lon="0.13004">
        <ele>2156</ele>
        <time>2022-03-27T09:27:05Z</time>
      </trkpt>
      <trkpt lat="42.77253" lon="0.13003">
        <ele>2156</ele>
        <time>2022-03-27T09:27:08Z</time>
      </trkpt>
      <trkpt lat="42.77255" lon="0.13001">
        <ele>2156</ele>
        <time>2022-03-27T09:27:11Z</time>
      </trkpt>
      <trkpt lat="42.77256" lon="0.13">
        <ele>2157</ele>
        <time>2022-03-27T09:27:14Z</time>
      </trkpt>
      <trkpt lat="42.77257" lon="0.12997">
        <ele>2157</ele>
        <time>2022-03-27T09:27:17Z</time>
      </trkpt>
      <trkpt lat="42.77259" lon="0.12995">
        <ele>2158</ele>
        <time>2022-03-27T09:27:20Z</time>
      </trkpt>
      <trkpt lat="42.7726" lon="0.12993">
        <ele>2158</ele>
        <time>2022-03-27T09:27:23Z</time>
      </trkpt>
      <trkpt lat="42.77261" lon="0.1299">
        <ele>2159</ele>
        <time>2022-03-27T09:27:26Z</time>
      </trkpt>
      <trkpt lat="42.77262" lon="0.12987">
        <ele>2159</ele>
        <time>2022-03-27T09:27:29Z</time>
      </trkpt>
      <trkpt lat="42.77263" lon="0.12985">
        <ele>2159</ele>
        <time>2022-03-27T09:27:32Z</time>
      </trkpt>
      <trkpt lat="42.77264" lon="0.12982">
        <ele>2159</ele>
        <time>2022-03-27T09:27:35Z</time>
      </trkpt>
      <trkpt lat="42.77264" lon="0.12979">
        <ele>2160</ele>
        <time>2022-03-27T09:27:37Z</time>
      </trkpt>
      <trkpt lat="42.77265" lon="0.12976">
        <ele>2160</ele>
        <time>2022-03-27T09:27:39Z</time>
      </trkpt>
      <trkpt lat="42.77266" lon="0.12974">
        <ele>2161</ele>
        <time>2022-03-27T09:27:42Z</time>
      </trkpt>
      <trkpt lat="42.77267" lon="0.12971">
        <ele>2161</ele>
        <time>2022-03-27T09:27:45Z</time>
      </trkpt>
      <trkpt lat="42.77268" lon="0.12969">
        <ele>2161</ele>
        <time>2022-03-27T09:27:48Z</time>
      </trkpt>
      <trkpt lat="42.77269" lon="0.12967">
        <ele>2161</ele>
        <time>2022-03-27T09:27:51Z</time>
      </trkpt>
      <trkpt lat="42.7727" lon="0.12964">
        <ele>2161</ele>
        <time>2022-03-27T09:27:54Z</time>
      </trkpt>
      <trkpt lat="42.77272" lon="0.12962">
        <ele>2161</ele>
        <time>2022-03-27T09:27:57Z</time>
      </trkpt>
      <trkpt lat="42.77273" lon="0.1296">
        <ele>2162</ele>
        <time>2022-03-27T09:28:01Z</time>
      </trkpt>
      <trkpt lat="42.77274" lon="0.12957">
        <ele>2162</ele>
        <time>2022-03-27T09:28:04Z</time>
      </trkpt>
      <trkpt lat="42.77276" lon="0.12955">
        <ele>2163</ele>
        <time>2022-03-27T09:28:07Z</time>
      </trkpt>
      <trkpt lat="42.77277" lon="0.12953">
        <ele>2163</ele>
        <time>2022-03-27T09:28:10Z</time>
      </trkpt>
      <trkpt lat="42.77279" lon="0.12951">
        <ele>2163</ele>
        <time>2022-03-27T09:28:13Z</time>
      </trkpt>
      <trkpt lat="42.7728" lon="0.12949">
        <ele>2164</ele>
        <time>2022-03-27T09:28:16Z</time>
      </trkpt>
      <trkpt lat="42.77282" lon="0.12946">
        <ele>2164</ele>
        <time>2022-03-27T09:28:20Z</time>
      </trkpt>
      <trkpt lat="42.77283" lon="0.12944">
        <ele>2165</ele>
        <time>2022-03-27T09:28:23Z</time>
      </trkpt>
      <trkpt lat="42.77284" lon="0.12942">
        <ele>2165</ele>
        <time>2022-03-27T09:28:26Z</time>
      </trkpt>
      <trkpt lat="42.77285" lon="0.1294">
        <ele>2166</ele>
        <time>2022-03-27T09:28:36Z</time>
      </trkpt>
      <trkpt lat="42.77286" lon="0.12937">
        <ele>2166</ele>
        <time>2022-03-27T09:28:39Z</time>
      </trkpt>
      <trkpt lat="42.77287" lon="0.12931">
        <ele>2167</ele>
        <time>2022-03-27T09:28:49Z</time>
      </trkpt>
      <trkpt lat="42.77287" lon="0.12929">
        <ele>2167</ele>
        <time>2022-03-27T09:28:53Z</time>
      </trkpt>
      <trkpt lat="42.77287" lon="0.12926">
        <ele>2167</ele>
        <time>2022-03-27T09:29:28Z</time>
      </trkpt>
      <trkpt lat="42.77286" lon="0.12924">
        <ele>2167</ele>
        <time>2022-03-27T09:29:31Z</time>
      </trkpt>
      <trkpt lat="42.77285" lon="0.12921">
        <ele>2170</ele>
        <time>2022-03-27T09:29:41Z</time>
      </trkpt>
      <trkpt lat="42.77284" lon="0.12919">
        <ele>2170</ele>
        <time>2022-03-27T09:29:44Z</time>
      </trkpt>
      <trkpt lat="42.77283" lon="0.12916">
        <ele>2170</ele>
        <time>2022-03-27T09:29:47Z</time>
      </trkpt>
      <trkpt lat="42.77282" lon="0.12913">
        <ele>2170</ele>
        <time>2022-03-27T09:29:50Z</time>
      </trkpt>
      <trkpt lat="42.77283" lon="0.1291">
        <ele>2170</ele>
        <time>2022-03-27T09:30:25Z</time>
      </trkpt>
      <trkpt lat="42.77283" lon="0.12908">
        <ele>2170</ele>
        <time>2022-03-27T09:30:28Z</time>
      </trkpt>
      <trkpt lat="42.77282" lon="0.12905">
        <ele>2171</ele>
        <time>2022-03-27T09:30:31Z</time>
      </trkpt>
      <trkpt lat="42.77281" lon="0.12902">
        <ele>2171</ele>
        <time>2022-03-27T09:30:34Z</time>
      </trkpt>
      <trkpt lat="42.7728" lon="0.1289">
        <ele>2172</ele>
        <time>2022-03-27T09:30:44Z</time>
      </trkpt>
      <trkpt lat="42.77282" lon="0.12877">
        <ele>2172</ele>
        <time>2022-03-27T09:30:57Z</time>
      </trkpt>
      <trkpt lat="42.77282" lon="0.12863">
        <ele>2172</ele>
        <time>2022-03-27T09:31:10Z</time>
      </trkpt>
      <trkpt lat="42.77279" lon="0.12851">
        <ele>2174</ele>
        <time>2022-03-27T09:31:27Z</time>
      </trkpt>
      <trkpt lat="42.77281" lon="0.12838">
        <ele>2175</ele>
        <time>2022-03-27T09:31:40Z</time>
      </trkpt>
      <trkpt lat="42.77279" lon="0.12825">
        <ele>2177</ele>
        <time>2022-03-27T09:31:52Z</time>
      </trkpt>
      <trkpt lat="42.77278" lon="0.12812">
        <ele>2178</ele>
        <time>2022-03-27T09:32:04Z</time>
      </trkpt>
      <trkpt lat="42.77278" lon="0.12799">
        <ele>2179</ele>
        <time>2022-03-27T09:32:16Z</time>
      </trkpt>
      <trkpt lat="42.77276" lon="0.12786">
        <ele>2181</ele>
        <time>2022-03-27T09:32:27Z</time>
      </trkpt>
      <trkpt lat="42.77276" lon="0.12774">
        <ele>2182</ele>
        <time>2022-03-27T09:32:41Z</time>
      </trkpt>
      <trkpt lat="42.77274" lon="0.12761">
        <ele>2182</ele>
        <time>2022-03-27T09:32:50Z</time>
      </trkpt>
      <trkpt lat="42.77276" lon="0.12749">
        <ele>2184</ele>
        <time>2022-03-27T09:33:16Z</time>
      </trkpt>
      <trkpt lat="42.77276" lon="0.12736">
        <ele>2186</ele>
        <time>2022-03-27T09:33:32Z</time>
      </trkpt>
      <trkpt lat="42.77277" lon="0.12723">
        <ele>2187</ele>
        <time>2022-03-27T09:33:43Z</time>
      </trkpt>
      <trkpt lat="42.77278" lon="0.12711">
        <ele>2189</ele>
        <time>2022-03-27T09:33:54Z</time>
      </trkpt>
      <trkpt lat="42.77279" lon="0.12699">
        <ele>2190</ele>
        <time>2022-03-27T09:34:09Z</time>
      </trkpt>
      <trkpt lat="42.77283" lon="0.12686">
        <ele>2192</ele>
        <time>2022-03-27T09:34:28Z</time>
      </trkpt>
      <trkpt lat="42.77285" lon="0.12674">
        <ele>2192</ele>
        <time>2022-03-27T09:34:43Z</time>
      </trkpt>
      <trkpt lat="42.77287" lon="0.12661">
        <ele>2194</ele>
        <time>2022-03-27T09:34:54Z</time>
      </trkpt>
      <trkpt lat="42.77287" lon="0.12648">
        <ele>2197</ele>
        <time>2022-03-27T09:35:06Z</time>
      </trkpt>
      <trkpt lat="42.77284" lon="0.12637">
        <ele>2198</ele>
        <time>2022-03-27T09:36:03Z</time>
      </trkpt>
      <trkpt lat="42.77288" lon="0.12626">
        <ele>2201</ele>
        <time>2022-03-27T09:36:27Z</time>
      </trkpt>
      <trkpt lat="42.77289" lon="0.12613">
        <ele>2205</ele>
        <time>2022-03-27T09:36:42Z</time>
      </trkpt>
      <trkpt lat="42.77287" lon="0.126">
        <ele>2208</ele>
        <time>2022-03-27T09:36:53Z</time>
      </trkpt>
      <trkpt lat="42.77287" lon="0.12591">
        <ele>2209</ele>
        <time>2022-03-27T09:37:01Z</time>
      </trkpt>
      <trkpt lat="42.77286" lon="0.12588">
        <ele>2210</ele>
        <time>2022-03-27T09:37:04Z</time>
      </trkpt>
      <trkpt lat="42.77285" lon="0.12585">
        <ele>2210</ele>
        <time>2022-03-27T09:37:07Z</time>
      </trkpt>
      <trkpt lat="42.77285" lon="0.12582">
        <ele>2210</ele>
        <time>2022-03-27T09:37:10Z</time>
      </trkpt>
      <trkpt lat="42.77285" lon="0.12579">
        <ele>2210</ele>
        <time>2022-03-27T09:37:13Z</time>
      </trkpt>
      <trkpt lat="42.77285" lon="0.12576">
        <ele>2211</ele>
        <time>2022-03-27T09:37:16Z</time>
      </trkpt>
      <trkpt lat="42.77285" lon="0.12573">
        <ele>2211</ele>
        <time>2022-03-27T09:37:19Z</time>
      </trkpt>
      <trkpt lat="42.77284" lon="0.1257">
        <ele>2212</ele>
        <time>2022-03-27T09:37:22Z</time>
      </trkpt>
      <trkpt lat="42.77282" lon="0.12567">
        <ele>2213</ele>
        <time>2022-03-27T09:37:25Z</time>
      </trkpt>
      <trkpt lat="42.77282" lon="0.12564">
        <ele>2213</ele>
        <time>2022-03-27T09:37:28Z</time>
      </trkpt>
      <trkpt lat="42.77281" lon="0.12561">
        <ele>2213</ele>
        <time>2022-03-27T09:37:31Z</time>
      </trkpt>
      <trkpt lat="42.7728" lon="0.12559">
        <ele>2214</ele>
        <time>2022-03-27T09:37:53Z</time>
      </trkpt>
      <trkpt lat="42.77279" lon="0.12557">
        <ele>2214</ele>
        <time>2022-03-27T09:37:55Z</time>
      </trkpt>
      <trkpt lat="42.77278" lon="0.12554">
        <ele>2214</ele>
        <time>2022-03-27T09:37:57Z</time>
      </trkpt>
      <trkpt lat="42.77277" lon="0.12551">
        <ele>2215</ele>
        <time>2022-03-27T09:38:00Z</time>
      </trkpt>
      <trkpt lat="42.77276" lon="0.12548">
        <ele>2215</ele>
        <time>2022-03-27T09:38:03Z</time>
      </trkpt>
      <trkpt lat="42.77275" lon="0.12546">
        <ele>2215</ele>
        <time>2022-03-27T09:38:06Z</time>
      </trkpt>
      <trkpt lat="42.77274" lon="0.12543">
        <ele>2216</ele>
        <time>2022-03-27T09:38:09Z</time>
      </trkpt>
      <trkpt lat="42.77273" lon="0.1254">
        <ele>2217</ele>
        <time>2022-03-27T09:38:17Z</time>
      </trkpt>
      <trkpt lat="42.77272" lon="0.12538">
        <ele>2217</ele>
        <time>2022-03-27T09:38:20Z</time>
      </trkpt>
      <trkpt lat="42.77272" lon="0.12535">
        <ele>2217</ele>
        <time>2022-03-27T09:38:26Z</time>
      </trkpt>
      <trkpt lat="42.77271" lon="0.12533">
        <ele>2217</ele>
        <time>2022-03-27T09:38:28Z</time>
      </trkpt>
      <trkpt lat="42.77269" lon="0.12531">
        <ele>2217</ele>
        <time>2022-03-27T09:38:30Z</time>
      </trkpt>
      <trkpt lat="42.77268" lon="0.1253">
        <ele>2218</ele>
        <time>2022-03-27T09:38:32Z</time>
      </trkpt>
      <trkpt lat="42.77266" lon="0.12528">
        <ele>2218</ele>
        <time>2022-03-27T09:38:35Z</time>
      </trkpt>
      <trkpt lat="42.77264" lon="0.12526">
        <ele>2219</ele>
        <time>2022-03-27T09:38:38Z</time>
      </trkpt>
      <trkpt lat="42.77262" lon="0.12524">
        <ele>2220</ele>
        <time>2022-03-27T09:38:40Z</time>
      </trkpt>
      <trkpt lat="42.7726" lon="0.12523">
        <ele>2222</ele>
        <time>2022-03-27T09:38:42Z</time>
      </trkpt>
      <trkpt lat="42.77258" lon="0.12521">
        <ele>2222</ele>
        <time>2022-03-27T09:38:44Z</time>
      </trkpt>
      <trkpt lat="42.77256" lon="0.1252">
        <ele>2222</ele>
        <time>2022-03-27T09:38:46Z</time>
      </trkpt>
      <trkpt lat="42.77255" lon="0.12518">
        <ele>2223</ele>
        <time>2022-03-27T09:38:48Z</time>
      </trkpt>
      <trkpt lat="42.77254" lon="0.12516">
        <ele>2223</ele>
        <time>2022-03-27T09:38:50Z</time>
      </trkpt>
      <trkpt lat="42.77254" lon="0.12513">
        <ele>2224</ele>
        <time>2022-03-27T09:38:52Z</time>
      </trkpt>
      <trkpt lat="42.77253" lon="0.1251">
        <ele>2224</ele>
        <time>2022-03-27T09:38:54Z</time>
      </trkpt>
      <trkpt lat="42.77253" lon="0.12508">
        <ele>2225</ele>
        <time>2022-03-27T09:38:56Z</time>
      </trkpt>
      <trkpt lat="42.77254" lon="0.12505">
        <ele>2225</ele>
        <time>2022-03-27T09:38:58Z</time>
      </trkpt>
      <trkpt lat="42.77254" lon="0.12502">
        <ele>2225</ele>
        <time>2022-03-27T09:39:00Z</time>
      </trkpt>
      <trkpt lat="42.77255" lon="0.125">
        <ele>2226</ele>
        <time>2022-03-27T09:39:02Z</time>
      </trkpt>
      <trkpt lat="42.77256" lon="0.12497">
        <ele>2226</ele>
        <time>2022-03-27T09:39:04Z</time>
      </trkpt>
      <trkpt lat="42.77257" lon="0.12495">
        <ele>2227</ele>
        <time>2022-03-27T09:39:06Z</time>
      </trkpt>
      <trkpt lat="42.77258" lon="0.12493">
        <ele>2227</ele>
        <time>2022-03-27T09:39:08Z</time>
      </trkpt>
      <trkpt lat="42.77259" lon="0.12491">
        <ele>2227</ele>
        <time>2022-03-27T09:39:10Z</time>
      </trkpt>
      <trkpt lat="42.77261" lon="0.12489">
        <ele>2227</ele>
        <time>2022-03-27T09:39:12Z</time>
      </trkpt>
      <trkpt lat="42.77263" lon="0.12487">
        <ele>2228</ele>
        <time>2022-03-27T09:39:14Z</time>
      </trkpt>
      <trkpt lat="42.77265" lon="0.12484">
        <ele>2228</ele>
        <time>2022-03-27T09:39:16Z</time>
      </trkpt>
      <trkpt lat="42.77266" lon="0.12481">
        <ele>2228</ele>
        <time>2022-03-27T09:39:19Z</time>
      </trkpt>
      <trkpt lat="42.77267" lon="0.12478">
        <ele>2228</ele>
        <time>2022-03-27T09:39:21Z</time>
      </trkpt>
      <trkpt lat="42.77269" lon="0.12475">
        <ele>2229</ele>
        <time>2022-03-27T09:39:24Z</time>
      </trkpt>
      <trkpt lat="42.77271" lon="0.12473">
        <ele>2229</ele>
        <time>2022-03-27T09:39:27Z</time>
      </trkpt>
      <trkpt lat="42.77272" lon="0.12471">
        <ele>2230</ele>
        <time>2022-03-27T09:39:29Z</time>
      </trkpt>
      <trkpt lat="42.77273" lon="0.12469">
        <ele>2230</ele>
        <time>2022-03-27T09:39:31Z</time>
      </trkpt>
      <trkpt lat="42.77274" lon="0.12467">
        <ele>2231</ele>
        <time>2022-03-27T09:39:33Z</time>
      </trkpt>
      <trkpt lat="42.77276" lon="0.12464">
        <ele>2232</ele>
        <time>2022-03-27T09:39:36Z</time>
      </trkpt>
      <trkpt lat="42.77277" lon="0.12462">
        <ele>2232</ele>
        <time>2022-03-27T09:39:38Z</time>
      </trkpt>
      <trkpt lat="42.77278" lon="0.1246">
        <ele>2232</ele>
        <time>2022-03-27T09:39:40Z</time>
      </trkpt>
      <trkpt lat="42.77279" lon="0.12458">
        <ele>2233</ele>
        <time>2022-03-27T09:39:42Z</time>
      </trkpt>
      <trkpt lat="42.77278" lon="0.12454">
        <ele>2233</ele>
        <time>2022-03-27T09:39:45Z</time>
      </trkpt>
      <trkpt lat="42.77278" lon="0.12452">
        <ele>2234</ele>
        <time>2022-03-27T09:39:47Z</time>
      </trkpt>
      <trkpt lat="42.77276" lon="0.12449">
        <ele>2234</ele>
        <time>2022-03-27T09:39:49Z</time>
      </trkpt>
      <trkpt lat="42.77275" lon="0.12447">
        <ele>2234</ele>
        <time>2022-03-27T09:39:51Z</time>
      </trkpt>
      <trkpt lat="42.77273" lon="0.12444">
        <ele>2234</ele>
        <time>2022-03-27T09:39:54Z</time>
      </trkpt>
      <trkpt lat="42.77272" lon="0.12443">
        <ele>2234</ele>
        <time>2022-03-27T09:39:56Z</time>
      </trkpt>
      <trkpt lat="42.7727" lon="0.12441">
        <ele>2235</ele>
        <time>2022-03-27T09:39:58Z</time>
      </trkpt>
      <trkpt lat="42.77269" lon="0.12439">
        <ele>2235</ele>
        <time>2022-03-27T09:40:00Z</time>
      </trkpt>
      <trkpt lat="42.77267" lon="0.12436">
        <ele>2235</ele>
        <time>2022-03-27T09:40:03Z</time>
      </trkpt>
      <trkpt lat="42.77266" lon="0.12433">
        <ele>2236</ele>
        <time>2022-03-27T09:40:06Z</time>
      </trkpt>
      <trkpt lat="42.77265" lon="0.1243">
        <ele>2238</ele>
        <time>2022-03-27T09:40:09Z</time>
      </trkpt>
      <trkpt lat="42.77264" lon="0.12428">
        <ele>2237</ele>
        <time>2022-03-27T09:40:12Z</time>
      </trkpt>
      <trkpt lat="42.77264" lon="0.12425">
        <ele>2238</ele>
        <time>2022-03-27T09:40:15Z</time>
      </trkpt>
      <trkpt lat="42.77264" lon="0.12422">
        <ele>2239</ele>
        <time>2022-03-27T09:40:19Z</time>
      </trkpt>
      <trkpt lat="42.77264" lon="0.12419">
        <ele>2239</ele>
        <time>2022-03-27T09:40:23Z</time>
      </trkpt>
      <trkpt lat="42.77265" lon="0.12416">
        <ele>2239</ele>
        <time>2022-03-27T09:40:28Z</time>
      </trkpt>
      <trkpt lat="42.77266" lon="0.12414">
        <ele>2240</ele>
        <time>2022-03-27T09:40:31Z</time>
      </trkpt>
      <trkpt lat="42.77267" lon="0.12411">
        <ele>2240</ele>
        <time>2022-03-27T09:40:35Z</time>
      </trkpt>
      <trkpt lat="42.77268" lon="0.12409">
        <ele>2241</ele>
        <time>2022-03-27T09:40:40Z</time>
      </trkpt>
      <trkpt lat="42.7727" lon="0.12406">
        <ele>2241</ele>
        <time>2022-03-27T09:40:43Z</time>
      </trkpt>
      <trkpt lat="42.77271" lon="0.12404">
        <ele>2241</ele>
        <time>2022-03-27T09:40:46Z</time>
      </trkpt>
      <trkpt lat="42.77272" lon="0.12401">
        <ele>2242</ele>
        <time>2022-03-27T09:40:50Z</time>
      </trkpt>
      <trkpt lat="42.77274" lon="0.124">
        <ele>2242</ele>
        <time>2022-03-27T09:40:57Z</time>
      </trkpt>
      <trkpt lat="42.77276" lon="0.12398">
        <ele>2243</ele>
        <time>2022-03-27T09:41:00Z</time>
      </trkpt>
      <trkpt lat="42.77277" lon="0.12396">
        <ele>2243</ele>
        <time>2022-03-27T09:41:04Z</time>
      </trkpt>
      <trkpt lat="42.77279" lon="0.12394">
        <ele>2243</ele>
        <time>2022-03-27T09:41:08Z</time>
      </trkpt>
      <trkpt lat="42.77281" lon="0.12392">
        <ele>2244</ele>
        <time>2022-03-27T09:41:11Z</time>
      </trkpt>
      <trkpt lat="42.77282" lon="0.1239">
        <ele>2244</ele>
        <time>2022-03-27T09:41:14Z</time>
      </trkpt>
      <trkpt lat="42.77284" lon="0.12388">
        <ele>2245</ele>
        <time>2022-03-27T09:41:17Z</time>
      </trkpt>
      <trkpt lat="42.77286" lon="0.12387">
        <ele>2246</ele>
        <time>2022-03-27T09:41:20Z</time>
      </trkpt>
      <trkpt lat="42.77287" lon="0.12385">
        <ele>2246</ele>
        <time>2022-03-27T09:41:23Z</time>
      </trkpt>
      <trkpt lat="42.77289" lon="0.12384">
        <ele>2248</ele>
        <time>2022-03-27T09:41:31Z</time>
      </trkpt>
      <trkpt lat="42.77291" lon="0.12383">
        <ele>2248</ele>
        <time>2022-03-27T09:41:34Z</time>
      </trkpt>
      <trkpt lat="42.77293" lon="0.12382">
        <ele>2248</ele>
        <time>2022-03-27T09:41:37Z</time>
      </trkpt>
      <trkpt lat="42.77295" lon="0.12381">
        <ele>2249</ele>
        <time>2022-03-27T09:41:40Z</time>
      </trkpt>
      <trkpt lat="42.77298" lon="0.12379">
        <ele>2249</ele>
        <time>2022-03-27T09:41:45Z</time>
      </trkpt>
      <trkpt lat="42.773" lon="0.12379">
        <ele>2249</ele>
        <time>2022-03-27T09:41:48Z</time>
      </trkpt>
      <trkpt lat="42.77302" lon="0.12379">
        <ele>2250</ele>
        <time>2022-03-27T09:41:52Z</time>
      </trkpt>
      <trkpt lat="42.77304" lon="0.12379">
        <ele>2251</ele>
        <time>2022-03-27T09:41:55Z</time>
      </trkpt>
      <trkpt lat="42.77306" lon="0.12379">
        <ele>2251</ele>
        <time>2022-03-27T09:41:59Z</time>
      </trkpt>
      <trkpt lat="42.77307" lon="0.12376">
        <ele>2252</ele>
        <time>2022-03-27T09:42:02Z</time>
      </trkpt>
      <trkpt lat="42.77307" lon="0.12373">
        <ele>2252</ele>
        <time>2022-03-27T09:42:05Z</time>
      </trkpt>
      <trkpt lat="42.77307" lon="0.12371">
        <ele>2252</ele>
        <time>2022-03-27T09:42:07Z</time>
      </trkpt>
      <trkpt lat="42.77307" lon="0.12368">
        <ele>2253</ele>
        <time>2022-03-27T09:42:10Z</time>
      </trkpt>
      <trkpt lat="42.77308" lon="0.12365">
        <ele>2253</ele>
        <time>2022-03-27T09:42:12Z</time>
      </trkpt>
      <trkpt lat="42.77308" lon="0.12362">
        <ele>2253</ele>
        <time>2022-03-27T09:42:15Z</time>
      </trkpt>
      <trkpt lat="42.77309" lon="0.12359">
        <ele>2253</ele>
        <time>2022-03-27T09:42:18Z</time>
      </trkpt>
      <trkpt lat="42.7731" lon="0.12356">
        <ele>2253</ele>
        <time>2022-03-27T09:42:20Z</time>
      </trkpt>
      <trkpt lat="42.77311" lon="0.12353">
        <ele>2255</ele>
        <time>2022-03-27T09:42:23Z</time>
      </trkpt>
      <trkpt lat="42.77313" lon="0.1235">
        <ele>2255</ele>
        <time>2022-03-27T09:42:26Z</time>
      </trkpt>
      <trkpt lat="42.77314" lon="0.12347">
        <ele>2255</ele>
        <time>2022-03-27T09:42:29Z</time>
      </trkpt>
      <trkpt lat="42.77315" lon="0.12345">
        <ele>2256</ele>
        <time>2022-03-27T09:42:32Z</time>
      </trkpt>
      <trkpt lat="42.77316" lon="0.12341">
        <ele>2256</ele>
        <time>2022-03-27T09:42:35Z</time>
      </trkpt>
      <trkpt lat="42.77316" lon="0.12338">
        <ele>2257</ele>
        <time>2022-03-27T09:42:38Z</time>
      </trkpt>
      <trkpt lat="42.77317" lon="0.12335">
        <ele>2258</ele>
        <time>2022-03-27T09:42:41Z</time>
      </trkpt>
      <trkpt lat="42.77318" lon="0.12332">
        <ele>2258</ele>
        <time>2022-03-27T09:42:44Z</time>
      </trkpt>
      <trkpt lat="42.77319" lon="0.12329">
        <ele>2258</ele>
        <time>2022-03-27T09:42:47Z</time>
      </trkpt>
      <trkpt lat="42.7732" lon="0.12326">
        <ele>2259</ele>
        <time>2022-03-27T09:42:50Z</time>
      </trkpt>
      <trkpt lat="42.77322" lon="0.12326">
        <ele>2260</ele>
        <time>2022-03-27T09:43:15Z</time>
      </trkpt>
      <trkpt lat="42.77324" lon="0.12324">
        <ele>2260</ele>
        <time>2022-03-27T09:43:18Z</time>
      </trkpt>
      <trkpt lat="42.77325" lon="0.12322">
        <ele>2261</ele>
        <time>2022-03-27T09:43:21Z</time>
      </trkpt>
      <trkpt lat="42.77327" lon="0.1232">
        <ele>2261</ele>
        <time>2022-03-27T09:43:24Z</time>
      </trkpt>
      <trkpt lat="42.77328" lon="0.12319">
        <ele>2261</ele>
        <time>2022-03-27T09:43:27Z</time>
      </trkpt>
      <trkpt lat="42.77329" lon="0.12317">
        <ele>2261</ele>
        <time>2022-03-27T09:43:29Z</time>
      </trkpt>
      <trkpt lat="42.77331" lon="0.12314">
        <ele>2261</ele>
        <time>2022-03-27T09:43:32Z</time>
      </trkpt>
      <trkpt lat="42.77333" lon="0.12312">
        <ele>2262</ele>
        <time>2022-03-27T09:43:35Z</time>
      </trkpt>
      <trkpt lat="42.77334" lon="0.1231">
        <ele>2262</ele>
        <time>2022-03-27T09:43:38Z</time>
      </trkpt>
      <trkpt lat="42.77336" lon="0.12308">
        <ele>2263</ele>
        <time>2022-03-27T09:43:41Z</time>
      </trkpt>
      <trkpt lat="42.77337" lon="0.12305">
        <ele>2263</ele>
        <time>2022-03-27T09:43:44Z</time>
      </trkpt>
      <trkpt lat="42.77339" lon="0.12303">
        <ele>2263</ele>
        <time>2022-03-27T09:43:47Z</time>
      </trkpt>
      <trkpt lat="42.77341" lon="0.123">
        <ele>2264</ele>
        <time>2022-03-27T09:43:50Z</time>
      </trkpt>
      <trkpt lat="42.77343" lon="0.12299">
        <ele>2264</ele>
        <time>2022-03-27T09:43:52Z</time>
      </trkpt>
      <trkpt lat="42.77345" lon="0.12296">
        <ele>2264</ele>
        <time>2022-03-27T09:43:54Z</time>
      </trkpt>
      <trkpt lat="42.77346" lon="0.12294">
        <ele>2264</ele>
        <time>2022-03-27T09:43:56Z</time>
      </trkpt>
      <trkpt lat="42.77347" lon="0.12292">
        <ele>2265</ele>
        <time>2022-03-27T09:43:59Z</time>
      </trkpt>
      <trkpt lat="42.77349" lon="0.12289">
        <ele>2265</ele>
        <time>2022-03-27T09:44:06Z</time>
      </trkpt>
      <trkpt lat="42.7735" lon="0.12287">
        <ele>2265</ele>
        <time>2022-03-27T09:44:09Z</time>
      </trkpt>
      <trkpt lat="42.77351" lon="0.12285">
        <ele>2266</ele>
        <time>2022-03-27T09:44:12Z</time>
      </trkpt>
      <trkpt lat="42.77353" lon="0.12282">
        <ele>2267</ele>
        <time>2022-03-27T09:44:15Z</time>
      </trkpt>
      <trkpt lat="42.77354" lon="0.1228">
        <ele>2267</ele>
        <time>2022-03-27T09:44:17Z</time>
      </trkpt>
      <trkpt lat="42.77355" lon="0.12277">
        <ele>2267</ele>
        <time>2022-03-27T09:44:20Z</time>
      </trkpt>
      <trkpt lat="42.77356" lon="0.12275">
        <ele>2268</ele>
        <time>2022-03-27T09:44:51Z</time>
      </trkpt>
      <trkpt lat="42.77358" lon="0.12273">
        <ele>2268</ele>
        <time>2022-03-27T09:44:53Z</time>
      </trkpt>
      <trkpt lat="42.77359" lon="0.12271">
        <ele>2268</ele>
        <time>2022-03-27T09:44:55Z</time>
      </trkpt>
      <trkpt lat="42.77361" lon="0.12268">
        <ele>2269</ele>
        <time>2022-03-27T09:44:57Z</time>
      </trkpt>
      <trkpt lat="42.77362" lon="0.12266">
        <ele>2270</ele>
        <time>2022-03-27T09:45:00Z</time>
      </trkpt>
      <trkpt lat="42.77364" lon="0.12263">
        <ele>2270</ele>
        <time>2022-03-27T09:45:03Z</time>
      </trkpt>
      <trkpt lat="42.77365" lon="0.1226">
        <ele>2271</ele>
        <time>2022-03-27T09:45:05Z</time>
      </trkpt>
      <trkpt lat="42.77366" lon="0.12258">
        <ele>2271</ele>
        <time>2022-03-27T09:45:07Z</time>
      </trkpt>
      <trkpt lat="42.77368" lon="0.12254">
        <ele>2272</ele>
        <time>2022-03-27T09:45:10Z</time>
      </trkpt>
      <trkpt lat="42.77369" lon="0.12252">
        <ele>2272</ele>
        <time>2022-03-27T09:45:12Z</time>
      </trkpt>
      <trkpt lat="42.7737" lon="0.1225">
        <ele>2274</ele>
        <time>2022-03-27T09:45:14Z</time>
      </trkpt>
      <trkpt lat="42.77372" lon="0.12248">
        <ele>2274</ele>
        <time>2022-03-27T09:45:16Z</time>
      </trkpt>
      <trkpt lat="42.77372" lon="0.12245">
        <ele>2274</ele>
        <time>2022-03-27T09:45:18Z</time>
      </trkpt>
      <trkpt lat="42.77373" lon="0.12242">
        <ele>2274</ele>
        <time>2022-03-27T09:45:21Z</time>
      </trkpt>
      <trkpt lat="42.77374" lon="0.12239">
        <ele>2275</ele>
        <time>2022-03-27T09:45:24Z</time>
      </trkpt>
      <trkpt lat="42.77375" lon="0.12236">
        <ele>2275</ele>
        <time>2022-03-27T09:45:27Z</time>
      </trkpt>
      <trkpt lat="42.77375" lon="0.12233">
        <ele>2275</ele>
        <time>2022-03-27T09:45:30Z</time>
      </trkpt>
      <trkpt lat="42.77376" lon="0.12231">
        <ele>2276</ele>
        <time>2022-03-27T09:45:33Z</time>
      </trkpt>
      <trkpt lat="42.77377" lon="0.12228">
        <ele>2276</ele>
        <time>2022-03-27T09:45:36Z</time>
      </trkpt>
      <trkpt lat="42.77379" lon="0.12225">
        <ele>2277</ele>
        <time>2022-03-27T09:45:39Z</time>
      </trkpt>
      <trkpt lat="42.7738" lon="0.12222">
        <ele>2278</ele>
        <time>2022-03-27T09:45:43Z</time>
      </trkpt>
      <trkpt lat="42.7738" lon="0.1222">
        <ele>2278</ele>
        <time>2022-03-27T09:45:46Z</time>
      </trkpt>
      <trkpt lat="42.77381" lon="0.12217">
        <ele>2278</ele>
        <time>2022-03-27T09:45:49Z</time>
      </trkpt>
      <trkpt lat="42.7738" lon="0.12214">
        <ele>2279</ele>
        <time>2022-03-27T09:45:52Z</time>
      </trkpt>
      <trkpt lat="42.7738" lon="0.12211">
        <ele>2279</ele>
        <time>2022-03-27T09:45:54Z</time>
      </trkpt>
      <trkpt lat="42.77379" lon="0.12209">
        <ele>2280</ele>
        <time>2022-03-27T09:45:58Z</time>
      </trkpt>
      <trkpt lat="42.77378" lon="0.12206">
        <ele>2281</ele>
        <time>2022-03-27T09:46:02Z</time>
      </trkpt>
      <trkpt lat="42.77377" lon="0.12204">
        <ele>2281</ele>
        <time>2022-03-27T09:46:04Z</time>
      </trkpt>
      <trkpt lat="42.77376" lon="0.12202">
        <ele>2281</ele>
        <time>2022-03-27T09:46:06Z</time>
      </trkpt>
      <trkpt lat="42.77375" lon="0.12199">
        <ele>2282</ele>
        <time>2022-03-27T09:46:09Z</time>
      </trkpt>
      <trkpt lat="42.77375" lon="0.12197">
        <ele>2282</ele>
        <time>2022-03-27T09:46:12Z</time>
      </trkpt>
      <trkpt lat="42.77373" lon="0.12194">
        <ele>2283</ele>
        <time>2022-03-27T09:46:15Z</time>
      </trkpt>
      <trkpt lat="42.77372" lon="0.12191">
        <ele>2283</ele>
        <time>2022-03-27T09:46:17Z</time>
      </trkpt>
      <trkpt lat="42.77373" lon="0.12194">
        <ele>2283</ele>
        <time>2022-03-27T09:46:19Z</time>
      </trkpt>
      <trkpt lat="42.77374" lon="0.12197">
        <ele>2283</ele>
        <time>2022-03-27T09:46:21Z</time>
      </trkpt>
      <trkpt lat="42.77372" lon="0.12191">
        <ele>2284</ele>
        <time>2022-03-27T09:46:26Z</time>
      </trkpt>
      <trkpt lat="42.77372" lon="0.12188">
        <ele>2285</ele>
        <time>2022-03-27T09:46:28Z</time>
      </trkpt>
      <trkpt lat="42.77374" lon="0.1218">
        <ele>2286</ele>
        <time>2022-03-27T09:46:50Z</time>
      </trkpt>
      <trkpt lat="42.77373" lon="0.12177">
        <ele>2286</ele>
        <time>2022-03-27T09:47:05Z</time>
      </trkpt>
      <trkpt lat="42.77373" lon="0.12174">
        <ele>2287</ele>
        <time>2022-03-27T09:47:09Z</time>
      </trkpt>
      <trkpt lat="42.77372" lon="0.12172">
        <ele>2287</ele>
        <time>2022-03-27T09:47:11Z</time>
      </trkpt>
      <trkpt lat="42.77371" lon="0.1217">
        <ele>2288</ele>
        <time>2022-03-27T09:47:13Z</time>
      </trkpt>
      <trkpt lat="42.7737" lon="0.12168">
        <ele>2288</ele>
        <time>2022-03-27T09:47:16Z</time>
      </trkpt>
      <trkpt lat="42.77369" lon="0.12165">
        <ele>2288</ele>
        <time>2022-03-27T09:47:19Z</time>
      </trkpt>
      <trkpt lat="42.77369" lon="0.12162">
        <ele>2289</ele>
        <time>2022-03-27T09:47:22Z</time>
      </trkpt>
      <trkpt lat="42.77368" lon="0.1216">
        <ele>2289</ele>
        <time>2022-03-27T09:47:24Z</time>
      </trkpt>
      <trkpt lat="42.77367" lon="0.12158">
        <ele>2289</ele>
        <time>2022-03-27T09:47:27Z</time>
      </trkpt>
      <trkpt lat="42.77367" lon="0.12145">
        <ele>2292</ele>
        <time>2022-03-27T09:47:49Z</time>
      </trkpt>
      <trkpt lat="42.77367" lon="0.12132">
        <ele>2295</ele>
        <time>2022-03-27T09:48:11Z</time>
      </trkpt>
      <trkpt lat="42.77367" lon="0.12121">
        <ele>2297</ele>
        <time>2022-03-27T09:48:23Z</time>
      </trkpt>
      <trkpt lat="42.77369" lon="0.12119">
        <ele>2298</ele>
        <time>2022-03-27T09:48:27Z</time>
      </trkpt>
      <trkpt lat="42.7737" lon="0.12117">
        <ele>2298</ele>
        <time>2022-03-27T09:48:31Z</time>
      </trkpt>
      <trkpt lat="42.77372" lon="0.12115">
        <ele>2300</ele>
        <time>2022-03-27T09:48:35Z</time>
      </trkpt>
      <trkpt lat="42.77373" lon="0.12112">
        <ele>2300</ele>
        <time>2022-03-27T09:48:38Z</time>
      </trkpt>
      <trkpt lat="42.77375" lon="0.1211">
        <ele>2300</ele>
        <time>2022-03-27T09:48:41Z</time>
      </trkpt>
      <trkpt lat="42.77377" lon="0.12109">
        <ele>2300</ele>
        <time>2022-03-27T09:48:44Z</time>
      </trkpt>
      <trkpt lat="42.77384" lon="0.12103">
        <ele>2302</ele>
        <time>2022-03-27T09:48:52Z</time>
      </trkpt>
      <trkpt lat="42.77386" lon="0.12101">
        <ele>2302</ele>
        <time>2022-03-27T09:48:54Z</time>
      </trkpt>
      <trkpt lat="42.77388" lon="0.121">
        <ele>2303</ele>
        <time>2022-03-27T09:48:57Z</time>
      </trkpt>
      <trkpt lat="42.77389" lon="0.12098">
        <ele>2303</ele>
        <time>2022-03-27T09:49:00Z</time>
      </trkpt>
      <trkpt lat="42.77393" lon="0.12095">
        <ele>2304</ele>
        <time>2022-03-27T09:49:07Z</time>
      </trkpt>
      <trkpt lat="42.77395" lon="0.12094">
        <ele>2304</ele>
        <time>2022-03-27T09:49:10Z</time>
      </trkpt>
      <trkpt lat="42.77397" lon="0.12093">
        <ele>2305</ele>
        <time>2022-03-27T09:49:13Z</time>
      </trkpt>
      <trkpt lat="42.77399" lon="0.12093">
        <ele>2305</ele>
        <time>2022-03-27T09:49:17Z</time>
      </trkpt>
      <trkpt lat="42.77401" lon="0.12092">
        <ele>2306</ele>
        <time>2022-03-27T09:49:20Z</time>
      </trkpt>
      <trkpt lat="42.77403" lon="0.1209">
        <ele>2306</ele>
        <time>2022-03-27T09:49:23Z</time>
      </trkpt>
      <trkpt lat="42.77405" lon="0.12089">
        <ele>2307</ele>
        <time>2022-03-27T09:49:25Z</time>
      </trkpt>
      <trkpt lat="42.77406" lon="0.12087">
        <ele>2307</ele>
        <time>2022-03-27T09:49:28Z</time>
      </trkpt>
      <trkpt lat="42.77409" lon="0.12084">
        <ele>2308</ele>
        <time>2022-03-27T09:49:35Z</time>
      </trkpt>
      <trkpt lat="42.77411" lon="0.12082">
        <ele>2308</ele>
        <time>2022-03-27T09:49:39Z</time>
      </trkpt>
      <trkpt lat="42.77413" lon="0.12079">
        <ele>2310</ele>
        <time>2022-03-27T09:49:47Z</time>
      </trkpt>
      <trkpt lat="42.77415" lon="0.12067">
        <ele>2311</ele>
        <time>2022-03-27T09:50:15Z</time>
      </trkpt>
      <trkpt lat="42.77414" lon="0.12065">
        <ele>2312</ele>
        <time>2022-03-27T09:50:18Z</time>
      </trkpt>
      <trkpt lat="42.7741" lon="0.12059">
        <ele>2313</ele>
        <time>2022-03-27T09:50:27Z</time>
      </trkpt>
      <trkpt lat="42.77409" lon="0.12057">
        <ele>2314</ele>
        <time>2022-03-27T09:50:30Z</time>
      </trkpt>
      <trkpt lat="42.77407" lon="0.12056">
        <ele>2314</ele>
        <time>2022-03-27T09:50:32Z</time>
      </trkpt>
      <trkpt lat="42.77401" lon="0.12046">
        <ele>2317</ele>
        <time>2022-03-27T09:50:49Z</time>
      </trkpt>
      <trkpt lat="42.77393" lon="0.12038">
        <ele>2318</ele>
        <time>2022-03-27T09:51:02Z</time>
      </trkpt>
      <trkpt lat="42.77387" lon="0.12029">
        <ele>2321</ele>
        <time>2022-03-27T09:51:17Z</time>
      </trkpt>
      <trkpt lat="42.77381" lon="0.12018">
        <ele>2324</ele>
        <time>2022-03-27T09:51:35Z</time>
      </trkpt>
      <trkpt lat="42.77375" lon="0.12008">
        <ele>2328</ele>
        <time>2022-03-27T09:51:53Z</time>
      </trkpt>
      <trkpt lat="42.77381" lon="0.11997">
        <ele>2331</ele>
        <time>2022-03-27T09:52:17Z</time>
      </trkpt>
      <trkpt lat="42.77388" lon="0.11988">
        <ele>2333</ele>
        <time>2022-03-27T09:52:31Z</time>
      </trkpt>
      <trkpt lat="42.77395" lon="0.11979">
        <ele>2335</ele>
        <time>2022-03-27T09:52:47Z</time>
      </trkpt>
      <trkpt lat="42.77403" lon="0.11974">
        <ele>2336</ele>
        <time>2022-03-27T09:53:11Z</time>
      </trkpt>
      <trkpt lat="42.77412" lon="0.11968">
        <ele>2338</ele>
        <time>2022-03-27T09:53:21Z</time>
      </trkpt>
      <trkpt lat="42.77419" lon="0.11962">
        <ele>2339</ele>
        <time>2022-03-27T09:53:32Z</time>
      </trkpt>
      <trkpt lat="42.77414" lon="0.11952">
        <ele>2343</ele>
        <time>2022-03-27T09:54:09Z</time>
      </trkpt>
      <trkpt lat="42.77407" lon="0.11944">
        <ele>2345</ele>
        <time>2022-03-27T09:54:33Z</time>
      </trkpt>
      <trkpt lat="42.77415" lon="0.11937">
        <ele>2346</ele>
        <time>2022-03-27T09:55:56Z</time>
      </trkpt>
      <trkpt lat="42.77406" lon="0.11934">
        <ele>2346</ele>
        <time>2022-03-27T10:00:25Z</time>
      </trkpt>
      <trkpt lat="42.77415" lon="0.11935">
        <ele>2345</ele>
        <time>2022-03-27T10:01:03Z</time>
      </trkpt>
      <trkpt lat="42.7741" lon="0.11925">
        <ele>2346</ele>
        <time>2022-03-27T10:06:07Z</time>
      </trkpt>
      <trkpt lat="42.77416" lon="0.11935">
        <ele>2346</ele>
        <time>2022-03-27T10:06:21Z</time>
      </trkpt>
      <trkpt lat="42.77421" lon="0.11925">
        <ele>2348</ele>
        <time>2022-03-27T10:06:53Z</time>
      </trkpt>
      <trkpt lat="42.77429" lon="0.11916">
        <ele>2350</ele>
        <time>2022-03-27T10:07:04Z</time>
      </trkpt>
      <trkpt lat="42.7743" lon="0.11904">
        <ele>2355</ele>
        <time>2022-03-27T10:07:25Z</time>
      </trkpt>
      <trkpt lat="42.77424" lon="0.11895">
        <ele>2357</ele>
        <time>2022-03-27T10:07:38Z</time>
      </trkpt>
      <trkpt lat="42.77426" lon="0.11883">
        <ele>2363</ele>
        <time>2022-03-27T10:08:03Z</time>
      </trkpt>
      <trkpt lat="42.77433" lon="0.11874">
        <ele>2365</ele>
        <time>2022-03-27T10:08:21Z</time>
      </trkpt>
      <trkpt lat="42.77431" lon="0.11862">
        <ele>2369</ele>
        <time>2022-03-27T10:08:42Z</time>
      </trkpt>
      <trkpt lat="42.77424" lon="0.11853">
        <ele>2371</ele>
        <time>2022-03-27T10:08:58Z</time>
      </trkpt>
      <trkpt lat="42.77427" lon="0.11842">
        <ele>2376</ele>
        <time>2022-03-27T10:09:23Z</time>
      </trkpt>
      <trkpt lat="42.77429" lon="0.11829">
        <ele>2383</ele>
        <time>2022-03-27T10:09:56Z</time>
      </trkpt>
      <trkpt lat="42.77422" lon="0.1182">
        <ele>2385</ele>
        <time>2022-03-27T10:10:11Z</time>
      </trkpt>
      <trkpt lat="42.77419" lon="0.11807">
        <ele>2387</ele>
        <time>2022-03-27T10:10:25Z</time>
      </trkpt>
      <trkpt lat="42.77428" lon="0.11804">
        <ele>2392</ele>
        <time>2022-03-27T10:10:51Z</time>
      </trkpt>
      <trkpt lat="42.77437" lon="0.118">
        <ele>2394</ele>
        <time>2022-03-27T10:11:04Z</time>
      </trkpt>
      <trkpt lat="42.7743" lon="0.11791">
        <ele>2397</ele>
        <time>2022-03-27T10:11:27Z</time>
      </trkpt>
      <trkpt lat="42.77425" lon="0.11781">
        <ele>2400</ele>
        <time>2022-03-27T10:11:46Z</time>
      </trkpt>
      <trkpt lat="42.77418" lon="0.11772">
        <ele>2401</ele>
        <time>2022-03-27T10:12:00Z</time>
      </trkpt>
      <trkpt lat="42.77413" lon="0.11761">
        <ele>2406</ele>
        <time>2022-03-27T10:12:23Z</time>
      </trkpt>
      <trkpt lat="42.77408" lon="0.11751">
        <ele>2409</ele>
        <time>2022-03-27T10:12:40Z</time>
      </trkpt>
      <trkpt lat="42.77414" lon="0.11741">
        <ele>2413</ele>
        <time>2022-03-27T10:12:59Z</time>
      </trkpt>
      <trkpt lat="42.77423" lon="0.11738">
        <ele>2416</ele>
        <time>2022-03-27T10:13:15Z</time>
      </trkpt>
      <trkpt lat="42.77431" lon="0.11733">
        <ele>2418</ele>
        <time>2022-03-27T10:13:31Z</time>
      </trkpt>
      <trkpt lat="42.77432" lon="0.1172">
        <ele>2424</ele>
        <time>2022-03-27T10:14:06Z</time>
      </trkpt>
      <trkpt lat="42.77426" lon="0.11711">
        <ele>2426</ele>
        <time>2022-03-27T10:14:22Z</time>
      </trkpt>
      <trkpt lat="42.77421" lon="0.11701">
        <ele>2430</ele>
        <time>2022-03-27T10:14:38Z</time>
      </trkpt>
      <trkpt lat="42.77414" lon="0.11692">
        <ele>2432</ele>
        <time>2022-03-27T10:14:55Z</time>
      </trkpt>
      <trkpt lat="42.77421" lon="0.11683">
        <ele>2436</ele>
        <time>2022-03-27T10:15:14Z</time>
      </trkpt>
      <trkpt lat="42.7743" lon="0.11679">
        <ele>2438</ele>
        <time>2022-03-27T10:15:28Z</time>
      </trkpt>
      <trkpt lat="42.77439" lon="0.11676">
        <ele>2441</ele>
        <time>2022-03-27T10:15:50Z</time>
      </trkpt>
      <trkpt lat="42.77448" lon="0.11673">
        <ele>2445</ele>
        <time>2022-03-27T10:16:09Z</time>
      </trkpt>
      <trkpt lat="42.77457" lon="0.1167">
        <ele>2448</ele>
        <time>2022-03-27T10:16:31Z</time>
      </trkpt>
      <trkpt lat="42.77459" lon="0.11658">
        <ele>2453</ele>
        <time>2022-03-27T10:16:57Z</time>
      </trkpt>
      <trkpt lat="42.77452" lon="0.11648">
        <ele>2456</ele>
        <time>2022-03-27T10:17:19Z</time>
      </trkpt>
      <trkpt lat="42.7745" lon="0.11637">
        <ele>2459</ele>
        <time>2022-03-27T10:17:36Z</time>
      </trkpt>
      <trkpt lat="42.77458" lon="0.1163">
        <ele>2463</ele>
        <time>2022-03-27T10:18:09Z</time>
      </trkpt>
      <trkpt lat="42.77467" lon="0.11629">
        <ele>2464</ele>
        <time>2022-03-27T10:18:22Z</time>
      </trkpt>
      <trkpt lat="42.77463" lon="0.11618">
        <ele>2468</ele>
        <time>2022-03-27T10:18:48Z</time>
      </trkpt>
      <trkpt lat="42.77459" lon="0.11606">
        <ele>2470</ele>
        <time>2022-03-27T10:19:07Z</time>
      </trkpt>
      <trkpt lat="42.77455" lon="0.11596">
        <ele>2474</ele>
        <time>2022-03-27T10:19:24Z</time>
      </trkpt>
      <trkpt lat="42.77452" lon="0.1159">
        <ele>2476</ele>
        <time>2022-03-27T10:19:32Z</time>
      </trkpt>
      <trkpt lat="42.77451" lon="0.11583">
        <ele>2477</ele>
        <time>2022-03-27T10:19:40Z</time>
      </trkpt>
      <trkpt lat="42.77452" lon="0.11586">
        <ele>2478</ele>
        <time>2022-03-27T10:19:46Z</time>
      </trkpt>
      <trkpt lat="42.77454" lon="0.11585">
        <ele>2478</ele>
        <time>2022-03-27T10:19:48Z</time>
      </trkpt>
      <trkpt lat="42.77456" lon="0.11585">
        <ele>2478</ele>
        <time>2022-03-27T10:19:51Z</time>
      </trkpt>
      <trkpt lat="42.77458" lon="0.11584">
        <ele>2478</ele>
        <time>2022-03-27T10:19:54Z</time>
      </trkpt>
      <trkpt lat="42.77461" lon="0.11584">
        <ele>2479</ele>
        <time>2022-03-27T10:19:58Z</time>
      </trkpt>
      <trkpt lat="42.77463" lon="0.11584">
        <ele>2479</ele>
        <time>2022-03-27T10:20:01Z</time>
      </trkpt>
      <trkpt lat="42.77469" lon="0.11581">
        <ele>2481</ele>
        <time>2022-03-27T10:20:12Z</time>
      </trkpt>
      <trkpt lat="42.77471" lon="0.1158">
        <ele>2481</ele>
        <time>2022-03-27T10:20:15Z</time>
      </trkpt>
      <trkpt lat="42.77473" lon="0.11579">
        <ele>2482</ele>
        <time>2022-03-27T10:20:19Z</time>
      </trkpt>
      <trkpt lat="42.77475" lon="0.11575">
        <ele>2483</ele>
        <time>2022-03-27T10:20:34Z</time>
      </trkpt>
      <trkpt lat="42.77476" lon="0.11577">
        <ele>2484</ele>
        <time>2022-03-27T10:21:09Z</time>
      </trkpt>
      <trkpt lat="42.77476" lon="0.11575">
        <ele>2484</ele>
        <time>2022-03-27T10:21:13Z</time>
      </trkpt>
      <trkpt lat="42.77475" lon="0.11572">
        <ele>2484</ele>
        <time>2022-03-27T10:21:16Z</time>
      </trkpt>
      <trkpt lat="42.77475" lon="0.11575">
        <ele>2486</ele>
        <time>2022-03-27T10:21:35Z</time>
      </trkpt>
      <trkpt lat="42.77474" lon="0.11573">
        <ele>2486</ele>
        <time>2022-03-27T10:22:11Z</time>
      </trkpt>
      <trkpt lat="42.77472" lon="0.1157">
        <ele>2487</ele>
        <time>2022-03-27T10:22:14Z</time>
      </trkpt>
      <trkpt lat="42.77471" lon="0.11568">
        <ele>2487</ele>
        <time>2022-03-27T10:22:16Z</time>
      </trkpt>
      <trkpt lat="42.77469" lon="0.11565">
        <ele>2488</ele>
        <time>2022-03-27T10:22:18Z</time>
      </trkpt>
      <trkpt lat="42.77467" lon="0.11564">
        <ele>2488</ele>
        <time>2022-03-27T10:22:21Z</time>
      </trkpt>
      <trkpt lat="42.77463" lon="0.11564">
        <ele>2488</ele>
        <time>2022-03-27T10:22:56Z</time>
      </trkpt>
      <trkpt lat="42.77462" lon="0.11562">
        <ele>2488</ele>
        <time>2022-03-27T10:22:59Z</time>
      </trkpt>
      <trkpt lat="42.7746" lon="0.1156">
        <ele>2489</ele>
        <time>2022-03-27T10:23:02Z</time>
      </trkpt>
      <trkpt lat="42.77458" lon="0.11559">
        <ele>2490</ele>
        <time>2022-03-27T10:23:05Z</time>
      </trkpt>
      <trkpt lat="42.77456" lon="0.11557">
        <ele>2491</ele>
        <time>2022-03-27T10:23:08Z</time>
      </trkpt>
      <trkpt lat="42.77454" lon="0.11555">
        <ele>2491</ele>
        <time>2022-03-27T10:23:11Z</time>
      </trkpt>
      <trkpt lat="42.77453" lon="0.11554">
        <ele>2491</ele>
        <time>2022-03-27T10:23:14Z</time>
      </trkpt>
      <trkpt lat="42.77451" lon="0.11552">
        <ele>2492</ele>
        <time>2022-03-27T10:23:17Z</time>
      </trkpt>
      <trkpt lat="42.7745" lon="0.11551">
        <ele>2493</ele>
        <time>2022-03-27T10:23:20Z</time>
      </trkpt>
      <trkpt lat="42.7745" lon="0.11548">
        <ele>2494</ele>
        <time>2022-03-27T10:23:27Z</time>
      </trkpt>
      <trkpt lat="42.77452" lon="0.11547">
        <ele>2494</ele>
        <time>2022-03-27T10:23:30Z</time>
      </trkpt>
      <trkpt lat="42.77454" lon="0.11545">
        <ele>2494</ele>
        <time>2022-03-27T10:23:33Z</time>
      </trkpt>
      <trkpt lat="42.77457" lon="0.11544">
        <ele>2495</ele>
        <time>2022-03-27T10:23:36Z</time>
      </trkpt>
      <trkpt lat="42.77459" lon="0.11543">
        <ele>2495</ele>
        <time>2022-03-27T10:23:39Z</time>
      </trkpt>
      <trkpt lat="42.77461" lon="0.11542">
        <ele>2495</ele>
        <time>2022-03-27T10:23:42Z</time>
      </trkpt>
      <trkpt lat="42.77463" lon="0.1154">
        <ele>2495</ele>
        <time>2022-03-27T10:23:45Z</time>
      </trkpt>
      <trkpt lat="42.77465" lon="0.11539">
        <ele>2495</ele>
        <time>2022-03-27T10:23:48Z</time>
      </trkpt>
      <trkpt lat="42.77467" lon="0.11539">
        <ele>2496</ele>
        <time>2022-03-27T10:23:51Z</time>
      </trkpt>
      <trkpt lat="42.7747" lon="0.11538">
        <ele>2498</ele>
        <time>2022-03-27T10:23:55Z</time>
      </trkpt>
      <trkpt lat="42.77473" lon="0.11537">
        <ele>2498</ele>
        <time>2022-03-27T10:23:58Z</time>
      </trkpt>
      <trkpt lat="42.77475" lon="0.11536">
        <ele>2498</ele>
        <time>2022-03-27T10:24:01Z</time>
      </trkpt>
      <trkpt lat="42.77477" lon="0.11535">
        <ele>2498</ele>
        <time>2022-03-27T10:24:05Z</time>
      </trkpt>
      <trkpt lat="42.77479" lon="0.11535">
        <ele>2500</ele>
        <time>2022-03-27T10:24:08Z</time>
      </trkpt>
      <trkpt lat="42.77481" lon="0.11535">
        <ele>2500</ele>
        <time>2022-03-27T10:24:11Z</time>
      </trkpt>
      <trkpt lat="42.77483" lon="0.11535">
        <ele>2500</ele>
        <time>2022-03-27T10:24:14Z</time>
      </trkpt>
      <trkpt lat="42.77485" lon="0.11534">
        <ele>2501</ele>
        <time>2022-03-27T10:24:17Z</time>
      </trkpt>
      <trkpt lat="42.77487" lon="0.11533">
        <ele>2501</ele>
        <time>2022-03-27T10:24:20Z</time>
      </trkpt>
      <trkpt lat="42.77488" lon="0.1153">
        <ele>2502</ele>
        <time>2022-03-27T10:24:24Z</time>
      </trkpt>
      <trkpt lat="42.77487" lon="0.11528">
        <ele>2503</ele>
        <time>2022-03-27T10:24:27Z</time>
      </trkpt>
      <trkpt lat="42.77485" lon="0.11527">
        <ele>2504</ele>
        <time>2022-03-27T10:24:35Z</time>
      </trkpt>
      <trkpt lat="42.77483" lon="0.11526">
        <ele>2504</ele>
        <time>2022-03-27T10:24:51Z</time>
      </trkpt>
      <trkpt lat="42.77481" lon="0.11525">
        <ele>2504</ele>
        <time>2022-03-27T10:24:53Z</time>
      </trkpt>
      <trkpt lat="42.77479" lon="0.11524">
        <ele>2505</ele>
        <time>2022-03-27T10:24:55Z</time>
      </trkpt>
      <trkpt lat="42.77478" lon="0.11523">
        <ele>2505</ele>
        <time>2022-03-27T10:24:57Z</time>
      </trkpt>
      <trkpt lat="42.77475" lon="0.11521">
        <ele>2505</ele>
        <time>2022-03-27T10:25:00Z</time>
      </trkpt>
      <trkpt lat="42.77474" lon="0.11519">
        <ele>2505</ele>
        <time>2022-03-27T10:25:03Z</time>
      </trkpt>
      <trkpt lat="42.77472" lon="0.11517">
        <ele>2506</ele>
        <time>2022-03-27T10:25:06Z</time>
      </trkpt>
      <trkpt lat="42.77471" lon="0.11516">
        <ele>2506</ele>
        <time>2022-03-27T10:25:09Z</time>
      </trkpt>
      <trkpt lat="42.77469" lon="0.11514">
        <ele>2507</ele>
        <time>2022-03-27T10:25:13Z</time>
      </trkpt>
      <trkpt lat="42.77468" lon="0.11512">
        <ele>2508</ele>
        <time>2022-03-27T10:25:16Z</time>
      </trkpt>
      <trkpt lat="42.7747" lon="0.11509">
        <ele>2510</ele>
        <time>2022-03-27T10:25:19Z</time>
      </trkpt>
      <trkpt lat="42.77472" lon="0.11508">
        <ele>2510</ele>
        <time>2022-03-27T10:25:22Z</time>
      </trkpt>
      <trkpt lat="42.77474" lon="0.11506">
        <ele>2511</ele>
        <time>2022-03-27T10:25:24Z</time>
      </trkpt>
      <trkpt lat="42.77476" lon="0.11505">
        <ele>2511</ele>
        <time>2022-03-27T10:25:27Z</time>
      </trkpt>
      <trkpt lat="42.77478" lon="0.11503">
        <ele>2511</ele>
        <time>2022-03-27T10:25:30Z</time>
      </trkpt>
      <trkpt lat="42.7748" lon="0.11503">
        <ele>2512</ele>
        <time>2022-03-27T10:25:33Z</time>
      </trkpt>
      <trkpt lat="42.77482" lon="0.11502">
        <ele>2512</ele>
        <time>2022-03-27T10:25:36Z</time>
      </trkpt>
      <trkpt lat="42.77484" lon="0.11501">
        <ele>2512</ele>
        <time>2022-03-27T10:25:39Z</time>
      </trkpt>
      <trkpt lat="42.77487" lon="0.115">
        <ele>2512</ele>
        <time>2022-03-27T10:25:42Z</time>
      </trkpt>
      <trkpt lat="42.77489" lon="0.11499">
        <ele>2513</ele>
        <time>2022-03-27T10:25:45Z</time>
      </trkpt>
      <trkpt lat="42.77491" lon="0.11498">
        <ele>2514</ele>
        <time>2022-03-27T10:25:48Z</time>
      </trkpt>
      <trkpt lat="42.77493" lon="0.11496">
        <ele>2514</ele>
        <time>2022-03-27T10:25:51Z</time>
      </trkpt>
      <trkpt lat="42.77494" lon="0.11494">
        <ele>2515</ele>
        <time>2022-03-27T10:25:54Z</time>
      </trkpt>
      <trkpt lat="42.77497" lon="0.11494">
        <ele>2516</ele>
        <time>2022-03-27T10:25:58Z</time>
      </trkpt>
      <trkpt lat="42.77498" lon="0.11494">
        <ele>2517</ele>
        <time>2022-03-27T10:26:01Z</time>
      </trkpt>
      <trkpt lat="42.775" lon="0.11494">
        <ele>2517</ele>
        <time>2022-03-27T10:26:05Z</time>
      </trkpt>
      <trkpt lat="42.77503" lon="0.11494">
        <ele>2518</ele>
        <time>2022-03-27T10:26:09Z</time>
      </trkpt>
      <trkpt lat="42.77504" lon="0.11492">
        <ele>2518</ele>
        <time>2022-03-27T10:26:13Z</time>
      </trkpt>
      <trkpt lat="42.77503" lon="0.1149">
        <ele>2520</ele>
        <time>2022-03-27T10:26:17Z</time>
      </trkpt>
      <trkpt lat="42.77503" lon="0.11487">
        <ele>2520</ele>
        <time>2022-03-27T10:26:20Z</time>
      </trkpt>
      <trkpt lat="42.77501" lon="0.11485">
        <ele>2520</ele>
        <time>2022-03-27T10:26:23Z</time>
      </trkpt>
      <trkpt lat="42.775" lon="0.11483">
        <ele>2522</ele>
        <time>2022-03-27T10:26:26Z</time>
      </trkpt>
      <trkpt lat="42.77498" lon="0.11482">
        <ele>2522</ele>
        <time>2022-03-27T10:26:42Z</time>
      </trkpt>
      <trkpt lat="42.77496" lon="0.1148">
        <ele>2523</ele>
        <time>2022-03-27T10:26:45Z</time>
      </trkpt>
      <trkpt lat="42.77495" lon="0.11478">
        <ele>2523</ele>
        <time>2022-03-27T10:26:48Z</time>
      </trkpt>
      <trkpt lat="42.77493" lon="0.11476">
        <ele>2523</ele>
        <time>2022-03-27T10:26:51Z</time>
      </trkpt>
      <trkpt lat="42.77492" lon="0.11474">
        <ele>2524</ele>
        <time>2022-03-27T10:26:54Z</time>
      </trkpt>
      <trkpt lat="42.7749" lon="0.11473">
        <ele>2524</ele>
        <time>2022-03-27T10:26:57Z</time>
      </trkpt>
      <trkpt lat="42.77488" lon="0.11471">
        <ele>2524</ele>
        <time>2022-03-27T10:27:00Z</time>
      </trkpt>
      <trkpt lat="42.77487" lon="0.11469">
        <ele>2525</ele>
        <time>2022-03-27T10:27:03Z</time>
      </trkpt>
      <trkpt lat="42.77485" lon="0.11467">
        <ele>2526</ele>
        <time>2022-03-27T10:27:06Z</time>
      </trkpt>
      <trkpt lat="42.77484" lon="0.11465">
        <ele>2527</ele>
        <time>2022-03-27T10:27:10Z</time>
      </trkpt>
      <trkpt lat="42.77482" lon="0.11463">
        <ele>2527</ele>
        <time>2022-03-27T10:27:14Z</time>
      </trkpt>
      <trkpt lat="42.7748" lon="0.11461">
        <ele>2528</ele>
        <time>2022-03-27T10:27:18Z</time>
      </trkpt>
      <trkpt lat="42.77481" lon="0.11459">
        <ele>2530</ele>
        <time>2022-03-27T10:27:23Z</time>
      </trkpt>
      <trkpt lat="42.77483" lon="0.11458">
        <ele>2530</ele>
        <time>2022-03-27T10:27:26Z</time>
      </trkpt>
      <trkpt lat="42.77484" lon="0.11456">
        <ele>2530</ele>
        <time>2022-03-27T10:27:29Z</time>
      </trkpt>
      <trkpt lat="42.77486" lon="0.11455">
        <ele>2530</ele>
        <time>2022-03-27T10:27:32Z</time>
      </trkpt>
      <trkpt lat="42.77488" lon="0.11454">
        <ele>2531</ele>
        <time>2022-03-27T10:27:35Z</time>
      </trkpt>
      <trkpt lat="42.7749" lon="0.11452">
        <ele>2531</ele>
        <time>2022-03-27T10:27:38Z</time>
      </trkpt>
      <trkpt lat="42.77494" lon="0.11446">
        <ele>2532</ele>
        <time>2022-03-27T10:27:45Z</time>
      </trkpt>
      <trkpt lat="42.77496" lon="0.11446">
        <ele>2532</ele>
        <time>2022-03-27T10:27:48Z</time>
      </trkpt>
      <trkpt lat="42.77497" lon="0.11444">
        <ele>2533</ele>
        <time>2022-03-27T10:27:52Z</time>
      </trkpt>
      <trkpt lat="42.77499" lon="0.11443">
        <ele>2535</ele>
        <time>2022-03-27T10:27:55Z</time>
      </trkpt>
      <trkpt lat="42.77501" lon="0.11442">
        <ele>2536</ele>
        <time>2022-03-27T10:28:02Z</time>
      </trkpt>
      <trkpt lat="42.77503" lon="0.11441">
        <ele>2536</ele>
        <time>2022-03-27T10:28:05Z</time>
      </trkpt>
      <trkpt lat="42.77508" lon="0.11436">
        <ele>2537</ele>
        <time>2022-03-27T10:28:14Z</time>
      </trkpt>
      <trkpt lat="42.7751" lon="0.11433">
        <ele>2539</ele>
        <time>2022-03-27T10:28:20Z</time>
      </trkpt>
      <trkpt lat="42.77508" lon="0.11432">
        <ele>2539</ele>
        <time>2022-03-27T10:28:25Z</time>
      </trkpt>
      <trkpt lat="42.77506" lon="0.1143">
        <ele>2540</ele>
        <time>2022-03-27T10:28:28Z</time>
      </trkpt>
      <trkpt lat="42.77505" lon="0.11429">
        <ele>2540</ele>
        <time>2022-03-27T10:28:31Z</time>
      </trkpt>
      <trkpt lat="42.77503" lon="0.11427">
        <ele>2541</ele>
        <time>2022-03-27T10:28:34Z</time>
      </trkpt>
      <trkpt lat="42.77502" lon="0.11424">
        <ele>2541</ele>
        <time>2022-03-27T10:28:37Z</time>
      </trkpt>
      <trkpt lat="42.77501" lon="0.11423">
        <ele>2542</ele>
        <time>2022-03-27T10:28:40Z</time>
      </trkpt>
      <trkpt lat="42.77499" lon="0.11421">
        <ele>2542</ele>
        <time>2022-03-27T10:28:43Z</time>
      </trkpt>
      <trkpt lat="42.77498" lon="0.11418">
        <ele>2543</ele>
        <time>2022-03-27T10:28:47Z</time>
      </trkpt>
      <trkpt lat="42.77499" lon="0.11416">
        <ele>2544</ele>
        <time>2022-03-27T10:28:52Z</time>
      </trkpt>
      <trkpt lat="42.77501" lon="0.11415">
        <ele>2545</ele>
        <time>2022-03-27T10:28:55Z</time>
      </trkpt>
      <trkpt lat="42.77504" lon="0.11414">
        <ele>2545</ele>
        <time>2022-03-27T10:28:58Z</time>
      </trkpt>
      <trkpt lat="42.77506" lon="0.11413">
        <ele>2545</ele>
        <time>2022-03-27T10:29:01Z</time>
      </trkpt>
      <trkpt lat="42.77508" lon="0.11412">
        <ele>2545</ele>
        <time>2022-03-27T10:29:04Z</time>
      </trkpt>
      <trkpt lat="42.77512" lon="0.11407">
        <ele>2548</ele>
        <time>2022-03-27T10:29:10Z</time>
      </trkpt>
      <trkpt lat="42.77516" lon="0.11405">
        <ele>2549</ele>
        <time>2022-03-27T10:29:16Z</time>
      </trkpt>
      <trkpt lat="42.77518" lon="0.11406">
        <ele>2549</ele>
        <time>2022-03-27T10:29:22Z</time>
      </trkpt>
      <trkpt lat="42.7752" lon="0.11405">
        <ele>2550</ele>
        <time>2022-03-27T10:29:25Z</time>
      </trkpt>
      <trkpt lat="42.77522" lon="0.11404">
        <ele>2551</ele>
        <time>2022-03-27T10:29:28Z</time>
      </trkpt>
      <trkpt lat="42.77523" lon="0.11403">
        <ele>2551</ele>
        <time>2022-03-27T10:29:31Z</time>
      </trkpt>
      <trkpt lat="42.77525" lon="0.11401">
        <ele>2553</ele>
        <time>2022-03-27T10:29:36Z</time>
      </trkpt>
      <trkpt lat="42.77523" lon="0.11398">
        <ele>2553</ele>
        <time>2022-03-27T10:29:40Z</time>
      </trkpt>
      <trkpt lat="42.77523" lon="0.11396">
        <ele>2553</ele>
        <time>2022-03-27T10:29:43Z</time>
      </trkpt>
      <trkpt lat="42.77521" lon="0.11394">
        <ele>2554</ele>
        <time>2022-03-27T10:29:46Z</time>
      </trkpt>
      <trkpt lat="42.7752" lon="0.11392">
        <ele>2554</ele>
        <time>2022-03-27T10:29:49Z</time>
      </trkpt>
      <trkpt lat="42.77519" lon="0.11389">
        <ele>2554</ele>
        <time>2022-03-27T10:29:52Z</time>
      </trkpt>
      <trkpt lat="42.77518" lon="0.11387">
        <ele>2555</ele>
        <time>2022-03-27T10:29:55Z</time>
      </trkpt>
      <trkpt lat="42.77516" lon="0.11385">
        <ele>2556</ele>
        <time>2022-03-27T10:29:59Z</time>
      </trkpt>
      <trkpt lat="42.77514" lon="0.11383">
        <ele>2556</ele>
        <time>2022-03-27T10:30:03Z</time>
      </trkpt>
      <trkpt lat="42.77513" lon="0.11382">
        <ele>2559</ele>
        <time>2022-03-27T10:30:07Z</time>
      </trkpt>
      <trkpt lat="42.77514" lon="0.1138">
        <ele>2559</ele>
        <time>2022-03-27T10:30:11Z</time>
      </trkpt>
      <trkpt lat="42.77517" lon="0.11379">
        <ele>2559</ele>
        <time>2022-03-27T10:30:15Z</time>
      </trkpt>
      <trkpt lat="42.77518" lon="0.11378">
        <ele>2560</ele>
        <time>2022-03-27T10:30:25Z</time>
      </trkpt>
      <trkpt lat="42.77521" lon="0.11378">
        <ele>2560</ele>
        <time>2022-03-27T10:30:28Z</time>
      </trkpt>
      <trkpt lat="42.77522" lon="0.11376">
        <ele>2560</ele>
        <time>2022-03-27T10:30:31Z</time>
      </trkpt>
      <trkpt lat="42.77525" lon="0.11375">
        <ele>2561</ele>
        <time>2022-03-27T10:30:34Z</time>
      </trkpt>
      <trkpt lat="42.77526" lon="0.11374">
        <ele>2561</ele>
        <time>2022-03-27T10:30:36Z</time>
      </trkpt>
      <trkpt lat="42.77528" lon="0.11372">
        <ele>2562</ele>
        <time>2022-03-27T10:30:39Z</time>
      </trkpt>
      <trkpt lat="42.7753" lon="0.11372">
        <ele>2563</ele>
        <time>2022-03-27T10:30:42Z</time>
      </trkpt>
      <trkpt lat="42.77531" lon="0.11374">
        <ele>2564</ele>
        <time>2022-03-27T10:30:51Z</time>
      </trkpt>
      <trkpt lat="42.77533" lon="0.11372">
        <ele>2564</ele>
        <time>2022-03-27T10:30:54Z</time>
      </trkpt>
      <trkpt lat="42.77535" lon="0.11371">
        <ele>2564</ele>
        <time>2022-03-27T10:30:57Z</time>
      </trkpt>
      <trkpt lat="42.77533" lon="0.11369">
        <ele>2565</ele>
        <time>2022-03-27T10:31:04Z</time>
      </trkpt>
      <trkpt lat="42.77532" lon="0.11367">
        <ele>2566</ele>
        <time>2022-03-27T10:31:07Z</time>
      </trkpt>
      <trkpt lat="42.77531" lon="0.11364">
        <ele>2566</ele>
        <time>2022-03-27T10:31:10Z</time>
      </trkpt>
      <trkpt lat="42.77529" lon="0.11363">
        <ele>2566</ele>
        <time>2022-03-27T10:31:13Z</time>
      </trkpt>
      <trkpt lat="42.77527" lon="0.1136">
        <ele>2568</ele>
        <time>2022-03-27T10:31:17Z</time>
      </trkpt>
      <trkpt lat="42.77526" lon="0.11359">
        <ele>2568</ele>
        <time>2022-03-27T10:31:21Z</time>
      </trkpt>
      <trkpt lat="42.77524" lon="0.11357">
        <ele>2568</ele>
        <time>2022-03-27T10:31:25Z</time>
      </trkpt>
      <trkpt lat="42.77522" lon="0.11356">
        <ele>2571</ele>
        <time>2022-03-27T10:31:30Z</time>
      </trkpt>
      <trkpt lat="42.77521" lon="0.11354">
        <ele>2571</ele>
        <time>2022-03-27T10:31:34Z</time>
      </trkpt>
      <trkpt lat="42.77519" lon="0.11352">
        <ele>2572</ele>
        <time>2022-03-27T10:31:38Z</time>
      </trkpt>
      <trkpt lat="42.77517" lon="0.1135">
        <ele>2573</ele>
        <time>2022-03-27T10:31:42Z</time>
      </trkpt>
      <trkpt lat="42.77515" lon="0.11349">
        <ele>2574</ele>
        <time>2022-03-27T10:31:46Z</time>
      </trkpt>
      <trkpt lat="42.77513" lon="0.11347">
        <ele>2574</ele>
        <time>2022-03-27T10:31:50Z</time>
      </trkpt>
      <trkpt lat="42.77511" lon="0.11346">
        <ele>2575</ele>
        <time>2022-03-27T10:31:54Z</time>
      </trkpt>
      <trkpt lat="42.7751" lon="0.11345">
        <ele>2576</ele>
        <time>2022-03-27T10:32:18Z</time>
      </trkpt>
      <trkpt lat="42.77508" lon="0.11343">
        <ele>2576</ele>
        <time>2022-03-27T10:32:22Z</time>
      </trkpt>
      <trkpt lat="42.77506" lon="0.11342">
        <ele>2576</ele>
        <time>2022-03-27T10:32:25Z</time>
      </trkpt>
      <trkpt lat="42.77504" lon="0.11341">
        <ele>2577</ele>
        <time>2022-03-27T10:32:28Z</time>
      </trkpt>
      <trkpt lat="42.77503" lon="0.11339">
        <ele>2578</ele>
        <time>2022-03-27T10:32:32Z</time>
      </trkpt>
      <trkpt lat="42.77504" lon="0.11337">
        <ele>2579</ele>
        <time>2022-03-27T10:32:36Z</time>
      </trkpt>
      <trkpt lat="42.77506" lon="0.11336">
        <ele>2579</ele>
        <time>2022-03-27T10:32:39Z</time>
      </trkpt>
      <trkpt lat="42.77508" lon="0.11334">
        <ele>2580</ele>
        <time>2022-03-27T10:32:42Z</time>
      </trkpt>
      <trkpt lat="42.7751" lon="0.11332">
        <ele>2580</ele>
        <time>2022-03-27T10:32:48Z</time>
      </trkpt>
      <trkpt lat="42.77512" lon="0.1133">
        <ele>2580</ele>
        <time>2022-03-27T10:32:51Z</time>
      </trkpt>
      <trkpt lat="42.77514" lon="0.11329">
        <ele>2581</ele>
        <time>2022-03-27T10:32:54Z</time>
      </trkpt>
      <trkpt lat="42.77516" lon="0.11328">
        <ele>2581</ele>
        <time>2022-03-27T10:32:57Z</time>
      </trkpt>
      <trkpt lat="42.77518" lon="0.11326">
        <ele>2581</ele>
        <time>2022-03-27T10:33:00Z</time>
      </trkpt>
      <trkpt lat="42.77521" lon="0.11325">
        <ele>2583</ele>
        <time>2022-03-27T10:33:03Z</time>
      </trkpt>
      <trkpt lat="42.77523" lon="0.11324">
        <ele>2583</ele>
        <time>2022-03-27T10:33:06Z</time>
      </trkpt>
      <trkpt lat="42.77525" lon="0.11323">
        <ele>2584</ele>
        <time>2022-03-27T10:33:09Z</time>
      </trkpt>
      <trkpt lat="42.77528" lon="0.11322">
        <ele>2585</ele>
        <time>2022-03-27T10:33:13Z</time>
      </trkpt>
      <trkpt lat="42.7753" lon="0.1132">
        <ele>2585</ele>
        <time>2022-03-27T10:33:16Z</time>
      </trkpt>
      <trkpt lat="42.77532" lon="0.11319">
        <ele>2586</ele>
        <time>2022-03-27T10:33:19Z</time>
      </trkpt>
      <trkpt lat="42.77533" lon="0.11316">
        <ele>2587</ele>
        <time>2022-03-27T10:33:22Z</time>
      </trkpt>
      <trkpt lat="42.77534" lon="0.11311">
        <ele>2587</ele>
        <time>2022-03-27T10:33:25Z</time>
      </trkpt>
      <trkpt lat="42.77536" lon="0.11311">
        <ele>2588</ele>
        <time>2022-03-27T10:33:36Z</time>
      </trkpt>
      <trkpt lat="42.77538" lon="0.11309">
        <ele>2588</ele>
        <time>2022-03-27T10:33:39Z</time>
      </trkpt>
      <trkpt lat="42.7754" lon="0.11308">
        <ele>2589</ele>
        <time>2022-03-27T10:33:42Z</time>
      </trkpt>
      <trkpt lat="42.77543" lon="0.11307">
        <ele>2590</ele>
        <time>2022-03-27T10:33:46Z</time>
      </trkpt>
      <trkpt lat="42.77544" lon="0.11305">
        <ele>2590</ele>
        <time>2022-03-27T10:33:49Z</time>
      </trkpt>
      <trkpt lat="42.77545" lon="0.11303">
        <ele>2591</ele>
        <time>2022-03-27T10:33:54Z</time>
      </trkpt>
      <trkpt lat="42.77544" lon="0.113">
        <ele>2592</ele>
        <time>2022-03-27T10:33:57Z</time>
      </trkpt>
      <trkpt lat="42.77543" lon="0.11298">
        <ele>2592</ele>
        <time>2022-03-27T10:34:00Z</time>
      </trkpt>
      <trkpt lat="42.77541" lon="0.11295">
        <ele>2593</ele>
        <time>2022-03-27T10:34:03Z</time>
      </trkpt>
      <trkpt lat="42.7754" lon="0.11293">
        <ele>2595</ele>
        <time>2022-03-27T10:34:06Z</time>
      </trkpt>
      <trkpt lat="42.77539" lon="0.1129">
        <ele>2595</ele>
        <time>2022-03-27T10:34:09Z</time>
      </trkpt>
      <trkpt lat="42.77537" lon="0.11288">
        <ele>2595</ele>
        <time>2022-03-27T10:34:12Z</time>
      </trkpt>
      <trkpt lat="42.77536" lon="0.11286">
        <ele>2595</ele>
        <time>2022-03-27T10:34:15Z</time>
      </trkpt>
      <trkpt lat="42.77535" lon="0.11283">
        <ele>2596</ele>
        <time>2022-03-27T10:34:18Z</time>
      </trkpt>
      <trkpt lat="42.77535" lon="0.11281">
        <ele>2597</ele>
        <time>2022-03-27T10:34:21Z</time>
      </trkpt>
      <trkpt lat="42.77534" lon="0.11277">
        <ele>2598</ele>
        <time>2022-03-27T10:34:27Z</time>
      </trkpt>
      <trkpt lat="42.77535" lon="0.11275">
        <ele>2598</ele>
        <time>2022-03-27T10:34:30Z</time>
      </trkpt>
      <trkpt lat="42.77537" lon="0.11273">
        <ele>2598</ele>
        <time>2022-03-27T10:34:33Z</time>
      </trkpt>
      <trkpt lat="42.77538" lon="0.1127">
        <ele>2598</ele>
        <time>2022-03-27T10:34:36Z</time>
      </trkpt>
      <trkpt lat="42.7754" lon="0.11268">
        <ele>2599</ele>
        <time>2022-03-27T10:34:39Z</time>
      </trkpt>
      <trkpt lat="42.77541" lon="0.11266">
        <ele>2599</ele>
        <time>2022-03-27T10:34:42Z</time>
      </trkpt>
      <trkpt lat="42.77543" lon="0.11264">
        <ele>2600</ele>
        <time>2022-03-27T10:34:45Z</time>
      </trkpt>
      <trkpt lat="42.77544" lon="0.11262">
        <ele>2601</ele>
        <time>2022-03-27T10:34:48Z</time>
      </trkpt>
      <trkpt lat="42.77544" lon="0.11259">
        <ele>2601</ele>
        <time>2022-03-27T10:34:52Z</time>
      </trkpt>
      <trkpt lat="42.77543" lon="0.11257">
        <ele>2601</ele>
        <time>2022-03-27T10:34:55Z</time>
      </trkpt>
      <trkpt lat="42.77544" lon="0.11254">
        <ele>2602</ele>
        <time>2022-03-27T10:34:58Z</time>
      </trkpt>
      <trkpt lat="42.77544" lon="0.11251">
        <ele>2603</ele>
        <time>2022-03-27T10:35:01Z</time>
      </trkpt>
      <trkpt lat="42.77544" lon="0.11248">
        <ele>2604</ele>
        <time>2022-03-27T10:35:04Z</time>
      </trkpt>
      <trkpt lat="42.77544" lon="0.11245">
        <ele>2604</ele>
        <time>2022-03-27T10:35:07Z</time>
      </trkpt>
      <trkpt lat="42.77545" lon="0.11242">
        <ele>2605</ele>
        <time>2022-03-27T10:35:10Z</time>
      </trkpt>
      <trkpt lat="42.77545" lon="0.11239">
        <ele>2605</ele>
        <time>2022-03-27T10:35:13Z</time>
      </trkpt>
      <trkpt lat="42.77545" lon="0.11236">
        <ele>2607</ele>
        <time>2022-03-27T10:35:16Z</time>
      </trkpt>
      <trkpt lat="42.77545" lon="0.11234">
        <ele>2607</ele>
        <time>2022-03-27T10:35:19Z</time>
      </trkpt>
      <trkpt lat="42.77546" lon="0.1123">
        <ele>2607</ele>
        <time>2022-03-27T10:35:22Z</time>
      </trkpt>
      <trkpt lat="42.77546" lon="0.11227">
        <ele>2607</ele>
        <time>2022-03-27T10:35:25Z</time>
      </trkpt>
      <trkpt lat="42.77546" lon="0.11224">
        <ele>2608</ele>
        <time>2022-03-27T10:35:28Z</time>
      </trkpt>
      <trkpt lat="42.77546" lon="0.1122">
        <ele>2609</ele>
        <time>2022-03-27T10:35:31Z</time>
      </trkpt>
      <trkpt lat="42.77547" lon="0.11217">
        <ele>2609</ele>
        <time>2022-03-27T10:35:34Z</time>
      </trkpt>
      <trkpt lat="42.77548" lon="0.11214">
        <ele>2609</ele>
        <time>2022-03-27T10:35:37Z</time>
      </trkpt>
      <trkpt lat="42.77548" lon="0.11212">
        <ele>2609</ele>
        <time>2022-03-27T10:35:40Z</time>
      </trkpt>
      <trkpt lat="42.77548" lon="0.11209">
        <ele>2610</ele>
        <time>2022-03-27T10:35:43Z</time>
      </trkpt>
      <trkpt lat="42.77546" lon="0.1121">
        <ele>2609</ele>
        <time>2022-03-27T10:36:30Z</time>
      </trkpt>
      <trkpt lat="42.77545" lon="0.11213">
        <ele>2609</ele>
        <time>2022-03-27T10:37:25Z</time>
      </trkpt>
      <trkpt lat="42.77547" lon="0.11214">
        <ele>2609</ele>
        <time>2022-03-27T10:39:33Z</time>
      </trkpt>
      <trkpt lat="42.77547" lon="0.11218">
        <ele>2609</ele>
        <time>2022-03-27T10:39:35Z</time>
      </trkpt>
      <trkpt lat="42.77546" lon="0.11221">
        <ele>2609</ele>
        <time>2022-03-27T10:39:36Z</time>
      </trkpt>
      <trkpt lat="42.77545" lon="0.11227">
        <ele>2609</ele>
        <time>2022-03-27T10:39:37Z</time>
      </trkpt>
      <trkpt lat="42.77543" lon="0.11233">
        <ele>2609</ele>
        <time>2022-03-27T10:39:38Z</time>
      </trkpt>
      <trkpt lat="42.77541" lon="0.11238">
        <ele>2608</ele>
        <time>2022-03-27T10:39:39Z</time>
      </trkpt>
      <trkpt lat="42.77539" lon="0.11241">
        <ele>2607</ele>
        <time>2022-03-27T10:39:40Z</time>
      </trkpt>
      <trkpt lat="42.77537" lon="0.11243">
        <ele>2605</ele>
        <time>2022-03-27T10:39:41Z</time>
      </trkpt>
      <trkpt lat="42.77536" lon="0.11245">
        <ele>2605</ele>
        <time>2022-03-27T10:39:42Z</time>
      </trkpt>
      <trkpt lat="42.77534" lon="0.11247">
        <ele>2605</ele>
        <time>2022-03-27T10:39:43Z</time>
      </trkpt>
      <trkpt lat="42.77533" lon="0.1125">
        <ele>2604</ele>
        <time>2022-03-27T10:39:44Z</time>
      </trkpt>
      <trkpt lat="42.77532" lon="0.11255">
        <ele>2604</ele>
        <time>2022-03-27T10:39:45Z</time>
      </trkpt>
      <trkpt lat="42.77532" lon="0.11261">
        <ele>2604</ele>
        <time>2022-03-27T10:39:46Z</time>
      </trkpt>
      <trkpt lat="42.77533" lon="0.11268">
        <ele>2604</ele>
        <time>2022-03-27T10:39:47Z</time>
      </trkpt>
      <trkpt lat="42.77532" lon="0.11276">
        <ele>2602</ele>
        <time>2022-03-27T10:39:48Z</time>
      </trkpt>
      <trkpt lat="42.77528" lon="0.11284">
        <ele>2601</ele>
        <time>2022-03-27T10:39:49Z</time>
      </trkpt>
      <trkpt lat="42.77526" lon="0.11293">
        <ele>2599</ele>
        <time>2022-03-27T10:39:50Z</time>
      </trkpt>
      <trkpt lat="42.77523" lon="0.11302">
        <ele>2597</ele>
        <time>2022-03-27T10:39:51Z</time>
      </trkpt>
      <trkpt lat="42.77521" lon="0.11309">
        <ele>2596</ele>
        <time>2022-03-27T10:39:52Z</time>
      </trkpt>
      <trkpt lat="42.7752" lon="0.11318">
        <ele>2592</ele>
        <time>2022-03-27T10:39:53Z</time>
      </trkpt>
      <trkpt lat="42.77519" lon="0.11325">
        <ele>2590</ele>
        <time>2022-03-27T10:39:54Z</time>
      </trkpt>
      <trkpt lat="42.77514" lon="0.11329">
        <ele>2588</ele>
        <time>2022-03-27T10:39:55Z</time>
      </trkpt>
      <trkpt lat="42.77508" lon="0.11332">
        <ele>2587</ele>
        <time>2022-03-27T10:39:56Z</time>
      </trkpt>
      <trkpt lat="42.77502" lon="0.11337">
        <ele>2586</ele>
        <time>2022-03-27T10:39:57Z</time>
      </trkpt>
      <trkpt lat="42.77498" lon="0.11343">
        <ele>2585</ele>
        <time>2022-03-27T10:39:58Z</time>
      </trkpt>
      <trkpt lat="42.77497" lon="0.11351">
        <ele>2583</ele>
        <time>2022-03-27T10:39:59Z</time>
      </trkpt>
      <trkpt lat="42.77497" lon="0.11361">
        <ele>2577</ele>
        <time>2022-03-27T10:40:00Z</time>
      </trkpt>
      <trkpt lat="42.77494" lon="0.1137">
        <ele>2575</ele>
        <time>2022-03-27T10:40:01Z</time>
      </trkpt>
      <trkpt lat="42.7749" lon="0.11377">
        <ele>2572</ele>
        <time>2022-03-27T10:40:02Z</time>
      </trkpt>
      <trkpt lat="42.77488" lon="0.11398">
        <ele>2564</ele>
        <time>2022-03-27T10:40:04Z</time>
      </trkpt>
      <trkpt lat="42.7748" lon="0.11416">
        <ele>2560</ele>
        <time>2022-03-27T10:40:06Z</time>
      </trkpt>
      <trkpt lat="42.77478" lon="0.11433">
        <ele>2553</ele>
        <time>2022-03-27T10:40:08Z</time>
      </trkpt>
      <trkpt lat="42.77472" lon="0.1145">
        <ele>2544</ele>
        <time>2022-03-27T10:40:10Z</time>
      </trkpt>
      <trkpt lat="42.7748" lon="0.11457">
        <ele>2538</ele>
        <time>2022-03-27T10:40:12Z</time>
      </trkpt>
      <trkpt lat="42.77488" lon="0.11451">
        <ele>2535</ele>
        <time>2022-03-27T10:40:14Z</time>
      </trkpt>
      <trkpt lat="42.77497" lon="0.1145">
        <ele>2535</ele>
        <time>2022-03-27T10:40:27Z</time>
      </trkpt>
      <trkpt lat="42.77495" lon="0.11447">
        <ele>2533</ele>
        <time>2022-03-27T10:40:30Z</time>
      </trkpt>
      <trkpt lat="42.77497" lon="0.1145">
        <ele>2532</ele>
        <time>2022-03-27T10:40:45Z</time>
      </trkpt>
      <trkpt lat="42.77498" lon="0.11451">
        <ele>2533</ele>
        <time>2022-03-27T10:40:49Z</time>
      </trkpt>
      <trkpt lat="42.77497" lon="0.11449">
        <ele>2533</ele>
        <time>2022-03-27T10:41:03Z</time>
      </trkpt>
      <trkpt lat="42.77498" lon="0.11447">
        <ele>2535</ele>
        <time>2022-03-27T10:41:17Z</time>
      </trkpt>
      <trkpt lat="42.775" lon="0.11447">
        <ele>2533</ele>
        <time>2022-03-27T10:41:43Z</time>
      </trkpt>
      <trkpt lat="42.77498" lon="0.11435">
        <ele>2532</ele>
        <time>2022-03-27T10:42:53Z</time>
      </trkpt>
      <trkpt lat="42.77498" lon="0.11437">
        <ele>2532</ele>
        <time>2022-03-27T10:43:01Z</time>
      </trkpt>
      <trkpt lat="42.77499" lon="0.1144">
        <ele>2532</ele>
        <time>2022-03-27T10:43:03Z</time>
      </trkpt>
      <trkpt lat="42.775" lon="0.11443">
        <ele>2533</ele>
        <time>2022-03-27T10:43:06Z</time>
      </trkpt>
      <trkpt lat="42.77502" lon="0.11443">
        <ele>2533</ele>
        <time>2022-03-27T10:43:12Z</time>
      </trkpt>
      <trkpt lat="42.77504" lon="0.11441">
        <ele>2533</ele>
        <time>2022-03-27T10:43:15Z</time>
      </trkpt>
      <trkpt lat="42.77506" lon="0.11439">
        <ele>2536</ele>
        <time>2022-03-27T10:43:18Z</time>
      </trkpt>
      <trkpt lat="42.77508" lon="0.11437">
        <ele>2536</ele>
        <time>2022-03-27T10:43:21Z</time>
      </trkpt>
      <trkpt lat="42.77509" lon="0.11435">
        <ele>2538</ele>
        <time>2022-03-27T10:43:24Z</time>
      </trkpt>
      <trkpt lat="42.77511" lon="0.11433">
        <ele>2538</ele>
        <time>2022-03-27T10:43:27Z</time>
      </trkpt>
      <trkpt lat="42.77511" lon="0.1143">
        <ele>2540</ele>
        <time>2022-03-27T10:43:30Z</time>
      </trkpt>
      <trkpt lat="42.77512" lon="0.11428">
        <ele>2541</ele>
        <time>2022-03-27T10:43:33Z</time>
      </trkpt>
      <trkpt lat="42.77514" lon="0.11425">
        <ele>2542</ele>
        <time>2022-03-27T10:43:36Z</time>
      </trkpt>
      <trkpt lat="42.77514" lon="0.11422">
        <ele>2543</ele>
        <time>2022-03-27T10:43:39Z</time>
      </trkpt>
      <trkpt lat="42.77515" lon="0.1142">
        <ele>2544</ele>
        <time>2022-03-27T10:43:42Z</time>
      </trkpt>
      <trkpt lat="42.77516" lon="0.11416">
        <ele>2545</ele>
        <time>2022-03-27T10:43:45Z</time>
      </trkpt>
      <trkpt lat="42.77516" lon="0.11414">
        <ele>2545</ele>
        <time>2022-03-27T10:43:47Z</time>
      </trkpt>
      <trkpt lat="42.77517" lon="0.11411">
        <ele>2547</ele>
        <time>2022-03-27T10:43:50Z</time>
      </trkpt>
      <trkpt lat="42.77517" lon="0.11408">
        <ele>2549</ele>
        <time>2022-03-27T10:43:54Z</time>
      </trkpt>
      <trkpt lat="42.77518" lon="0.11406">
        <ele>2549</ele>
        <time>2022-03-27T10:43:57Z</time>
      </trkpt>
      <trkpt lat="42.77518" lon="0.11403">
        <ele>2549</ele>
        <time>2022-03-27T10:44:00Z</time>
      </trkpt>
      <trkpt lat="42.77519" lon="0.11401">
        <ele>2550</ele>
        <time>2022-03-27T10:44:04Z</time>
      </trkpt>
      <trkpt lat="42.77519" lon="0.11398">
        <ele>2551</ele>
        <time>2022-03-27T10:44:07Z</time>
      </trkpt>
      <trkpt lat="42.7752" lon="0.11396">
        <ele>2552</ele>
        <time>2022-03-27T10:44:10Z</time>
      </trkpt>
      <trkpt lat="42.7752" lon="0.11393">
        <ele>2552</ele>
        <time>2022-03-27T10:44:12Z</time>
      </trkpt>
      <trkpt lat="42.77521" lon="0.11391">
        <ele>2553</ele>
        <time>2022-03-27T10:44:16Z</time>
      </trkpt>
      <trkpt lat="42.77522" lon="0.11388">
        <ele>2554</ele>
        <time>2022-03-27T10:44:22Z</time>
      </trkpt>
      <trkpt lat="42.77522" lon="0.11385">
        <ele>2555</ele>
        <time>2022-03-27T10:44:26Z</time>
      </trkpt>
      <trkpt lat="42.77524" lon="0.11383">
        <ele>2557</ele>
        <time>2022-03-27T10:44:29Z</time>
      </trkpt>
      <trkpt lat="42.77524" lon="0.1138">
        <ele>2559</ele>
        <time>2022-03-27T10:44:34Z</time>
      </trkpt>
      <trkpt lat="42.77525" lon="0.11377">
        <ele>2560</ele>
        <time>2022-03-27T10:44:40Z</time>
      </trkpt>
      <trkpt lat="42.77526" lon="0.11374">
        <ele>2561</ele>
        <time>2022-03-27T10:44:44Z</time>
      </trkpt>
      <trkpt lat="42.77528" lon="0.11373">
        <ele>2561</ele>
        <time>2022-03-27T10:44:48Z</time>
      </trkpt>
      <trkpt lat="42.7753" lon="0.11373">
        <ele>2562</ele>
        <time>2022-03-27T10:44:51Z</time>
      </trkpt>
      <trkpt lat="42.77532" lon="0.11372">
        <ele>2563</ele>
        <time>2022-03-27T10:44:56Z</time>
      </trkpt>
      <trkpt lat="42.77535" lon="0.11371">
        <ele>2563</ele>
        <time>2022-03-27T10:45:00Z</time>
      </trkpt>
      <trkpt lat="42.77537" lon="0.11371">
        <ele>2564</ele>
        <time>2022-03-27T10:45:03Z</time>
      </trkpt>
      <trkpt lat="42.77539" lon="0.1137">
        <ele>2565</ele>
        <time>2022-03-27T10:45:22Z</time>
      </trkpt>
      <trkpt lat="42.77541" lon="0.11369">
        <ele>2565</ele>
        <time>2022-03-27T10:45:43Z</time>
      </trkpt>
      <trkpt lat="42.77543" lon="0.11369">
        <ele>2566</ele>
        <time>2022-03-27T10:45:47Z</time>
      </trkpt>
      <trkpt lat="42.77545" lon="0.11369">
        <ele>2567</ele>
        <time>2022-03-27T10:45:50Z</time>
      </trkpt>
      <trkpt lat="42.77547" lon="0.1137">
        <ele>2567</ele>
        <time>2022-03-27T10:45:53Z</time>
      </trkpt>
      <trkpt lat="42.77549" lon="0.1137">
        <ele>2568</ele>
        <time>2022-03-27T10:45:56Z</time>
      </trkpt>
      <trkpt lat="42.77549" lon="0.11367">
        <ele>2571</ele>
        <time>2022-03-27T10:46:05Z</time>
      </trkpt>
      <trkpt lat="42.77549" lon="0.11364">
        <ele>2571</ele>
        <time>2022-03-27T10:46:08Z</time>
      </trkpt>
      <trkpt lat="42.77549" lon="0.11367">
        <ele>2571</ele>
        <time>2022-03-27T10:46:17Z</time>
      </trkpt>
      <trkpt lat="42.77548" lon="0.11364">
        <ele>2569</ele>
        <time>2022-03-27T10:46:34Z</time>
      </trkpt>
      <trkpt lat="42.77547" lon="0.1136">
        <ele>2571</ele>
        <time>2022-03-27T10:46:37Z</time>
      </trkpt>
      <trkpt lat="42.77545" lon="0.11358">
        <ele>2571</ele>
        <time>2022-03-27T10:46:41Z</time>
      </trkpt>
      <trkpt lat="42.77544" lon="0.11356">
        <ele>2572</ele>
        <time>2022-03-27T10:46:44Z</time>
      </trkpt>
      <trkpt lat="42.77542" lon="0.11353">
        <ele>2572</ele>
        <time>2022-03-27T10:46:47Z</time>
      </trkpt>
      <trkpt lat="42.77541" lon="0.11351">
        <ele>2573</ele>
        <time>2022-03-27T10:46:53Z</time>
      </trkpt>
      <trkpt lat="42.7754" lon="0.11349">
        <ele>2573</ele>
        <time>2022-03-27T10:46:56Z</time>
      </trkpt>
      <trkpt lat="42.77538" lon="0.11347">
        <ele>2574</ele>
        <time>2022-03-27T10:47:00Z</time>
      </trkpt>
      <trkpt lat="42.77537" lon="0.11345">
        <ele>2574</ele>
        <time>2022-03-27T10:47:03Z</time>
      </trkpt>
      <trkpt lat="42.77536" lon="0.11344">
        <ele>2575</ele>
        <time>2022-03-27T10:47:07Z</time>
      </trkpt>
      <trkpt lat="42.77534" lon="0.11342">
        <ele>2575</ele>
        <time>2022-03-27T10:47:10Z</time>
      </trkpt>
      <trkpt lat="42.77533" lon="0.1134">
        <ele>2577</ele>
        <time>2022-03-27T10:47:14Z</time>
      </trkpt>
      <trkpt lat="42.77532" lon="0.11338">
        <ele>2577</ele>
        <time>2022-03-27T10:47:17Z</time>
      </trkpt>
      <trkpt lat="42.7753" lon="0.11336">
        <ele>2578</ele>
        <time>2022-03-27T10:47:21Z</time>
      </trkpt>
      <trkpt lat="42.77528" lon="0.11334">
        <ele>2578</ele>
        <time>2022-03-27T10:47:25Z</time>
      </trkpt>
      <trkpt lat="42.77527" lon="0.11332">
        <ele>2578</ele>
        <time>2022-03-27T10:47:29Z</time>
      </trkpt>
      <trkpt lat="42.77525" lon="0.11331">
        <ele>2579</ele>
        <time>2022-03-27T10:47:47Z</time>
      </trkpt>
      <trkpt lat="42.77523" lon="0.11329">
        <ele>2580</ele>
        <time>2022-03-27T10:47:50Z</time>
      </trkpt>
      <trkpt lat="42.77521" lon="0.11327">
        <ele>2581</ele>
        <time>2022-03-27T10:47:53Z</time>
      </trkpt>
      <trkpt lat="42.77519" lon="0.11326">
        <ele>2581</ele>
        <time>2022-03-27T10:47:55Z</time>
      </trkpt>
      <trkpt lat="42.77518" lon="0.11325">
        <ele>2581</ele>
        <time>2022-03-27T10:47:57Z</time>
      </trkpt>
      <trkpt lat="42.77515" lon="0.11322">
        <ele>2581</ele>
        <time>2022-03-27T10:48:00Z</time>
      </trkpt>
      <trkpt lat="42.77513" lon="0.1132">
        <ele>2583</ele>
        <time>2022-03-27T10:48:03Z</time>
      </trkpt>
      <trkpt lat="42.77511" lon="0.11318">
        <ele>2583</ele>
        <time>2022-03-27T10:48:06Z</time>
      </trkpt>
      <trkpt lat="42.77509" lon="0.11316">
        <ele>2584</ele>
        <time>2022-03-27T10:48:09Z</time>
      </trkpt>
      <trkpt lat="42.77508" lon="0.11314">
        <ele>2584</ele>
        <time>2022-03-27T10:48:11Z</time>
      </trkpt>
      <trkpt lat="42.77509" lon="0.11311">
        <ele>2585</ele>
        <time>2022-03-27T10:48:14Z</time>
      </trkpt>
      <trkpt lat="42.77511" lon="0.1131">
        <ele>2585</ele>
        <time>2022-03-27T10:48:17Z</time>
      </trkpt>
      <trkpt lat="42.77512" lon="0.11308">
        <ele>2586</ele>
        <time>2022-03-27T10:48:20Z</time>
      </trkpt>
      <trkpt lat="42.77514" lon="0.11307">
        <ele>2587</ele>
        <time>2022-03-27T10:48:23Z</time>
      </trkpt>
      <trkpt lat="42.77517" lon="0.11306">
        <ele>2587</ele>
        <time>2022-03-27T10:48:26Z</time>
      </trkpt>
      <trkpt lat="42.77519" lon="0.11305">
        <ele>2587</ele>
        <time>2022-03-27T10:48:29Z</time>
      </trkpt>
      <trkpt lat="42.77521" lon="0.11305">
        <ele>2588</ele>
        <time>2022-03-27T10:48:32Z</time>
      </trkpt>
      <trkpt lat="42.77523" lon="0.11303">
        <ele>2588</ele>
        <time>2022-03-27T10:48:35Z</time>
      </trkpt>
      <trkpt lat="42.77525" lon="0.11302">
        <ele>2588</ele>
        <time>2022-03-27T10:48:38Z</time>
      </trkpt>
      <trkpt lat="42.77526" lon="0.11301">
        <ele>2588</ele>
        <time>2022-03-27T10:48:40Z</time>
      </trkpt>
      <trkpt lat="42.77529" lon="0.113">
        <ele>2590</ele>
        <time>2022-03-27T10:48:43Z</time>
      </trkpt>
      <trkpt lat="42.77531" lon="0.11298">
        <ele>2590</ele>
        <time>2022-03-27T10:48:46Z</time>
      </trkpt>
      <trkpt lat="42.77533" lon="0.11297">
        <ele>2590</ele>
        <time>2022-03-27T10:48:49Z</time>
      </trkpt>
      <trkpt lat="42.77535" lon="0.11296">
        <ele>2590</ele>
        <time>2022-03-27T10:48:52Z</time>
      </trkpt>
      <trkpt lat="42.77537" lon="0.11295">
        <ele>2590</ele>
        <time>2022-03-27T10:48:55Z</time>
      </trkpt>
      <trkpt lat="42.77539" lon="0.11294">
        <ele>2592</ele>
        <time>2022-03-27T10:48:58Z</time>
      </trkpt>
      <trkpt lat="42.7754" lon="0.11293">
        <ele>2592</ele>
        <time>2022-03-27T10:49:01Z</time>
      </trkpt>
      <trkpt lat="42.77541" lon="0.1129">
        <ele>2592</ele>
        <time>2022-03-27T10:49:05Z</time>
      </trkpt>
      <trkpt lat="42.77541" lon="0.11287">
        <ele>2593</ele>
        <time>2022-03-27T10:49:08Z</time>
      </trkpt>
      <trkpt lat="42.77541" lon="0.11284">
        <ele>2595</ele>
        <time>2022-03-27T10:49:11Z</time>
      </trkpt>
      <trkpt lat="42.77542" lon="0.11282">
        <ele>2595</ele>
        <time>2022-03-27T10:49:14Z</time>
      </trkpt>
      <trkpt lat="42.77542" lon="0.11279">
        <ele>2595</ele>
        <time>2022-03-27T10:49:17Z</time>
      </trkpt>
      <trkpt lat="42.77542" lon="0.11276">
        <ele>2596</ele>
        <time>2022-03-27T10:49:20Z</time>
      </trkpt>
      <trkpt lat="42.77543" lon="0.11273">
        <ele>2597</ele>
        <time>2022-03-27T10:49:23Z</time>
      </trkpt>
      <trkpt lat="42.77543" lon="0.1127">
        <ele>2597</ele>
        <time>2022-03-27T10:49:26Z</time>
      </trkpt>
      <trkpt lat="42.77543" lon="0.11267">
        <ele>2598</ele>
        <time>2022-03-27T10:49:29Z</time>
      </trkpt>
      <trkpt lat="42.77542" lon="0.11264">
        <ele>2598</ele>
        <time>2022-03-27T10:49:32Z</time>
      </trkpt>
      <trkpt lat="42.77542" lon="0.11262">
        <ele>2599</ele>
        <time>2022-03-27T10:49:36Z</time>
      </trkpt>
      <trkpt lat="42.77542" lon="0.11259">
        <ele>2599</ele>
        <time>2022-03-27T10:49:38Z</time>
      </trkpt>
      <trkpt lat="42.77542" lon="0.11256">
        <ele>2599</ele>
        <time>2022-03-27T10:49:41Z</time>
      </trkpt>
      <trkpt lat="42.77543" lon="0.11253">
        <ele>2600</ele>
        <time>2022-03-27T10:49:44Z</time>
      </trkpt>
      <trkpt lat="42.77543" lon="0.1125">
        <ele>2601</ele>
        <time>2022-03-27T10:49:47Z</time>
      </trkpt>
      <trkpt lat="42.77543" lon="0.11248">
        <ele>2601</ele>
        <time>2022-03-27T10:49:50Z</time>
      </trkpt>
      <trkpt lat="42.77543" lon="0.11245">
        <ele>2602</ele>
        <time>2022-03-27T10:49:53Z</time>
      </trkpt>
      <trkpt lat="42.77543" lon="0.11242">
        <ele>2603</ele>
        <time>2022-03-27T10:49:56Z</time>
      </trkpt>
      <trkpt lat="42.77544" lon="0.11239">
        <ele>2603</ele>
        <time>2022-03-27T10:49:59Z</time>
      </trkpt>
      <trkpt lat="42.77544" lon="0.11236">
        <ele>2604</ele>
        <time>2022-03-27T10:50:02Z</time>
      </trkpt>
      <trkpt lat="42.77544" lon="0.11234">
        <ele>2604</ele>
        <time>2022-03-27T10:50:05Z</time>
      </trkpt>
      <trkpt lat="42.77544" lon="0.11231">
        <ele>2605</ele>
        <time>2022-03-27T10:50:20Z</time>
      </trkpt>
      <trkpt lat="42.77544" lon="0.11228">
        <ele>2605</ele>
        <time>2022-03-27T10:50:23Z</time>
      </trkpt>
      <trkpt lat="42.77543" lon="0.11225">
        <ele>2605</ele>
        <time>2022-03-27T10:50:26Z</time>
      </trkpt>
      <trkpt lat="42.77543" lon="0.11222">
        <ele>2607</ele>
        <time>2022-03-27T10:50:29Z</time>
      </trkpt>
      <trkpt lat="42.77544" lon="0.11219">
        <ele>2607</ele>
        <time>2022-03-27T10:50:32Z</time>
      </trkpt>
      <trkpt lat="42.77546" lon="0.11217">
        <ele>2608</ele>
        <time>2022-03-27T10:50:35Z</time>
      </trkpt>
      <trkpt lat="42.77547" lon="0.11215">
        <ele>2608</ele>
        <time>2022-03-27T10:50:38Z</time>
      </trkpt>
      <trkpt lat="42.77549" lon="0.11212">
        <ele>2608</ele>
        <time>2022-03-27T10:50:51Z</time>
      </trkpt>
      <trkpt lat="42.77551" lon="0.1121">
        <ele>2608</ele>
        <time>2022-03-27T10:50:54Z</time>
      </trkpt>
      <trkpt lat="42.77552" lon="0.11211">
        <ele>2608</ele>
        <time>2022-03-27T10:51:33Z</time>
      </trkpt>
      <trkpt lat="42.77554" lon="0.11213">
        <ele>2607</ele>
        <time>2022-03-27T10:51:46Z</time>
      </trkpt>
      <trkpt lat="42.77553" lon="0.11216">
        <ele>2608</ele>
        <time>2022-03-27T10:51:54Z</time>
      </trkpt>
      <trkpt lat="42.77552" lon="0.11212">
        <ele>2608</ele>
        <time>2022-03-27T10:53:03Z</time>
      </trkpt>
      <trkpt lat="42.77553" lon="0.1121">
        <ele>2609</ele>
        <time>2022-03-27T10:53:21Z</time>
      </trkpt>
      <trkpt lat="42.77552" lon="0.11213">
        <ele>2608</ele>
        <time>2022-03-27T10:53:26Z</time>
      </trkpt>
      <trkpt lat="42.77551" lon="0.11215">
        <ele>2608</ele>
        <time>2022-03-27T10:53:45Z</time>
      </trkpt>
      <trkpt lat="42.77552" lon="0.11217">
        <ele>2609</ele>
        <time>2022-03-27T10:55:28Z</time>
      </trkpt>
      <trkpt lat="42.77552" lon="0.1122">
        <ele>2609</ele>
        <time>2022-03-27T10:55:31Z</time>
      </trkpt>
      <trkpt lat="42.77552" lon="0.11217">
        <ele>2608</ele>
        <time>2022-03-27T10:56:29Z</time>
      </trkpt>
      <trkpt lat="42.77551" lon="0.11214">
        <ele>2608</ele>
        <time>2022-03-27T10:56:32Z</time>
      </trkpt>
      <trkpt lat="42.77552" lon="0.11212">
        <ele>2608</ele>
        <time>2022-03-27T10:56:37Z</time>
      </trkpt>
      <trkpt lat="42.77551" lon="0.11215">
        <ele>2608</ele>
        <time>2022-03-27T10:57:20Z</time>
      </trkpt>
      <trkpt lat="42.77551" lon="0.11212">
        <ele>2608</ele>
        <time>2022-03-27T10:58:26Z</time>
      </trkpt>
      <trkpt lat="42.77549" lon="0.11214">
        <ele>2607</ele>
        <time>2022-03-27T10:58:51Z</time>
      </trkpt>
      <trkpt lat="42.77548" lon="0.11212">
        <ele>2608</ele>
        <time>2022-03-27T11:00:29Z</time>
      </trkpt>
      <trkpt lat="42.7755" lon="0.1121">
        <ele>2608</ele>
        <time>2022-03-27T11:00:33Z</time>
      </trkpt>
      <trkpt lat="42.77552" lon="0.1121">
        <ele>2608</ele>
        <time>2022-03-27T11:01:56Z</time>
      </trkpt>
      <trkpt lat="42.7755" lon="0.11211">
        <ele>2607</ele>
        <time>2022-03-27T11:02:48Z</time>
      </trkpt>
      <trkpt lat="42.77551" lon="0.11209">
        <ele>2609</ele>
        <time>2022-03-27T11:04:23Z</time>
      </trkpt>
      <trkpt lat="42.7755" lon="0.11211">
        <ele>2609</ele>
        <time>2022-03-27T11:06:34Z</time>
      </trkpt>
      <trkpt lat="42.77552" lon="0.11213">
        <ele>2609</ele>
        <time>2022-03-27T11:06:41Z</time>
      </trkpt>
      <trkpt lat="42.77553" lon="0.11215">
        <ele>2609</ele>
        <time>2022-03-27T11:06:44Z</time>
      </trkpt>
      <trkpt lat="42.77555" lon="0.11217">
        <ele>2609</ele>
        <time>2022-03-27T11:06:47Z</time>
      </trkpt>
      <trkpt lat="42.77557" lon="0.11219">
        <ele>2609</ele>
        <time>2022-03-27T11:06:55Z</time>
      </trkpt>
      <trkpt lat="42.77555" lon="0.11217">
        <ele>2610</ele>
        <time>2022-03-27T11:06:59Z</time>
      </trkpt>
      <trkpt lat="42.77553" lon="0.11214">
        <ele>2610</ele>
        <time>2022-03-27T11:07:02Z</time>
      </trkpt>
      <trkpt lat="42.77552" lon="0.11213">
        <ele>2609</ele>
        <time>2022-03-27T11:07:05Z</time>
      </trkpt>
      <trkpt lat="42.7755" lon="0.11212">
        <ele>2611</ele>
        <time>2022-03-27T11:08:03Z</time>
      </trkpt>
      <trkpt lat="42.7755" lon="0.11215">
        <ele>2613</ele>
        <time>2022-03-27T11:09:19Z</time>
      </trkpt>
      <trkpt lat="42.77549" lon="0.11213">
        <ele>2615</ele>
        <time>2022-03-27T11:11:34Z</time>
      </trkpt>
      <trkpt lat="42.77548" lon="0.11211">
        <ele>2615</ele>
        <time>2022-03-27T11:11:36Z</time>
      </trkpt>
      <trkpt lat="42.77549" lon="0.11208">
        <ele>2615</ele>
        <time>2022-03-27T11:11:38Z</time>
      </trkpt>
      <trkpt lat="42.7755" lon="0.11206">
        <ele>2615</ele>
        <time>2022-03-27T11:12:19Z</time>
      </trkpt>
      <trkpt lat="42.77551" lon="0.11203">
        <ele>2614</ele>
        <time>2022-03-27T11:12:21Z</time>
      </trkpt>
      <trkpt lat="42.77552" lon="0.112">
        <ele>2614</ele>
        <time>2022-03-27T11:12:23Z</time>
      </trkpt>
      <trkpt lat="42.77552" lon="0.11197">
        <ele>2614</ele>
        <time>2022-03-27T11:12:25Z</time>
      </trkpt>
      <trkpt lat="42.77551" lon="0.11194">
        <ele>2615</ele>
        <time>2022-03-27T11:12:47Z</time>
      </trkpt>
      <trkpt lat="42.77552" lon="0.11191">
        <ele>2615</ele>
        <time>2022-03-27T11:12:48Z</time>
      </trkpt>
      <trkpt lat="42.77551" lon="0.11187">
        <ele>2614</ele>
        <time>2022-03-27T11:12:49Z</time>
      </trkpt>
      <trkpt lat="42.77551" lon="0.11182">
        <ele>2614</ele>
        <time>2022-03-27T11:12:50Z</time>
      </trkpt>
      <trkpt lat="42.7755" lon="0.11177">
        <ele>2614</ele>
        <time>2022-03-27T11:12:51Z</time>
      </trkpt>
      <trkpt lat="42.77549" lon="0.11172">
        <ele>2613</ele>
        <time>2022-03-27T11:12:52Z</time>
      </trkpt>
      <trkpt lat="42.77549" lon="0.11167">
        <ele>2613</ele>
        <time>2022-03-27T11:12:53Z</time>
      </trkpt>
      <trkpt lat="42.77548" lon="0.11161">
        <ele>2613</ele>
        <time>2022-03-27T11:12:54Z</time>
      </trkpt>
      <trkpt lat="42.77548" lon="0.11156">
        <ele>2612</ele>
        <time>2022-03-27T11:12:55Z</time>
      </trkpt>
      <trkpt lat="42.77548" lon="0.11151">
        <ele>2612</ele>
        <time>2022-03-27T11:12:56Z</time>
      </trkpt>
      <trkpt lat="42.77548" lon="0.11146">
        <ele>2612</ele>
        <time>2022-03-27T11:12:57Z</time>
      </trkpt>
      <trkpt lat="42.77548" lon="0.11142">
        <ele>2612</ele>
        <time>2022-03-27T11:12:58Z</time>
      </trkpt>
      <trkpt lat="42.77547" lon="0.11139">
        <ele>2611</ele>
        <time>2022-03-27T11:13:00Z</time>
      </trkpt>
      <trkpt lat="42.77548" lon="0.11137">
        <ele>2611</ele>
        <time>2022-03-27T11:13:04Z</time>
      </trkpt>
      <trkpt lat="42.7755" lon="0.11132">
        <ele>2610</ele>
        <time>2022-03-27T11:13:06Z</time>
      </trkpt>
      <trkpt lat="42.77551" lon="0.11128">
        <ele>2610</ele>
        <time>2022-03-27T11:13:07Z</time>
      </trkpt>
      <trkpt lat="42.77552" lon="0.11123">
        <ele>2610</ele>
        <time>2022-03-27T11:13:08Z</time>
      </trkpt>
      <trkpt lat="42.77556" lon="0.11119">
        <ele>2607</ele>
        <time>2022-03-27T11:13:09Z</time>
      </trkpt>
      <trkpt lat="42.77562" lon="0.11118">
        <ele>2605</ele>
        <time>2022-03-27T11:13:10Z</time>
      </trkpt>
      <trkpt lat="42.77569" lon="0.11115">
        <ele>2603</ele>
        <time>2022-03-27T11:13:11Z</time>
      </trkpt>
      <trkpt lat="42.77572" lon="0.11108">
        <ele>2601</ele>
        <time>2022-03-27T11:13:12Z</time>
      </trkpt>
      <trkpt lat="42.77573" lon="0.11099">
        <ele>2600</ele>
        <time>2022-03-27T11:13:13Z</time>
      </trkpt>
      <trkpt lat="42.77574" lon="0.11092">
        <ele>2597</ele>
        <time>2022-03-27T11:13:14Z</time>
      </trkpt>
      <trkpt lat="42.77578" lon="0.11088">
        <ele>2596</ele>
        <time>2022-03-27T11:13:15Z</time>
      </trkpt>
      <trkpt lat="42.77581" lon="0.11081">
        <ele>2593</ele>
        <time>2022-03-27T11:13:16Z</time>
      </trkpt>
      <trkpt lat="42.77584" lon="0.11073">
        <ele>2590</ele>
        <time>2022-03-27T11:13:17Z</time>
      </trkpt>
      <trkpt lat="42.77589" lon="0.11069">
        <ele>2587</ele>
        <time>2022-03-27T11:13:18Z</time>
      </trkpt>
      <trkpt lat="42.77596" lon="0.11066">
        <ele>2584</ele>
        <time>2022-03-27T11:13:19Z</time>
      </trkpt>
      <trkpt lat="42.77599" lon="0.11059">
        <ele>2583</ele>
        <time>2022-03-27T11:13:20Z</time>
      </trkpt>
      <trkpt lat="42.77599" lon="0.11051">
        <ele>2579</ele>
        <time>2022-03-27T11:13:21Z</time>
      </trkpt>
      <trkpt lat="42.77599" lon="0.11046">
        <ele>2577</ele>
        <time>2022-03-27T11:13:22Z</time>
      </trkpt>
      <trkpt lat="42.77597" lon="0.11047">
        <ele>2576</ele>
        <time>2022-03-27T11:13:28Z</time>
      </trkpt>
      <trkpt lat="42.77596" lon="0.11049">
        <ele>2576</ele>
        <time>2022-03-27T11:14:04Z</time>
      </trkpt>
      <trkpt lat="42.77597" lon="0.11046">
        <ele>2576</ele>
        <time>2022-03-27T11:14:53Z</time>
      </trkpt>
      <trkpt lat="42.776" lon="0.11041">
        <ele>2575</ele>
        <time>2022-03-27T11:14:54Z</time>
      </trkpt>
      <trkpt lat="42.77605" lon="0.11039">
        <ele>2574</ele>
        <time>2022-03-27T11:14:55Z</time>
      </trkpt>
      <trkpt lat="42.77611" lon="0.1104">
        <ele>2573</ele>
        <time>2022-03-27T11:14:56Z</time>
      </trkpt>
      <trkpt lat="42.77615" lon="0.11038">
        <ele>2569</ele>
        <time>2022-03-27T11:14:57Z</time>
      </trkpt>
      <trkpt lat="42.77619" lon="0.1103">
        <ele>2567</ele>
        <time>2022-03-27T11:14:58Z</time>
      </trkpt>
      <trkpt lat="42.77626" lon="0.11026">
        <ele>2564</ele>
        <time>2022-03-27T11:14:59Z</time>
      </trkpt>
      <trkpt lat="42.77633" lon="0.11027">
        <ele>2564</ele>
        <time>2022-03-27T11:15:00Z</time>
      </trkpt>
      <trkpt lat="42.7764" lon="0.11032">
        <ele>2560</ele>
        <time>2022-03-27T11:15:01Z</time>
      </trkpt>
      <trkpt lat="42.77646" lon="0.11035">
        <ele>2557</ele>
        <time>2022-03-27T11:15:02Z</time>
      </trkpt>
      <trkpt lat="42.77651" lon="0.11038">
        <ele>2556</ele>
        <time>2022-03-27T11:15:03Z</time>
      </trkpt>
      <trkpt lat="42.77657" lon="0.11039">
        <ele>2555</ele>
        <time>2022-03-27T11:15:04Z</time>
      </trkpt>
      <trkpt lat="42.77662" lon="0.1104">
        <ele>2554</ele>
        <time>2022-03-27T11:15:05Z</time>
      </trkpt>
      <trkpt lat="42.77666" lon="0.11041">
        <ele>2553</ele>
        <time>2022-03-27T11:15:06Z</time>
      </trkpt>
      <trkpt lat="42.7767" lon="0.1104">
        <ele>2552</ele>
        <time>2022-03-27T11:15:07Z</time>
      </trkpt>
      <trkpt lat="42.77672" lon="0.11036">
        <ele>2551</ele>
        <time>2022-03-27T11:15:08Z</time>
      </trkpt>
      <trkpt lat="42.7767" lon="0.11028">
        <ele>2550</ele>
        <time>2022-03-27T11:15:09Z</time>
      </trkpt>
      <trkpt lat="42.7767" lon="0.11021">
        <ele>2545</ele>
        <time>2022-03-27T11:15:10Z</time>
      </trkpt>
      <trkpt lat="42.77673" lon="0.11017">
        <ele>2543</ele>
        <time>2022-03-27T11:15:11Z</time>
      </trkpt>
      <trkpt lat="42.77676" lon="0.11012">
        <ele>2542</ele>
        <time>2022-03-27T11:15:12Z</time>
      </trkpt>
      <trkpt lat="42.77676" lon="0.11005">
        <ele>2540</ele>
        <time>2022-03-27T11:15:13Z</time>
      </trkpt>
      <trkpt lat="42.7768" lon="0.11">
        <ele>2538</ele>
        <time>2022-03-27T11:15:14Z</time>
      </trkpt>
      <trkpt lat="42.77687" lon="0.10997">
        <ele>2535</ele>
        <time>2022-03-27T11:15:15Z</time>
      </trkpt>
      <trkpt lat="42.77702" lon="0.10999">
        <ele>2531</ele>
        <time>2022-03-27T11:15:17Z</time>
      </trkpt>
      <trkpt lat="42.7771" lon="0.11001">
        <ele>2530</ele>
        <time>2022-03-27T11:15:18Z</time>
      </trkpt>
      <trkpt lat="42.77717" lon="0.11003">
        <ele>2530</ele>
        <time>2022-03-27T11:15:19Z</time>
      </trkpt>
      <trkpt lat="42.77723" lon="0.11004">
        <ele>2529</ele>
        <time>2022-03-27T11:15:20Z</time>
      </trkpt>
      <trkpt lat="42.77729" lon="0.11005">
        <ele>2529</ele>
        <time>2022-03-27T11:15:21Z</time>
      </trkpt>
      <trkpt lat="42.77735" lon="0.11006">
        <ele>2528</ele>
        <time>2022-03-27T11:15:22Z</time>
      </trkpt>
      <trkpt lat="42.77741" lon="0.11006">
        <ele>2527</ele>
        <time>2022-03-27T11:15:23Z</time>
      </trkpt>
      <trkpt lat="42.77745" lon="0.11006">
        <ele>2527</ele>
        <time>2022-03-27T11:15:24Z</time>
      </trkpt>
      <trkpt lat="42.77749" lon="0.11006">
        <ele>2527</ele>
        <time>2022-03-27T11:15:25Z</time>
      </trkpt>
      <trkpt lat="42.77753" lon="0.11006">
        <ele>2527</ele>
        <time>2022-03-27T11:15:26Z</time>
      </trkpt>
      <trkpt lat="42.77756" lon="0.11006">
        <ele>2527</ele>
        <time>2022-03-27T11:15:27Z</time>
      </trkpt>
      <trkpt lat="42.77758" lon="0.11005">
        <ele>2527</ele>
        <time>2022-03-27T11:15:28Z</time>
      </trkpt>
      <trkpt lat="42.7776" lon="0.11005">
        <ele>2527</ele>
        <time>2022-03-27T11:15:29Z</time>
      </trkpt>
      <trkpt lat="42.77762" lon="0.11005">
        <ele>2527</ele>
        <time>2022-03-27T11:15:31Z</time>
      </trkpt>
      <trkpt lat="42.77764" lon="0.11005">
        <ele>2527</ele>
        <time>2022-03-27T11:15:53Z</time>
      </trkpt>
      <trkpt lat="42.77766" lon="0.11006">
        <ele>2526</ele>
        <time>2022-03-27T11:16:34Z</time>
      </trkpt>
      <trkpt lat="42.77769" lon="0.11006">
        <ele>2526</ele>
        <time>2022-03-27T11:16:50Z</time>
      </trkpt>
      <trkpt lat="42.77771" lon="0.11006">
        <ele>2525</ele>
        <time>2022-03-27T11:16:51Z</time>
      </trkpt>
      <trkpt lat="42.77774" lon="0.11005">
        <ele>2525</ele>
        <time>2022-03-27T11:16:52Z</time>
      </trkpt>
      <trkpt lat="42.77777" lon="0.11005">
        <ele>2525</ele>
        <time>2022-03-27T11:16:53Z</time>
      </trkpt>
      <trkpt lat="42.7778" lon="0.11004">
        <ele>2525</ele>
        <time>2022-03-27T11:16:54Z</time>
      </trkpt>
      <trkpt lat="42.77784" lon="0.11003">
        <ele>2525</ele>
        <time>2022-03-27T11:16:55Z</time>
      </trkpt>
      <trkpt lat="42.77788" lon="0.11003">
        <ele>2525</ele>
        <time>2022-03-27T11:16:56Z</time>
      </trkpt>
      <trkpt lat="42.77792" lon="0.11003">
        <ele>2524</ele>
        <time>2022-03-27T11:16:57Z</time>
      </trkpt>
      <trkpt lat="42.77796" lon="0.11003">
        <ele>2524</ele>
        <time>2022-03-27T11:16:58Z</time>
      </trkpt>
      <trkpt lat="42.778" lon="0.11003">
        <ele>2524</ele>
        <time>2022-03-27T11:16:59Z</time>
      </trkpt>
      <trkpt lat="42.77803" lon="0.11003">
        <ele>2523</ele>
        <time>2022-03-27T11:17:00Z</time>
      </trkpt>
      <trkpt lat="42.77806" lon="0.11003">
        <ele>2523</ele>
        <time>2022-03-27T11:17:01Z</time>
      </trkpt>
      <trkpt lat="42.77809" lon="0.11003">
        <ele>2523</ele>
        <time>2022-03-27T11:17:02Z</time>
      </trkpt>
      <trkpt lat="42.77811" lon="0.11003">
        <ele>2523</ele>
        <time>2022-03-27T11:17:03Z</time>
      </trkpt>
      <trkpt lat="42.77813" lon="0.11002">
        <ele>2523</ele>
        <time>2022-03-27T11:17:04Z</time>
      </trkpt>
      <trkpt lat="42.77816" lon="0.11002">
        <ele>2523</ele>
        <time>2022-03-27T11:17:05Z</time>
      </trkpt>
      <trkpt lat="42.77818" lon="0.11002">
        <ele>2522</ele>
        <time>2022-03-27T11:17:06Z</time>
      </trkpt>
      <trkpt lat="42.7782" lon="0.11001">
        <ele>2522</ele>
        <time>2022-03-27T11:17:07Z</time>
      </trkpt>
      <trkpt lat="42.77823" lon="0.11001">
        <ele>2522</ele>
        <time>2022-03-27T11:17:08Z</time>
      </trkpt>
      <trkpt lat="42.77826" lon="0.11001">
        <ele>2520</ele>
        <time>2022-03-27T11:17:09Z</time>
      </trkpt>
      <trkpt lat="42.7783" lon="0.11">
        <ele>2520</ele>
        <time>2022-03-27T11:17:10Z</time>
      </trkpt>
      <trkpt lat="42.77833" lon="0.10999">
        <ele>2520</ele>
        <time>2022-03-27T11:17:11Z</time>
      </trkpt>
      <trkpt lat="42.77836" lon="0.10998">
        <ele>2519</ele>
        <time>2022-03-27T11:17:12Z</time>
      </trkpt>
      <trkpt lat="42.77839" lon="0.10996">
        <ele>2519</ele>
        <time>2022-03-27T11:17:13Z</time>
      </trkpt>
      <trkpt lat="42.77842" lon="0.10994">
        <ele>2519</ele>
        <time>2022-03-27T11:17:14Z</time>
      </trkpt>
      <trkpt lat="42.77843" lon="0.10991">
        <ele>2519</ele>
        <time>2022-03-27T11:18:10Z</time>
      </trkpt>
      <trkpt lat="42.77845" lon="0.10988">
        <ele>2518</ele>
        <time>2022-03-27T11:18:11Z</time>
      </trkpt>
      <trkpt lat="42.77846" lon="0.10984">
        <ele>2517</ele>
        <time>2022-03-27T11:18:12Z</time>
      </trkpt>
      <trkpt lat="42.77847" lon="0.10979">
        <ele>2517</ele>
        <time>2022-03-27T11:18:13Z</time>
      </trkpt>
      <trkpt lat="42.77844" lon="0.10975">
        <ele>2515</ele>
        <time>2022-03-27T11:18:14Z</time>
      </trkpt>
      <trkpt lat="42.77842" lon="0.10968">
        <ele>2511</ele>
        <time>2022-03-27T11:18:15Z</time>
      </trkpt>
      <trkpt lat="42.77843" lon="0.10961">
        <ele>2508</ele>
        <time>2022-03-27T11:18:16Z</time>
      </trkpt>
      <trkpt lat="42.77842" lon="0.10954">
        <ele>2507</ele>
        <time>2022-03-27T11:18:17Z</time>
      </trkpt>
      <trkpt lat="42.77839" lon="0.10947">
        <ele>2503</ele>
        <time>2022-03-27T11:18:18Z</time>
      </trkpt>
      <trkpt lat="42.77839" lon="0.10939">
        <ele>2499</ele>
        <time>2022-03-27T11:18:19Z</time>
      </trkpt>
      <trkpt lat="42.77841" lon="0.1093">
        <ele>2498</ele>
        <time>2022-03-27T11:18:20Z</time>
      </trkpt>
      <trkpt lat="42.77841" lon="0.10923">
        <ele>2495</ele>
        <time>2022-03-27T11:18:21Z</time>
      </trkpt>
      <trkpt lat="42.77838" lon="0.10907">
        <ele>2490</ele>
        <time>2022-03-27T11:18:23Z</time>
      </trkpt>
      <trkpt lat="42.77836" lon="0.1089">
        <ele>2484</ele>
        <time>2022-03-27T11:18:25Z</time>
      </trkpt>
      <trkpt lat="42.77833" lon="0.10871">
        <ele>2476</ele>
        <time>2022-03-27T11:18:27Z</time>
      </trkpt>
      <trkpt lat="42.77828" lon="0.10855">
        <ele>2469</ele>
        <time>2022-03-27T11:18:29Z</time>
      </trkpt>
      <trkpt lat="42.7783" lon="0.10837">
        <ele>2466</ele>
        <time>2022-03-27T11:18:31Z</time>
      </trkpt>
      <trkpt lat="42.77828" lon="0.1082">
        <ele>2463</ele>
        <time>2022-03-27T11:18:33Z</time>
      </trkpt>
      <trkpt lat="42.77827" lon="0.10812">
        <ele>2460</ele>
        <time>2022-03-27T11:18:34Z</time>
      </trkpt>
      <trkpt lat="42.77823" lon="0.10795">
        <ele>2446</ele>
        <time>2022-03-27T11:18:37Z</time>
      </trkpt>
      <trkpt lat="42.77824" lon="0.10783">
        <ele>2444</ele>
        <time>2022-03-27T11:18:39Z</time>
      </trkpt>
      <trkpt lat="42.77823" lon="0.1077">
        <ele>2440</ele>
        <time>2022-03-27T11:18:41Z</time>
      </trkpt>
      <trkpt lat="42.77825" lon="0.10753">
        <ele>2434</ele>
        <time>2022-03-27T11:18:43Z</time>
      </trkpt>
      <trkpt lat="42.77821" lon="0.10739">
        <ele>2427</ele>
        <time>2022-03-27T11:18:45Z</time>
      </trkpt>
      <trkpt lat="42.77822" lon="0.10729">
        <ele>2424</ele>
        <time>2022-03-27T11:18:46Z</time>
      </trkpt>
      <trkpt lat="42.77825" lon="0.10712">
        <ele>2422</ele>
        <time>2022-03-27T11:18:48Z</time>
      </trkpt>
      <trkpt lat="42.77826" lon="0.10694">
        <ele>2418</ele>
        <time>2022-03-27T11:18:50Z</time>
      </trkpt>
      <trkpt lat="42.77825" lon="0.10686">
        <ele>2416</ele>
        <time>2022-03-27T11:18:51Z</time>
      </trkpt>
      <trkpt lat="42.77821" lon="0.10679">
        <ele>2414</ele>
        <time>2022-03-27T11:18:52Z</time>
      </trkpt>
      <trkpt lat="42.7782" lon="0.10672">
        <ele>2411</ele>
        <time>2022-03-27T11:18:53Z</time>
      </trkpt>
      <trkpt lat="42.7782" lon="0.10664">
        <ele>2409</ele>
        <time>2022-03-27T11:18:54Z</time>
      </trkpt>
      <trkpt lat="42.77819" lon="0.10657">
        <ele>2408</ele>
        <time>2022-03-27T11:18:55Z</time>
      </trkpt>
      <trkpt lat="42.77818" lon="0.1065">
        <ele>2404</ele>
        <time>2022-03-27T11:18:56Z</time>
      </trkpt>
      <trkpt lat="42.7782" lon="0.10641">
        <ele>2401</ele>
        <time>2022-03-27T11:18:57Z</time>
      </trkpt>
      <trkpt lat="42.77819" lon="0.10624">
        <ele>2397</ele>
        <time>2022-03-27T11:18:59Z</time>
      </trkpt>
      <trkpt lat="42.77822" lon="0.10609">
        <ele>2392</ele>
        <time>2022-03-27T11:19:01Z</time>
      </trkpt>
      <trkpt lat="42.77824" lon="0.10592">
        <ele>2385</ele>
        <time>2022-03-27T11:19:03Z</time>
      </trkpt>
      <trkpt lat="42.77822" lon="0.10577">
        <ele>2383</ele>
        <time>2022-03-27T11:19:05Z</time>
      </trkpt>
      <trkpt lat="42.77822" lon="0.10559">
        <ele>2375</ele>
        <time>2022-03-27T11:19:07Z</time>
      </trkpt>
      <trkpt lat="42.7782" lon="0.10541">
        <ele>2371</ele>
        <time>2022-03-27T11:19:09Z</time>
      </trkpt>
      <trkpt lat="42.77825" lon="0.10522">
        <ele>2367</ele>
        <time>2022-03-27T11:19:11Z</time>
      </trkpt>
      <trkpt lat="42.77828" lon="0.10502">
        <ele>2361</ele>
        <time>2022-03-27T11:19:13Z</time>
      </trkpt>
      <trkpt lat="42.77832" lon="0.10482">
        <ele>2357</ele>
        <time>2022-03-27T11:19:15Z</time>
      </trkpt>
      <trkpt lat="42.77832" lon="0.10477">
        <ele>2354</ele>
        <time>2022-03-27T11:19:18Z</time>
      </trkpt>
      <trkpt lat="42.77831" lon="0.10482">
        <ele>2353</ele>
        <time>2022-03-27T11:19:41Z</time>
      </trkpt>
      <trkpt lat="42.77829" lon="0.10482">
        <ele>2352</ele>
        <time>2022-03-27T11:19:42Z</time>
      </trkpt>
      <trkpt lat="42.77827" lon="0.10479">
        <ele>2352</ele>
        <time>2022-03-27T11:19:43Z</time>
      </trkpt>
      <trkpt lat="42.77826" lon="0.10472">
        <ele>2349</ele>
        <time>2022-03-27T11:19:44Z</time>
      </trkpt>
      <trkpt lat="42.77827" lon="0.10465">
        <ele>2348</ele>
        <time>2022-03-27T11:19:45Z</time>
      </trkpt>
      <trkpt lat="42.77825" lon="0.10457">
        <ele>2348</ele>
        <time>2022-03-27T11:19:46Z</time>
      </trkpt>
      <trkpt lat="42.77821" lon="0.10449">
        <ele>2345</ele>
        <time>2022-03-27T11:19:47Z</time>
      </trkpt>
      <trkpt lat="42.7782" lon="0.1044">
        <ele>2344</ele>
        <time>2022-03-27T11:19:48Z</time>
      </trkpt>
      <trkpt lat="42.7782" lon="0.10431">
        <ele>2344</ele>
        <time>2022-03-27T11:19:49Z</time>
      </trkpt>
      <trkpt lat="42.7782" lon="0.10424">
        <ele>2343</ele>
        <time>2022-03-27T11:19:50Z</time>
      </trkpt>
      <trkpt lat="42.77819" lon="0.1042">
        <ele>2342</ele>
        <time>2022-03-27T11:19:51Z</time>
      </trkpt>
      <trkpt lat="42.77818" lon="0.10422">
        <ele>2342</ele>
        <time>2022-03-27T11:20:17Z</time>
      </trkpt>
      <trkpt lat="42.77816" lon="0.10423">
        <ele>2341</ele>
        <time>2022-03-27T11:20:39Z</time>
      </trkpt>
      <trkpt lat="42.77813" lon="0.1042">
        <ele>2341</ele>
        <time>2022-03-27T11:21:30Z</time>
      </trkpt>
      <trkpt lat="42.77812" lon="0.10417">
        <ele>2341</ele>
        <time>2022-03-27T11:21:31Z</time>
      </trkpt>
      <trkpt lat="42.7781" lon="0.10413">
        <ele>2340</ele>
        <time>2022-03-27T11:21:32Z</time>
      </trkpt>
      <trkpt lat="42.77808" lon="0.10408">
        <ele>2340</ele>
        <time>2022-03-27T11:21:33Z</time>
      </trkpt>
      <trkpt lat="42.77807" lon="0.10402">
        <ele>2339</ele>
        <time>2022-03-27T11:21:34Z</time>
      </trkpt>
      <trkpt lat="42.77807" lon="0.10395">
        <ele>2338</ele>
        <time>2022-03-27T11:21:35Z</time>
      </trkpt>
      <trkpt lat="42.77806" lon="0.10388">
        <ele>2337</ele>
        <time>2022-03-27T11:21:36Z</time>
      </trkpt>
      <trkpt lat="42.77807" lon="0.1038">
        <ele>2334</ele>
        <time>2022-03-27T11:21:37Z</time>
      </trkpt>
      <trkpt lat="42.77808" lon="0.10372">
        <ele>2333</ele>
        <time>2022-03-27T11:21:38Z</time>
      </trkpt>
      <trkpt lat="42.7781" lon="0.10363">
        <ele>2332</ele>
        <time>2022-03-27T11:21:39Z</time>
      </trkpt>
      <trkpt lat="42.7781" lon="0.10354">
        <ele>2330</ele>
        <time>2022-03-27T11:21:40Z</time>
      </trkpt>
      <trkpt lat="42.77808" lon="0.10344">
        <ele>2327</ele>
        <time>2022-03-27T11:21:41Z</time>
      </trkpt>
      <trkpt lat="42.77809" lon="0.10334">
        <ele>2326</ele>
        <time>2022-03-27T11:21:42Z</time>
      </trkpt>
      <trkpt lat="42.77808" lon="0.10324">
        <ele>2323</ele>
        <time>2022-03-27T11:21:43Z</time>
      </trkpt>
      <trkpt lat="42.77807" lon="0.10313">
        <ele>2322</ele>
        <time>2022-03-27T11:21:44Z</time>
      </trkpt>
      <trkpt lat="42.77809" lon="0.10305">
        <ele>2320</ele>
        <time>2022-03-27T11:21:45Z</time>
      </trkpt>
      <trkpt lat="42.77814" lon="0.10298">
        <ele>2317</ele>
        <time>2022-03-27T11:21:46Z</time>
      </trkpt>
      <trkpt lat="42.77815" lon="0.10289">
        <ele>2314</ele>
        <time>2022-03-27T11:21:47Z</time>
      </trkpt>
      <trkpt lat="42.77815" lon="0.10279">
        <ele>2311</ele>
        <time>2022-03-27T11:21:48Z</time>
      </trkpt>
      <trkpt lat="42.77816" lon="0.10271">
        <ele>2309</ele>
        <time>2022-03-27T11:21:49Z</time>
      </trkpt>
      <trkpt lat="42.77816" lon="0.10259">
        <ele>2307</ele>
        <time>2022-03-27T11:21:50Z</time>
      </trkpt>
      <trkpt lat="42.77817" lon="0.10247">
        <ele>2305</ele>
        <time>2022-03-27T11:21:51Z</time>
      </trkpt>
      <trkpt lat="42.77815" lon="0.10228">
        <ele>2300</ele>
        <time>2022-03-27T11:21:53Z</time>
      </trkpt>
      <trkpt lat="42.77816" lon="0.10209">
        <ele>2293</ele>
        <time>2022-03-27T11:21:55Z</time>
      </trkpt>
      <trkpt lat="42.77812" lon="0.1019">
        <ele>2290</ele>
        <time>2022-03-27T11:21:57Z</time>
      </trkpt>
      <trkpt lat="42.77808" lon="0.1017">
        <ele>2286</ele>
        <time>2022-03-27T11:21:59Z</time>
      </trkpt>
      <trkpt lat="42.77815" lon="0.10154">
        <ele>2282</ele>
        <time>2022-03-27T11:22:01Z</time>
      </trkpt>
      <trkpt lat="42.77825" lon="0.10135">
        <ele>2279</ele>
        <time>2022-03-27T11:22:03Z</time>
      </trkpt>
      <trkpt lat="42.77834" lon="0.10122">
        <ele>2277</ele>
        <time>2022-03-27T11:22:05Z</time>
      </trkpt>
      <trkpt lat="42.77842" lon="0.10109">
        <ele>2270</ele>
        <time>2022-03-27T11:22:07Z</time>
      </trkpt>
      <trkpt lat="42.77845" lon="0.10095">
        <ele>2267</ele>
        <time>2022-03-27T11:22:09Z</time>
      </trkpt>
      <trkpt lat="42.7785" lon="0.10078">
        <ele>2263</ele>
        <time>2022-03-27T11:22:11Z</time>
      </trkpt>
      <trkpt lat="42.77839" lon="0.1007">
        <ele>2260</ele>
        <time>2022-03-27T11:22:14Z</time>
      </trkpt>
      <trkpt lat="42.77838" lon="0.10047">
        <ele>2257</ele>
        <time>2022-03-27T11:22:16Z</time>
      </trkpt>
      <trkpt lat="42.77832" lon="0.10031">
        <ele>2249</ele>
        <time>2022-03-27T11:22:19Z</time>
      </trkpt>
      <trkpt lat="42.77821" lon="0.10022">
        <ele>2246</ele>
        <time>2022-03-27T11:22:22Z</time>
      </trkpt>
      <trkpt lat="42.77816" lon="0.10022">
        <ele>2244</ele>
        <time>2022-03-27T11:22:25Z</time>
      </trkpt>
      <trkpt lat="42.77818" lon="0.10022">
        <ele>2244</ele>
        <time>2022-03-27T11:22:27Z</time>
      </trkpt>
      <trkpt lat="42.77817" lon="0.10016">
        <ele>2244</ele>
        <time>2022-03-27T11:22:36Z</time>
      </trkpt>
      <trkpt lat="42.77818" lon="0.1001">
        <ele>2242</ele>
        <time>2022-03-27T11:22:37Z</time>
      </trkpt>
      <trkpt lat="42.7782" lon="0.10003">
        <ele>2241</ele>
        <time>2022-03-27T11:22:38Z</time>
      </trkpt>
      <trkpt lat="42.77821" lon="0.09996">
        <ele>2239</ele>
        <time>2022-03-27T11:22:39Z</time>
      </trkpt>
      <trkpt lat="42.77817" lon="0.09989">
        <ele>2237</ele>
        <time>2022-03-27T11:22:40Z</time>
      </trkpt>
      <trkpt lat="42.77818" lon="0.09983">
        <ele>2234</ele>
        <time>2022-03-27T11:22:41Z</time>
      </trkpt>
      <trkpt lat="42.77822" lon="0.09978">
        <ele>2232</ele>
        <time>2022-03-27T11:22:42Z</time>
      </trkpt>
      <trkpt lat="42.77824" lon="0.09972">
        <ele>2230</ele>
        <time>2022-03-27T11:22:43Z</time>
      </trkpt>
      <trkpt lat="42.77823" lon="0.09965">
        <ele>2227</ele>
        <time>2022-03-27T11:22:44Z</time>
      </trkpt>
      <trkpt lat="42.7782" lon="0.09959">
        <ele>2225</ele>
        <time>2022-03-27T11:22:45Z</time>
      </trkpt>
      <trkpt lat="42.77816" lon="0.09954">
        <ele>2224</ele>
        <time>2022-03-27T11:22:46Z</time>
      </trkpt>
      <trkpt lat="42.77815" lon="0.09948">
        <ele>2222</ele>
        <time>2022-03-27T11:22:47Z</time>
      </trkpt>
      <trkpt lat="42.77817" lon="0.09942">
        <ele>2220</ele>
        <time>2022-03-27T11:22:48Z</time>
      </trkpt>
      <trkpt lat="42.77819" lon="0.09935">
        <ele>2218</ele>
        <time>2022-03-27T11:22:49Z</time>
      </trkpt>
      <trkpt lat="42.77817" lon="0.09933">
        <ele>2216</ele>
        <time>2022-03-27T11:22:50Z</time>
      </trkpt>
      <trkpt lat="42.77815" lon="0.09935">
        <ele>2215</ele>
        <time>2022-03-27T11:22:53Z</time>
      </trkpt>
      <trkpt lat="42.77818" lon="0.09932">
        <ele>2216</ele>
        <time>2022-03-27T11:22:57Z</time>
      </trkpt>
      <trkpt lat="42.77822" lon="0.09932">
        <ele>2216</ele>
        <time>2022-03-27T11:22:58Z</time>
      </trkpt>
      <trkpt lat="42.77824" lon="0.09931">
        <ele>2215</ele>
        <time>2022-03-27T11:22:59Z</time>
      </trkpt>
      <trkpt lat="42.77826" lon="0.09932">
        <ele>2216</ele>
        <time>2022-03-27T11:23:05Z</time>
      </trkpt>
      <trkpt lat="42.77825" lon="0.09935">
        <ele>2216</ele>
        <time>2022-03-27T11:23:21Z</time>
      </trkpt>
      <trkpt lat="42.77823" lon="0.09936">
        <ele>2215</ele>
        <time>2022-03-27T11:23:44Z</time>
      </trkpt>
      <trkpt lat="42.77824" lon="0.09939">
        <ele>2215</ele>
        <time>2022-03-27T11:25:05Z</time>
      </trkpt>
      <trkpt lat="42.77822" lon="0.0994">
        <ele>2215</ele>
        <time>2022-03-27T11:25:36Z</time>
      </trkpt>
      <trkpt lat="42.77824" lon="0.09939">
        <ele>2214</ele>
        <time>2022-03-27T11:25:49Z</time>
      </trkpt>
      <trkpt lat="42.77825" lon="0.09941">
        <ele>2216</ele>
        <time>2022-03-27T11:25:53Z</time>
      </trkpt>
      <trkpt lat="42.77823" lon="0.0994">
        <ele>2216</ele>
        <time>2022-03-27T11:26:15Z</time>
      </trkpt>
      <trkpt lat="42.77822" lon="0.09939">
        <ele>2216</ele>
        <time>2022-03-27T11:26:17Z</time>
      </trkpt>
      <trkpt lat="42.77823" lon="0.09938">
        <ele>2216</ele>
        <time>2022-03-27T11:27:17Z</time>
      </trkpt>
      <trkpt lat="42.77823" lon="0.0994">
        <ele>2218</ele>
        <time>2022-03-27T11:28:02Z</time>
      </trkpt>
      <trkpt lat="42.77821" lon="0.09941">
        <ele>2218</ele>
        <time>2022-03-27T11:28:29Z</time>
      </trkpt>
      <trkpt lat="42.77823" lon="0.09941">
        <ele>2218</ele>
        <time>2022-03-27T11:28:36Z</time>
      </trkpt>
      <trkpt lat="42.77822" lon="0.09938">
        <ele>2217</ele>
        <time>2022-03-27T11:29:45Z</time>
      </trkpt>
      <trkpt lat="42.77822" lon="0.09936">
        <ele>2216</ele>
        <time>2022-03-27T11:30:26Z</time>
      </trkpt>
      <trkpt lat="42.77823" lon="0.09938">
        <ele>2214</ele>
        <time>2022-03-27T11:35:18Z</time>
      </trkpt>
      <trkpt lat="42.77824" lon="0.0994">
        <ele>2214</ele>
        <time>2022-03-27T11:40:28Z</time>
      </trkpt>
      <trkpt lat="42.77825" lon="0.09942">
        <ele>2215</ele>
        <time>2022-03-27T11:40:31Z</time>
      </trkpt>
      <trkpt lat="42.77826" lon="0.09945">
        <ele>2215</ele>
        <time>2022-03-27T11:41:07Z</time>
      </trkpt>
      <trkpt lat="42.77826" lon="0.09948">
        <ele>2216</ele>
        <time>2022-03-27T11:41:32Z</time>
      </trkpt>
      <trkpt lat="42.77825" lon="0.09951">
        <ele>2216</ele>
        <time>2022-03-27T11:41:36Z</time>
      </trkpt>
      <trkpt lat="42.77826" lon="0.09953">
        <ele>2216</ele>
        <time>2022-03-27T11:41:39Z</time>
      </trkpt>
      <trkpt lat="42.77827" lon="0.09956">
        <ele>2218</ele>
        <time>2022-03-27T11:41:46Z</time>
      </trkpt>
      <trkpt lat="42.77828" lon="0.09958">
        <ele>2218</ele>
        <time>2022-03-27T11:41:49Z</time>
      </trkpt>
      <trkpt lat="42.77828" lon="0.09961">
        <ele>2219</ele>
        <time>2022-03-27T11:41:52Z</time>
      </trkpt>
      <trkpt lat="42.77826" lon="0.09964">
        <ele>2219</ele>
        <time>2022-03-27T11:41:55Z</time>
      </trkpt>
      <trkpt lat="42.77824" lon="0.09965">
        <ele>2220</ele>
        <time>2022-03-27T11:41:58Z</time>
      </trkpt>
      <trkpt lat="42.77823" lon="0.09968">
        <ele>2220</ele>
        <time>2022-03-27T11:42:09Z</time>
      </trkpt>
      <trkpt lat="42.77822" lon="0.09969">
        <ele>2222</ele>
        <time>2022-03-27T11:42:12Z</time>
      </trkpt>
      <trkpt lat="42.7782" lon="0.09972">
        <ele>2223</ele>
        <time>2022-03-27T11:42:16Z</time>
      </trkpt>
      <trkpt lat="42.77818" lon="0.09973">
        <ele>2223</ele>
        <time>2022-03-27T11:42:20Z</time>
      </trkpt>
      <trkpt lat="42.77816" lon="0.09974">
        <ele>2224</ele>
        <time>2022-03-27T11:42:23Z</time>
      </trkpt>
      <trkpt lat="42.77814" lon="0.09975">
        <ele>2224</ele>
        <time>2022-03-27T11:42:26Z</time>
      </trkpt>
      <trkpt lat="42.77812" lon="0.09975">
        <ele>2224</ele>
        <time>2022-03-27T11:42:29Z</time>
      </trkpt>
      <trkpt lat="42.7781" lon="0.09975">
        <ele>2225</ele>
        <time>2022-03-27T11:42:32Z</time>
      </trkpt>
      <trkpt lat="42.77808" lon="0.09975">
        <ele>2225</ele>
        <time>2022-03-27T11:42:36Z</time>
      </trkpt>
      <trkpt lat="42.77806" lon="0.09974">
        <ele>2227</ele>
        <time>2022-03-27T11:42:39Z</time>
      </trkpt>
      <trkpt lat="42.77804" lon="0.09973">
        <ele>2227</ele>
        <time>2022-03-27T11:42:42Z</time>
      </trkpt>
      <trkpt lat="42.77802" lon="0.09974">
        <ele>2227</ele>
        <time>2022-03-27T11:42:46Z</time>
      </trkpt>
      <trkpt lat="42.778" lon="0.09974">
        <ele>2228</ele>
        <time>2022-03-27T11:42:50Z</time>
      </trkpt>
      <trkpt lat="42.77798" lon="0.09973">
        <ele>2228</ele>
        <time>2022-03-27T11:42:55Z</time>
      </trkpt>
      <trkpt lat="42.77795" lon="0.09973">
        <ele>2229</ele>
        <time>2022-03-27T11:42:59Z</time>
      </trkpt>
      <trkpt lat="42.77794" lon="0.09973">
        <ele>2229</ele>
        <time>2022-03-27T11:43:02Z</time>
      </trkpt>
      <trkpt lat="42.77792" lon="0.09972">
        <ele>2230</ele>
        <time>2022-03-27T11:43:06Z</time>
      </trkpt>
      <trkpt lat="42.7779" lon="0.09972">
        <ele>2231</ele>
        <time>2022-03-27T11:43:13Z</time>
      </trkpt>
      <trkpt lat="42.77791" lon="0.09974">
        <ele>2231</ele>
        <time>2022-03-27T11:43:22Z</time>
      </trkpt>
      <trkpt lat="42.77792" lon="0.09976">
        <ele>2232</ele>
        <time>2022-03-27T11:43:32Z</time>
      </trkpt>
      <trkpt lat="42.77793" lon="0.09978">
        <ele>2232</ele>
        <time>2022-03-27T11:43:35Z</time>
      </trkpt>
      <trkpt lat="42.77794" lon="0.0998">
        <ele>2232</ele>
        <time>2022-03-27T11:43:39Z</time>
      </trkpt>
      <trkpt lat="42.77796" lon="0.09982">
        <ele>2233</ele>
        <time>2022-03-27T11:43:43Z</time>
      </trkpt>
      <trkpt lat="42.77797" lon="0.09985">
        <ele>2233</ele>
        <time>2022-03-27T11:43:47Z</time>
      </trkpt>
      <trkpt lat="42.77799" lon="0.09987">
        <ele>2233</ele>
        <time>2022-03-27T11:43:51Z</time>
      </trkpt>
      <trkpt lat="42.778" lon="0.09989">
        <ele>2233</ele>
        <time>2022-03-27T11:43:54Z</time>
      </trkpt>
      <trkpt lat="42.77801" lon="0.09991">
        <ele>2234</ele>
        <time>2022-03-27T11:43:57Z</time>
      </trkpt>
      <trkpt lat="42.77802" lon="0.09993">
        <ele>2234</ele>
        <time>2022-03-27T11:44:01Z</time>
      </trkpt>
      <trkpt lat="42.77804" lon="0.09996">
        <ele>2235</ele>
        <time>2022-03-27T11:44:05Z</time>
      </trkpt>
      <trkpt lat="42.77805" lon="0.09998">
        <ele>2235</ele>
        <time>2022-03-27T11:44:09Z</time>
      </trkpt>
      <trkpt lat="42.77806" lon="0.10001">
        <ele>2235</ele>
        <time>2022-03-27T11:44:13Z</time>
      </trkpt>
      <trkpt lat="42.77807" lon="0.10003">
        <ele>2235</ele>
        <time>2022-03-27T11:44:22Z</time>
      </trkpt>
      <trkpt lat="42.77808" lon="0.10005">
        <ele>2236</ele>
        <time>2022-03-27T11:44:25Z</time>
      </trkpt>
      <trkpt lat="42.7781" lon="0.10007">
        <ele>2236</ele>
        <time>2022-03-27T11:44:29Z</time>
      </trkpt>
      <trkpt lat="42.77811" lon="0.1001">
        <ele>2237</ele>
        <time>2022-03-27T11:44:33Z</time>
      </trkpt>
      <trkpt lat="42.77813" lon="0.10011">
        <ele>2237</ele>
        <time>2022-03-27T11:44:36Z</time>
      </trkpt>
      <trkpt lat="42.77814" lon="0.10013">
        <ele>2237</ele>
        <time>2022-03-27T11:44:39Z</time>
      </trkpt>
      <trkpt lat="42.77816" lon="0.10015">
        <ele>2238</ele>
        <time>2022-03-27T11:44:45Z</time>
      </trkpt>
      <trkpt lat="42.77818" lon="0.10017">
        <ele>2239</ele>
        <time>2022-03-27T11:44:48Z</time>
      </trkpt>
      <trkpt lat="42.7782" lon="0.10018">
        <ele>2239</ele>
        <time>2022-03-27T11:44:51Z</time>
      </trkpt>
      <trkpt lat="42.77822" lon="0.1002">
        <ele>2240</ele>
        <time>2022-03-27T11:44:54Z</time>
      </trkpt>
      <trkpt lat="42.77823" lon="0.10022">
        <ele>2240</ele>
        <time>2022-03-27T11:44:57Z</time>
      </trkpt>
      <trkpt lat="42.77825" lon="0.10024">
        <ele>2240</ele>
        <time>2022-03-27T11:45:00Z</time>
      </trkpt>
      <trkpt lat="42.77826" lon="0.10026">
        <ele>2241</ele>
        <time>2022-03-27T11:45:03Z</time>
      </trkpt>
      <trkpt lat="42.77827" lon="0.10028">
        <ele>2241</ele>
        <time>2022-03-27T11:45:06Z</time>
      </trkpt>
      <trkpt lat="42.77829" lon="0.10031">
        <ele>2242</ele>
        <time>2022-03-27T11:45:10Z</time>
      </trkpt>
      <trkpt lat="42.7783" lon="0.10033">
        <ele>2242</ele>
        <time>2022-03-27T11:45:13Z</time>
      </trkpt>
      <trkpt lat="42.77832" lon="0.10034">
        <ele>2243</ele>
        <time>2022-03-27T11:45:16Z</time>
      </trkpt>
      <trkpt lat="42.77833" lon="0.10036">
        <ele>2243</ele>
        <time>2022-03-27T11:45:20Z</time>
      </trkpt>
      <trkpt lat="42.77835" lon="0.10038">
        <ele>2243</ele>
        <time>2022-03-27T11:45:23Z</time>
      </trkpt>
      <trkpt lat="42.77836" lon="0.1004">
        <ele>2245</ele>
        <time>2022-03-27T11:45:27Z</time>
      </trkpt>
      <trkpt lat="42.77838" lon="0.10042">
        <ele>2245</ele>
        <time>2022-03-27T11:45:31Z</time>
      </trkpt>
      <trkpt lat="42.77839" lon="0.10044">
        <ele>2245</ele>
        <time>2022-03-27T11:45:35Z</time>
      </trkpt>
      <trkpt lat="42.7784" lon="0.10046">
        <ele>2248</ele>
        <time>2022-03-27T11:45:39Z</time>
      </trkpt>
      <trkpt lat="42.77842" lon="0.10048">
        <ele>2248</ele>
        <time>2022-03-27T11:45:43Z</time>
      </trkpt>
      <trkpt lat="42.77843" lon="0.10051">
        <ele>2249</ele>
        <time>2022-03-27T11:45:47Z</time>
      </trkpt>
      <trkpt lat="42.77844" lon="0.10053">
        <ele>2250</ele>
        <time>2022-03-27T11:45:51Z</time>
      </trkpt>
      <trkpt lat="42.77844" lon="0.10056">
        <ele>2250</ele>
        <time>2022-03-27T11:45:55Z</time>
      </trkpt>
      <trkpt lat="42.77844" lon="0.10059">
        <ele>2251</ele>
        <time>2022-03-27T11:45:59Z</time>
      </trkpt>
      <trkpt lat="42.77844" lon="0.10061">
        <ele>2251</ele>
        <time>2022-03-27T11:46:03Z</time>
      </trkpt>
      <trkpt lat="42.77844" lon="0.10064">
        <ele>2252</ele>
        <time>2022-03-27T11:46:15Z</time>
      </trkpt>
      <trkpt lat="42.77844" lon="0.10068">
        <ele>2252</ele>
        <time>2022-03-27T11:46:19Z</time>
      </trkpt>
      <trkpt lat="42.77844" lon="0.1007">
        <ele>2252</ele>
        <time>2022-03-27T11:46:22Z</time>
      </trkpt>
      <trkpt lat="42.77844" lon="0.10073">
        <ele>2253</ele>
        <time>2022-03-27T11:46:26Z</time>
      </trkpt>
      <trkpt lat="42.77844" lon="0.10076">
        <ele>2254</ele>
        <time>2022-03-27T11:46:30Z</time>
      </trkpt>
      <trkpt lat="42.77843" lon="0.10079">
        <ele>2255</ele>
        <time>2022-03-27T11:46:34Z</time>
      </trkpt>
      <trkpt lat="42.77844" lon="0.10082">
        <ele>2255</ele>
        <time>2022-03-27T11:46:39Z</time>
      </trkpt>
      <trkpt lat="42.77843" lon="0.10085">
        <ele>2255</ele>
        <time>2022-03-27T11:46:42Z</time>
      </trkpt>
      <trkpt lat="42.77843" lon="0.10088">
        <ele>2255</ele>
        <time>2022-03-27T11:46:46Z</time>
      </trkpt>
      <trkpt lat="42.77843" lon="0.10091">
        <ele>2255</ele>
        <time>2022-03-27T11:46:50Z</time>
      </trkpt>
      <trkpt lat="42.77842" lon="0.10093">
        <ele>2256</ele>
        <time>2022-03-27T11:46:53Z</time>
      </trkpt>
      <trkpt lat="42.77842" lon="0.10096">
        <ele>2256</ele>
        <time>2022-03-27T11:46:56Z</time>
      </trkpt>
      <trkpt lat="42.77841" lon="0.10099">
        <ele>2257</ele>
        <time>2022-03-27T11:47:00Z</time>
      </trkpt>
      <trkpt lat="42.77841" lon="0.10101">
        <ele>2257</ele>
        <time>2022-03-27T11:47:03Z</time>
      </trkpt>
      <trkpt lat="42.7784" lon="0.10104">
        <ele>2258</ele>
        <time>2022-03-27T11:47:07Z</time>
      </trkpt>
      <trkpt lat="42.77839" lon="0.10107">
        <ele>2258</ele>
        <time>2022-03-27T11:47:11Z</time>
      </trkpt>
      <trkpt lat="42.77839" lon="0.1011">
        <ele>2259</ele>
        <time>2022-03-27T11:47:15Z</time>
      </trkpt>
      <trkpt lat="42.77838" lon="0.10112">
        <ele>2259</ele>
        <time>2022-03-27T11:47:19Z</time>
      </trkpt>
      <trkpt lat="42.77837" lon="0.10115">
        <ele>2260</ele>
        <time>2022-03-27T11:47:23Z</time>
      </trkpt>
      <trkpt lat="42.77836" lon="0.10117">
        <ele>2260</ele>
        <time>2022-03-27T11:47:27Z</time>
      </trkpt>
      <trkpt lat="42.77835" lon="0.1012">
        <ele>2261</ele>
        <time>2022-03-27T11:47:32Z</time>
      </trkpt>
      <trkpt lat="42.77835" lon="0.10123">
        <ele>2261</ele>
        <time>2022-03-27T11:47:37Z</time>
      </trkpt>
      <trkpt lat="42.77833" lon="0.10125">
        <ele>2262</ele>
        <time>2022-03-27T11:47:50Z</time>
      </trkpt>
      <trkpt lat="42.77833" lon="0.10127">
        <ele>2263</ele>
        <time>2022-03-27T11:47:54Z</time>
      </trkpt>
      <trkpt lat="42.77832" lon="0.10131">
        <ele>2263</ele>
        <time>2022-03-27T11:47:59Z</time>
      </trkpt>
      <trkpt lat="42.77831" lon="0.10133">
        <ele>2264</ele>
        <time>2022-03-27T11:48:05Z</time>
      </trkpt>
      <trkpt lat="42.7783" lon="0.10136">
        <ele>2265</ele>
        <time>2022-03-27T11:48:09Z</time>
      </trkpt>
      <trkpt lat="42.77829" lon="0.10138">
        <ele>2265</ele>
        <time>2022-03-27T11:48:13Z</time>
      </trkpt>
      <trkpt lat="42.77827" lon="0.1014">
        <ele>2266</ele>
        <time>2022-03-27T11:48:18Z</time>
      </trkpt>
      <trkpt lat="42.77827" lon="0.10142">
        <ele>2267</ele>
        <time>2022-03-27T11:48:23Z</time>
      </trkpt>
      <trkpt lat="42.77826" lon="0.10145">
        <ele>2267</ele>
        <time>2022-03-27T11:48:32Z</time>
      </trkpt>
      <trkpt lat="42.77825" lon="0.10147">
        <ele>2267</ele>
        <time>2022-03-27T11:48:36Z</time>
      </trkpt>
      <trkpt lat="42.77824" lon="0.1015">
        <ele>2268</ele>
        <time>2022-03-27T11:48:39Z</time>
      </trkpt>
      <trkpt lat="42.77823" lon="0.10152">
        <ele>2269</ele>
        <time>2022-03-27T11:48:49Z</time>
      </trkpt>
      <trkpt lat="42.77822" lon="0.10155">
        <ele>2270</ele>
        <time>2022-03-27T11:48:53Z</time>
      </trkpt>
      <trkpt lat="42.77821" lon="0.10157">
        <ele>2270</ele>
        <time>2022-03-27T11:48:57Z</time>
      </trkpt>
      <trkpt lat="42.7782" lon="0.1016">
        <ele>2270</ele>
        <time>2022-03-27T11:49:01Z</time>
      </trkpt>
      <trkpt lat="42.77818" lon="0.10162">
        <ele>2271</ele>
        <time>2022-03-27T11:49:05Z</time>
      </trkpt>
      <trkpt lat="42.77817" lon="0.10165">
        <ele>2272</ele>
        <time>2022-03-27T11:49:08Z</time>
      </trkpt>
      <trkpt lat="42.77816" lon="0.10168">
        <ele>2274</ele>
        <time>2022-03-27T11:49:12Z</time>
      </trkpt>
      <trkpt lat="42.77815" lon="0.1017">
        <ele>2275</ele>
        <time>2022-03-27T11:49:16Z</time>
      </trkpt>
      <trkpt lat="42.77815" lon="0.10173">
        <ele>2276</ele>
        <time>2022-03-27T11:49:22Z</time>
      </trkpt>
      <trkpt lat="42.77814" lon="0.10175">
        <ele>2276</ele>
        <time>2022-03-27T11:49:25Z</time>
      </trkpt>
      <trkpt lat="42.77813" lon="0.10178">
        <ele>2277</ele>
        <time>2022-03-27T11:49:29Z</time>
      </trkpt>
      <trkpt lat="42.77813" lon="0.10181">
        <ele>2277</ele>
        <time>2022-03-27T11:49:33Z</time>
      </trkpt>
      <trkpt lat="42.77812" lon="0.10184">
        <ele>2278</ele>
        <time>2022-03-27T11:49:37Z</time>
      </trkpt>
      <trkpt lat="42.77811" lon="0.10186">
        <ele>2278</ele>
        <time>2022-03-27T11:49:41Z</time>
      </trkpt>
      <trkpt lat="42.77811" lon="0.10189">
        <ele>2280</ele>
        <time>2022-03-27T11:49:45Z</time>
      </trkpt>
      <trkpt lat="42.7781" lon="0.10192">
        <ele>2280</ele>
        <time>2022-03-27T11:49:49Z</time>
      </trkpt>
      <trkpt lat="42.77811" lon="0.10195">
        <ele>2281</ele>
        <time>2022-03-27T11:49:54Z</time>
      </trkpt>
      <trkpt lat="42.77812" lon="0.10198">
        <ele>2281</ele>
        <time>2022-03-27T11:49:59Z</time>
      </trkpt>
      <trkpt lat="42.77813" lon="0.102">
        <ele>2282</ele>
        <time>2022-03-27T11:50:03Z</time>
      </trkpt>
      <trkpt lat="42.77812" lon="0.10203">
        <ele>2283</ele>
        <time>2022-03-27T11:50:07Z</time>
      </trkpt>
      <trkpt lat="42.7781" lon="0.10205">
        <ele>2284</ele>
        <time>2022-03-27T11:50:14Z</time>
      </trkpt>
      <trkpt lat="42.77809" lon="0.10207">
        <ele>2284</ele>
        <time>2022-03-27T11:50:19Z</time>
      </trkpt>
      <trkpt lat="42.77807" lon="0.10208">
        <ele>2284</ele>
        <time>2022-03-27T11:50:23Z</time>
      </trkpt>
      <trkpt lat="42.77805" lon="0.1021">
        <ele>2285</ele>
        <time>2022-03-27T11:50:28Z</time>
      </trkpt>
      <trkpt lat="42.77803" lon="0.10211">
        <ele>2286</ele>
        <time>2022-03-27T11:50:34Z</time>
      </trkpt>
      <trkpt lat="42.77803" lon="0.10213">
        <ele>2287</ele>
        <time>2022-03-27T11:50:37Z</time>
      </trkpt>
      <trkpt lat="42.77804" lon="0.10216">
        <ele>2287</ele>
        <time>2022-03-27T11:50:40Z</time>
      </trkpt>
      <trkpt lat="42.77805" lon="0.10218">
        <ele>2287</ele>
        <time>2022-03-27T11:50:44Z</time>
      </trkpt>
      <trkpt lat="42.77806" lon="0.1022">
        <ele>2287</ele>
        <time>2022-03-27T11:50:47Z</time>
      </trkpt>
      <trkpt lat="42.77807" lon="0.10223">
        <ele>2287</ele>
        <time>2022-03-27T11:50:50Z</time>
      </trkpt>
      <trkpt lat="42.77808" lon="0.10225">
        <ele>2288</ele>
        <time>2022-03-27T11:50:53Z</time>
      </trkpt>
      <trkpt lat="42.77809" lon="0.10227">
        <ele>2288</ele>
        <time>2022-03-27T11:50:56Z</time>
      </trkpt>
      <trkpt lat="42.7781" lon="0.10229">
        <ele>2289</ele>
        <time>2022-03-27T11:50:59Z</time>
      </trkpt>
      <trkpt lat="42.77812" lon="0.10232">
        <ele>2290</ele>
        <time>2022-03-27T11:51:03Z</time>
      </trkpt>
      <trkpt lat="42.77813" lon="0.10234">
        <ele>2290</ele>
        <time>2022-03-27T11:51:07Z</time>
      </trkpt>
      <trkpt lat="42.77812" lon="0.10237">
        <ele>2291</ele>
        <time>2022-03-27T11:51:11Z</time>
      </trkpt>
      <trkpt lat="42.77811" lon="0.1024">
        <ele>2291</ele>
        <time>2022-03-27T11:51:15Z</time>
      </trkpt>
      <trkpt lat="42.77809" lon="0.10242">
        <ele>2291</ele>
        <time>2022-03-27T11:51:19Z</time>
      </trkpt>
      <trkpt lat="42.77808" lon="0.10243">
        <ele>2292</ele>
        <time>2022-03-27T11:51:23Z</time>
      </trkpt>
      <trkpt lat="42.77807" lon="0.10246">
        <ele>2294</ele>
        <time>2022-03-27T11:51:29Z</time>
      </trkpt>
      <trkpt lat="42.77808" lon="0.10249">
        <ele>2294</ele>
        <time>2022-03-27T11:51:33Z</time>
      </trkpt>
      <trkpt lat="42.77809" lon="0.10252">
        <ele>2295</ele>
        <time>2022-03-27T11:51:37Z</time>
      </trkpt>
      <trkpt lat="42.7781" lon="0.10254">
        <ele>2295</ele>
        <time>2022-03-27T11:51:40Z</time>
      </trkpt>
      <trkpt lat="42.77811" lon="0.10256">
        <ele>2295</ele>
        <time>2022-03-27T11:51:43Z</time>
      </trkpt>
      <trkpt lat="42.77813" lon="0.10259">
        <ele>2296</ele>
        <time>2022-03-27T11:51:47Z</time>
      </trkpt>
      <trkpt lat="42.77814" lon="0.10261">
        <ele>2296</ele>
        <time>2022-03-27T11:51:50Z</time>
      </trkpt>
      <trkpt lat="42.77814" lon="0.10264">
        <ele>2297</ele>
        <time>2022-03-27T11:51:54Z</time>
      </trkpt>
      <trkpt lat="42.77812" lon="0.10266">
        <ele>2297</ele>
        <time>2022-03-27T11:51:57Z</time>
      </trkpt>
      <trkpt lat="42.77811" lon="0.10268">
        <ele>2298</ele>
        <time>2022-03-27T11:52:02Z</time>
      </trkpt>
      <trkpt lat="42.77809" lon="0.10269">
        <ele>2298</ele>
        <time>2022-03-27T11:52:06Z</time>
      </trkpt>
      <trkpt lat="42.77807" lon="0.1027">
        <ele>2300</ele>
        <time>2022-03-27T11:52:11Z</time>
      </trkpt>
      <trkpt lat="42.77806" lon="0.10271">
        <ele>2300</ele>
        <time>2022-03-27T11:52:15Z</time>
      </trkpt>
      <trkpt lat="42.77804" lon="0.10273">
        <ele>2301</ele>
        <time>2022-03-27T11:52:18Z</time>
      </trkpt>
      <trkpt lat="42.77802" lon="0.10274">
        <ele>2302</ele>
        <time>2022-03-27T11:52:23Z</time>
      </trkpt>
      <trkpt lat="42.77803" lon="0.10277">
        <ele>2303</ele>
        <time>2022-03-27T11:52:29Z</time>
      </trkpt>
      <trkpt lat="42.77803" lon="0.1028">
        <ele>2303</ele>
        <time>2022-03-27T11:52:33Z</time>
      </trkpt>
      <trkpt lat="42.77804" lon="0.10282">
        <ele>2304</ele>
        <time>2022-03-27T11:52:38Z</time>
      </trkpt>
      <trkpt lat="42.77805" lon="0.10285">
        <ele>2304</ele>
        <time>2022-03-27T11:52:42Z</time>
      </trkpt>
      <trkpt lat="42.77807" lon="0.10288">
        <ele>2304</ele>
        <time>2022-03-27T11:52:46Z</time>
      </trkpt>
      <trkpt lat="42.77808" lon="0.1029">
        <ele>2304</ele>
        <time>2022-03-27T11:52:49Z</time>
      </trkpt>
      <trkpt lat="42.77809" lon="0.10292">
        <ele>2306</ele>
        <time>2022-03-27T11:52:53Z</time>
      </trkpt>
      <trkpt lat="42.7781" lon="0.10295">
        <ele>2306</ele>
        <time>2022-03-27T11:52:57Z</time>
      </trkpt>
      <trkpt lat="42.77811" lon="0.10297">
        <ele>2306</ele>
        <time>2022-03-27T11:53:01Z</time>
      </trkpt>
      <trkpt lat="42.77813" lon="0.10299">
        <ele>2307</ele>
        <time>2022-03-27T11:53:05Z</time>
      </trkpt>
      <trkpt lat="42.77814" lon="0.10302">
        <ele>2308</ele>
        <time>2022-03-27T11:53:09Z</time>
      </trkpt>
      <trkpt lat="42.77813" lon="0.10305">
        <ele>2308</ele>
        <time>2022-03-27T11:53:13Z</time>
      </trkpt>
      <trkpt lat="42.77812" lon="0.10307">
        <ele>2309</ele>
        <time>2022-03-27T11:53:26Z</time>
      </trkpt>
      <trkpt lat="42.7781" lon="0.10309">
        <ele>2310</ele>
        <time>2022-03-27T11:53:30Z</time>
      </trkpt>
      <trkpt lat="42.77808" lon="0.1031">
        <ele>2310</ele>
        <time>2022-03-27T11:53:34Z</time>
      </trkpt>
      <trkpt lat="42.77806" lon="0.10311">
        <ele>2311</ele>
        <time>2022-03-27T11:53:38Z</time>
      </trkpt>
      <trkpt lat="42.77804" lon="0.10313">
        <ele>2311</ele>
        <time>2022-03-27T11:53:42Z</time>
      </trkpt>
      <trkpt lat="42.77803" lon="0.10315">
        <ele>2312</ele>
        <time>2022-03-27T11:53:48Z</time>
      </trkpt>
      <trkpt lat="42.77804" lon="0.10318">
        <ele>2313</ele>
        <time>2022-03-27T11:53:52Z</time>
      </trkpt>
      <trkpt lat="42.77804" lon="0.1032">
        <ele>2314</ele>
        <time>2022-03-27T11:53:55Z</time>
      </trkpt>
      <trkpt lat="42.77805" lon="0.10323">
        <ele>2314</ele>
        <time>2022-03-27T11:54:02Z</time>
      </trkpt>
      <trkpt lat="42.77806" lon="0.10326">
        <ele>2314</ele>
        <time>2022-03-27T11:54:06Z</time>
      </trkpt>
      <trkpt lat="42.77806" lon="0.10329">
        <ele>2315</ele>
        <time>2022-03-27T11:54:09Z</time>
      </trkpt>
      <trkpt lat="42.77807" lon="0.10332">
        <ele>2315</ele>
        <time>2022-03-27T11:54:13Z</time>
      </trkpt>
      <trkpt lat="42.77808" lon="0.10335">
        <ele>2316</ele>
        <time>2022-03-27T11:54:17Z</time>
      </trkpt>
      <trkpt lat="42.7781" lon="0.10336">
        <ele>2316</ele>
        <time>2022-03-27T11:54:21Z</time>
      </trkpt>
      <trkpt lat="42.77811" lon="0.10339">
        <ele>2317</ele>
        <time>2022-03-27T11:54:26Z</time>
      </trkpt>
      <trkpt lat="42.77811" lon="0.10342">
        <ele>2317</ele>
        <time>2022-03-27T11:54:30Z</time>
      </trkpt>
      <trkpt lat="42.7781" lon="0.10344">
        <ele>2318</ele>
        <time>2022-03-27T11:54:33Z</time>
      </trkpt>
      <trkpt lat="42.77809" lon="0.10347">
        <ele>2318</ele>
        <time>2022-03-27T11:54:37Z</time>
      </trkpt>
      <trkpt lat="42.77807" lon="0.10348">
        <ele>2318</ele>
        <time>2022-03-27T11:54:40Z</time>
      </trkpt>
      <trkpt lat="42.77805" lon="0.1035">
        <ele>2319</ele>
        <time>2022-03-27T11:54:45Z</time>
      </trkpt>
      <trkpt lat="42.77804" lon="0.10351">
        <ele>2320</ele>
        <time>2022-03-27T11:54:51Z</time>
      </trkpt>
      <trkpt lat="42.77802" lon="0.10353">
        <ele>2320</ele>
        <time>2022-03-27T11:54:54Z</time>
      </trkpt>
      <trkpt lat="42.778" lon="0.10354">
        <ele>2321</ele>
        <time>2022-03-27T11:54:58Z</time>
      </trkpt>
      <trkpt lat="42.77801" lon="0.10357">
        <ele>2323</ele>
        <time>2022-03-27T11:55:04Z</time>
      </trkpt>
      <trkpt lat="42.77802" lon="0.10359">
        <ele>2323</ele>
        <time>2022-03-27T11:55:15Z</time>
      </trkpt>
      <trkpt lat="42.77802" lon="0.10362">
        <ele>2323</ele>
        <time>2022-03-27T11:55:18Z</time>
      </trkpt>
      <trkpt lat="42.77802" lon="0.10364">
        <ele>2324</ele>
        <time>2022-03-27T11:55:35Z</time>
      </trkpt>
      <trkpt lat="42.77803" lon="0.10366">
        <ele>2324</ele>
        <time>2022-03-27T11:55:38Z</time>
      </trkpt>
      <trkpt lat="42.77804" lon="0.10369">
        <ele>2324</ele>
        <time>2022-03-27T11:55:41Z</time>
      </trkpt>
      <trkpt lat="42.77805" lon="0.10372">
        <ele>2326</ele>
        <time>2022-03-27T11:55:44Z</time>
      </trkpt>
      <trkpt lat="42.77805" lon="0.10374">
        <ele>2327</ele>
        <time>2022-03-27T11:55:47Z</time>
      </trkpt>
      <trkpt lat="42.77803" lon="0.10376">
        <ele>2327</ele>
        <time>2022-03-27T11:55:50Z</time>
      </trkpt>
      <trkpt lat="42.77802" lon="0.10377">
        <ele>2327</ele>
        <time>2022-03-27T11:55:53Z</time>
      </trkpt>
      <trkpt lat="42.778" lon="0.10378">
        <ele>2328</ele>
        <time>2022-03-27T11:55:56Z</time>
      </trkpt>
      <trkpt lat="42.77798" lon="0.10379">
        <ele>2328</ele>
        <time>2022-03-27T11:56:00Z</time>
      </trkpt>
      <trkpt lat="42.77797" lon="0.10382">
        <ele>2329</ele>
        <time>2022-03-27T11:56:04Z</time>
      </trkpt>
      <trkpt lat="42.77798" lon="0.10384">
        <ele>2329</ele>
        <time>2022-03-27T11:56:07Z</time>
      </trkpt>
      <trkpt lat="42.77799" lon="0.10387">
        <ele>2330</ele>
        <time>2022-03-27T11:56:13Z</time>
      </trkpt>
      <trkpt lat="42.77799" lon="0.10389">
        <ele>2331</ele>
        <time>2022-03-27T11:56:16Z</time>
      </trkpt>
      <trkpt lat="42.778" lon="0.10392">
        <ele>2331</ele>
        <time>2022-03-27T11:56:19Z</time>
      </trkpt>
      <trkpt lat="42.77801" lon="0.10394">
        <ele>2333</ele>
        <time>2022-03-27T11:56:22Z</time>
      </trkpt>
      <trkpt lat="42.77801" lon="0.10398">
        <ele>2333</ele>
        <time>2022-03-27T11:56:26Z</time>
      </trkpt>
      <trkpt lat="42.77802" lon="0.10401">
        <ele>2333</ele>
        <time>2022-03-27T11:56:29Z</time>
      </trkpt>
      <trkpt lat="42.77803" lon="0.10403">
        <ele>2333</ele>
        <time>2022-03-27T11:56:32Z</time>
      </trkpt>
      <trkpt lat="42.77803" lon="0.10406">
        <ele>2334</ele>
        <time>2022-03-27T11:56:35Z</time>
      </trkpt>
      <trkpt lat="42.77803" lon="0.10408">
        <ele>2334</ele>
        <time>2022-03-27T11:56:38Z</time>
      </trkpt>
      <trkpt lat="42.77802" lon="0.10411">
        <ele>2334</ele>
        <time>2022-03-27T11:56:41Z</time>
      </trkpt>
      <trkpt lat="42.77801" lon="0.10414">
        <ele>2334</ele>
        <time>2022-03-27T11:56:44Z</time>
      </trkpt>
      <trkpt lat="42.77799" lon="0.10416">
        <ele>2335</ele>
        <time>2022-03-27T11:56:47Z</time>
      </trkpt>
      <trkpt lat="42.77798" lon="0.10418">
        <ele>2336</ele>
        <time>2022-03-27T11:56:50Z</time>
      </trkpt>
      <trkpt lat="42.77797" lon="0.1042">
        <ele>2336</ele>
        <time>2022-03-27T11:56:53Z</time>
      </trkpt>
      <trkpt lat="42.77795" lon="0.10422">
        <ele>2336</ele>
        <time>2022-03-27T11:56:56Z</time>
      </trkpt>
      <trkpt lat="42.77794" lon="0.10425">
        <ele>2336</ele>
        <time>2022-03-27T11:56:59Z</time>
      </trkpt>
      <trkpt lat="42.77792" lon="0.10427">
        <ele>2337</ele>
        <time>2022-03-27T11:57:02Z</time>
      </trkpt>
      <trkpt lat="42.77791" lon="0.10429">
        <ele>2337</ele>
        <time>2022-03-27T11:57:05Z</time>
      </trkpt>
      <trkpt lat="42.7779" lon="0.10431">
        <ele>2338</ele>
        <time>2022-03-27T11:57:08Z</time>
      </trkpt>
      <trkpt lat="42.7779" lon="0.10434">
        <ele>2338</ele>
        <time>2022-03-27T11:57:11Z</time>
      </trkpt>
      <trkpt lat="42.77789" lon="0.10437">
        <ele>2338</ele>
        <time>2022-03-27T11:57:14Z</time>
      </trkpt>
      <trkpt lat="42.77788" lon="0.1044">
        <ele>2339</ele>
        <time>2022-03-27T11:57:17Z</time>
      </trkpt>
      <trkpt lat="42.77788" lon="0.10443">
        <ele>2338</ele>
        <time>2022-03-27T11:57:20Z</time>
      </trkpt>
      <trkpt lat="42.77788" lon="0.10445">
        <ele>2338</ele>
        <time>2022-03-27T11:57:23Z</time>
      </trkpt>
      <trkpt lat="42.77787" lon="0.10448">
        <ele>2338</ele>
        <time>2022-03-27T11:57:26Z</time>
      </trkpt>
      <trkpt lat="42.77787" lon="0.10452">
        <ele>2338</ele>
        <time>2022-03-27T11:57:29Z</time>
      </trkpt>
      <trkpt lat="42.77786" lon="0.10454">
        <ele>2340</ele>
        <time>2022-03-27T11:57:32Z</time>
      </trkpt>
      <trkpt lat="42.77786" lon="0.10457">
        <ele>2339</ele>
        <time>2022-03-27T11:57:35Z</time>
      </trkpt>
      <trkpt lat="42.77786" lon="0.1046">
        <ele>2340</ele>
        <time>2022-03-27T11:57:38Z</time>
      </trkpt>
      <trkpt lat="42.77785" lon="0.10463">
        <ele>2340</ele>
        <time>2022-03-27T11:57:41Z</time>
      </trkpt>
      <trkpt lat="42.77784" lon="0.10465">
        <ele>2340</ele>
        <time>2022-03-27T11:57:44Z</time>
      </trkpt>
      <trkpt lat="42.77784" lon="0.10468">
        <ele>2341</ele>
        <time>2022-03-27T11:57:48Z</time>
      </trkpt>
      <trkpt lat="42.77784" lon="0.10471">
        <ele>2341</ele>
        <time>2022-03-27T11:57:56Z</time>
      </trkpt>
      <trkpt lat="42.77783" lon="0.10473">
        <ele>2342</ele>
        <time>2022-03-27T11:57:59Z</time>
      </trkpt>
      <trkpt lat="42.77782" lon="0.10476">
        <ele>2342</ele>
        <time>2022-03-27T11:58:02Z</time>
      </trkpt>
      <trkpt lat="42.77782" lon="0.10479">
        <ele>2342</ele>
        <time>2022-03-27T11:58:05Z</time>
      </trkpt>
      <trkpt lat="42.77781" lon="0.10482">
        <ele>2342</ele>
        <time>2022-03-27T11:58:08Z</time>
      </trkpt>
      <trkpt lat="42.7778" lon="0.10484">
        <ele>2343</ele>
        <time>2022-03-27T11:58:11Z</time>
      </trkpt>
      <trkpt lat="42.7778" lon="0.10487">
        <ele>2343</ele>
        <time>2022-03-27T11:58:15Z</time>
      </trkpt>
      <trkpt lat="42.77779" lon="0.1049">
        <ele>2344</ele>
        <time>2022-03-27T11:58:19Z</time>
      </trkpt>
      <trkpt lat="42.77779" lon="0.10493">
        <ele>2344</ele>
        <time>2022-03-27T11:58:22Z</time>
      </trkpt>
      <trkpt lat="42.77779" lon="0.10495">
        <ele>2344</ele>
        <time>2022-03-27T11:58:25Z</time>
      </trkpt>
      <trkpt lat="42.77778" lon="0.10498">
        <ele>2344</ele>
        <time>2022-03-27T11:58:28Z</time>
      </trkpt>
      <trkpt lat="42.77778" lon="0.10501">
        <ele>2345</ele>
        <time>2022-03-27T11:58:31Z</time>
      </trkpt>
      <trkpt lat="42.77777" lon="0.10503">
        <ele>2345</ele>
        <time>2022-03-27T11:58:34Z</time>
      </trkpt>
      <trkpt lat="42.77776" lon="0.10506">
        <ele>2346</ele>
        <time>2022-03-27T11:58:38Z</time>
      </trkpt>
      <trkpt lat="42.77775" lon="0.10508">
        <ele>2346</ele>
        <time>2022-03-27T11:58:41Z</time>
      </trkpt>
      <trkpt lat="42.77775" lon="0.10511">
        <ele>2347</ele>
        <time>2022-03-27T11:58:45Z</time>
      </trkpt>
      <trkpt lat="42.77774" lon="0.10514">
        <ele>2347</ele>
        <time>2022-03-27T11:58:49Z</time>
      </trkpt>
      <trkpt lat="42.77773" lon="0.10517">
        <ele>2348</ele>
        <time>2022-03-27T11:58:53Z</time>
      </trkpt>
      <trkpt lat="42.77773" lon="0.10519">
        <ele>2348</ele>
        <time>2022-03-27T11:58:56Z</time>
      </trkpt>
      <trkpt lat="42.77773" lon="0.10521">
        <ele>2348</ele>
        <time>2022-03-27T11:59:18Z</time>
      </trkpt>
      <trkpt lat="42.77773" lon="0.10524">
        <ele>2348</ele>
        <time>2022-03-27T11:59:21Z</time>
      </trkpt>
      <trkpt lat="42.77773" lon="0.10527">
        <ele>2349</ele>
        <time>2022-03-27T11:59:27Z</time>
      </trkpt>
      <trkpt lat="42.77774" lon="0.1053">
        <ele>2349</ele>
        <time>2022-03-27T11:59:30Z</time>
      </trkpt>
      <trkpt lat="42.77773" lon="0.10533">
        <ele>2350</ele>
        <time>2022-03-27T11:59:34Z</time>
      </trkpt>
      <trkpt lat="42.77772" lon="0.10536">
        <ele>2352</ele>
        <time>2022-03-27T11:59:40Z</time>
      </trkpt>
      <trkpt lat="42.77771" lon="0.10538">
        <ele>2352</ele>
        <time>2022-03-27T11:59:43Z</time>
      </trkpt>
      <trkpt lat="42.77769" lon="0.1054">
        <ele>2353</ele>
        <time>2022-03-27T11:59:46Z</time>
      </trkpt>
      <trkpt lat="42.7777" lon="0.10542">
        <ele>2353</ele>
        <time>2022-03-27T12:00:17Z</time>
      </trkpt>
      <trkpt lat="42.77771" lon="0.10544">
        <ele>2353</ele>
        <time>2022-03-27T12:00:21Z</time>
      </trkpt>
      <trkpt lat="42.7777" lon="0.10547">
        <ele>2354</ele>
        <time>2022-03-27T12:00:30Z</time>
      </trkpt>
      <trkpt lat="42.77768" lon="0.10548">
        <ele>2355</ele>
        <time>2022-03-27T12:00:32Z</time>
      </trkpt>
      <trkpt lat="42.77766" lon="0.10549">
        <ele>2355</ele>
        <time>2022-03-27T12:00:35Z</time>
      </trkpt>
      <trkpt lat="42.77765" lon="0.10551">
        <ele>2356</ele>
        <time>2022-03-27T12:00:38Z</time>
      </trkpt>
      <trkpt lat="42.77763" lon="0.10552">
        <ele>2357</ele>
        <time>2022-03-27T12:00:41Z</time>
      </trkpt>
      <trkpt lat="42.77762" lon="0.10555">
        <ele>2357</ele>
        <time>2022-03-27T12:01:45Z</time>
      </trkpt>
      <trkpt lat="42.7776" lon="0.10557">
        <ele>2358</ele>
        <time>2022-03-27T12:01:54Z</time>
      </trkpt>
      <trkpt lat="42.77759" lon="0.10559">
        <ele>2358</ele>
        <time>2022-03-27T12:01:57Z</time>
      </trkpt>
      <trkpt lat="42.77758" lon="0.10562">
        <ele>2359</ele>
        <time>2022-03-27T12:02:01Z</time>
      </trkpt>
      <trkpt lat="42.77758" lon="0.10564">
        <ele>2360</ele>
        <time>2022-03-27T12:02:04Z</time>
      </trkpt>
      <trkpt lat="42.77759" lon="0.10567">
        <ele>2360</ele>
        <time>2022-03-27T12:02:07Z</time>
      </trkpt>
      <trkpt lat="42.7776" lon="0.1057">
        <ele>2361</ele>
        <time>2022-03-27T12:02:10Z</time>
      </trkpt>
      <trkpt lat="42.7776" lon="0.10572">
        <ele>2362</ele>
        <time>2022-03-27T12:02:13Z</time>
      </trkpt>
      <trkpt lat="42.77761" lon="0.10575">
        <ele>2363</ele>
        <time>2022-03-27T12:02:17Z</time>
      </trkpt>
      <trkpt lat="42.77761" lon="0.10578">
        <ele>2363</ele>
        <time>2022-03-27T12:02:20Z</time>
      </trkpt>
      <trkpt lat="42.7776" lon="0.1058">
        <ele>2364</ele>
        <time>2022-03-27T12:02:23Z</time>
      </trkpt>
      <trkpt lat="42.77759" lon="0.10582">
        <ele>2364</ele>
        <time>2022-03-27T12:02:30Z</time>
      </trkpt>
      <trkpt lat="42.77757" lon="0.10584">
        <ele>2364</ele>
        <time>2022-03-27T12:02:33Z</time>
      </trkpt>
      <trkpt lat="42.77756" lon="0.10587">
        <ele>2365</ele>
        <time>2022-03-27T12:02:37Z</time>
      </trkpt>
      <trkpt lat="42.77754" lon="0.10588">
        <ele>2366</ele>
        <time>2022-03-27T12:02:40Z</time>
      </trkpt>
      <trkpt lat="42.77753" lon="0.1059">
        <ele>2366</ele>
        <time>2022-03-27T12:02:43Z</time>
      </trkpt>
      <trkpt lat="42.77751" lon="0.10593">
        <ele>2367</ele>
        <time>2022-03-27T12:02:47Z</time>
      </trkpt>
      <trkpt lat="42.7775" lon="0.10594">
        <ele>2367</ele>
        <time>2022-03-27T12:02:52Z</time>
      </trkpt>
      <trkpt lat="42.77748" lon="0.10596">
        <ele>2369</ele>
        <time>2022-03-27T12:02:57Z</time>
      </trkpt>
      <trkpt lat="42.77748" lon="0.10599">
        <ele>2369</ele>
        <time>2022-03-27T12:03:01Z</time>
      </trkpt>
      <trkpt lat="42.77749" lon="0.10602">
        <ele>2369</ele>
        <time>2022-03-27T12:03:05Z</time>
      </trkpt>
      <trkpt lat="42.7775" lon="0.10604">
        <ele>2370</ele>
        <time>2022-03-27T12:03:09Z</time>
      </trkpt>
      <trkpt lat="42.77751" lon="0.10607">
        <ele>2371</ele>
        <time>2022-03-27T12:03:13Z</time>
      </trkpt>
      <trkpt lat="42.77753" lon="0.10609">
        <ele>2371</ele>
        <time>2022-03-27T12:03:18Z</time>
      </trkpt>
      <trkpt lat="42.77754" lon="0.10611">
        <ele>2372</ele>
        <time>2022-03-27T12:03:22Z</time>
      </trkpt>
      <trkpt lat="42.77755" lon="0.10613">
        <ele>2373</ele>
        <time>2022-03-27T12:03:26Z</time>
      </trkpt>
      <trkpt lat="42.77756" lon="0.10616">
        <ele>2374</ele>
        <time>2022-03-27T12:03:30Z</time>
      </trkpt>
      <trkpt lat="42.77755" lon="0.10618">
        <ele>2374</ele>
        <time>2022-03-27T12:03:33Z</time>
      </trkpt>
      <trkpt lat="42.77754" lon="0.10621">
        <ele>2374</ele>
        <time>2022-03-27T12:03:37Z</time>
      </trkpt>
      <trkpt lat="42.77753" lon="0.10623">
        <ele>2375</ele>
        <time>2022-03-27T12:03:41Z</time>
      </trkpt>
      <trkpt lat="42.77752" lon="0.10626">
        <ele>2375</ele>
        <time>2022-03-27T12:03:45Z</time>
      </trkpt>
      <trkpt lat="42.77751" lon="0.10628">
        <ele>2376</ele>
        <time>2022-03-27T12:03:49Z</time>
      </trkpt>
      <trkpt lat="42.77749" lon="0.1063">
        <ele>2378</ele>
        <time>2022-03-27T12:03:53Z</time>
      </trkpt>
      <trkpt lat="42.77748" lon="0.10632">
        <ele>2379</ele>
        <time>2022-03-27T12:03:57Z</time>
      </trkpt>
      <trkpt lat="42.77747" lon="0.10635">
        <ele>2379</ele>
        <time>2022-03-27T12:04:01Z</time>
      </trkpt>
      <trkpt lat="42.77746" lon="0.10637">
        <ele>2380</ele>
        <time>2022-03-27T12:04:06Z</time>
      </trkpt>
      <trkpt lat="42.77746" lon="0.1064">
        <ele>2381</ele>
        <time>2022-03-27T12:04:11Z</time>
      </trkpt>
      <trkpt lat="42.77748" lon="0.10642">
        <ele>2382</ele>
        <time>2022-03-27T12:04:15Z</time>
      </trkpt>
      <trkpt lat="42.77749" lon="0.10644">
        <ele>2382</ele>
        <time>2022-03-27T12:04:19Z</time>
      </trkpt>
      <trkpt lat="42.7775" lon="0.10646">
        <ele>2383</ele>
        <time>2022-03-27T12:04:23Z</time>
      </trkpt>
      <trkpt lat="42.77752" lon="0.10648">
        <ele>2383</ele>
        <time>2022-03-27T12:04:27Z</time>
      </trkpt>
      <trkpt lat="42.77753" lon="0.10651">
        <ele>2384</ele>
        <time>2022-03-27T12:04:31Z</time>
      </trkpt>
      <trkpt lat="42.77752" lon="0.10653">
        <ele>2385</ele>
        <time>2022-03-27T12:04:35Z</time>
      </trkpt>
      <trkpt lat="42.77751" lon="0.10656">
        <ele>2385</ele>
        <time>2022-03-27T12:04:39Z</time>
      </trkpt>
      <trkpt lat="42.7775" lon="0.10658">
        <ele>2386</ele>
        <time>2022-03-27T12:04:42Z</time>
      </trkpt>
      <trkpt lat="42.77749" lon="0.10661">
        <ele>2386</ele>
        <time>2022-03-27T12:04:46Z</time>
      </trkpt>
      <trkpt lat="42.77748" lon="0.10664">
        <ele>2386</ele>
        <time>2022-03-27T12:04:51Z</time>
      </trkpt>
      <trkpt lat="42.77748" lon="0.10666">
        <ele>2387</ele>
        <time>2022-03-27T12:04:55Z</time>
      </trkpt>
      <trkpt lat="42.77746" lon="0.10668">
        <ele>2388</ele>
        <time>2022-03-27T12:04:59Z</time>
      </trkpt>
      <trkpt lat="42.77745" lon="0.1067">
        <ele>2390</ele>
        <time>2022-03-27T12:05:03Z</time>
      </trkpt>
      <trkpt lat="42.77743" lon="0.10672">
        <ele>2390</ele>
        <time>2022-03-27T12:05:07Z</time>
      </trkpt>
      <trkpt lat="42.77743" lon="0.10675">
        <ele>2391</ele>
        <time>2022-03-27T12:05:14Z</time>
      </trkpt>
      <trkpt lat="42.77743" lon="0.10677">
        <ele>2391</ele>
        <time>2022-03-27T12:05:18Z</time>
      </trkpt>
      <trkpt lat="42.77745" lon="0.10679">
        <ele>2391</ele>
        <time>2022-03-27T12:05:21Z</time>
      </trkpt>
      <trkpt lat="42.77746" lon="0.10681">
        <ele>2392</ele>
        <time>2022-03-27T12:05:25Z</time>
      </trkpt>
      <trkpt lat="42.77747" lon="0.10684">
        <ele>2393</ele>
        <time>2022-03-27T12:05:29Z</time>
      </trkpt>
      <trkpt lat="42.77747" lon="0.10686">
        <ele>2394</ele>
        <time>2022-03-27T12:05:33Z</time>
      </trkpt>
      <trkpt lat="42.77747" lon="0.10689">
        <ele>2395</ele>
        <time>2022-03-27T12:05:37Z</time>
      </trkpt>
      <trkpt lat="42.77747" lon="0.10693">
        <ele>2395</ele>
        <time>2022-03-27T12:05:43Z</time>
      </trkpt>
      <trkpt lat="42.77744" lon="0.10694">
        <ele>2395</ele>
        <time>2022-03-27T12:05:49Z</time>
      </trkpt>
      <trkpt lat="42.77742" lon="0.10695">
        <ele>2396</ele>
        <time>2022-03-27T12:05:52Z</time>
      </trkpt>
      <trkpt lat="42.7774" lon="0.10696">
        <ele>2397</ele>
        <time>2022-03-27T12:05:56Z</time>
      </trkpt>
      <trkpt lat="42.77738" lon="0.10696">
        <ele>2397</ele>
        <time>2022-03-27T12:06:00Z</time>
      </trkpt>
      <trkpt lat="42.77736" lon="0.10696">
        <ele>2398</ele>
        <time>2022-03-27T12:06:04Z</time>
      </trkpt>
      <trkpt lat="42.77734" lon="0.10696">
        <ele>2398</ele>
        <time>2022-03-27T12:06:08Z</time>
      </trkpt>
      <trkpt lat="42.77733" lon="0.107">
        <ele>2399</ele>
        <time>2022-03-27T12:06:13Z</time>
      </trkpt>
      <trkpt lat="42.77734" lon="0.10703">
        <ele>2400</ele>
        <time>2022-03-27T12:06:17Z</time>
      </trkpt>
      <trkpt lat="42.77735" lon="0.10705">
        <ele>2400</ele>
        <time>2022-03-27T12:06:25Z</time>
      </trkpt>
      <trkpt lat="42.77736" lon="0.10708">
        <ele>2401</ele>
        <time>2022-03-27T12:06:29Z</time>
      </trkpt>
      <trkpt lat="42.77737" lon="0.1071">
        <ele>2401</ele>
        <time>2022-03-27T12:06:34Z</time>
      </trkpt>
      <trkpt lat="42.77738" lon="0.10713">
        <ele>2402</ele>
        <time>2022-03-27T12:06:39Z</time>
      </trkpt>
      <trkpt lat="42.77739" lon="0.10716">
        <ele>2404</ele>
        <time>2022-03-27T12:06:43Z</time>
      </trkpt>
      <trkpt lat="42.77739" lon="0.10718">
        <ele>2404</ele>
        <time>2022-03-27T12:06:47Z</time>
      </trkpt>
      <trkpt lat="42.77738" lon="0.1072">
        <ele>2406</ele>
        <time>2022-03-27T12:06:52Z</time>
      </trkpt>
      <trkpt lat="42.77736" lon="0.10722">
        <ele>2406</ele>
        <time>2022-03-27T12:06:55Z</time>
      </trkpt>
      <trkpt lat="42.77734" lon="0.10723">
        <ele>2406</ele>
        <time>2022-03-27T12:06:59Z</time>
      </trkpt>
      <trkpt lat="42.77732" lon="0.10723">
        <ele>2407</ele>
        <time>2022-03-27T12:07:03Z</time>
      </trkpt>
      <trkpt lat="42.7773" lon="0.10724">
        <ele>2407</ele>
        <time>2022-03-27T12:07:07Z</time>
      </trkpt>
      <trkpt lat="42.77728" lon="0.10724">
        <ele>2408</ele>
        <time>2022-03-27T12:07:11Z</time>
      </trkpt>
      <trkpt lat="42.77726" lon="0.10724">
        <ele>2409</ele>
        <time>2022-03-27T12:07:14Z</time>
      </trkpt>
      <trkpt lat="42.77726" lon="0.10727">
        <ele>2410</ele>
        <time>2022-03-27T12:07:26Z</time>
      </trkpt>
      <trkpt lat="42.77727" lon="0.10729">
        <ele>2410</ele>
        <time>2022-03-27T12:07:31Z</time>
      </trkpt>
      <trkpt lat="42.77729" lon="0.10731">
        <ele>2411</ele>
        <time>2022-03-27T12:07:34Z</time>
      </trkpt>
      <trkpt lat="42.7773" lon="0.10734">
        <ele>2411</ele>
        <time>2022-03-27T12:07:38Z</time>
      </trkpt>
      <trkpt lat="42.77732" lon="0.10735">
        <ele>2412</ele>
        <time>2022-03-27T12:07:41Z</time>
      </trkpt>
      <trkpt lat="42.77734" lon="0.10737">
        <ele>2412</ele>
        <time>2022-03-27T12:07:45Z</time>
      </trkpt>
      <trkpt lat="42.77735" lon="0.10739">
        <ele>2412</ele>
        <time>2022-03-27T12:07:48Z</time>
      </trkpt>
      <trkpt lat="42.77735" lon="0.10742">
        <ele>2413</ele>
        <time>2022-03-27T12:07:52Z</time>
      </trkpt>
      <trkpt lat="42.77734" lon="0.10745">
        <ele>2414</ele>
        <time>2022-03-27T12:07:56Z</time>
      </trkpt>
      <trkpt lat="42.77732" lon="0.10745">
        <ele>2415</ele>
        <time>2022-03-27T12:08:00Z</time>
      </trkpt>
      <trkpt lat="42.7773" lon="0.10746">
        <ele>2415</ele>
        <time>2022-03-27T12:08:04Z</time>
      </trkpt>
      <trkpt lat="42.77728" lon="0.10746">
        <ele>2416</ele>
        <time>2022-03-27T12:08:15Z</time>
      </trkpt>
      <trkpt lat="42.77726" lon="0.10746">
        <ele>2416</ele>
        <time>2022-03-27T12:08:19Z</time>
      </trkpt>
      <trkpt lat="42.77724" lon="0.10746">
        <ele>2417</ele>
        <time>2022-03-27T12:08:24Z</time>
      </trkpt>
      <trkpt lat="42.77722" lon="0.10746">
        <ele>2417</ele>
        <time>2022-03-27T12:08:28Z</time>
      </trkpt>
      <trkpt lat="42.7772" lon="0.10746">
        <ele>2418</ele>
        <time>2022-03-27T12:08:31Z</time>
      </trkpt>
      <trkpt lat="42.77718" lon="0.10746">
        <ele>2418</ele>
        <time>2022-03-27T12:08:34Z</time>
      </trkpt>
      <trkpt lat="42.77716" lon="0.10747">
        <ele>2419</ele>
        <time>2022-03-27T12:08:38Z</time>
      </trkpt>
      <trkpt lat="42.77714" lon="0.10747">
        <ele>2419</ele>
        <time>2022-03-27T12:08:42Z</time>
      </trkpt>
      <trkpt lat="42.77713" lon="0.10749">
        <ele>2420</ele>
        <time>2022-03-27T12:08:49Z</time>
      </trkpt>
      <trkpt lat="42.77714" lon="0.10753">
        <ele>2421</ele>
        <time>2022-03-27T12:08:53Z</time>
      </trkpt>
      <trkpt lat="42.77714" lon="0.10755">
        <ele>2421</ele>
        <time>2022-03-27T12:08:57Z</time>
      </trkpt>
      <trkpt lat="42.77715" lon="0.10758">
        <ele>2422</ele>
        <time>2022-03-27T12:09:01Z</time>
      </trkpt>
      <trkpt lat="42.77716" lon="0.10761">
        <ele>2423</ele>
        <time>2022-03-27T12:09:05Z</time>
      </trkpt>
      <trkpt lat="42.77717" lon="0.10763">
        <ele>2424</ele>
        <time>2022-03-27T12:09:09Z</time>
      </trkpt>
      <trkpt lat="42.77718" lon="0.10766">
        <ele>2424</ele>
        <time>2022-03-27T12:09:14Z</time>
      </trkpt>
      <trkpt lat="42.77719" lon="0.10768">
        <ele>2424</ele>
        <time>2022-03-27T12:09:18Z</time>
      </trkpt>
      <trkpt lat="42.7772" lon="0.10771">
        <ele>2425</ele>
        <time>2022-03-27T12:09:22Z</time>
      </trkpt>
      <trkpt lat="42.77721" lon="0.10774">
        <ele>2425</ele>
        <time>2022-03-27T12:09:26Z</time>
      </trkpt>
      <trkpt lat="42.77721" lon="0.10777">
        <ele>2426</ele>
        <time>2022-03-27T12:09:30Z</time>
      </trkpt>
      <trkpt lat="42.77723" lon="0.10779">
        <ele>2426</ele>
        <time>2022-03-27T12:09:33Z</time>
      </trkpt>
      <trkpt lat="42.77724" lon="0.10782">
        <ele>2426</ele>
        <time>2022-03-27T12:09:36Z</time>
      </trkpt>
      <trkpt lat="42.77725" lon="0.10784">
        <ele>2427</ele>
        <time>2022-03-27T12:09:39Z</time>
      </trkpt>
      <trkpt lat="42.77727" lon="0.10787">
        <ele>2428</ele>
        <time>2022-03-27T12:09:43Z</time>
      </trkpt>
      <trkpt lat="42.77728" lon="0.10789">
        <ele>2430</ele>
        <time>2022-03-27T12:09:47Z</time>
      </trkpt>
      <trkpt lat="42.77729" lon="0.10791">
        <ele>2430</ele>
        <time>2022-03-27T12:09:52Z</time>
      </trkpt>
      <trkpt lat="42.7773" lon="0.10793">
        <ele>2430</ele>
        <time>2022-03-27T12:10:02Z</time>
      </trkpt>
      <trkpt lat="42.77732" lon="0.10795">
        <ele>2431</ele>
        <time>2022-03-27T12:10:06Z</time>
      </trkpt>
      <trkpt lat="42.77734" lon="0.10796">
        <ele>2432</ele>
        <time>2022-03-27T12:10:10Z</time>
      </trkpt>
      <trkpt lat="42.77735" lon="0.10798">
        <ele>2433</ele>
        <time>2022-03-27T12:10:13Z</time>
      </trkpt>
      <trkpt lat="42.77737" lon="0.10799">
        <ele>2433</ele>
        <time>2022-03-27T12:10:17Z</time>
      </trkpt>
      <trkpt lat="42.77739" lon="0.108">
        <ele>2434</ele>
        <time>2022-03-27T12:10:21Z</time>
      </trkpt>
      <trkpt lat="42.77741" lon="0.10802">
        <ele>2435</ele>
        <time>2022-03-27T12:10:25Z</time>
      </trkpt>
      <trkpt lat="42.77743" lon="0.10803">
        <ele>2436</ele>
        <time>2022-03-27T12:10:29Z</time>
      </trkpt>
      <trkpt lat="42.77745" lon="0.10804">
        <ele>2436</ele>
        <time>2022-03-27T12:10:33Z</time>
      </trkpt>
      <trkpt lat="42.77746" lon="0.10806">
        <ele>2437</ele>
        <time>2022-03-27T12:10:37Z</time>
      </trkpt>
      <trkpt lat="42.77748" lon="0.10807">
        <ele>2437</ele>
        <time>2022-03-27T12:10:46Z</time>
      </trkpt>
      <trkpt lat="42.7775" lon="0.10808">
        <ele>2437</ele>
        <time>2022-03-27T12:10:49Z</time>
      </trkpt>
      <trkpt lat="42.77752" lon="0.10809">
        <ele>2439</ele>
        <time>2022-03-27T12:10:52Z</time>
      </trkpt>
      <trkpt lat="42.77754" lon="0.1081">
        <ele>2438</ele>
        <time>2022-03-27T12:10:55Z</time>
      </trkpt>
      <trkpt lat="42.77756" lon="0.10812">
        <ele>2439</ele>
        <time>2022-03-27T12:10:58Z</time>
      </trkpt>
      <trkpt lat="42.77757" lon="0.10813">
        <ele>2439</ele>
        <time>2022-03-27T12:11:01Z</time>
      </trkpt>
      <trkpt lat="42.77758" lon="0.10816">
        <ele>2439</ele>
        <time>2022-03-27T12:11:05Z</time>
      </trkpt>
      <trkpt lat="42.7776" lon="0.10818">
        <ele>2440</ele>
        <time>2022-03-27T12:11:08Z</time>
      </trkpt>
      <trkpt lat="42.77761" lon="0.1082">
        <ele>2441</ele>
        <time>2022-03-27T12:11:11Z</time>
      </trkpt>
      <trkpt lat="42.77762" lon="0.10822">
        <ele>2442</ele>
        <time>2022-03-27T12:11:14Z</time>
      </trkpt>
      <trkpt lat="42.77763" lon="0.10824">
        <ele>2442</ele>
        <time>2022-03-27T12:11:17Z</time>
      </trkpt>
      <trkpt lat="42.77764" lon="0.10827">
        <ele>2442</ele>
        <time>2022-03-27T12:11:21Z</time>
      </trkpt>
      <trkpt lat="42.77765" lon="0.10829">
        <ele>2443</ele>
        <time>2022-03-27T12:11:25Z</time>
      </trkpt>
      <trkpt lat="42.77766" lon="0.10832">
        <ele>2443</ele>
        <time>2022-03-27T12:11:29Z</time>
      </trkpt>
      <trkpt lat="42.77767" lon="0.10835">
        <ele>2444</ele>
        <time>2022-03-27T12:11:33Z</time>
      </trkpt>
      <trkpt lat="42.77767" lon="0.10838">
        <ele>2445</ele>
        <time>2022-03-27T12:11:37Z</time>
      </trkpt>
      <trkpt lat="42.77768" lon="0.10841">
        <ele>2446</ele>
        <time>2022-03-27T12:11:41Z</time>
      </trkpt>
      <trkpt lat="42.77769" lon="0.10843">
        <ele>2447</ele>
        <time>2022-03-27T12:11:44Z</time>
      </trkpt>
      <trkpt lat="42.7777" lon="0.10845">
        <ele>2447</ele>
        <time>2022-03-27T12:11:48Z</time>
      </trkpt>
      <trkpt lat="42.77771" lon="0.10848">
        <ele>2448</ele>
        <time>2022-03-27T12:11:52Z</time>
      </trkpt>
      <trkpt lat="42.77773" lon="0.1085">
        <ele>2448</ele>
        <time>2022-03-27T12:11:56Z</time>
      </trkpt>
      <trkpt lat="42.77773" lon="0.10853">
        <ele>2448</ele>
        <time>2022-03-27T12:12:00Z</time>
      </trkpt>
      <trkpt lat="42.77773" lon="0.10856">
        <ele>2450</ele>
        <time>2022-03-27T12:12:04Z</time>
      </trkpt>
      <trkpt lat="42.77773" lon="0.10858">
        <ele>2451</ele>
        <time>2022-03-27T12:12:07Z</time>
      </trkpt>
      <trkpt lat="42.77772" lon="0.10861">
        <ele>2451</ele>
        <time>2022-03-27T12:12:13Z</time>
      </trkpt>
      <trkpt lat="42.7777" lon="0.10863">
        <ele>2452</ele>
        <time>2022-03-27T12:12:16Z</time>
      </trkpt>
      <trkpt lat="42.77769" lon="0.10865">
        <ele>2452</ele>
        <time>2022-03-27T12:12:21Z</time>
      </trkpt>
      <trkpt lat="42.77767" lon="0.10867">
        <ele>2452</ele>
        <time>2022-03-27T12:12:26Z</time>
      </trkpt>
      <trkpt lat="42.77765" lon="0.10869">
        <ele>2454</ele>
        <time>2022-03-27T12:12:31Z</time>
      </trkpt>
      <trkpt lat="42.77763" lon="0.10873">
        <ele>2456</ele>
        <time>2022-03-27T12:12:39Z</time>
      </trkpt>
      <trkpt lat="42.77762" lon="0.10874">
        <ele>2457</ele>
        <time>2022-03-27T12:12:44Z</time>
      </trkpt>
      <trkpt lat="42.7776" lon="0.10876">
        <ele>2458</ele>
        <time>2022-03-27T12:12:49Z</time>
      </trkpt>
      <trkpt lat="42.77758" lon="0.10877">
        <ele>2458</ele>
        <time>2022-03-27T12:12:53Z</time>
      </trkpt>
      <trkpt lat="42.77756" lon="0.10878">
        <ele>2458</ele>
        <time>2022-03-27T12:12:56Z</time>
      </trkpt>
      <trkpt lat="42.77754" lon="0.10878">
        <ele>2459</ele>
        <time>2022-03-27T12:12:59Z</time>
      </trkpt>
      <trkpt lat="42.77752" lon="0.10879">
        <ele>2459</ele>
        <time>2022-03-27T12:13:03Z</time>
      </trkpt>
      <trkpt lat="42.77749" lon="0.1088">
        <ele>2460</ele>
        <time>2022-03-27T12:13:08Z</time>
      </trkpt>
      <trkpt lat="42.77747" lon="0.10881">
        <ele>2460</ele>
        <time>2022-03-27T12:13:12Z</time>
      </trkpt>
      <trkpt lat="42.77745" lon="0.10881">
        <ele>2462</ele>
        <time>2022-03-27T12:13:30Z</time>
      </trkpt>
      <trkpt lat="42.77739" lon="0.10884">
        <ele>2462</ele>
        <time>2022-03-27T12:13:58Z</time>
      </trkpt>
      <trkpt lat="42.77737" lon="0.10886">
        <ele>2463</ele>
        <time>2022-03-27T12:14:02Z</time>
      </trkpt>
      <trkpt lat="42.77735" lon="0.10887">
        <ele>2463</ele>
        <time>2022-03-27T12:14:05Z</time>
      </trkpt>
      <trkpt lat="42.77733" lon="0.10889">
        <ele>2464</ele>
        <time>2022-03-27T12:14:09Z</time>
      </trkpt>
      <trkpt lat="42.77732" lon="0.10892">
        <ele>2465</ele>
        <time>2022-03-27T12:14:14Z</time>
      </trkpt>
      <trkpt lat="42.77734" lon="0.10893">
        <ele>2466</ele>
        <time>2022-03-27T12:14:17Z</time>
      </trkpt>
      <trkpt lat="42.77735" lon="0.10896">
        <ele>2467</ele>
        <time>2022-03-27T12:14:20Z</time>
      </trkpt>
      <trkpt lat="42.77737" lon="0.10898">
        <ele>2467</ele>
        <time>2022-03-27T12:14:26Z</time>
      </trkpt>
      <trkpt lat="42.77738" lon="0.109">
        <ele>2467</ele>
        <time>2022-03-27T12:14:29Z</time>
      </trkpt>
      <trkpt lat="42.77739" lon="0.10902">
        <ele>2468</ele>
        <time>2022-03-27T12:14:32Z</time>
      </trkpt>
      <trkpt lat="42.7774" lon="0.10904">
        <ele>2468</ele>
        <time>2022-03-27T12:14:35Z</time>
      </trkpt>
      <trkpt lat="42.77741" lon="0.10906">
        <ele>2468</ele>
        <time>2022-03-27T12:14:38Z</time>
      </trkpt>
      <trkpt lat="42.77743" lon="0.10908">
        <ele>2468</ele>
        <time>2022-03-27T12:14:41Z</time>
      </trkpt>
      <trkpt lat="42.77744" lon="0.10911">
        <ele>2469</ele>
        <time>2022-03-27T12:14:45Z</time>
      </trkpt>
      <trkpt lat="42.77745" lon="0.10912">
        <ele>2470</ele>
        <time>2022-03-27T12:14:50Z</time>
      </trkpt>
      <trkpt lat="42.77747" lon="0.10915">
        <ele>2470</ele>
        <time>2022-03-27T12:14:54Z</time>
      </trkpt>
      <trkpt lat="42.77746" lon="0.10918">
        <ele>2471</ele>
        <time>2022-03-27T12:14:57Z</time>
      </trkpt>
      <trkpt lat="42.77745" lon="0.10919">
        <ele>2472</ele>
        <time>2022-03-27T12:15:01Z</time>
      </trkpt>
      <trkpt lat="42.77743" lon="0.10921">
        <ele>2474</ele>
        <time>2022-03-27T12:15:07Z</time>
      </trkpt>
      <trkpt lat="42.77741" lon="0.10922">
        <ele>2474</ele>
        <time>2022-03-27T12:15:27Z</time>
      </trkpt>
      <trkpt lat="42.77739" lon="0.10923">
        <ele>2475</ele>
        <time>2022-03-27T12:15:30Z</time>
      </trkpt>
      <trkpt lat="42.77737" lon="0.10923">
        <ele>2475</ele>
        <time>2022-03-27T12:15:33Z</time>
      </trkpt>
      <trkpt lat="42.77734" lon="0.10923">
        <ele>2476</ele>
        <time>2022-03-27T12:15:36Z</time>
      </trkpt>
      <trkpt lat="42.77732" lon="0.10923">
        <ele>2476</ele>
        <time>2022-03-27T12:15:39Z</time>
      </trkpt>
      <trkpt lat="42.7773" lon="0.10923">
        <ele>2477</ele>
        <time>2022-03-27T12:15:43Z</time>
      </trkpt>
      <trkpt lat="42.77728" lon="0.10924">
        <ele>2477</ele>
        <time>2022-03-27T12:15:46Z</time>
      </trkpt>
      <trkpt lat="42.77729" lon="0.10928">
        <ele>2479</ele>
        <time>2022-03-27T12:15:53Z</time>
      </trkpt>
      <trkpt lat="42.7773" lon="0.1093">
        <ele>2480</ele>
        <time>2022-03-27T12:15:58Z</time>
      </trkpt>
      <trkpt lat="42.77732" lon="0.10932">
        <ele>2481</ele>
        <time>2022-03-27T12:16:02Z</time>
      </trkpt>
      <trkpt lat="42.77733" lon="0.10935">
        <ele>2481</ele>
        <time>2022-03-27T12:16:06Z</time>
      </trkpt>
      <trkpt lat="42.77734" lon="0.10937">
        <ele>2482</ele>
        <time>2022-03-27T12:16:10Z</time>
      </trkpt>
      <trkpt lat="42.77735" lon="0.10939">
        <ele>2483</ele>
        <time>2022-03-27T12:16:14Z</time>
      </trkpt>
      <trkpt lat="42.77736" lon="0.10941">
        <ele>2483</ele>
        <time>2022-03-27T12:16:18Z</time>
      </trkpt>
      <trkpt lat="42.77735" lon="0.10943">
        <ele>2484</ele>
        <time>2022-03-27T12:16:22Z</time>
      </trkpt>
      <trkpt lat="42.77733" lon="0.10944">
        <ele>2487</ele>
        <time>2022-03-27T12:16:28Z</time>
      </trkpt>
      <trkpt lat="42.7773" lon="0.10944">
        <ele>2487</ele>
        <time>2022-03-27T12:16:34Z</time>
      </trkpt>
      <trkpt lat="42.77728" lon="0.10945">
        <ele>2488</ele>
        <time>2022-03-27T12:16:37Z</time>
      </trkpt>
      <trkpt lat="42.77726" lon="0.10945">
        <ele>2488</ele>
        <time>2022-03-27T12:16:40Z</time>
      </trkpt>
      <trkpt lat="42.77724" lon="0.10945">
        <ele>2489</ele>
        <time>2022-03-27T12:16:44Z</time>
      </trkpt>
      <trkpt lat="42.77722" lon="0.10945">
        <ele>2489</ele>
        <time>2022-03-27T12:16:48Z</time>
      </trkpt>
      <trkpt lat="42.77718" lon="0.10944">
        <ele>2491</ele>
        <time>2022-03-27T12:16:55Z</time>
      </trkpt>
      <trkpt lat="42.77716" lon="0.10944">
        <ele>2491</ele>
        <time>2022-03-27T12:16:59Z</time>
      </trkpt>
      <trkpt lat="42.77714" lon="0.10943">
        <ele>2491</ele>
        <time>2022-03-27T12:17:02Z</time>
      </trkpt>
      <trkpt lat="42.77709" lon="0.10944">
        <ele>2492</ele>
        <time>2022-03-27T12:17:08Z</time>
      </trkpt>
      <trkpt lat="42.77707" lon="0.10943">
        <ele>2492</ele>
        <time>2022-03-27T12:17:11Z</time>
      </trkpt>
      <trkpt lat="42.77705" lon="0.10942">
        <ele>2493</ele>
        <time>2022-03-27T12:17:15Z</time>
      </trkpt>
      <trkpt lat="42.77703" lon="0.10942">
        <ele>2494</ele>
        <time>2022-03-27T12:17:19Z</time>
      </trkpt>
      <trkpt lat="42.77701" lon="0.10942">
        <ele>2494</ele>
        <time>2022-03-27T12:17:23Z</time>
      </trkpt>
      <trkpt lat="42.77698" lon="0.10942">
        <ele>2494</ele>
        <time>2022-03-27T12:17:27Z</time>
      </trkpt>
      <trkpt lat="42.77696" lon="0.10943">
        <ele>2495</ele>
        <time>2022-03-27T12:17:30Z</time>
      </trkpt>
      <trkpt lat="42.77694" lon="0.10944">
        <ele>2496</ele>
        <time>2022-03-27T12:17:35Z</time>
      </trkpt>
      <trkpt lat="42.77692" lon="0.10945">
        <ele>2496</ele>
        <time>2022-03-27T12:17:40Z</time>
      </trkpt>
      <trkpt lat="42.7769" lon="0.10945">
        <ele>2498</ele>
        <time>2022-03-27T12:17:43Z</time>
      </trkpt>
      <trkpt lat="42.77688" lon="0.10946">
        <ele>2499</ele>
        <time>2022-03-27T12:17:48Z</time>
      </trkpt>
      <trkpt lat="42.77686" lon="0.10948">
        <ele>2500</ele>
        <time>2022-03-27T12:17:52Z</time>
      </trkpt>
      <trkpt lat="42.77688" lon="0.1095">
        <ele>2501</ele>
        <time>2022-03-27T12:17:59Z</time>
      </trkpt>
      <trkpt lat="42.77689" lon="0.10952">
        <ele>2501</ele>
        <time>2022-03-27T12:18:16Z</time>
      </trkpt>
      <trkpt lat="42.77691" lon="0.10955">
        <ele>2501</ele>
        <time>2022-03-27T12:18:20Z</time>
      </trkpt>
      <trkpt lat="42.77692" lon="0.10956">
        <ele>2502</ele>
        <time>2022-03-27T12:18:24Z</time>
      </trkpt>
      <trkpt lat="42.77694" lon="0.10958">
        <ele>2502</ele>
        <time>2022-03-27T12:18:28Z</time>
      </trkpt>
      <trkpt lat="42.77696" lon="0.1096">
        <ele>2502</ele>
        <time>2022-03-27T12:18:32Z</time>
      </trkpt>
      <trkpt lat="42.77698" lon="0.1096">
        <ele>2503</ele>
        <time>2022-03-27T12:21:54Z</time>
      </trkpt>
      <trkpt lat="42.777" lon="0.10962">
        <ele>2504</ele>
        <time>2022-03-27T12:22:13Z</time>
      </trkpt>
      <trkpt lat="42.77701" lon="0.10965">
        <ele>2505</ele>
        <time>2022-03-27T12:22:16Z</time>
      </trkpt>
      <trkpt lat="42.77702" lon="0.10967">
        <ele>2505</ele>
        <time>2022-03-27T12:22:18Z</time>
      </trkpt>
      <trkpt lat="42.777" lon="0.10968">
        <ele>2506</ele>
        <time>2022-03-27T12:22:22Z</time>
      </trkpt>
      <trkpt lat="42.77697" lon="0.10969">
        <ele>2506</ele>
        <time>2022-03-27T12:22:29Z</time>
      </trkpt>
      <trkpt lat="42.77695" lon="0.1097">
        <ele>2507</ele>
        <time>2022-03-27T12:22:32Z</time>
      </trkpt>
      <trkpt lat="42.77693" lon="0.10971">
        <ele>2508</ele>
        <time>2022-03-27T12:22:35Z</time>
      </trkpt>
      <trkpt lat="42.77691" lon="0.10972">
        <ele>2508</ele>
        <time>2022-03-27T12:22:38Z</time>
      </trkpt>
      <trkpt lat="42.77689" lon="0.10974">
        <ele>2508</ele>
        <time>2022-03-27T12:22:41Z</time>
      </trkpt>
      <trkpt lat="42.77687" lon="0.10974">
        <ele>2510</ele>
        <time>2022-03-27T12:22:49Z</time>
      </trkpt>
      <trkpt lat="42.77684" lon="0.10975">
        <ele>2510</ele>
        <time>2022-03-27T12:23:02Z</time>
      </trkpt>
      <trkpt lat="42.77682" lon="0.10976">
        <ele>2511</ele>
        <time>2022-03-27T12:23:05Z</time>
      </trkpt>
      <trkpt lat="42.7768" lon="0.10976">
        <ele>2511</ele>
        <time>2022-03-27T12:23:08Z</time>
      </trkpt>
      <trkpt lat="42.77678" lon="0.10976">
        <ele>2512</ele>
        <time>2022-03-27T12:23:28Z</time>
      </trkpt>
      <trkpt lat="42.77676" lon="0.10976">
        <ele>2513</ele>
        <time>2022-03-27T12:23:31Z</time>
      </trkpt>
      <trkpt lat="42.77674" lon="0.10977">
        <ele>2513</ele>
        <time>2022-03-27T12:23:33Z</time>
      </trkpt>
      <trkpt lat="42.77672" lon="0.10977">
        <ele>2514</ele>
        <time>2022-03-27T12:23:37Z</time>
      </trkpt>
      <trkpt lat="42.77668" lon="0.10977">
        <ele>2515</ele>
        <time>2022-03-27T12:23:42Z</time>
      </trkpt>
      <trkpt lat="42.77667" lon="0.10978">
        <ele>2516</ele>
        <time>2022-03-27T12:23:46Z</time>
      </trkpt>
      <trkpt lat="42.77666" lon="0.1098">
        <ele>2517</ele>
        <time>2022-03-27T12:23:50Z</time>
      </trkpt>
      <trkpt lat="42.77667" lon="0.10983">
        <ele>2518</ele>
        <time>2022-03-27T12:23:54Z</time>
      </trkpt>
      <trkpt lat="42.77668" lon="0.10985">
        <ele>2518</ele>
        <time>2022-03-27T12:23:57Z</time>
      </trkpt>
      <trkpt lat="42.77669" lon="0.10987">
        <ele>2519</ele>
        <time>2022-03-27T12:24:00Z</time>
      </trkpt>
      <trkpt lat="42.7767" lon="0.1099">
        <ele>2520</ele>
        <time>2022-03-27T12:24:03Z</time>
      </trkpt>
      <trkpt lat="42.7767" lon="0.10993">
        <ele>2520</ele>
        <time>2022-03-27T12:24:08Z</time>
      </trkpt>
      <trkpt lat="42.77672" lon="0.10994">
        <ele>2522</ele>
        <time>2022-03-27T12:24:13Z</time>
      </trkpt>
      <trkpt lat="42.77673" lon="0.10997">
        <ele>2522</ele>
        <time>2022-03-27T12:24:17Z</time>
      </trkpt>
      <trkpt lat="42.77675" lon="0.10999">
        <ele>2523</ele>
        <time>2022-03-27T12:24:20Z</time>
      </trkpt>
      <trkpt lat="42.77677" lon="0.11001">
        <ele>2523</ele>
        <time>2022-03-27T12:24:23Z</time>
      </trkpt>
      <trkpt lat="42.77678" lon="0.11004">
        <ele>2524</ele>
        <time>2022-03-27T12:24:27Z</time>
      </trkpt>
      <trkpt lat="42.77678" lon="0.11007">
        <ele>2526</ele>
        <time>2022-03-27T12:24:31Z</time>
      </trkpt>
      <trkpt lat="42.77676" lon="0.11008">
        <ele>2526</ele>
        <time>2022-03-27T12:24:35Z</time>
      </trkpt>
      <trkpt lat="42.77673" lon="0.11007">
        <ele>2527</ele>
        <time>2022-03-27T12:24:46Z</time>
      </trkpt>
      <trkpt lat="42.77671" lon="0.11007">
        <ele>2527</ele>
        <time>2022-03-27T12:24:50Z</time>
      </trkpt>
      <trkpt lat="42.77669" lon="0.11007">
        <ele>2528</ele>
        <time>2022-03-27T12:24:53Z</time>
      </trkpt>
      <trkpt lat="42.77667" lon="0.11006">
        <ele>2528</ele>
        <time>2022-03-27T12:24:56Z</time>
      </trkpt>
      <trkpt lat="42.77664" lon="0.11006">
        <ele>2529</ele>
        <time>2022-03-27T12:25:00Z</time>
      </trkpt>
      <trkpt lat="42.77663" lon="0.11006">
        <ele>2529</ele>
        <time>2022-03-27T12:25:03Z</time>
      </trkpt>
      <trkpt lat="42.7766" lon="0.11005">
        <ele>2529</ele>
        <time>2022-03-27T12:25:07Z</time>
      </trkpt>
      <trkpt lat="42.77658" lon="0.11004">
        <ele>2530</ele>
        <time>2022-03-27T12:25:12Z</time>
      </trkpt>
      <trkpt lat="42.77656" lon="0.11003">
        <ele>2530</ele>
        <time>2022-03-27T12:25:16Z</time>
      </trkpt>
      <trkpt lat="42.77654" lon="0.11002">
        <ele>2531</ele>
        <time>2022-03-27T12:25:20Z</time>
      </trkpt>
      <trkpt lat="42.77652" lon="0.11001">
        <ele>2532</ele>
        <time>2022-03-27T12:25:24Z</time>
      </trkpt>
      <trkpt lat="42.7765" lon="0.11003">
        <ele>2532</ele>
        <time>2022-03-27T12:25:29Z</time>
      </trkpt>
      <trkpt lat="42.7765" lon="0.11005">
        <ele>2533</ele>
        <time>2022-03-27T12:25:33Z</time>
      </trkpt>
      <trkpt lat="42.77651" lon="0.11008">
        <ele>2535</ele>
        <time>2022-03-27T12:25:38Z</time>
      </trkpt>
      <trkpt lat="42.77651" lon="0.11011">
        <ele>2535</ele>
        <time>2022-03-27T12:25:42Z</time>
      </trkpt>
      <trkpt lat="42.77652" lon="0.11013">
        <ele>2536</ele>
        <time>2022-03-27T12:25:46Z</time>
      </trkpt>
      <trkpt lat="42.77653" lon="0.11015">
        <ele>2537</ele>
        <time>2022-03-27T12:25:50Z</time>
      </trkpt>
      <trkpt lat="42.77654" lon="0.11018">
        <ele>2537</ele>
        <time>2022-03-27T12:25:54Z</time>
      </trkpt>
      <trkpt lat="42.77654" lon="0.11021">
        <ele>2537</ele>
        <time>2022-03-27T12:25:59Z</time>
      </trkpt>
      <trkpt lat="42.77654" lon="0.11024">
        <ele>2538</ele>
        <time>2022-03-27T12:26:04Z</time>
      </trkpt>
      <trkpt lat="42.77655" lon="0.11026">
        <ele>2539</ele>
        <time>2022-03-27T12:26:08Z</time>
      </trkpt>
      <trkpt lat="42.77656" lon="0.11029">
        <ele>2539</ele>
        <time>2022-03-27T12:26:13Z</time>
      </trkpt>
      <trkpt lat="42.77658" lon="0.11031">
        <ele>2539</ele>
        <time>2022-03-27T12:26:17Z</time>
      </trkpt>
      <trkpt lat="42.77657" lon="0.11033">
        <ele>2540</ele>
        <time>2022-03-27T12:26:21Z</time>
      </trkpt>
      <trkpt lat="42.77655" lon="0.11033">
        <ele>2542</ele>
        <time>2022-03-27T12:26:24Z</time>
      </trkpt>
      <trkpt lat="42.77653" lon="0.11033">
        <ele>2542</ele>
        <time>2022-03-27T12:26:27Z</time>
      </trkpt>
      <trkpt lat="42.77651" lon="0.11032">
        <ele>2542</ele>
        <time>2022-03-27T12:26:31Z</time>
      </trkpt>
      <trkpt lat="42.77648" lon="0.11031">
        <ele>2543</ele>
        <time>2022-03-27T12:26:35Z</time>
      </trkpt>
      <trkpt lat="42.77645" lon="0.11029">
        <ele>2544</ele>
        <time>2022-03-27T12:26:52Z</time>
      </trkpt>
      <trkpt lat="42.77642" lon="0.11028">
        <ele>2544</ele>
        <time>2022-03-27T12:26:55Z</time>
      </trkpt>
      <trkpt lat="42.77636" lon="0.11026">
        <ele>2547</ele>
        <time>2022-03-27T12:27:06Z</time>
      </trkpt>
      <trkpt lat="42.77629" lon="0.11023">
        <ele>2548</ele>
        <time>2022-03-27T12:27:16Z</time>
      </trkpt>
      <trkpt lat="42.77627" lon="0.11023">
        <ele>2548</ele>
        <time>2022-03-27T12:27:19Z</time>
      </trkpt>
      <trkpt lat="42.77625" lon="0.11023">
        <ele>2549</ele>
        <time>2022-03-27T12:27:23Z</time>
      </trkpt>
      <trkpt lat="42.77623" lon="0.11023">
        <ele>2549</ele>
        <time>2022-03-27T12:27:28Z</time>
      </trkpt>
      <trkpt lat="42.77624" lon="0.11025">
        <ele>2551</ele>
        <time>2022-03-27T12:27:54Z</time>
      </trkpt>
      <trkpt lat="42.77625" lon="0.11028">
        <ele>2551</ele>
        <time>2022-03-27T12:28:01Z</time>
      </trkpt>
      <trkpt lat="42.77626" lon="0.1103">
        <ele>2552</ele>
        <time>2022-03-27T12:29:21Z</time>
      </trkpt>
      <trkpt lat="42.77626" lon="0.11033">
        <ele>2552</ele>
        <time>2022-03-27T12:29:31Z</time>
      </trkpt>
      <trkpt lat="42.77627" lon="0.11035">
        <ele>2552</ele>
        <time>2022-03-27T12:29:37Z</time>
      </trkpt>
      <trkpt lat="42.77627" lon="0.11038">
        <ele>2553</ele>
        <time>2022-03-27T12:29:41Z</time>
      </trkpt>
      <trkpt lat="42.77627" lon="0.11041">
        <ele>2554</ele>
        <time>2022-03-27T12:29:44Z</time>
      </trkpt>
      <trkpt lat="42.77625" lon="0.11042">
        <ele>2555</ele>
        <time>2022-03-27T12:29:49Z</time>
      </trkpt>
      <trkpt lat="42.77623" lon="0.11041">
        <ele>2555</ele>
        <time>2022-03-27T12:29:56Z</time>
      </trkpt>
      <trkpt lat="42.77621" lon="0.1104">
        <ele>2555</ele>
        <time>2022-03-27T12:29:59Z</time>
      </trkpt>
      <trkpt lat="42.77619" lon="0.1104">
        <ele>2556</ele>
        <time>2022-03-27T12:30:01Z</time>
      </trkpt>
      <trkpt lat="42.77617" lon="0.11039">
        <ele>2556</ele>
        <time>2022-03-27T12:30:07Z</time>
      </trkpt>
      <trkpt lat="42.77615" lon="0.11038">
        <ele>2557</ele>
        <time>2022-03-27T12:30:11Z</time>
      </trkpt>
      <trkpt lat="42.77613" lon="0.11039">
        <ele>2559</ele>
        <time>2022-03-27T12:30:15Z</time>
      </trkpt>
      <trkpt lat="42.77613" lon="0.11042">
        <ele>2560</ele>
        <time>2022-03-27T12:30:24Z</time>
      </trkpt>
      <trkpt lat="42.77613" lon="0.11045">
        <ele>2560</ele>
        <time>2022-03-27T12:30:27Z</time>
      </trkpt>
      <trkpt lat="42.77615" lon="0.11049">
        <ele>2561</ele>
        <time>2022-03-27T12:30:32Z</time>
      </trkpt>
      <trkpt lat="42.77614" lon="0.11052">
        <ele>2561</ele>
        <time>2022-03-27T12:30:35Z</time>
      </trkpt>
      <trkpt lat="42.77614" lon="0.11056">
        <ele>2562</ele>
        <time>2022-03-27T12:30:39Z</time>
      </trkpt>
      <trkpt lat="42.77613" lon="0.11057">
        <ele>2563</ele>
        <time>2022-03-27T12:30:44Z</time>
      </trkpt>
      <trkpt lat="42.77611" lon="0.11056">
        <ele>2564</ele>
        <time>2022-03-27T12:30:48Z</time>
      </trkpt>
      <trkpt lat="42.77609" lon="0.11055">
        <ele>2565</ele>
        <time>2022-03-27T12:30:58Z</time>
      </trkpt>
      <trkpt lat="42.77607" lon="0.11054">
        <ele>2565</ele>
        <time>2022-03-27T12:31:01Z</time>
      </trkpt>
      <trkpt lat="42.77605" lon="0.11053">
        <ele>2565</ele>
        <time>2022-03-27T12:31:06Z</time>
      </trkpt>
      <trkpt lat="42.77603" lon="0.11051">
        <ele>2566</ele>
        <time>2022-03-27T12:31:10Z</time>
      </trkpt>
      <trkpt lat="42.77601" lon="0.11052">
        <ele>2567</ele>
        <time>2022-03-27T12:31:23Z</time>
      </trkpt>
      <trkpt lat="42.77602" lon="0.11055">
        <ele>2568</ele>
        <time>2022-03-27T12:31:27Z</time>
      </trkpt>
      <trkpt lat="42.77602" lon="0.11058">
        <ele>2569</ele>
        <time>2022-03-27T12:31:33Z</time>
      </trkpt>
      <trkpt lat="42.77602" lon="0.1106">
        <ele>2569</ele>
        <time>2022-03-27T12:31:36Z</time>
      </trkpt>
      <trkpt lat="42.77601" lon="0.11063">
        <ele>2569</ele>
        <time>2022-03-27T12:31:39Z</time>
      </trkpt>
      <trkpt lat="42.77602" lon="0.11066">
        <ele>2569</ele>
        <time>2022-03-27T12:31:42Z</time>
      </trkpt>
      <trkpt lat="42.77602" lon="0.11069">
        <ele>2571</ele>
        <time>2022-03-27T12:31:45Z</time>
      </trkpt>
      <trkpt lat="42.77603" lon="0.11072">
        <ele>2571</ele>
        <time>2022-03-27T12:31:50Z</time>
      </trkpt>
      <trkpt lat="42.77601" lon="0.11074">
        <ele>2573</ele>
        <time>2022-03-27T12:31:57Z</time>
      </trkpt>
      <trkpt lat="42.77592" lon="0.11073">
        <ele>2573</ele>
        <time>2022-03-27T12:32:48Z</time>
      </trkpt>
      <trkpt lat="42.77589" lon="0.11071">
        <ele>2575</ele>
        <time>2022-03-27T12:32:53Z</time>
      </trkpt>
      <trkpt lat="42.77592" lon="0.11083">
        <ele>2578</ele>
        <time>2022-03-27T12:33:12Z</time>
      </trkpt>
      <trkpt lat="42.77592" lon="0.11087">
        <ele>2580</ele>
        <time>2022-03-27T12:33:19Z</time>
      </trkpt>
      <trkpt lat="42.77593" lon="0.1109">
        <ele>2580</ele>
        <time>2022-03-27T12:33:23Z</time>
      </trkpt>
      <trkpt lat="42.77591" lon="0.11092">
        <ele>2583</ele>
        <time>2022-03-27T12:33:31Z</time>
      </trkpt>
      <trkpt lat="42.77588" lon="0.11092">
        <ele>2583</ele>
        <time>2022-03-27T12:33:36Z</time>
      </trkpt>
      <trkpt lat="42.77586" lon="0.11092">
        <ele>2583</ele>
        <time>2022-03-27T12:33:38Z</time>
      </trkpt>
      <trkpt lat="42.77584" lon="0.11092">
        <ele>2584</ele>
        <time>2022-03-27T12:33:42Z</time>
      </trkpt>
      <trkpt lat="42.77581" lon="0.11091">
        <ele>2585</ele>
        <time>2022-03-27T12:33:45Z</time>
      </trkpt>
      <trkpt lat="42.7758" lon="0.1109">
        <ele>2585</ele>
        <time>2022-03-27T12:33:48Z</time>
      </trkpt>
      <trkpt lat="42.77578" lon="0.1109">
        <ele>2587</ele>
        <time>2022-03-27T12:33:53Z</time>
      </trkpt>
      <trkpt lat="42.77577" lon="0.11093">
        <ele>2587</ele>
        <time>2022-03-27T12:33:57Z</time>
      </trkpt>
      <trkpt lat="42.77577" lon="0.11096">
        <ele>2588</ele>
        <time>2022-03-27T12:34:01Z</time>
      </trkpt>
      <trkpt lat="42.77576" lon="0.11099">
        <ele>2589</ele>
        <time>2022-03-27T12:34:04Z</time>
      </trkpt>
      <trkpt lat="42.77576" lon="0.11102">
        <ele>2589</ele>
        <time>2022-03-27T12:34:07Z</time>
      </trkpt>
      <trkpt lat="42.77575" lon="0.11104">
        <ele>2589</ele>
        <time>2022-03-27T12:34:11Z</time>
      </trkpt>
      <trkpt lat="42.77573" lon="0.11106">
        <ele>2590</ele>
        <time>2022-03-27T12:34:14Z</time>
      </trkpt>
      <trkpt lat="42.77573" lon="0.11108">
        <ele>2591</ele>
        <time>2022-03-27T12:34:24Z</time>
      </trkpt>
      <trkpt lat="42.77572" lon="0.11111">
        <ele>2591</ele>
        <time>2022-03-27T12:34:27Z</time>
      </trkpt>
      <trkpt lat="42.77571" lon="0.11113">
        <ele>2591</ele>
        <time>2022-03-27T12:34:30Z</time>
      </trkpt>
      <trkpt lat="42.77571" lon="0.11118">
        <ele>2592</ele>
        <time>2022-03-27T12:34:37Z</time>
      </trkpt>
      <trkpt lat="42.77571" lon="0.11124">
        <ele>2593</ele>
        <time>2022-03-27T12:34:46Z</time>
      </trkpt>
      <trkpt lat="42.77571" lon="0.11127">
        <ele>2593</ele>
        <time>2022-03-27T12:34:50Z</time>
      </trkpt>
      <trkpt lat="42.77571" lon="0.1113">
        <ele>2595</ele>
        <time>2022-03-27T12:34:54Z</time>
      </trkpt>
      <trkpt lat="42.77572" lon="0.11133">
        <ele>2595</ele>
        <time>2022-03-27T12:34:58Z</time>
      </trkpt>
      <trkpt lat="42.77572" lon="0.11135">
        <ele>2596</ele>
        <time>2022-03-27T12:35:02Z</time>
      </trkpt>
      <trkpt lat="42.77571" lon="0.11138">
        <ele>2596</ele>
        <time>2022-03-27T12:35:06Z</time>
      </trkpt>
      <trkpt lat="42.7757" lon="0.1114">
        <ele>2597</ele>
        <time>2022-03-27T12:35:08Z</time>
      </trkpt>
      <trkpt lat="42.77569" lon="0.11143">
        <ele>2598</ele>
        <time>2022-03-27T12:35:13Z</time>
      </trkpt>
      <trkpt lat="42.77568" lon="0.11146">
        <ele>2598</ele>
        <time>2022-03-27T12:35:17Z</time>
      </trkpt>
      <trkpt lat="42.77568" lon="0.11149">
        <ele>2598</ele>
        <time>2022-03-27T12:35:21Z</time>
      </trkpt>
      <trkpt lat="42.77567" lon="0.11151">
        <ele>2599</ele>
        <time>2022-03-27T12:35:25Z</time>
      </trkpt>
      <trkpt lat="42.77567" lon="0.11153">
        <ele>2599</ele>
        <time>2022-03-27T12:35:31Z</time>
      </trkpt>
      <trkpt lat="42.77566" lon="0.11156">
        <ele>2599</ele>
        <time>2022-03-27T12:35:35Z</time>
      </trkpt>
      <trkpt lat="42.77565" lon="0.11159">
        <ele>2600</ele>
        <time>2022-03-27T12:35:38Z</time>
      </trkpt>
      <trkpt lat="42.77565" lon="0.11163">
        <ele>2600</ele>
        <time>2022-03-27T12:35:43Z</time>
      </trkpt>
      <trkpt lat="42.77564" lon="0.11166">
        <ele>2601</ele>
        <time>2022-03-27T12:35:46Z</time>
      </trkpt>
      <trkpt lat="42.77564" lon="0.11171">
        <ele>2601</ele>
        <time>2022-03-27T12:35:52Z</time>
      </trkpt>
      <trkpt lat="42.7756" lon="0.11182">
        <ele>2603</ele>
        <time>2022-03-27T12:36:06Z</time>
      </trkpt>
      <trkpt lat="42.77557" lon="0.11194">
        <ele>2607</ele>
        <time>2022-03-27T12:36:20Z</time>
      </trkpt>
      <trkpt lat="42.77554" lon="0.11206">
        <ele>2608</ele>
        <time>2022-03-27T12:36:32Z</time>
      </trkpt>
      <trkpt lat="42.77553" lon="0.11208">
        <ele>2608</ele>
        <time>2022-03-27T12:36:36Z</time>
      </trkpt>
      <trkpt lat="42.77549" lon="0.11209">
        <ele>2608</ele>
        <time>2022-03-27T12:36:43Z</time>
      </trkpt>
      <trkpt lat="42.77548" lon="0.11207">
        <ele>2607</ele>
        <time>2022-03-27T12:37:25Z</time>
      </trkpt>
      <trkpt lat="42.77549" lon="0.11205">
        <ele>2608</ele>
        <time>2022-03-27T12:37:28Z</time>
      </trkpt>
      <trkpt lat="42.77548" lon="0.11208">
        <ele>2607</ele>
        <time>2022-03-27T12:37:40Z</time>
      </trkpt>
      <trkpt lat="42.7755" lon="0.11206">
        <ele>2607</ele>
        <time>2022-03-27T12:39:59Z</time>
      </trkpt>
      <trkpt lat="42.77552" lon="0.11205">
        <ele>2607</ele>
        <time>2022-03-27T12:40:01Z</time>
      </trkpt>
      <trkpt lat="42.7755" lon="0.11207">
        <ele>2607</ele>
        <time>2022-03-27T12:40:18Z</time>
      </trkpt>
      <trkpt lat="42.77552" lon="0.11205">
        <ele>2607</ele>
        <time>2022-03-27T12:40:24Z</time>
      </trkpt>
      <trkpt lat="42.77551" lon="0.11207">
        <ele>2607</ele>
        <time>2022-03-27T12:40:36Z</time>
      </trkpt>
      <trkpt lat="42.77551" lon="0.11204">
        <ele>2607</ele>
        <time>2022-03-27T12:40:48Z</time>
      </trkpt>
      <trkpt lat="42.77549" lon="0.11207">
        <ele>2607</ele>
        <time>2022-03-27T12:40:57Z</time>
      </trkpt>
      <trkpt lat="42.77547" lon="0.11208">
        <ele>2607</ele>
        <time>2022-03-27T12:41:15Z</time>
      </trkpt>
      <trkpt lat="42.77549" lon="0.11209">
        <ele>2607</ele>
        <time>2022-03-27T12:41:23Z</time>
      </trkpt>
      <trkpt lat="42.77547" lon="0.1121">
        <ele>2608</ele>
        <time>2022-03-27T12:42:11Z</time>
      </trkpt>
      <trkpt lat="42.77548" lon="0.11207">
        <ele>2608</ele>
        <time>2022-03-27T12:43:34Z</time>
      </trkpt>
      <trkpt lat="42.77546" lon="0.11207">
        <ele>2608</ele>
        <time>2022-03-27T12:44:03Z</time>
      </trkpt>
      <trkpt lat="42.77548" lon="0.11206">
        <ele>2608</ele>
        <time>2022-03-27T12:44:34Z</time>
      </trkpt>
      <trkpt lat="42.77546" lon="0.11208">
        <ele>2608</ele>
        <time>2022-03-27T12:45:22Z</time>
      </trkpt>
      <trkpt lat="42.77549" lon="0.11206">
        <ele>2608</ele>
        <time>2022-03-27T12:45:39Z</time>
      </trkpt>
      <trkpt lat="42.77551" lon="0.11206">
        <ele>2607</ele>
        <time>2022-03-27T12:45:41Z</time>
      </trkpt>
      <trkpt lat="42.77548" lon="0.11207">
        <ele>2609</ele>
        <time>2022-03-27T12:46:00Z</time>
      </trkpt>
      <trkpt lat="42.77545" lon="0.11207">
        <ele>2607</ele>
        <time>2022-03-27T12:46:34Z</time>
      </trkpt>
      <trkpt lat="42.77542" lon="0.11207">
        <ele>2608</ele>
        <time>2022-03-27T12:46:35Z</time>
      </trkpt>
      <trkpt lat="42.77544" lon="0.11207">
        <ele>2608</ele>
        <time>2022-03-27T12:46:42Z</time>
      </trkpt>
      <trkpt lat="42.77546" lon="0.11207">
        <ele>2608</ele>
        <time>2022-03-27T12:46:54Z</time>
      </trkpt>
      <trkpt lat="42.77548" lon="0.11208">
        <ele>2607</ele>
        <time>2022-03-27T12:50:05Z</time>
      </trkpt>
      <trkpt lat="42.77547" lon="0.1121">
        <ele>2604</ele>
        <time>2022-03-27T12:50:37Z</time>
      </trkpt>
      <trkpt lat="42.77548" lon="0.11209">
        <ele>2607</ele>
        <time>2022-03-27T12:51:49Z</time>
      </trkpt>
      <trkpt lat="42.77547" lon="0.11207">
        <ele>2604</ele>
        <time>2022-03-27T12:52:45Z</time>
      </trkpt>
      <trkpt lat="42.77546" lon="0.11207">
        <ele>2604</ele>
        <time>2022-03-27T12:53:24Z</time>
      </trkpt>
      <trkpt lat="42.77547" lon="0.11207">
        <ele>2605</ele>
        <time>2022-03-27T12:53:53Z</time>
      </trkpt>
      <trkpt lat="42.77549" lon="0.11209">
        <ele>2604</ele>
        <time>2022-03-27T12:55:46Z</time>
      </trkpt>
      <trkpt lat="42.77549" lon="0.11211">
        <ele>2604</ele>
        <time>2022-03-27T12:56:17Z</time>
      </trkpt>
      <trkpt lat="42.77548" lon="0.11214">
        <ele>2604</ele>
        <time>2022-03-27T12:56:20Z</time>
      </trkpt>
      <trkpt lat="42.77547" lon="0.11216">
        <ele>2604</ele>
        <time>2022-03-27T12:56:36Z</time>
      </trkpt>
      <trkpt lat="42.77546" lon="0.11219">
        <ele>2604</ele>
        <time>2022-03-27T12:56:38Z</time>
      </trkpt>
      <trkpt lat="42.77545" lon="0.11221">
        <ele>2603</ele>
        <time>2022-03-27T12:57:27Z</time>
      </trkpt>
      <trkpt lat="42.77545" lon="0.11224">
        <ele>2603</ele>
        <time>2022-03-27T12:58:00Z</time>
      </trkpt>
      <trkpt lat="42.77544" lon="0.11227">
        <ele>2603</ele>
        <time>2022-03-27T12:58:01Z</time>
      </trkpt>
      <trkpt lat="42.77543" lon="0.11231">
        <ele>2602</ele>
        <time>2022-03-27T12:58:02Z</time>
      </trkpt>
      <trkpt lat="42.77541" lon="0.11235">
        <ele>2601</ele>
        <time>2022-03-27T12:58:03Z</time>
      </trkpt>
      <trkpt lat="42.77539" lon="0.1124">
        <ele>2600</ele>
        <time>2022-03-27T12:58:04Z</time>
      </trkpt>
      <trkpt lat="42.77537" lon="0.11246">
        <ele>2599</ele>
        <time>2022-03-27T12:58:05Z</time>
      </trkpt>
      <trkpt lat="42.77535" lon="0.11252">
        <ele>2598</ele>
        <time>2022-03-27T12:58:06Z</time>
      </trkpt>
      <trkpt lat="42.77532" lon="0.11259">
        <ele>2599</ele>
        <time>2022-03-27T12:58:07Z</time>
      </trkpt>
      <trkpt lat="42.77529" lon="0.11266">
        <ele>2598</ele>
        <time>2022-03-27T12:58:08Z</time>
      </trkpt>
      <trkpt lat="42.77527" lon="0.11271">
        <ele>2597</ele>
        <time>2022-03-27T12:58:09Z</time>
      </trkpt>
      <trkpt lat="42.77526" lon="0.11273">
        <ele>2596</ele>
        <time>2022-03-27T12:58:10Z</time>
      </trkpt>
      <trkpt lat="42.77526" lon="0.1127">
        <ele>2592</ele>
        <time>2022-03-27T12:58:19Z</time>
      </trkpt>
      <trkpt lat="42.77528" lon="0.11276">
        <ele>2595</ele>
        <time>2022-03-27T12:58:27Z</time>
      </trkpt>
      <trkpt lat="42.77528" lon="0.11283">
        <ele>2593</ele>
        <time>2022-03-27T12:58:28Z</time>
      </trkpt>
      <trkpt lat="42.77526" lon="0.11291">
        <ele>2593</ele>
        <time>2022-03-27T12:58:29Z</time>
      </trkpt>
      <trkpt lat="42.7752" lon="0.11309">
        <ele>2589</ele>
        <time>2022-03-27T12:58:31Z</time>
      </trkpt>
      <trkpt lat="42.77515" lon="0.11326">
        <ele>2583</ele>
        <time>2022-03-27T12:58:33Z</time>
      </trkpt>
      <trkpt lat="42.7751" lon="0.11334">
        <ele>2580</ele>
        <time>2022-03-27T12:58:34Z</time>
      </trkpt>
      <trkpt lat="42.77507" lon="0.11344">
        <ele>2578</ele>
        <time>2022-03-27T12:58:35Z</time>
      </trkpt>
      <trkpt lat="42.77503" lon="0.11354">
        <ele>2574</ele>
        <time>2022-03-27T12:58:36Z</time>
      </trkpt>
      <trkpt lat="42.77497" lon="0.11361">
        <ele>2569</ele>
        <time>2022-03-27T12:58:37Z</time>
      </trkpt>
      <trkpt lat="42.77492" lon="0.1137">
        <ele>2567</ele>
        <time>2022-03-27T12:58:38Z</time>
      </trkpt>
      <trkpt lat="42.77486" lon="0.1138">
        <ele>2564</ele>
        <time>2022-03-27T12:58:39Z</time>
      </trkpt>
      <trkpt lat="42.77479" lon="0.11387">
        <ele>2562</ele>
        <time>2022-03-27T12:58:40Z</time>
      </trkpt>
      <trkpt lat="42.77477" lon="0.11408">
        <ele>2555</ele>
        <time>2022-03-27T12:58:42Z</time>
      </trkpt>
      <trkpt lat="42.77471" lon="0.11435">
        <ele>2547</ele>
        <time>2022-03-27T12:58:44Z</time>
      </trkpt>
      <trkpt lat="42.77468" lon="0.11446">
        <ele>2542</ele>
        <time>2022-03-27T12:58:45Z</time>
      </trkpt>
      <trkpt lat="42.77463" lon="0.11458">
        <ele>2537</ele>
        <time>2022-03-27T12:58:46Z</time>
      </trkpt>
      <trkpt lat="42.77456" lon="0.11468">
        <ele>2532</ele>
        <time>2022-03-27T12:58:47Z</time>
      </trkpt>
      <trkpt lat="42.77446" lon="0.11485">
        <ele>2525</ele>
        <time>2022-03-27T12:58:49Z</time>
      </trkpt>
      <trkpt lat="42.77449" lon="0.11509">
        <ele>2515</ele>
        <time>2022-03-27T12:58:51Z</time>
      </trkpt>
      <trkpt lat="42.77444" lon="0.1152">
        <ele>2510</ele>
        <time>2022-03-27T12:58:52Z</time>
      </trkpt>
      <trkpt lat="42.77441" lon="0.11543">
        <ele>2501</ele>
        <time>2022-03-27T12:58:54Z</time>
      </trkpt>
      <trkpt lat="42.77434" lon="0.11562">
        <ele>2491</ele>
        <time>2022-03-27T12:58:56Z</time>
      </trkpt>
      <trkpt lat="42.77433" lon="0.11582">
        <ele>2483</ele>
        <time>2022-03-27T12:58:58Z</time>
      </trkpt>
      <trkpt lat="42.77428" lon="0.1159">
        <ele>2479</ele>
        <time>2022-03-27T12:58:59Z</time>
      </trkpt>
      <trkpt lat="42.77422" lon="0.11596">
        <ele>2475</ele>
        <time>2022-03-27T12:59:00Z</time>
      </trkpt>
      <trkpt lat="42.77421" lon="0.11604">
        <ele>2472</ele>
        <time>2022-03-27T12:59:01Z</time>
      </trkpt>
      <trkpt lat="42.77423" lon="0.11615">
        <ele>2468</ele>
        <time>2022-03-27T12:59:02Z</time>
      </trkpt>
      <trkpt lat="42.77419" lon="0.11626">
        <ele>2466</ele>
        <time>2022-03-27T12:59:03Z</time>
      </trkpt>
      <trkpt lat="42.77414" lon="0.11636">
        <ele>2462</ele>
        <time>2022-03-27T12:59:04Z</time>
      </trkpt>
      <trkpt lat="42.77414" lon="0.11648">
        <ele>2457</ele>
        <time>2022-03-27T12:59:05Z</time>
      </trkpt>
      <trkpt lat="42.77414" lon="0.11661">
        <ele>2450</ele>
        <time>2022-03-27T12:59:06Z</time>
      </trkpt>
      <trkpt lat="42.77409" lon="0.11673">
        <ele>2443</ele>
        <time>2022-03-27T12:59:07Z</time>
      </trkpt>
      <trkpt lat="42.77402" lon="0.11682">
        <ele>2440</ele>
        <time>2022-03-27T12:59:08Z</time>
      </trkpt>
      <trkpt lat="42.774" lon="0.11692">
        <ele>2436</ele>
        <time>2022-03-27T12:59:09Z</time>
      </trkpt>
      <trkpt lat="42.77401" lon="0.11702">
        <ele>2431</ele>
        <time>2022-03-27T12:59:10Z</time>
      </trkpt>
      <trkpt lat="42.77401" lon="0.11712">
        <ele>2426</ele>
        <time>2022-03-27T12:59:11Z</time>
      </trkpt>
      <trkpt lat="42.77403" lon="0.11722">
        <ele>2422</ele>
        <time>2022-03-27T12:59:12Z</time>
      </trkpt>
      <trkpt lat="42.77406" lon="0.11744">
        <ele>2414</ele>
        <time>2022-03-27T12:59:14Z</time>
      </trkpt>
      <trkpt lat="42.77411" lon="0.11766">
        <ele>2405</ele>
        <time>2022-03-27T12:59:16Z</time>
      </trkpt>
      <trkpt lat="42.77411" lon="0.11776">
        <ele>2400</ele>
        <time>2022-03-27T12:59:17Z</time>
      </trkpt>
      <trkpt lat="42.77416" lon="0.11796">
        <ele>2392</ele>
        <time>2022-03-27T12:59:19Z</time>
      </trkpt>
      <trkpt lat="42.77414" lon="0.11815">
        <ele>2386</ele>
        <time>2022-03-27T12:59:21Z</time>
      </trkpt>
      <trkpt lat="42.77421" lon="0.11838">
        <ele>2378</ele>
        <time>2022-03-27T12:59:23Z</time>
      </trkpt>
      <trkpt lat="42.77419" lon="0.11858">
        <ele>2370</ele>
        <time>2022-03-27T12:59:25Z</time>
      </trkpt>
      <trkpt lat="42.77421" lon="0.11881">
        <ele>2362</ele>
        <time>2022-03-27T12:59:27Z</time>
      </trkpt>
      <trkpt lat="42.77417" lon="0.11892">
        <ele>2359</ele>
        <time>2022-03-27T12:59:28Z</time>
      </trkpt>
      <trkpt lat="42.77415" lon="0.11905">
        <ele>2355</ele>
        <time>2022-03-27T12:59:29Z</time>
      </trkpt>
      <trkpt lat="42.77413" lon="0.11918">
        <ele>2349</ele>
        <time>2022-03-27T12:59:30Z</time>
      </trkpt>
      <trkpt lat="42.77413" lon="0.11932">
        <ele>2343</ele>
        <time>2022-03-27T12:59:31Z</time>
      </trkpt>
      <trkpt lat="42.77415" lon="0.11946">
        <ele>2338</ele>
        <time>2022-03-27T12:59:32Z</time>
      </trkpt>
      <trkpt lat="42.77414" lon="0.11962">
        <ele>2335</ele>
        <time>2022-03-27T12:59:33Z</time>
      </trkpt>
      <trkpt lat="42.77408" lon="0.11974">
        <ele>2333</ele>
        <time>2022-03-27T12:59:34Z</time>
      </trkpt>
      <trkpt lat="42.77404" lon="0.11986">
        <ele>2330</ele>
        <time>2022-03-27T12:59:35Z</time>
      </trkpt>
      <trkpt lat="42.774" lon="0.11999">
        <ele>2324</ele>
        <time>2022-03-27T12:59:36Z</time>
      </trkpt>
      <trkpt lat="42.77394" lon="0.1201">
        <ele>2322</ele>
        <time>2022-03-27T12:59:37Z</time>
      </trkpt>
      <trkpt lat="42.77391" lon="0.12022">
        <ele>2319</ele>
        <time>2022-03-27T12:59:38Z</time>
      </trkpt>
      <trkpt lat="42.77392" lon="0.12034">
        <ele>2317</ele>
        <time>2022-03-27T12:59:39Z</time>
      </trkpt>
      <trkpt lat="42.77386" lon="0.12056">
        <ele>2311</ele>
        <time>2022-03-27T12:59:41Z</time>
      </trkpt>
      <trkpt lat="42.77382" lon="0.12066">
        <ele>2309</ele>
        <time>2022-03-27T12:59:42Z</time>
      </trkpt>
      <trkpt lat="42.77378" lon="0.12077">
        <ele>2306</ele>
        <time>2022-03-27T12:59:43Z</time>
      </trkpt>
      <trkpt lat="42.77373" lon="0.12087">
        <ele>2303</ele>
        <time>2022-03-27T12:59:44Z</time>
      </trkpt>
      <trkpt lat="42.77371" lon="0.12098">
        <ele>2300</ele>
        <time>2022-03-27T12:59:45Z</time>
      </trkpt>
      <trkpt lat="42.77368" lon="0.1211">
        <ele>2296</ele>
        <time>2022-03-27T12:59:46Z</time>
      </trkpt>
      <trkpt lat="42.77367" lon="0.12122">
        <ele>2293</ele>
        <time>2022-03-27T12:59:47Z</time>
      </trkpt>
      <trkpt lat="42.77366" lon="0.12136">
        <ele>2290</ele>
        <time>2022-03-27T12:59:48Z</time>
      </trkpt>
      <trkpt lat="42.77364" lon="0.12149">
        <ele>2288</ele>
        <time>2022-03-27T12:59:49Z</time>
      </trkpt>
      <trkpt lat="42.77364" lon="0.12163">
        <ele>2286</ele>
        <time>2022-03-27T12:59:50Z</time>
      </trkpt>
      <trkpt lat="42.77362" lon="0.12176">
        <ele>2283</ele>
        <time>2022-03-27T12:59:51Z</time>
      </trkpt>
      <trkpt lat="42.77359" lon="0.12189">
        <ele>2280</ele>
        <time>2022-03-27T12:59:52Z</time>
      </trkpt>
      <trkpt lat="42.7736" lon="0.12201">
        <ele>2278</ele>
        <time>2022-03-27T12:59:53Z</time>
      </trkpt>
      <trkpt lat="42.77362" lon="0.12213">
        <ele>2275</ele>
        <time>2022-03-27T12:59:54Z</time>
      </trkpt>
      <trkpt lat="42.77363" lon="0.12226">
        <ele>2272</ele>
        <time>2022-03-27T12:59:55Z</time>
      </trkpt>
      <trkpt lat="42.77364" lon="0.12239">
        <ele>2270</ele>
        <time>2022-03-27T12:59:56Z</time>
      </trkpt>
      <trkpt lat="42.77362" lon="0.1225">
        <ele>2268</ele>
        <time>2022-03-27T12:59:57Z</time>
      </trkpt>
      <trkpt lat="42.77359" lon="0.1226">
        <ele>2267</ele>
        <time>2022-03-27T12:59:58Z</time>
      </trkpt>
      <trkpt lat="42.77355" lon="0.12281">
        <ele>2265</ele>
        <time>2022-03-27T13:00:00Z</time>
      </trkpt>
      <trkpt lat="42.77354" lon="0.12293">
        <ele>2265</ele>
        <time>2022-03-27T13:00:01Z</time>
      </trkpt>
      <trkpt lat="42.77354" lon="0.12305">
        <ele>2258</ele>
        <time>2022-03-27T13:00:02Z</time>
      </trkpt>
      <trkpt lat="42.77354" lon="0.12318">
        <ele>2254</ele>
        <time>2022-03-27T13:00:03Z</time>
      </trkpt>
      <trkpt lat="42.77353" lon="0.12329">
        <ele>2254</ele>
        <time>2022-03-27T13:00:04Z</time>
      </trkpt>
      <trkpt lat="42.77351" lon="0.1234">
        <ele>2253</ele>
        <time>2022-03-27T13:00:05Z</time>
      </trkpt>
      <trkpt lat="42.7735" lon="0.12348">
        <ele>2253</ele>
        <time>2022-03-27T13:00:06Z</time>
      </trkpt>
      <trkpt lat="42.77351" lon="0.12351">
        <ele>2252</ele>
        <time>2022-03-27T13:00:07Z</time>
      </trkpt>
      <trkpt lat="42.77353" lon="0.1235">
        <ele>2250</ele>
        <time>2022-03-27T13:00:09Z</time>
      </trkpt>
      <trkpt lat="42.77355" lon="0.12348">
        <ele>2250</ele>
        <time>2022-03-27T13:00:11Z</time>
      </trkpt>
      <trkpt lat="42.77355" lon="0.12346">
        <ele>2251</ele>
        <time>2022-03-27T13:00:23Z</time>
      </trkpt>
      <trkpt lat="42.77354" lon="0.12344">
        <ele>2250</ele>
        <time>2022-03-27T13:02:34Z</time>
      </trkpt>
      <trkpt lat="42.77353" lon="0.12341">
        <ele>2250</ele>
        <time>2022-03-27T13:08:36Z</time>
      </trkpt>
      <trkpt lat="42.77352" lon="0.12339">
        <ele>2250</ele>
        <time>2022-03-27T13:09:07Z</time>
      </trkpt>
      <trkpt lat="42.77353" lon="0.12341">
        <ele>2249</ele>
        <time>2022-03-27T13:09:44Z</time>
      </trkpt>
      <trkpt lat="42.77352" lon="0.12339">
        <ele>2248</ele>
        <time>2022-03-27T13:13:18Z</time>
      </trkpt>
      <trkpt lat="42.77354" lon="0.12339">
        <ele>2249</ele>
        <time>2022-03-27T13:14:05Z</time>
      </trkpt>
      <trkpt lat="42.77353" lon="0.12342">
        <ele>2248</ele>
        <time>2022-03-27T13:16:21Z</time>
      </trkpt>
      <trkpt lat="42.77352" lon="0.12344">
        <ele>2245</ele>
        <time>2022-03-27T13:16:32Z</time>
      </trkpt>
      <trkpt lat="42.77354" lon="0.12343">
        <ele>2248</ele>
        <time>2022-03-27T13:19:57Z</time>
      </trkpt>
      <trkpt lat="42.77353" lon="0.1234">
        <ele>2248</ele>
        <time>2022-03-27T13:20:03Z</time>
      </trkpt>
      <trkpt lat="42.77353" lon="0.12337">
        <ele>2248</ele>
        <time>2022-03-27T13:20:06Z</time>
      </trkpt>
      <trkpt lat="42.77352" lon="0.12335">
        <ele>2248</ele>
        <time>2022-03-27T13:20:08Z</time>
      </trkpt>
      <trkpt lat="42.77352" lon="0.12332">
        <ele>2248</ele>
        <time>2022-03-27T13:20:12Z</time>
      </trkpt>
      <trkpt lat="42.77352" lon="0.12329">
        <ele>2249</ele>
        <time>2022-03-27T13:20:32Z</time>
      </trkpt>
      <trkpt lat="42.77351" lon="0.12326">
        <ele>2249</ele>
        <time>2022-03-27T13:20:36Z</time>
      </trkpt>
      <trkpt lat="42.77351" lon="0.12323">
        <ele>2249</ele>
        <time>2022-03-27T13:20:39Z</time>
      </trkpt>
      <trkpt lat="42.77351" lon="0.1232">
        <ele>2250</ele>
        <time>2022-03-27T13:20:42Z</time>
      </trkpt>
      <trkpt lat="42.77351" lon="0.12317">
        <ele>2250</ele>
        <time>2022-03-27T13:20:45Z</time>
      </trkpt>
      <trkpt lat="42.7735" lon="0.12314">
        <ele>2250</ele>
        <time>2022-03-27T13:20:48Z</time>
      </trkpt>
      <trkpt lat="42.7735" lon="0.12311">
        <ele>2251</ele>
        <time>2022-03-27T13:20:53Z</time>
      </trkpt>
      <trkpt lat="42.77351" lon="0.12308">
        <ele>2251</ele>
        <time>2022-03-27T13:20:55Z</time>
      </trkpt>
      <trkpt lat="42.77352" lon="0.12305">
        <ele>2251</ele>
        <time>2022-03-27T13:20:58Z</time>
      </trkpt>
      <trkpt lat="42.77352" lon="0.12302">
        <ele>2251</ele>
        <time>2022-03-27T13:21:02Z</time>
      </trkpt>
      <trkpt lat="42.77352" lon="0.12299">
        <ele>2252</ele>
        <time>2022-03-27T13:21:05Z</time>
      </trkpt>
      <trkpt lat="42.77352" lon="0.12296">
        <ele>2252</ele>
        <time>2022-03-27T13:21:09Z</time>
      </trkpt>
      <trkpt lat="42.77353" lon="0.12293">
        <ele>2253</ele>
        <time>2022-03-27T13:21:12Z</time>
      </trkpt>
      <trkpt lat="42.77353" lon="0.1229">
        <ele>2254</ele>
        <time>2022-03-27T13:21:15Z</time>
      </trkpt>
      <trkpt lat="42.77354" lon="0.12288">
        <ele>2255</ele>
        <time>2022-03-27T13:21:34Z</time>
      </trkpt>
      <trkpt lat="42.77355" lon="0.12285">
        <ele>2255</ele>
        <time>2022-03-27T13:21:44Z</time>
      </trkpt>
      <trkpt lat="42.77355" lon="0.12283">
        <ele>2255</ele>
        <time>2022-03-27T13:21:49Z</time>
      </trkpt>
      <trkpt lat="42.77355" lon="0.1228">
        <ele>2255</ele>
        <time>2022-03-27T13:21:59Z</time>
      </trkpt>
      <trkpt lat="42.77355" lon="0.12278">
        <ele>2255</ele>
        <time>2022-03-27T13:22:02Z</time>
      </trkpt>
      <trkpt lat="42.77356" lon="0.12275">
        <ele>2256</ele>
        <time>2022-03-27T13:22:05Z</time>
      </trkpt>
      <trkpt lat="42.77356" lon="0.12272">
        <ele>2256</ele>
        <time>2022-03-27T13:22:09Z</time>
      </trkpt>
      <trkpt lat="42.77357" lon="0.12269">
        <ele>2257</ele>
        <time>2022-03-27T13:22:13Z</time>
      </trkpt>
      <trkpt lat="42.77358" lon="0.12267">
        <ele>2257</ele>
        <time>2022-03-27T13:22:16Z</time>
      </trkpt>
      <trkpt lat="42.77358" lon="0.12264">
        <ele>2258</ele>
        <time>2022-03-27T13:22:23Z</time>
      </trkpt>
      <trkpt lat="42.77359" lon="0.12261">
        <ele>2259</ele>
        <time>2022-03-27T13:22:25Z</time>
      </trkpt>
      <trkpt lat="42.77359" lon="0.12258">
        <ele>2259</ele>
        <time>2022-03-27T13:22:28Z</time>
      </trkpt>
      <trkpt lat="42.77359" lon="0.12255">
        <ele>2260</ele>
        <time>2022-03-27T13:22:32Z</time>
      </trkpt>
      <trkpt lat="42.7736" lon="0.12253">
        <ele>2260</ele>
        <time>2022-03-27T13:22:35Z</time>
      </trkpt>
      <trkpt lat="42.7736" lon="0.12249">
        <ele>2261</ele>
        <time>2022-03-27T13:22:39Z</time>
      </trkpt>
      <trkpt lat="42.7736" lon="0.12247">
        <ele>2262</ele>
        <time>2022-03-27T13:22:46Z</time>
      </trkpt>
      <trkpt lat="42.7736" lon="0.12244">
        <ele>2262</ele>
        <time>2022-03-27T13:22:49Z</time>
      </trkpt>
      <trkpt lat="42.77361" lon="0.12242">
        <ele>2262</ele>
        <time>2022-03-27T13:22:52Z</time>
      </trkpt>
      <trkpt lat="42.77361" lon="0.12239">
        <ele>2262</ele>
        <time>2022-03-27T13:22:55Z</time>
      </trkpt>
      <trkpt lat="42.77362" lon="0.12237">
        <ele>2263</ele>
        <time>2022-03-27T13:22:58Z</time>
      </trkpt>
      <trkpt lat="42.77362" lon="0.12234">
        <ele>2263</ele>
        <time>2022-03-27T13:23:01Z</time>
      </trkpt>
      <trkpt lat="42.77363" lon="0.12231">
        <ele>2264</ele>
        <time>2022-03-27T13:23:05Z</time>
      </trkpt>
      <trkpt lat="42.77363" lon="0.12228">
        <ele>2264</ele>
        <time>2022-03-27T13:23:09Z</time>
      </trkpt>
      <trkpt lat="42.77364" lon="0.12225">
        <ele>2265</ele>
        <time>2022-03-27T13:23:13Z</time>
      </trkpt>
      <trkpt lat="42.77364" lon="0.12222">
        <ele>2265</ele>
        <time>2022-03-27T13:23:17Z</time>
      </trkpt>
      <trkpt lat="42.77365" lon="0.1222">
        <ele>2265</ele>
        <time>2022-03-27T13:23:21Z</time>
      </trkpt>
      <trkpt lat="42.77366" lon="0.12217">
        <ele>2265</ele>
        <time>2022-03-27T13:23:24Z</time>
      </trkpt>
      <trkpt lat="42.77367" lon="0.12215">
        <ele>2266</ele>
        <time>2022-03-27T13:23:27Z</time>
      </trkpt>
      <trkpt lat="42.77367" lon="0.12212">
        <ele>2267</ele>
        <time>2022-03-27T13:23:30Z</time>
      </trkpt>
      <trkpt lat="42.77368" lon="0.1221">
        <ele>2267</ele>
        <time>2022-03-27T13:23:33Z</time>
      </trkpt>
      <trkpt lat="42.77369" lon="0.12207">
        <ele>2268</ele>
        <time>2022-03-27T13:23:37Z</time>
      </trkpt>
      <trkpt lat="42.77369" lon="0.12204">
        <ele>2268</ele>
        <time>2022-03-27T13:23:40Z</time>
      </trkpt>
      <trkpt lat="42.77369" lon="0.12201">
        <ele>2269</ele>
        <time>2022-03-27T13:23:45Z</time>
      </trkpt>
      <trkpt lat="42.7737" lon="0.12199">
        <ele>2269</ele>
        <time>2022-03-27T13:23:48Z</time>
      </trkpt>
      <trkpt lat="42.7737" lon="0.12196">
        <ele>2269</ele>
        <time>2022-03-27T13:23:51Z</time>
      </trkpt>
      <trkpt lat="42.77371" lon="0.12193">
        <ele>2270</ele>
        <time>2022-03-27T13:23:55Z</time>
      </trkpt>
      <trkpt lat="42.77372" lon="0.1219">
        <ele>2270</ele>
        <time>2022-03-27T13:23:59Z</time>
      </trkpt>
      <trkpt lat="42.77373" lon="0.12187">
        <ele>2271</ele>
        <time>2022-03-27T13:24:03Z</time>
      </trkpt>
      <trkpt lat="42.77373" lon="0.12185">
        <ele>2272</ele>
        <time>2022-03-27T13:24:07Z</time>
      </trkpt>
      <trkpt lat="42.77374" lon="0.12182">
        <ele>2274</ele>
        <time>2022-03-27T13:24:11Z</time>
      </trkpt>
      <trkpt lat="42.77375" lon="0.12179">
        <ele>2274</ele>
        <time>2022-03-27T13:24:15Z</time>
      </trkpt>
      <trkpt lat="42.77376" lon="0.12177">
        <ele>2275</ele>
        <time>2022-03-27T13:24:18Z</time>
      </trkpt>
      <trkpt lat="42.77377" lon="0.12174">
        <ele>2275</ele>
        <time>2022-03-27T13:24:22Z</time>
      </trkpt>
      <trkpt lat="42.77378" lon="0.12172">
        <ele>2276</ele>
        <time>2022-03-27T13:24:26Z</time>
      </trkpt>
      <trkpt lat="42.77379" lon="0.12169">
        <ele>2276</ele>
        <time>2022-03-27T13:24:30Z</time>
      </trkpt>
      <trkpt lat="42.77379" lon="0.12166">
        <ele>2277</ele>
        <time>2022-03-27T13:24:34Z</time>
      </trkpt>
      <trkpt lat="42.7738" lon="0.12164">
        <ele>2277</ele>
        <time>2022-03-27T13:24:37Z</time>
      </trkpt>
      <trkpt lat="42.77382" lon="0.12162">
        <ele>2278</ele>
        <time>2022-03-27T13:24:40Z</time>
      </trkpt>
      <trkpt lat="42.77382" lon="0.1216">
        <ele>2278</ele>
        <time>2022-03-27T13:24:43Z</time>
      </trkpt>
      <trkpt lat="42.77382" lon="0.12157">
        <ele>2279</ele>
        <time>2022-03-27T13:24:46Z</time>
      </trkpt>
      <trkpt lat="42.77383" lon="0.12154">
        <ele>2280</ele>
        <time>2022-03-27T13:24:50Z</time>
      </trkpt>
      <trkpt lat="42.77384" lon="0.12152">
        <ele>2280</ele>
        <time>2022-03-27T13:24:54Z</time>
      </trkpt>
      <trkpt lat="42.77385" lon="0.12149">
        <ele>2280</ele>
        <time>2022-03-27T13:24:58Z</time>
      </trkpt>
      <trkpt lat="42.77385" lon="0.12146">
        <ele>2281</ele>
        <time>2022-03-27T13:25:00Z</time>
      </trkpt>
      <trkpt lat="42.77385" lon="0.12143">
        <ele>2281</ele>
        <time>2022-03-27T13:25:02Z</time>
      </trkpt>
      <trkpt lat="42.77386" lon="0.1214">
        <ele>2281</ele>
        <time>2022-03-27T13:25:05Z</time>
      </trkpt>
      <trkpt lat="42.77388" lon="0.12139">
        <ele>2281</ele>
        <time>2022-03-27T13:25:08Z</time>
      </trkpt>
      <trkpt lat="42.77389" lon="0.12137">
        <ele>2282</ele>
        <time>2022-03-27T13:25:11Z</time>
      </trkpt>
      <trkpt lat="42.7739" lon="0.12135">
        <ele>2283</ele>
        <time>2022-03-27T13:25:32Z</time>
      </trkpt>
      <trkpt lat="42.77391" lon="0.12133">
        <ele>2284</ele>
        <time>2022-03-27T13:25:35Z</time>
      </trkpt>
      <trkpt lat="42.7739" lon="0.1213">
        <ele>2284</ele>
        <time>2022-03-27T13:25:38Z</time>
      </trkpt>
      <trkpt lat="42.7739" lon="0.12127">
        <ele>2284</ele>
        <time>2022-03-27T13:25:41Z</time>
      </trkpt>
      <trkpt lat="42.77391" lon="0.12124">
        <ele>2285</ele>
        <time>2022-03-27T13:25:45Z</time>
      </trkpt>
      <trkpt lat="42.77392" lon="0.12121">
        <ele>2286</ele>
        <time>2022-03-27T13:25:49Z</time>
      </trkpt>
      <trkpt lat="42.77393" lon="0.12119">
        <ele>2287</ele>
        <time>2022-03-27T13:25:54Z</time>
      </trkpt>
      <trkpt lat="42.77394" lon="0.12117">
        <ele>2287</ele>
        <time>2022-03-27T13:25:57Z</time>
      </trkpt>
      <trkpt lat="42.77395" lon="0.12114">
        <ele>2287</ele>
        <time>2022-03-27T13:26:01Z</time>
      </trkpt>
      <trkpt lat="42.77396" lon="0.12112">
        <ele>2289</ele>
        <time>2022-03-27T13:26:06Z</time>
      </trkpt>
      <trkpt lat="42.77397" lon="0.1211">
        <ele>2290</ele>
        <time>2022-03-27T13:26:10Z</time>
      </trkpt>
      <trkpt lat="42.77398" lon="0.12107">
        <ele>2290</ele>
        <time>2022-03-27T13:26:14Z</time>
      </trkpt>
      <trkpt lat="42.77398" lon="0.12105">
        <ele>2291</ele>
        <time>2022-03-27T13:26:18Z</time>
      </trkpt>
      <trkpt lat="42.77399" lon="0.12102">
        <ele>2292</ele>
        <time>2022-03-27T13:26:22Z</time>
      </trkpt>
      <trkpt lat="42.77399" lon="0.121">
        <ele>2292</ele>
        <time>2022-03-27T13:26:25Z</time>
      </trkpt>
      <trkpt lat="42.774" lon="0.12097">
        <ele>2292</ele>
        <time>2022-03-27T13:26:29Z</time>
      </trkpt>
      <trkpt lat="42.77401" lon="0.12094">
        <ele>2293</ele>
        <time>2022-03-27T13:26:33Z</time>
      </trkpt>
      <trkpt lat="42.77402" lon="0.12092">
        <ele>2294</ele>
        <time>2022-03-27T13:26:37Z</time>
      </trkpt>
      <trkpt lat="42.77402" lon="0.1209">
        <ele>2295</ele>
        <time>2022-03-27T13:26:40Z</time>
      </trkpt>
      <trkpt lat="42.77403" lon="0.12087">
        <ele>2295</ele>
        <time>2022-03-27T13:26:44Z</time>
      </trkpt>
      <trkpt lat="42.77404" lon="0.12084">
        <ele>2296</ele>
        <time>2022-03-27T13:26:48Z</time>
      </trkpt>
      <trkpt lat="42.77405" lon="0.12082">
        <ele>2297</ele>
        <time>2022-03-27T13:26:53Z</time>
      </trkpt>
      <trkpt lat="42.77406" lon="0.12079">
        <ele>2297</ele>
        <time>2022-03-27T13:26:57Z</time>
      </trkpt>
      <trkpt lat="42.77406" lon="0.12076">
        <ele>2298</ele>
        <time>2022-03-27T13:27:01Z</time>
      </trkpt>
      <trkpt lat="42.77406" lon="0.12073">
        <ele>2300</ele>
        <time>2022-03-27T13:27:04Z</time>
      </trkpt>
      <trkpt lat="42.77406" lon="0.12071">
        <ele>2300</ele>
        <time>2022-03-27T13:27:08Z</time>
      </trkpt>
      <trkpt lat="42.77407" lon="0.12068">
        <ele>2300</ele>
        <time>2022-03-27T13:27:12Z</time>
      </trkpt>
      <trkpt lat="42.77408" lon="0.12065">
        <ele>2301</ele>
        <time>2022-03-27T13:27:16Z</time>
      </trkpt>
      <trkpt lat="42.77409" lon="0.12063">
        <ele>2302</ele>
        <time>2022-03-27T13:27:20Z</time>
      </trkpt>
      <trkpt lat="42.77409" lon="0.1206">
        <ele>2302</ele>
        <time>2022-03-27T13:27:24Z</time>
      </trkpt>
      <trkpt lat="42.77411" lon="0.12058">
        <ele>2303</ele>
        <time>2022-03-27T13:27:27Z</time>
      </trkpt>
      <trkpt lat="42.77412" lon="0.12057">
        <ele>2303</ele>
        <time>2022-03-27T13:27:30Z</time>
      </trkpt>
      <trkpt lat="42.77414" lon="0.12054">
        <ele>2304</ele>
        <time>2022-03-27T13:27:34Z</time>
      </trkpt>
      <trkpt lat="42.77415" lon="0.12052">
        <ele>2304</ele>
        <time>2022-03-27T13:27:37Z</time>
      </trkpt>
      <trkpt lat="42.77417" lon="0.1205">
        <ele>2305</ele>
        <time>2022-03-27T13:27:41Z</time>
      </trkpt>
      <trkpt lat="42.77418" lon="0.12047">
        <ele>2305</ele>
        <time>2022-03-27T13:27:45Z</time>
      </trkpt>
      <trkpt lat="42.7742" lon="0.12045">
        <ele>2306</ele>
        <time>2022-03-27T13:27:49Z</time>
      </trkpt>
      <trkpt lat="42.7742" lon="0.12042">
        <ele>2307</ele>
        <time>2022-03-27T13:27:52Z</time>
      </trkpt>
      <trkpt lat="42.77421" lon="0.1204">
        <ele>2307</ele>
        <time>2022-03-27T13:27:55Z</time>
      </trkpt>
      <trkpt lat="42.77422" lon="0.12037">
        <ele>2308</ele>
        <time>2022-03-27T13:27:59Z</time>
      </trkpt>
      <trkpt lat="42.77423" lon="0.12035">
        <ele>2308</ele>
        <time>2022-03-27T13:28:02Z</time>
      </trkpt>
      <trkpt lat="42.77424" lon="0.12032">
        <ele>2308</ele>
        <time>2022-03-27T13:28:06Z</time>
      </trkpt>
      <trkpt lat="42.77425" lon="0.1203">
        <ele>2309</ele>
        <time>2022-03-27T13:28:09Z</time>
      </trkpt>
      <trkpt lat="42.77426" lon="0.12028">
        <ele>2310</ele>
        <time>2022-03-27T13:28:13Z</time>
      </trkpt>
      <trkpt lat="42.77426" lon="0.12025">
        <ele>2310</ele>
        <time>2022-03-27T13:28:17Z</time>
      </trkpt>
      <trkpt lat="42.77425" lon="0.12023">
        <ele>2311</ele>
        <time>2022-03-27T13:28:21Z</time>
      </trkpt>
      <trkpt lat="42.77424" lon="0.1202">
        <ele>2312</ele>
        <time>2022-03-27T13:28:25Z</time>
      </trkpt>
      <trkpt lat="42.77424" lon="0.12017">
        <ele>2312</ele>
        <time>2022-03-27T13:28:29Z</time>
      </trkpt>
      <trkpt lat="42.77423" lon="0.12014">
        <ele>2313</ele>
        <time>2022-03-27T13:28:33Z</time>
      </trkpt>
      <trkpt lat="42.77423" lon="0.12012">
        <ele>2313</ele>
        <time>2022-03-27T13:28:36Z</time>
      </trkpt>
      <trkpt lat="42.77422" lon="0.12009">
        <ele>2313</ele>
        <time>2022-03-27T13:28:39Z</time>
      </trkpt>
      <trkpt lat="42.77422" lon="0.12007">
        <ele>2314</ele>
        <time>2022-03-27T13:28:42Z</time>
      </trkpt>
      <trkpt lat="42.77421" lon="0.12004">
        <ele>2315</ele>
        <time>2022-03-27T13:28:46Z</time>
      </trkpt>
      <trkpt lat="42.77421" lon="0.12001">
        <ele>2315</ele>
        <time>2022-03-27T13:28:50Z</time>
      </trkpt>
      <trkpt lat="42.77421" lon="0.11999">
        <ele>2316</ele>
        <time>2022-03-27T13:28:54Z</time>
      </trkpt>
      <trkpt lat="42.77421" lon="0.11996">
        <ele>2317</ele>
        <time>2022-03-27T13:28:58Z</time>
      </trkpt>
      <trkpt lat="42.7742" lon="0.11993">
        <ele>2318</ele>
        <time>2022-03-27T13:29:02Z</time>
      </trkpt>
      <trkpt lat="42.7742" lon="0.11991">
        <ele>2318</ele>
        <time>2022-03-27T13:29:06Z</time>
      </trkpt>
      <trkpt lat="42.77419" lon="0.11988">
        <ele>2319</ele>
        <time>2022-03-27T13:29:10Z</time>
      </trkpt>
      <trkpt lat="42.77418" lon="0.11986">
        <ele>2320</ele>
        <time>2022-03-27T13:29:14Z</time>
      </trkpt>
      <trkpt lat="42.77417" lon="0.11983">
        <ele>2320</ele>
        <time>2022-03-27T13:29:18Z</time>
      </trkpt>
      <trkpt lat="42.77416" lon="0.11981">
        <ele>2321</ele>
        <time>2022-03-27T13:29:23Z</time>
      </trkpt>
      <trkpt lat="42.77415" lon="0.11978">
        <ele>2322</ele>
        <time>2022-03-27T13:29:28Z</time>
      </trkpt>
      <trkpt lat="42.77414" lon="0.11975">
        <ele>2323</ele>
        <time>2022-03-27T13:29:32Z</time>
      </trkpt>
      <trkpt lat="42.77413" lon="0.11973">
        <ele>2323</ele>
        <time>2022-03-27T13:29:37Z</time>
      </trkpt>
      <trkpt lat="42.77413" lon="0.11971">
        <ele>2323</ele>
        <time>2022-03-27T13:29:41Z</time>
      </trkpt>
      <trkpt lat="42.77412" lon="0.11968">
        <ele>2326</ele>
        <time>2022-03-27T13:29:46Z</time>
      </trkpt>
      <trkpt lat="42.77412" lon="0.11965">
        <ele>2326</ele>
        <time>2022-03-27T13:29:51Z</time>
      </trkpt>
      <trkpt lat="42.77411" lon="0.11962">
        <ele>2327</ele>
        <time>2022-03-27T13:29:56Z</time>
      </trkpt>
      <trkpt lat="42.77411" lon="0.1196">
        <ele>2328</ele>
        <time>2022-03-27T13:30:00Z</time>
      </trkpt>
      <trkpt lat="42.77411" lon="0.11957">
        <ele>2329</ele>
        <time>2022-03-27T13:30:04Z</time>
      </trkpt>
      <trkpt lat="42.77411" lon="0.11955">
        <ele>2330</ele>
        <time>2022-03-27T13:30:08Z</time>
      </trkpt>
      <trkpt lat="42.7741" lon="0.11952">
        <ele>2330</ele>
        <time>2022-03-27T13:30:12Z</time>
      </trkpt>
      <trkpt lat="42.77409" lon="0.1195">
        <ele>2331</ele>
        <time>2022-03-27T13:30:18Z</time>
      </trkpt>
      <trkpt lat="42.77409" lon="0.11947">
        <ele>2332</ele>
        <time>2022-03-27T13:30:21Z</time>
      </trkpt>
      <trkpt lat="42.77408" lon="0.11944">
        <ele>2332</ele>
        <time>2022-03-27T13:30:25Z</time>
      </trkpt>
      <trkpt lat="42.77408" lon="0.11941">
        <ele>2333</ele>
        <time>2022-03-27T13:30:29Z</time>
      </trkpt>
      <trkpt lat="42.77409" lon="0.11938">
        <ele>2334</ele>
        <time>2022-03-27T13:30:35Z</time>
      </trkpt>
      <trkpt lat="42.77409" lon="0.11936">
        <ele>2335</ele>
        <time>2022-03-27T13:30:38Z</time>
      </trkpt>
      <trkpt lat="42.7741" lon="0.11934">
        <ele>2336</ele>
        <time>2022-03-27T13:30:41Z</time>
      </trkpt>
      <trkpt lat="42.77411" lon="0.11932">
        <ele>2336</ele>
        <time>2022-03-27T13:30:44Z</time>
      </trkpt>
      <trkpt lat="42.77413" lon="0.1193">
        <ele>2337</ele>
        <time>2022-03-27T13:30:48Z</time>
      </trkpt>
      <trkpt lat="42.77414" lon="0.11928">
        <ele>2338</ele>
        <time>2022-03-27T13:30:52Z</time>
      </trkpt>
      <trkpt lat="42.77416" lon="0.11926">
        <ele>2338</ele>
        <time>2022-03-27T13:30:56Z</time>
      </trkpt>
      <trkpt lat="42.77417" lon="0.11924">
        <ele>2339</ele>
        <time>2022-03-27T13:31:19Z</time>
      </trkpt>
      <trkpt lat="42.77419" lon="0.11922">
        <ele>2339</ele>
        <time>2022-03-27T13:31:23Z</time>
      </trkpt>
      <trkpt lat="42.7742" lon="0.1192">
        <ele>2340</ele>
        <time>2022-03-27T13:31:26Z</time>
      </trkpt>
      <trkpt lat="42.77422" lon="0.11918">
        <ele>2340</ele>
        <time>2022-03-27T13:31:30Z</time>
      </trkpt>
      <trkpt lat="42.77424" lon="0.11917">
        <ele>2341</ele>
        <time>2022-03-27T13:31:33Z</time>
      </trkpt>
      <trkpt lat="42.77425" lon="0.11915">
        <ele>2342</ele>
        <time>2022-03-27T13:31:36Z</time>
      </trkpt>
      <trkpt lat="42.77427" lon="0.11913">
        <ele>2342</ele>
        <time>2022-03-27T13:31:40Z</time>
      </trkpt>
      <trkpt lat="42.77429" lon="0.11909">
        <ele>2343</ele>
        <time>2022-03-27T13:31:46Z</time>
      </trkpt>
      <trkpt lat="42.77429" lon="0.11907">
        <ele>2344</ele>
        <time>2022-03-27T13:31:50Z</time>
      </trkpt>
      <trkpt lat="42.77428" lon="0.11904">
        <ele>2344</ele>
        <time>2022-03-27T13:31:54Z</time>
      </trkpt>
      <trkpt lat="42.77427" lon="0.11901">
        <ele>2345</ele>
        <time>2022-03-27T13:31:58Z</time>
      </trkpt>
      <trkpt lat="42.77425" lon="0.11899">
        <ele>2346</ele>
        <time>2022-03-27T13:32:02Z</time>
      </trkpt>
      <trkpt lat="42.77424" lon="0.11897">
        <ele>2346</ele>
        <time>2022-03-27T13:32:06Z</time>
      </trkpt>
      <trkpt lat="42.77422" lon="0.11895">
        <ele>2347</ele>
        <time>2022-03-27T13:32:11Z</time>
      </trkpt>
      <trkpt lat="42.77424" lon="0.11893">
        <ele>2348</ele>
        <time>2022-03-27T13:35:41Z</time>
      </trkpt>
      <trkpt lat="42.77423" lon="0.11891">
        <ele>2349</ele>
        <time>2022-03-27T13:35:47Z</time>
      </trkpt>
      <trkpt lat="42.77422" lon="0.11889">
        <ele>2350</ele>
        <time>2022-03-27T13:35:54Z</time>
      </trkpt>
      <trkpt lat="42.77421" lon="0.11886">
        <ele>2350</ele>
        <time>2022-03-27T13:35:58Z</time>
      </trkpt>
      <trkpt lat="42.77421" lon="0.11883">
        <ele>2352</ele>
        <time>2022-03-27T13:36:02Z</time>
      </trkpt>
      <trkpt lat="42.77422" lon="0.11881">
        <ele>2353</ele>
        <time>2022-03-27T13:36:06Z</time>
      </trkpt>
      <trkpt lat="42.77423" lon="0.11879">
        <ele>2354</ele>
        <time>2022-03-27T13:36:11Z</time>
      </trkpt>
      <trkpt lat="42.77424" lon="0.11877">
        <ele>2354</ele>
        <time>2022-03-27T13:36:15Z</time>
      </trkpt>
      <trkpt lat="42.77425" lon="0.11874">
        <ele>2355</ele>
        <time>2022-03-27T13:36:21Z</time>
      </trkpt>
      <trkpt lat="42.77426" lon="0.11872">
        <ele>2355</ele>
        <time>2022-03-27T13:36:25Z</time>
      </trkpt>
      <trkpt lat="42.77428" lon="0.11871">
        <ele>2356</ele>
        <time>2022-03-27T13:36:29Z</time>
      </trkpt>
      <trkpt lat="42.77429" lon="0.11869">
        <ele>2357</ele>
        <time>2022-03-27T13:36:34Z</time>
      </trkpt>
      <trkpt lat="42.77431" lon="0.11868">
        <ele>2357</ele>
        <time>2022-03-27T13:36:39Z</time>
      </trkpt>
      <trkpt lat="42.77433" lon="0.11867">
        <ele>2358</ele>
        <time>2022-03-27T13:36:45Z</time>
      </trkpt>
      <trkpt lat="42.77434" lon="0.11865">
        <ele>2359</ele>
        <time>2022-03-27T13:36:53Z</time>
      </trkpt>
      <trkpt lat="42.77433" lon="0.11862">
        <ele>2359</ele>
        <time>2022-03-27T13:36:58Z</time>
      </trkpt>
      <trkpt lat="42.77432" lon="0.1186">
        <ele>2360</ele>
        <time>2022-03-27T13:37:02Z</time>
      </trkpt>
      <trkpt lat="42.7743" lon="0.11858">
        <ele>2361</ele>
        <time>2022-03-27T13:37:07Z</time>
      </trkpt>
      <trkpt lat="42.77429" lon="0.11856">
        <ele>2362</ele>
        <time>2022-03-27T13:37:10Z</time>
      </trkpt>
      <trkpt lat="42.77428" lon="0.11854">
        <ele>2362</ele>
        <time>2022-03-27T13:37:15Z</time>
      </trkpt>
      <trkpt lat="42.77426" lon="0.11852">
        <ele>2363</ele>
        <time>2022-03-27T13:37:21Z</time>
      </trkpt>
      <trkpt lat="42.77425" lon="0.1185">
        <ele>2363</ele>
        <time>2022-03-27T13:37:25Z</time>
      </trkpt>
      <trkpt lat="42.77424" lon="0.11848">
        <ele>2364</ele>
        <time>2022-03-27T13:37:29Z</time>
      </trkpt>
      <trkpt lat="42.77422" lon="0.11846">
        <ele>2365</ele>
        <time>2022-03-27T13:37:34Z</time>
      </trkpt>
      <trkpt lat="42.77421" lon="0.11844">
        <ele>2365</ele>
        <time>2022-03-27T13:37:39Z</time>
      </trkpt>
      <trkpt lat="42.7742" lon="0.11842">
        <ele>2366</ele>
        <time>2022-03-27T13:37:44Z</time>
      </trkpt>
      <trkpt lat="42.77418" lon="0.1184">
        <ele>2366</ele>
        <time>2022-03-27T13:37:51Z</time>
      </trkpt>
      <trkpt lat="42.77418" lon="0.11838">
        <ele>2368</ele>
        <time>2022-03-27T13:37:57Z</time>
      </trkpt>
      <trkpt lat="42.77419" lon="0.11836">
        <ele>2368</ele>
        <time>2022-03-27T13:38:02Z</time>
      </trkpt>
      <trkpt lat="42.77421" lon="0.11834">
        <ele>2369</ele>
        <time>2022-03-27T13:38:09Z</time>
      </trkpt>
      <trkpt lat="42.77422" lon="0.11832">
        <ele>2370</ele>
        <time>2022-03-27T13:38:14Z</time>
      </trkpt>
      <trkpt lat="42.77424" lon="0.11831">
        <ele>2370</ele>
        <time>2022-03-27T13:38:19Z</time>
      </trkpt>
      <trkpt lat="42.77426" lon="0.11829">
        <ele>2371</ele>
        <time>2022-03-27T13:38:24Z</time>
      </trkpt>
      <trkpt lat="42.77425" lon="0.11826">
        <ele>2371</ele>
        <time>2022-03-27T13:38:43Z</time>
      </trkpt>
      <trkpt lat="42.77427" lon="0.11824">
        <ele>2372</ele>
        <time>2022-03-27T13:38:46Z</time>
      </trkpt>
      <trkpt lat="42.77426" lon="0.11821">
        <ele>2373</ele>
        <time>2022-03-27T13:38:56Z</time>
      </trkpt>
      <trkpt lat="42.77425" lon="0.11819">
        <ele>2374</ele>
        <time>2022-03-27T13:39:01Z</time>
      </trkpt>
      <trkpt lat="42.77423" lon="0.11818">
        <ele>2375</ele>
        <time>2022-03-27T13:39:10Z</time>
      </trkpt>
      <trkpt lat="42.77422" lon="0.11816">
        <ele>2376</ele>
        <time>2022-03-27T13:39:15Z</time>
      </trkpt>
      <trkpt lat="42.7742" lon="0.11813">
        <ele>2378</ele>
        <time>2022-03-27T13:39:22Z</time>
      </trkpt>
      <trkpt lat="42.77419" lon="0.11811">
        <ele>2379</ele>
        <time>2022-03-27T13:39:27Z</time>
      </trkpt>
      <trkpt lat="42.77418" lon="0.11809">
        <ele>2379</ele>
        <time>2022-03-27T13:39:31Z</time>
      </trkpt>
      <trkpt lat="42.77416" lon="0.11807">
        <ele>2380</ele>
        <time>2022-03-27T13:39:36Z</time>
      </trkpt>
      <trkpt lat="42.77415" lon="0.11805">
        <ele>2380</ele>
        <time>2022-03-27T13:39:43Z</time>
      </trkpt>
      <trkpt lat="42.77414" lon="0.11803">
        <ele>2381</ele>
        <time>2022-03-27T13:39:51Z</time>
      </trkpt>
      <trkpt lat="42.77414" lon="0.118">
        <ele>2382</ele>
        <time>2022-03-27T13:39:55Z</time>
      </trkpt>
      <trkpt lat="42.77416" lon="0.11799">
        <ele>2383</ele>
        <time>2022-03-27T13:40:00Z</time>
      </trkpt>
      <trkpt lat="42.77418" lon="0.11797">
        <ele>2383</ele>
        <time>2022-03-27T13:40:05Z</time>
      </trkpt>
      <trkpt lat="42.7742" lon="0.11796">
        <ele>2384</ele>
        <time>2022-03-27T13:40:16Z</time>
      </trkpt>
      <trkpt lat="42.77421" lon="0.11794">
        <ele>2384</ele>
        <time>2022-03-27T13:40:20Z</time>
      </trkpt>
      <trkpt lat="42.77424" lon="0.11793">
        <ele>2385</ele>
        <time>2022-03-27T13:40:25Z</time>
      </trkpt>
      <trkpt lat="42.77424" lon="0.11791">
        <ele>2386</ele>
        <time>2022-03-27T13:40:34Z</time>
      </trkpt>
      <trkpt lat="42.77423" lon="0.11788">
        <ele>2386</ele>
        <time>2022-03-27T13:40:38Z</time>
      </trkpt>
      <trkpt lat="42.77421" lon="0.11786">
        <ele>2388</ele>
        <time>2022-03-27T13:40:43Z</time>
      </trkpt>
      <trkpt lat="42.7742" lon="0.11785">
        <ele>2389</ele>
        <time>2022-03-27T13:40:49Z</time>
      </trkpt>
      <trkpt lat="42.77418" lon="0.11783">
        <ele>2389</ele>
        <time>2022-03-27T13:40:54Z</time>
      </trkpt>
      <trkpt lat="42.77417" lon="0.1178">
        <ele>2390</ele>
        <time>2022-03-27T13:40:59Z</time>
      </trkpt>
      <trkpt lat="42.77416" lon="0.11778">
        <ele>2390</ele>
        <time>2022-03-27T13:41:04Z</time>
      </trkpt>
      <trkpt lat="42.77415" lon="0.11775">
        <ele>2391</ele>
        <time>2022-03-27T13:41:09Z</time>
      </trkpt>
      <trkpt lat="42.77413" lon="0.11773">
        <ele>2392</ele>
        <time>2022-03-27T13:41:16Z</time>
      </trkpt>
      <trkpt lat="42.77412" lon="0.11771">
        <ele>2393</ele>
        <time>2022-03-27T13:41:20Z</time>
      </trkpt>
      <trkpt lat="42.7741" lon="0.1177">
        <ele>2393</ele>
        <time>2022-03-27T13:41:25Z</time>
      </trkpt>
      <trkpt lat="42.77409" lon="0.11768">
        <ele>2394</ele>
        <time>2022-03-27T13:41:30Z</time>
      </trkpt>
      <trkpt lat="42.77408" lon="0.11766">
        <ele>2395</ele>
        <time>2022-03-27T13:41:35Z</time>
      </trkpt>
      <trkpt lat="42.77406" lon="0.11764">
        <ele>2395</ele>
        <time>2022-03-27T13:41:41Z</time>
      </trkpt>
      <trkpt lat="42.77405" lon="0.11762">
        <ele>2396</ele>
        <time>2022-03-27T13:41:51Z</time>
      </trkpt>
      <trkpt lat="42.77403" lon="0.1176">
        <ele>2397</ele>
        <time>2022-03-27T13:41:55Z</time>
      </trkpt>
      <trkpt lat="42.77402" lon="0.11758">
        <ele>2397</ele>
        <time>2022-03-27T13:41:58Z</time>
      </trkpt>
      <trkpt lat="42.774" lon="0.11757">
        <ele>2397</ele>
        <time>2022-03-27T13:42:02Z</time>
      </trkpt>
      <trkpt lat="42.77399" lon="0.11755">
        <ele>2398</ele>
        <time>2022-03-27T13:42:06Z</time>
      </trkpt>
      <trkpt lat="42.77397" lon="0.11753">
        <ele>2399</ele>
        <time>2022-03-27T13:42:18Z</time>
      </trkpt>
      <trkpt lat="42.77398" lon="0.11751">
        <ele>2400</ele>
        <time>2022-03-27T13:42:21Z</time>
      </trkpt>
      <trkpt lat="42.77403" lon="0.11742">
        <ele>2402</ele>
        <time>2022-03-27T13:42:37Z</time>
      </trkpt>
      <trkpt lat="42.77405" lon="0.11742">
        <ele>2404</ele>
        <time>2022-03-27T13:42:44Z</time>
      </trkpt>
      <trkpt lat="42.77407" lon="0.11741">
        <ele>2405</ele>
        <time>2022-03-27T13:42:48Z</time>
      </trkpt>
      <trkpt lat="42.77408" lon="0.11739">
        <ele>2406</ele>
        <time>2022-03-27T13:42:57Z</time>
      </trkpt>
      <trkpt lat="42.7741" lon="0.11738">
        <ele>2406</ele>
        <time>2022-03-27T13:43:02Z</time>
      </trkpt>
      <trkpt lat="42.77412" lon="0.11737">
        <ele>2406</ele>
        <time>2022-03-27T13:43:06Z</time>
      </trkpt>
      <trkpt lat="42.77413" lon="0.11736">
        <ele>2407</ele>
        <time>2022-03-27T13:43:11Z</time>
      </trkpt>
      <trkpt lat="42.77415" lon="0.11735">
        <ele>2408</ele>
        <time>2022-03-27T13:43:16Z</time>
      </trkpt>
      <trkpt lat="42.77417" lon="0.11734">
        <ele>2409</ele>
        <time>2022-03-27T13:43:37Z</time>
      </trkpt>
      <trkpt lat="42.77419" lon="0.11733">
        <ele>2409</ele>
        <time>2022-03-27T13:44:05Z</time>
      </trkpt>
      <trkpt lat="42.77421" lon="0.11732">
        <ele>2409</ele>
        <time>2022-03-27T13:44:10Z</time>
      </trkpt>
      <trkpt lat="42.77423" lon="0.11731">
        <ele>2410</ele>
        <time>2022-03-27T13:44:13Z</time>
      </trkpt>
      <trkpt lat="42.77424" lon="0.1173">
        <ele>2411</ele>
        <time>2022-03-27T13:44:51Z</time>
      </trkpt>
      <trkpt lat="42.77426" lon="0.11729">
        <ele>2411</ele>
        <time>2022-03-27T13:44:54Z</time>
      </trkpt>
      <trkpt lat="42.77428" lon="0.11729">
        <ele>2412</ele>
        <time>2022-03-27T13:44:58Z</time>
      </trkpt>
      <trkpt lat="42.7743" lon="0.11729">
        <ele>2413</ele>
        <time>2022-03-27T13:45:03Z</time>
      </trkpt>
      <trkpt lat="42.77432" lon="0.11728">
        <ele>2413</ele>
        <time>2022-03-27T13:45:20Z</time>
      </trkpt>
      <trkpt lat="42.77434" lon="0.11727">
        <ele>2414</ele>
        <time>2022-03-27T13:45:29Z</time>
      </trkpt>
      <trkpt lat="42.77434" lon="0.11724">
        <ele>2414</ele>
        <time>2022-03-27T13:45:34Z</time>
      </trkpt>
      <trkpt lat="42.77432" lon="0.11722">
        <ele>2415</ele>
        <time>2022-03-27T13:45:37Z</time>
      </trkpt>
      <trkpt lat="42.77431" lon="0.11719">
        <ele>2415</ele>
        <time>2022-03-27T13:45:40Z</time>
      </trkpt>
      <trkpt lat="42.77431" lon="0.11716">
        <ele>2416</ele>
        <time>2022-03-27T13:45:44Z</time>
      </trkpt>
      <trkpt lat="42.7743" lon="0.11714">
        <ele>2417</ele>
        <time>2022-03-27T13:45:47Z</time>
      </trkpt>
      <trkpt lat="42.77429" lon="0.11711">
        <ele>2418</ele>
        <time>2022-03-27T13:45:53Z</time>
      </trkpt>
      <trkpt lat="42.77429" lon="0.11709">
        <ele>2419</ele>
        <time>2022-03-27T13:45:59Z</time>
      </trkpt>
      <trkpt lat="42.77428" lon="0.11706">
        <ele>2419</ele>
        <time>2022-03-27T13:46:04Z</time>
      </trkpt>
      <trkpt lat="42.77426" lon="0.11704">
        <ele>2420</ele>
        <time>2022-03-27T13:46:09Z</time>
      </trkpt>
      <trkpt lat="42.77425" lon="0.11702">
        <ele>2421</ele>
        <time>2022-03-27T13:46:14Z</time>
      </trkpt>
      <trkpt lat="42.77424" lon="0.117">
        <ele>2422</ele>
        <time>2022-03-27T13:46:20Z</time>
      </trkpt>
      <trkpt lat="42.77423" lon="0.11697">
        <ele>2422</ele>
        <time>2022-03-27T13:46:27Z</time>
      </trkpt>
      <trkpt lat="42.77423" lon="0.11695">
        <ele>2423</ele>
        <time>2022-03-27T13:46:34Z</time>
      </trkpt>
      <trkpt lat="42.77425" lon="0.11693">
        <ele>2424</ele>
        <time>2022-03-27T13:46:38Z</time>
      </trkpt>
      <trkpt lat="42.77426" lon="0.11692">
        <ele>2425</ele>
        <time>2022-03-27T13:46:44Z</time>
      </trkpt>
      <trkpt lat="42.77429" lon="0.11691">
        <ele>2426</ele>
        <time>2022-03-27T13:46:49Z</time>
      </trkpt>
      <trkpt lat="42.7743" lon="0.1169">
        <ele>2426</ele>
        <time>2022-03-27T13:46:52Z</time>
      </trkpt>
      <trkpt lat="42.77433" lon="0.1169">
        <ele>2427</ele>
        <time>2022-03-27T13:47:01Z</time>
      </trkpt>
      <trkpt lat="42.77437" lon="0.11689">
        <ele>2427</ele>
        <time>2022-03-27T13:47:05Z</time>
      </trkpt>
      <trkpt lat="42.77439" lon="0.11687">
        <ele>2428</ele>
        <time>2022-03-27T13:47:13Z</time>
      </trkpt>
      <trkpt lat="42.7744" lon="0.11685">
        <ele>2431</ele>
        <time>2022-03-27T13:47:28Z</time>
      </trkpt>
      <trkpt lat="42.77442" lon="0.11683">
        <ele>2432</ele>
        <time>2022-03-27T13:47:38Z</time>
      </trkpt>
      <trkpt lat="42.77441" lon="0.1168">
        <ele>2432</ele>
        <time>2022-03-27T13:47:43Z</time>
      </trkpt>
      <trkpt lat="42.77442" lon="0.11683">
        <ele>2432</ele>
        <time>2022-03-27T13:47:48Z</time>
      </trkpt>
      <trkpt lat="42.77443" lon="0.1168">
        <ele>2432</ele>
        <time>2022-03-27T13:47:52Z</time>
      </trkpt>
      <trkpt lat="42.77444" lon="0.11673">
        <ele>2434</ele>
        <time>2022-03-27T13:48:00Z</time>
      </trkpt>
      <trkpt lat="42.77443" lon="0.1167">
        <ele>2435</ele>
        <time>2022-03-27T13:48:03Z</time>
      </trkpt>
      <trkpt lat="42.77442" lon="0.11668">
        <ele>2436</ele>
        <time>2022-03-27T13:48:07Z</time>
      </trkpt>
      <trkpt lat="42.77441" lon="0.11665">
        <ele>2436</ele>
        <time>2022-03-27T13:48:11Z</time>
      </trkpt>
      <trkpt lat="42.7744" lon="0.11663">
        <ele>2437</ele>
        <time>2022-03-27T13:48:15Z</time>
      </trkpt>
      <trkpt lat="42.77439" lon="0.11661">
        <ele>2438</ele>
        <time>2022-03-27T13:48:21Z</time>
      </trkpt>
      <trkpt lat="42.7744" lon="0.11658">
        <ele>2439</ele>
        <time>2022-03-27T13:48:31Z</time>
      </trkpt>
      <trkpt lat="42.77443" lon="0.11658">
        <ele>2440</ele>
        <time>2022-03-27T13:48:36Z</time>
      </trkpt>
      <trkpt lat="42.77445" lon="0.11658">
        <ele>2441</ele>
        <time>2022-03-27T13:48:44Z</time>
      </trkpt>
      <trkpt lat="42.77447" lon="0.11657">
        <ele>2442</ele>
        <time>2022-03-27T13:48:50Z</time>
      </trkpt>
      <trkpt lat="42.77445" lon="0.11651">
        <ele>2443</ele>
        <time>2022-03-27T13:49:05Z</time>
      </trkpt>
      <trkpt lat="42.77447" lon="0.11652">
        <ele>2444</ele>
        <time>2022-03-27T13:49:11Z</time>
      </trkpt>
      <trkpt lat="42.77449" lon="0.11651">
        <ele>2444</ele>
        <time>2022-03-27T13:49:15Z</time>
      </trkpt>
      <trkpt lat="42.77454" lon="0.11652">
        <ele>2445</ele>
        <time>2022-03-27T13:49:23Z</time>
      </trkpt>
      <trkpt lat="42.77456" lon="0.11653">
        <ele>2446</ele>
        <time>2022-03-27T13:49:28Z</time>
      </trkpt>
      <trkpt lat="42.77455" lon="0.11651">
        <ele>2447</ele>
        <time>2022-03-27T13:49:36Z</time>
      </trkpt>
      <trkpt lat="42.77454" lon="0.11648">
        <ele>2447</ele>
        <time>2022-03-27T13:49:42Z</time>
      </trkpt>
      <trkpt lat="42.77453" lon="0.11646">
        <ele>2448</ele>
        <time>2022-03-27T13:49:47Z</time>
      </trkpt>
      <trkpt lat="42.77452" lon="0.11643">
        <ele>2449</ele>
        <time>2022-03-27T13:49:52Z</time>
      </trkpt>
      <trkpt lat="42.77452" lon="0.11641">
        <ele>2450</ele>
        <time>2022-03-27T13:49:59Z</time>
      </trkpt>
      <trkpt lat="42.77451" lon="0.11638">
        <ele>2450</ele>
        <time>2022-03-27T13:50:04Z</time>
      </trkpt>
      <trkpt lat="42.7745" lon="0.11636">
        <ele>2451</ele>
        <time>2022-03-27T13:50:10Z</time>
      </trkpt>
      <trkpt lat="42.77449" lon="0.11633">
        <ele>2452</ele>
        <time>2022-03-27T13:50:16Z</time>
      </trkpt>
      <trkpt lat="42.77448" lon="0.11631">
        <ele>2453</ele>
        <time>2022-03-27T13:50:21Z</time>
      </trkpt>
      <trkpt lat="42.77447" lon="0.11628">
        <ele>2453</ele>
        <time>2022-03-27T13:50:33Z</time>
      </trkpt>
      <trkpt lat="42.77449" lon="0.11626">
        <ele>2454</ele>
        <time>2022-03-27T13:50:37Z</time>
      </trkpt>
      <trkpt lat="42.77451" lon="0.11625">
        <ele>2456</ele>
        <time>2022-03-27T13:50:42Z</time>
      </trkpt>
      <trkpt lat="42.77453" lon="0.11624">
        <ele>2456</ele>
        <time>2022-03-27T13:50:46Z</time>
      </trkpt>
      <trkpt lat="42.77455" lon="0.11624">
        <ele>2458</ele>
        <time>2022-03-27T13:50:54Z</time>
      </trkpt>
      <trkpt lat="42.77457" lon="0.11622">
        <ele>2458</ele>
        <time>2022-03-27T13:51:02Z</time>
      </trkpt>
      <trkpt lat="42.77459" lon="0.11621">
        <ele>2458</ele>
        <time>2022-03-27T13:51:05Z</time>
      </trkpt>
      <trkpt lat="42.77461" lon="0.11621">
        <ele>2459</ele>
        <time>2022-03-27T13:51:09Z</time>
      </trkpt>
      <trkpt lat="42.77463" lon="0.1162">
        <ele>2459</ele>
        <time>2022-03-27T13:51:15Z</time>
      </trkpt>
      <trkpt lat="42.77463" lon="0.11618">
        <ele>2461</ele>
        <time>2022-03-27T13:51:24Z</time>
      </trkpt>
      <trkpt lat="42.77463" lon="0.11615">
        <ele>2461</ele>
        <time>2022-03-27T13:51:28Z</time>
      </trkpt>
      <trkpt lat="42.77462" lon="0.11612">
        <ele>2462</ele>
        <time>2022-03-27T13:51:31Z</time>
      </trkpt>
      <trkpt lat="42.7746" lon="0.11609">
        <ele>2463</ele>
        <time>2022-03-27T13:51:34Z</time>
      </trkpt>
      <trkpt lat="42.77459" lon="0.11607">
        <ele>2463</ele>
        <time>2022-03-27T13:51:37Z</time>
      </trkpt>
      <trkpt lat="42.77458" lon="0.11604">
        <ele>2464</ele>
        <time>2022-03-27T13:51:41Z</time>
      </trkpt>
      <trkpt lat="42.77457" lon="0.11601">
        <ele>2465</ele>
        <time>2022-03-27T13:51:44Z</time>
      </trkpt>
      <trkpt lat="42.77456" lon="0.11599">
        <ele>2465</ele>
        <time>2022-03-27T13:51:48Z</time>
      </trkpt>
      <trkpt lat="42.77455" lon="0.11596">
        <ele>2467</ele>
        <time>2022-03-27T13:51:54Z</time>
      </trkpt>
      <trkpt lat="42.77454" lon="0.11594">
        <ele>2467</ele>
        <time>2022-03-27T13:52:00Z</time>
      </trkpt>
      <trkpt lat="42.77453" lon="0.11592">
        <ele>2468</ele>
        <time>2022-03-27T13:52:07Z</time>
      </trkpt>
      <trkpt lat="42.77452" lon="0.1159">
        <ele>2468</ele>
        <time>2022-03-27T13:52:14Z</time>
      </trkpt>
      <trkpt lat="42.77451" lon="0.11587">
        <ele>2468</ele>
        <time>2022-03-27T13:52:22Z</time>
      </trkpt>
      <trkpt lat="42.77452" lon="0.11584">
        <ele>2470</ele>
        <time>2022-03-27T13:52:26Z</time>
      </trkpt>
      <trkpt lat="42.77454" lon="0.11583">
        <ele>2470</ele>
        <time>2022-03-27T13:52:31Z</time>
      </trkpt>
      <trkpt lat="42.77455" lon="0.11582">
        <ele>2471</ele>
        <time>2022-03-27T13:52:38Z</time>
      </trkpt>
      <trkpt lat="42.77457" lon="0.11581">
        <ele>2472</ele>
        <time>2022-03-27T13:52:47Z</time>
      </trkpt>
      <trkpt lat="42.77459" lon="0.11579">
        <ele>2472</ele>
        <time>2022-03-27T13:52:52Z</time>
      </trkpt>
      <trkpt lat="42.77461" lon="0.11578">
        <ele>2474</ele>
        <time>2022-03-27T13:52:56Z</time>
      </trkpt>
      <trkpt lat="42.77463" lon="0.11576">
        <ele>2475</ele>
        <time>2022-03-27T13:53:00Z</time>
      </trkpt>
      <trkpt lat="42.77465" lon="0.11575">
        <ele>2475</ele>
        <time>2022-03-27T13:53:04Z</time>
      </trkpt>
      <trkpt lat="42.77466" lon="0.11574">
        <ele>2476</ele>
        <time>2022-03-27T13:53:08Z</time>
      </trkpt>
      <trkpt lat="42.77468" lon="0.11572">
        <ele>2477</ele>
        <time>2022-03-27T13:53:14Z</time>
      </trkpt>
      <trkpt lat="42.7747" lon="0.11571">
        <ele>2478</ele>
        <time>2022-03-27T13:53:20Z</time>
      </trkpt>
      <trkpt lat="42.77472" lon="0.1157">
        <ele>2478</ele>
        <time>2022-03-27T13:53:32Z</time>
      </trkpt>
      <trkpt lat="42.77474" lon="0.11569">
        <ele>2478</ele>
        <time>2022-03-27T13:53:36Z</time>
      </trkpt>
      <trkpt lat="42.77474" lon="0.11566">
        <ele>2478</ele>
        <time>2022-03-27T13:53:42Z</time>
      </trkpt>
      <trkpt lat="42.77473" lon="0.11563">
        <ele>2479</ele>
        <time>2022-03-27T13:53:46Z</time>
      </trkpt>
      <trkpt lat="42.77472" lon="0.1156">
        <ele>2480</ele>
        <time>2022-03-27T13:53:50Z</time>
      </trkpt>
      <trkpt lat="42.77471" lon="0.11558">
        <ele>2481</ele>
        <time>2022-03-27T13:53:54Z</time>
      </trkpt>
      <trkpt lat="42.7747" lon="0.11556">
        <ele>2482</ele>
        <time>2022-03-27T13:53:58Z</time>
      </trkpt>
      <trkpt lat="42.77469" lon="0.11553">
        <ele>2482</ele>
        <time>2022-03-27T13:54:03Z</time>
      </trkpt>
      <trkpt lat="42.77468" lon="0.11551">
        <ele>2483</ele>
        <time>2022-03-27T13:54:08Z</time>
      </trkpt>
      <trkpt lat="42.77467" lon="0.11548">
        <ele>2484</ele>
        <time>2022-03-27T13:54:14Z</time>
      </trkpt>
      <trkpt lat="42.77465" lon="0.11546">
        <ele>2486</ele>
        <time>2022-03-27T13:54:20Z</time>
      </trkpt>
      <trkpt lat="42.77464" lon="0.11544">
        <ele>2486</ele>
        <time>2022-03-27T13:54:24Z</time>
      </trkpt>
      <trkpt lat="42.77463" lon="0.11542">
        <ele>2488</ele>
        <time>2022-03-27T13:54:31Z</time>
      </trkpt>
      <trkpt lat="42.77462" lon="0.1154">
        <ele>2488</ele>
        <time>2022-03-27T13:54:39Z</time>
      </trkpt>
      <trkpt lat="42.77462" lon="0.11537">
        <ele>2489</ele>
        <time>2022-03-27T13:54:48Z</time>
      </trkpt>
      <trkpt lat="42.77463" lon="0.11536">
        <ele>2490</ele>
        <time>2022-03-27T13:54:54Z</time>
      </trkpt>
      <trkpt lat="42.77466" lon="0.11529">
        <ele>2491</ele>
        <time>2022-03-27T13:55:17Z</time>
      </trkpt>
      <trkpt lat="42.77467" lon="0.11528">
        <ele>2491</ele>
        <time>2022-03-27T13:55:20Z</time>
      </trkpt>
      <trkpt lat="42.77469" lon="0.11527">
        <ele>2492</ele>
        <time>2022-03-27T13:55:23Z</time>
      </trkpt>
      <trkpt lat="42.77472" lon="0.11526">
        <ele>2492</ele>
        <time>2022-03-27T13:55:26Z</time>
      </trkpt>
      <trkpt lat="42.77473" lon="0.11526">
        <ele>2493</ele>
        <time>2022-03-27T13:55:33Z</time>
      </trkpt>
      <trkpt lat="42.77476" lon="0.11526">
        <ele>2494</ele>
        <time>2022-03-27T13:55:36Z</time>
      </trkpt>
      <trkpt lat="42.77478" lon="0.11525">
        <ele>2494</ele>
        <time>2022-03-27T13:55:40Z</time>
      </trkpt>
      <trkpt lat="42.7748" lon="0.11523">
        <ele>2495</ele>
        <time>2022-03-27T13:55:43Z</time>
      </trkpt>
      <trkpt lat="42.77481" lon="0.11521">
        <ele>2496</ele>
        <time>2022-03-27T13:55:50Z</time>
      </trkpt>
      <trkpt lat="42.77479" lon="0.11519">
        <ele>2496</ele>
        <time>2022-03-27T13:55:54Z</time>
      </trkpt>
      <trkpt lat="42.77478" lon="0.11518">
        <ele>2498</ele>
        <time>2022-03-27T13:55:58Z</time>
      </trkpt>
      <trkpt lat="42.77477" lon="0.11515">
        <ele>2499</ele>
        <time>2022-03-27T13:56:04Z</time>
      </trkpt>
      <trkpt lat="42.77475" lon="0.11513">
        <ele>2500</ele>
        <time>2022-03-27T13:56:08Z</time>
      </trkpt>
      <trkpt lat="42.77474" lon="0.11511">
        <ele>2500</ele>
        <time>2022-03-27T13:56:14Z</time>
      </trkpt>
      <trkpt lat="42.77472" lon="0.11509">
        <ele>2501</ele>
        <time>2022-03-27T13:56:26Z</time>
      </trkpt>
      <trkpt lat="42.77471" lon="0.11507">
        <ele>2501</ele>
        <time>2022-03-27T13:56:30Z</time>
      </trkpt>
      <trkpt lat="42.77469" lon="0.11505">
        <ele>2502</ele>
        <time>2022-03-27T13:56:35Z</time>
      </trkpt>
      <trkpt lat="42.77467" lon="0.11503">
        <ele>2503</ele>
        <time>2022-03-27T13:56:42Z</time>
      </trkpt>
      <trkpt lat="42.77467" lon="0.11501">
        <ele>2504</ele>
        <time>2022-03-27T13:56:48Z</time>
      </trkpt>
      <trkpt lat="42.77469" lon="0.11499">
        <ele>2505</ele>
        <time>2022-03-27T13:56:52Z</time>
      </trkpt>
      <trkpt lat="42.77471" lon="0.11497">
        <ele>2505</ele>
        <time>2022-03-27T13:56:56Z</time>
      </trkpt>
      <trkpt lat="42.77472" lon="0.11496">
        <ele>2506</ele>
        <time>2022-03-27T13:57:00Z</time>
      </trkpt>
      <trkpt lat="42.77474" lon="0.11494">
        <ele>2507</ele>
        <time>2022-03-27T13:57:05Z</time>
      </trkpt>
      <trkpt lat="42.77476" lon="0.11492">
        <ele>2507</ele>
        <time>2022-03-27T13:57:09Z</time>
      </trkpt>
      <trkpt lat="42.77477" lon="0.11491">
        <ele>2507</ele>
        <time>2022-03-27T13:57:13Z</time>
      </trkpt>
      <trkpt lat="42.77479" lon="0.1149">
        <ele>2508</ele>
        <time>2022-03-27T13:57:17Z</time>
      </trkpt>
      <trkpt lat="42.77481" lon="0.11489">
        <ele>2510</ele>
        <time>2022-03-27T13:57:22Z</time>
      </trkpt>
      <trkpt lat="42.77483" lon="0.11488">
        <ele>2510</ele>
        <time>2022-03-27T13:57:27Z</time>
      </trkpt>
      <trkpt lat="42.77484" lon="0.11487">
        <ele>2511</ele>
        <time>2022-03-27T13:57:32Z</time>
      </trkpt>
      <trkpt lat="42.77486" lon="0.11485">
        <ele>2512</ele>
        <time>2022-03-27T13:57:36Z</time>
      </trkpt>
      <trkpt lat="42.77488" lon="0.11484">
        <ele>2512</ele>
        <time>2022-03-27T13:57:42Z</time>
      </trkpt>
      <trkpt lat="42.77489" lon="0.11482">
        <ele>2513</ele>
        <time>2022-03-27T13:57:47Z</time>
      </trkpt>
      <trkpt lat="42.77491" lon="0.11481">
        <ele>2514</ele>
        <time>2022-03-27T13:57:51Z</time>
      </trkpt>
      <trkpt lat="42.77493" lon="0.11479">
        <ele>2514</ele>
        <time>2022-03-27T13:58:00Z</time>
      </trkpt>
      <trkpt lat="42.77497" lon="0.11475">
        <ele>2515</ele>
        <time>2022-03-27T13:58:06Z</time>
      </trkpt>
      <trkpt lat="42.77499" lon="0.11475">
        <ele>2515</ele>
        <time>2022-03-27T13:58:11Z</time>
      </trkpt>
      <trkpt lat="42.77499" lon="0.11472">
        <ele>2516</ele>
        <time>2022-03-27T13:58:15Z</time>
      </trkpt>
      <trkpt lat="42.77498" lon="0.1147">
        <ele>2517</ele>
        <time>2022-03-27T13:58:19Z</time>
      </trkpt>
      <trkpt lat="42.77496" lon="0.11469">
        <ele>2518</ele>
        <time>2022-03-27T13:58:25Z</time>
      </trkpt>
      <trkpt lat="42.77494" lon="0.11468">
        <ele>2519</ele>
        <time>2022-03-27T13:58:32Z</time>
      </trkpt>
      <trkpt lat="42.77493" lon="0.11466">
        <ele>2519</ele>
        <time>2022-03-27T13:58:36Z</time>
      </trkpt>
      <trkpt lat="42.77492" lon="0.11464">
        <ele>2520</ele>
        <time>2022-03-27T13:58:40Z</time>
      </trkpt>
      <trkpt lat="42.77491" lon="0.11461">
        <ele>2520</ele>
        <time>2022-03-27T13:58:46Z</time>
      </trkpt>
      <trkpt lat="42.7749" lon="0.11458">
        <ele>2522</ele>
        <time>2022-03-27T13:58:54Z</time>
      </trkpt>
      <trkpt lat="42.7749" lon="0.11456">
        <ele>2523</ele>
        <time>2022-03-27T13:58:58Z</time>
      </trkpt>
      <trkpt lat="42.77491" lon="0.11451">
        <ele>2524</ele>
        <time>2022-03-27T13:59:06Z</time>
      </trkpt>
      <trkpt lat="42.77495" lon="0.11446">
        <ele>2525</ele>
        <time>2022-03-27T13:59:15Z</time>
      </trkpt>
      <trkpt lat="42.77497" lon="0.11445">
        <ele>2527</ele>
        <time>2022-03-27T13:59:21Z</time>
      </trkpt>
      <trkpt lat="42.77498" lon="0.11444">
        <ele>2527</ele>
        <time>2022-03-27T13:59:26Z</time>
      </trkpt>
      <trkpt lat="42.775" lon="0.11442">
        <ele>2527</ele>
        <time>2022-03-27T13:59:30Z</time>
      </trkpt>
      <trkpt lat="42.77502" lon="0.11441">
        <ele>2528</ele>
        <time>2022-03-27T13:59:35Z</time>
      </trkpt>
      <trkpt lat="42.77504" lon="0.1144">
        <ele>2528</ele>
        <time>2022-03-27T13:59:40Z</time>
      </trkpt>
      <trkpt lat="42.77512" lon="0.11435">
        <ele>2531</ele>
        <time>2022-03-27T14:00:03Z</time>
      </trkpt>
      <trkpt lat="42.77522" lon="0.11433">
        <ele>2535</ele>
        <time>2022-03-27T14:00:28Z</time>
      </trkpt>
      <trkpt lat="42.77523" lon="0.1142">
        <ele>2539</ele>
        <time>2022-03-27T14:01:23Z</time>
      </trkpt>
      <trkpt lat="42.77525" lon="0.11408">
        <ele>2543</ele>
        <time>2022-03-27T14:01:41Z</time>
      </trkpt>
      <trkpt lat="42.77523" lon="0.11396">
        <ele>2545</ele>
        <time>2022-03-27T14:02:02Z</time>
      </trkpt>
      <trkpt lat="42.77521" lon="0.11389">
        <ele>2548</ele>
        <time>2022-03-27T14:02:13Z</time>
      </trkpt>
      <trkpt lat="42.77518" lon="0.11383">
        <ele>2550</ele>
        <time>2022-03-27T14:02:32Z</time>
      </trkpt>
      <trkpt lat="42.77524" lon="0.11373">
        <ele>2553</ele>
        <time>2022-03-27T14:03:02Z</time>
      </trkpt>
      <trkpt lat="42.77532" lon="0.11371">
        <ele>2555</ele>
        <time>2022-03-27T14:03:32Z</time>
      </trkpt>
      <trkpt lat="42.77535" lon="0.11372">
        <ele>2555</ele>
        <time>2022-03-27T14:03:37Z</time>
      </trkpt>
      <trkpt lat="42.7754" lon="0.11371">
        <ele>2559</ele>
        <time>2022-03-27T14:03:51Z</time>
      </trkpt>
      <trkpt lat="42.77541" lon="0.11368">
        <ele>2559</ele>
        <time>2022-03-27T14:03:56Z</time>
      </trkpt>
      <trkpt lat="42.7754" lon="0.1136">
        <ele>2563</ele>
        <time>2022-03-27T14:04:21Z</time>
      </trkpt>
      <trkpt lat="42.77539" lon="0.11357">
        <ele>2563</ele>
        <time>2022-03-27T14:04:26Z</time>
      </trkpt>
      <trkpt lat="42.77538" lon="0.11355">
        <ele>2564</ele>
        <time>2022-03-27T14:04:30Z</time>
      </trkpt>
      <trkpt lat="42.77531" lon="0.11346">
        <ele>2567</ele>
        <time>2022-03-27T14:04:57Z</time>
      </trkpt>
      <trkpt lat="42.7753" lon="0.11345">
        <ele>2568</ele>
        <time>2022-03-27T14:05:01Z</time>
      </trkpt>
      <trkpt lat="42.77523" lon="0.11337">
        <ele>2571</ele>
        <time>2022-03-27T14:05:20Z</time>
      </trkpt>
      <trkpt lat="42.77522" lon="0.11335">
        <ele>2572</ele>
        <time>2022-03-27T14:05:29Z</time>
      </trkpt>
      <trkpt lat="42.77521" lon="0.11333">
        <ele>2572</ele>
        <time>2022-03-27T14:05:33Z</time>
      </trkpt>
      <trkpt lat="42.77519" lon="0.1133">
        <ele>2573</ele>
        <time>2022-03-27T14:05:39Z</time>
      </trkpt>
      <trkpt lat="42.77516" lon="0.11324">
        <ele>2576</ele>
        <time>2022-03-27T14:05:52Z</time>
      </trkpt>
      <trkpt lat="42.77515" lon="0.11321">
        <ele>2577</ele>
        <time>2022-03-27T14:06:00Z</time>
      </trkpt>
      <trkpt lat="42.77516" lon="0.11318">
        <ele>2577</ele>
        <time>2022-03-27T14:06:03Z</time>
      </trkpt>
      <trkpt lat="42.77516" lon="0.11315">
        <ele>2577</ele>
        <time>2022-03-27T14:06:05Z</time>
      </trkpt>
      <trkpt lat="42.77517" lon="0.11313">
        <ele>2578</ele>
        <time>2022-03-27T14:06:09Z</time>
      </trkpt>
      <trkpt lat="42.77519" lon="0.11312">
        <ele>2579</ele>
        <time>2022-03-27T14:06:12Z</time>
      </trkpt>
      <trkpt lat="42.7752" lon="0.11309">
        <ele>2579</ele>
        <time>2022-03-27T14:06:17Z</time>
      </trkpt>
      <trkpt lat="42.77522" lon="0.11307">
        <ele>2580</ele>
        <time>2022-03-27T14:06:23Z</time>
      </trkpt>
      <trkpt lat="42.77524" lon="0.11306">
        <ele>2580</ele>
        <time>2022-03-27T14:06:26Z</time>
      </trkpt>
      <trkpt lat="42.77526" lon="0.11304">
        <ele>2581</ele>
        <time>2022-03-27T14:06:28Z</time>
      </trkpt>
      <trkpt lat="42.77527" lon="0.11301">
        <ele>2581</ele>
        <time>2022-03-27T14:06:30Z</time>
      </trkpt>
      <trkpt lat="42.77528" lon="0.11299">
        <ele>2584</ele>
        <time>2022-03-27T14:06:35Z</time>
      </trkpt>
      <trkpt lat="42.7753" lon="0.11298">
        <ele>2584</ele>
        <time>2022-03-27T14:06:48Z</time>
      </trkpt>
      <trkpt lat="42.77531" lon="0.11296">
        <ele>2584</ele>
        <time>2022-03-27T14:06:51Z</time>
      </trkpt>
      <trkpt lat="42.77532" lon="0.11294">
        <ele>2585</ele>
        <time>2022-03-27T14:06:54Z</time>
      </trkpt>
      <trkpt lat="42.77534" lon="0.11293">
        <ele>2585</ele>
        <time>2022-03-27T14:06:57Z</time>
      </trkpt>
      <trkpt lat="42.77536" lon="0.11291">
        <ele>2586</ele>
        <time>2022-03-27T14:07:00Z</time>
      </trkpt>
      <trkpt lat="42.77537" lon="0.11288">
        <ele>2587</ele>
        <time>2022-03-27T14:07:03Z</time>
      </trkpt>
      <trkpt lat="42.77539" lon="0.11288">
        <ele>2587</ele>
        <time>2022-03-27T14:07:12Z</time>
      </trkpt>
      <trkpt lat="42.7754" lon="0.11286">
        <ele>2588</ele>
        <time>2022-03-27T14:07:17Z</time>
      </trkpt>
      <trkpt lat="42.7754" lon="0.11283">
        <ele>2588</ele>
        <time>2022-03-27T14:07:21Z</time>
      </trkpt>
      <trkpt lat="42.7754" lon="0.1128">
        <ele>2588</ele>
        <time>2022-03-27T14:07:25Z</time>
      </trkpt>
      <trkpt lat="42.7754" lon="0.11277">
        <ele>2589</ele>
        <time>2022-03-27T14:07:29Z</time>
      </trkpt>
      <trkpt lat="42.7754" lon="0.11275">
        <ele>2590</ele>
        <time>2022-03-27T14:07:32Z</time>
      </trkpt>
      <trkpt lat="42.7754" lon="0.11272">
        <ele>2591</ele>
        <time>2022-03-27T14:07:36Z</time>
      </trkpt>
      <trkpt lat="42.77542" lon="0.11269">
        <ele>2591</ele>
        <time>2022-03-27T14:07:39Z</time>
      </trkpt>
      <trkpt lat="42.77543" lon="0.11267">
        <ele>2592</ele>
        <time>2022-03-27T14:08:24Z</time>
      </trkpt>
      <trkpt lat="42.77543" lon="0.11264">
        <ele>2592</ele>
        <time>2022-03-27T14:08:28Z</time>
      </trkpt>
      <trkpt lat="42.77543" lon="0.11262">
        <ele>2593</ele>
        <time>2022-03-27T14:08:31Z</time>
      </trkpt>
      <trkpt lat="42.77544" lon="0.11258">
        <ele>2593</ele>
        <time>2022-03-27T14:08:35Z</time>
      </trkpt>
      <trkpt lat="42.77544" lon="0.11255">
        <ele>2595</ele>
        <time>2022-03-27T14:08:39Z</time>
      </trkpt>
      <trkpt lat="42.77544" lon="0.11253">
        <ele>2595</ele>
        <time>2022-03-27T14:08:42Z</time>
      </trkpt>
      <trkpt lat="42.77544" lon="0.1125">
        <ele>2596</ele>
        <time>2022-03-27T14:08:45Z</time>
      </trkpt>
      <trkpt lat="42.77544" lon="0.11247">
        <ele>2597</ele>
        <time>2022-03-27T14:08:48Z</time>
      </trkpt>
      <trkpt lat="42.77544" lon="0.11244">
        <ele>2597</ele>
        <time>2022-03-27T14:08:53Z</time>
      </trkpt>
      <trkpt lat="42.77543" lon="0.11242">
        <ele>2598</ele>
        <time>2022-03-27T14:09:09Z</time>
      </trkpt>
      <trkpt lat="42.77544" lon="0.11239">
        <ele>2598</ele>
        <time>2022-03-27T14:09:12Z</time>
      </trkpt>
      <trkpt lat="42.77544" lon="0.11236">
        <ele>2598</ele>
        <time>2022-03-27T14:09:15Z</time>
      </trkpt>
      <trkpt lat="42.77544" lon="0.11232">
        <ele>2599</ele>
        <time>2022-03-27T14:09:21Z</time>
      </trkpt>
      <trkpt lat="42.77543" lon="0.11229">
        <ele>2599</ele>
        <time>2022-03-27T14:09:23Z</time>
      </trkpt>
      <trkpt lat="42.77543" lon="0.11226">
        <ele>2600</ele>
        <time>2022-03-27T14:09:26Z</time>
      </trkpt>
      <trkpt lat="42.77543" lon="0.11223">
        <ele>2600</ele>
        <time>2022-03-27T14:09:30Z</time>
      </trkpt>
      <trkpt lat="42.77543" lon="0.11221">
        <ele>2601</ele>
        <time>2022-03-27T14:09:33Z</time>
      </trkpt>
      <trkpt lat="42.77544" lon="0.11218">
        <ele>2601</ele>
        <time>2022-03-27T14:09:36Z</time>
      </trkpt>
      <trkpt lat="42.77545" lon="0.11216">
        <ele>2602</ele>
        <time>2022-03-27T14:09:43Z</time>
      </trkpt>
      <trkpt lat="42.77555" lon="0.11216">
        <ele>2602</ele>
        <time>2022-03-27T14:13:52Z</time>
      </trkpt>
      <trkpt lat="42.77553" lon="0.11215">
        <ele>2603</ele>
        <time>2022-03-27T14:14:02Z</time>
      </trkpt>
      <trkpt lat="42.77552" lon="0.11214">
        <ele>2602</ele>
        <time>2022-03-27T14:14:11Z</time>
      </trkpt>
      <trkpt lat="42.77552" lon="0.11216">
        <ele>2602</ele>
        <time>2022-03-27T14:14:33Z</time>
      </trkpt>
      <trkpt lat="42.77552" lon="0.11213">
        <ele>2601</ele>
        <time>2022-03-27T14:15:09Z</time>
      </trkpt>
      <trkpt lat="42.7755" lon="0.11214">
        <ele>2601</ele>
        <time>2022-03-27T14:15:22Z</time>
      </trkpt>
      <trkpt lat="42.7755" lon="0.11216">
        <ele>2602</ele>
        <time>2022-03-27T14:16:06Z</time>
      </trkpt>
      <trkpt lat="42.77549" lon="0.11214">
        <ele>2602</ele>
        <time>2022-03-27T14:16:43Z</time>
      </trkpt>
      <trkpt lat="42.7755" lon="0.11216">
        <ele>2602</ele>
        <time>2022-03-27T14:18:05Z</time>
      </trkpt>
      <trkpt lat="42.77549" lon="0.11215">
        <ele>2601</ele>
        <time>2022-03-27T14:18:47Z</time>
      </trkpt>
      <trkpt lat="42.7755" lon="0.11213">
        <ele>2602</ele>
        <time>2022-03-27T14:20:08Z</time>
      </trkpt>
      <trkpt lat="42.7755" lon="0.11215">
        <ele>2603</ele>
        <time>2022-03-27T14:22:34Z</time>
      </trkpt>
      <trkpt lat="42.77549" lon="0.11217">
        <ele>2603</ele>
        <time>2022-03-27T14:22:47Z</time>
      </trkpt>
      <trkpt lat="42.7755" lon="0.11215">
        <ele>2603</ele>
        <time>2022-03-27T14:24:50Z</time>
      </trkpt>
      <trkpt lat="42.77549" lon="0.11213">
        <ele>2603</ele>
        <time>2022-03-27T14:25:10Z</time>
      </trkpt>
      <trkpt lat="42.77551" lon="0.11211">
        <ele>2604</ele>
        <time>2022-03-27T14:26:05Z</time>
      </trkpt>
      <trkpt lat="42.77551" lon="0.11214">
        <ele>2605</ele>
        <time>2022-03-27T14:27:02Z</time>
      </trkpt>
      <trkpt lat="42.7755" lon="0.11217">
        <ele>2605</ele>
        <time>2022-03-27T14:27:04Z</time>
      </trkpt>
      <trkpt lat="42.77548" lon="0.11219">
        <ele>2604</ele>
        <time>2022-03-27T14:27:06Z</time>
      </trkpt>
      <trkpt lat="42.77546" lon="0.11223">
        <ele>2605</ele>
        <time>2022-03-27T14:28:11Z</time>
      </trkpt>
      <trkpt lat="42.77545" lon="0.11226">
        <ele>2605</ele>
        <time>2022-03-27T14:28:12Z</time>
      </trkpt>
      <trkpt lat="42.77543" lon="0.1123">
        <ele>2604</ele>
        <time>2022-03-27T14:28:13Z</time>
      </trkpt>
      <trkpt lat="42.7754" lon="0.11233">
        <ele>2603</ele>
        <time>2022-03-27T14:28:14Z</time>
      </trkpt>
      <trkpt lat="42.77538" lon="0.11236">
        <ele>2603</ele>
        <time>2022-03-27T14:28:15Z</time>
      </trkpt>
      <trkpt lat="42.77536" lon="0.11238">
        <ele>2603</ele>
        <time>2022-03-27T14:28:16Z</time>
      </trkpt>
      <trkpt lat="42.77533" lon="0.11241">
        <ele>2603</ele>
        <time>2022-03-27T14:28:17Z</time>
      </trkpt>
      <trkpt lat="42.77531" lon="0.11243">
        <ele>2603</ele>
        <time>2022-03-27T14:28:18Z</time>
      </trkpt>
      <trkpt lat="42.77529" lon="0.11246">
        <ele>2603</ele>
        <time>2022-03-27T14:28:19Z</time>
      </trkpt>
      <trkpt lat="42.77526" lon="0.11249">
        <ele>2603</ele>
        <time>2022-03-27T14:28:20Z</time>
      </trkpt>
      <trkpt lat="42.77523" lon="0.11252">
        <ele>2603</ele>
        <time>2022-03-27T14:28:21Z</time>
      </trkpt>
      <trkpt lat="42.7752" lon="0.11255">
        <ele>2602</ele>
        <time>2022-03-27T14:28:22Z</time>
      </trkpt>
      <trkpt lat="42.77516" lon="0.11259">
        <ele>2602</ele>
        <time>2022-03-27T14:28:23Z</time>
      </trkpt>
      <trkpt lat="42.77513" lon="0.11262">
        <ele>2601</ele>
        <time>2022-03-27T14:28:24Z</time>
      </trkpt>
      <trkpt lat="42.7751" lon="0.11266">
        <ele>2601</ele>
        <time>2022-03-27T14:28:25Z</time>
      </trkpt>
      <trkpt lat="42.77507" lon="0.1127">
        <ele>2601</ele>
        <time>2022-03-27T14:28:26Z</time>
      </trkpt>
      <trkpt lat="42.77504" lon="0.11274">
        <ele>2601</ele>
        <time>2022-03-27T14:28:27Z</time>
      </trkpt>
      <trkpt lat="42.77501" lon="0.11277">
        <ele>2600</ele>
        <time>2022-03-27T14:28:28Z</time>
      </trkpt>
      <trkpt lat="42.77498" lon="0.1128">
        <ele>2599</ele>
        <time>2022-03-27T14:28:29Z</time>
      </trkpt>
      <trkpt lat="42.77496" lon="0.11283">
        <ele>2599</ele>
        <time>2022-03-27T14:28:30Z</time>
      </trkpt>
      <trkpt lat="42.77494" lon="0.11285">
        <ele>2599</ele>
        <time>2022-03-27T14:28:31Z</time>
      </trkpt>
      <trkpt lat="42.77493" lon="0.11288">
        <ele>2599</ele>
        <time>2022-03-27T14:28:33Z</time>
      </trkpt>
      <trkpt lat="42.77494" lon="0.11289">
        <ele>2599</ele>
        <time>2022-03-27T14:29:19Z</time>
      </trkpt>
      <trkpt lat="42.77494" lon="0.11292">
        <ele>2599</ele>
        <time>2022-03-27T14:29:20Z</time>
      </trkpt>
      <trkpt lat="42.77496" lon="0.11295">
        <ele>2599</ele>
        <time>2022-03-27T14:29:21Z</time>
      </trkpt>
      <trkpt lat="42.77499" lon="0.11297">
        <ele>2598</ele>
        <time>2022-03-27T14:29:22Z</time>
      </trkpt>
      <trkpt lat="42.775" lon="0.11302">
        <ele>2595</ele>
        <time>2022-03-27T14:29:23Z</time>
      </trkpt>
      <trkpt lat="42.77498" lon="0.11308">
        <ele>2591</ele>
        <time>2022-03-27T14:29:24Z</time>
      </trkpt>
      <trkpt lat="42.77498" lon="0.11314">
        <ele>2590</ele>
        <time>2022-03-27T14:29:25Z</time>
      </trkpt>
      <trkpt lat="42.77498" lon="0.11321">
        <ele>2586</ele>
        <time>2022-03-27T14:29:26Z</time>
      </trkpt>
      <trkpt lat="42.77494" lon="0.11328">
        <ele>2584</ele>
        <time>2022-03-27T14:29:27Z</time>
      </trkpt>
      <trkpt lat="42.77488" lon="0.11334">
        <ele>2583</ele>
        <time>2022-03-27T14:29:28Z</time>
      </trkpt>
      <trkpt lat="42.77484" lon="0.11338">
        <ele>2581</ele>
        <time>2022-03-27T14:29:29Z</time>
      </trkpt>
      <trkpt lat="42.77481" lon="0.11344">
        <ele>2580</ele>
        <time>2022-03-27T14:29:30Z</time>
      </trkpt>
      <trkpt lat="42.77478" lon="0.1135">
        <ele>2578</ele>
        <time>2022-03-27T14:29:31Z</time>
      </trkpt>
      <trkpt lat="42.77475" lon="0.11355">
        <ele>2577</ele>
        <time>2022-03-27T14:29:32Z</time>
      </trkpt>
      <trkpt lat="42.77473" lon="0.11358">
        <ele>2576</ele>
        <time>2022-03-27T14:29:33Z</time>
      </trkpt>
      <trkpt lat="42.77472" lon="0.11356">
        <ele>2573</ele>
        <time>2022-03-27T14:30:02Z</time>
      </trkpt>
      <trkpt lat="42.77473" lon="0.1136">
        <ele>2572</ele>
        <time>2022-03-27T14:30:15Z</time>
      </trkpt>
      <trkpt lat="42.77471" lon="0.11365">
        <ele>2571</ele>
        <time>2022-03-27T14:30:16Z</time>
      </trkpt>
      <trkpt lat="42.77467" lon="0.11369">
        <ele>2568</ele>
        <time>2022-03-27T14:30:17Z</time>
      </trkpt>
      <trkpt lat="42.77463" lon="0.11374">
        <ele>2567</ele>
        <time>2022-03-27T14:30:18Z</time>
      </trkpt>
      <trkpt lat="42.7746" lon="0.1138">
        <ele>2567</ele>
        <time>2022-03-27T14:30:19Z</time>
      </trkpt>
      <trkpt lat="42.7746" lon="0.11389">
        <ele>2567</ele>
        <time>2022-03-27T14:30:20Z</time>
      </trkpt>
      <trkpt lat="42.77458" lon="0.11397">
        <ele>2563</ele>
        <time>2022-03-27T14:30:21Z</time>
      </trkpt>
      <trkpt lat="42.77456" lon="0.11406">
        <ele>2561</ele>
        <time>2022-03-27T14:30:22Z</time>
      </trkpt>
      <trkpt lat="42.77454" lon="0.11417">
        <ele>2560</ele>
        <time>2022-03-27T14:30:23Z</time>
      </trkpt>
      <trkpt lat="42.77452" lon="0.11426">
        <ele>2554</ele>
        <time>2022-03-27T14:30:24Z</time>
      </trkpt>
      <trkpt lat="42.77449" lon="0.11434">
        <ele>2551</ele>
        <time>2022-03-27T14:30:25Z</time>
      </trkpt>
      <trkpt lat="42.77448" lon="0.11444">
        <ele>2548</ele>
        <time>2022-03-27T14:30:26Z</time>
      </trkpt>
      <trkpt lat="42.77446" lon="0.11453">
        <ele>2544</ele>
        <time>2022-03-27T14:30:27Z</time>
      </trkpt>
      <trkpt lat="42.77442" lon="0.1146">
        <ele>2541</ele>
        <time>2022-03-27T14:30:28Z</time>
      </trkpt>
      <trkpt lat="42.77437" lon="0.11464">
        <ele>2539</ele>
        <time>2022-03-27T14:30:29Z</time>
      </trkpt>
      <trkpt lat="42.77437" lon="0.11468">
        <ele>2537</ele>
        <time>2022-03-27T14:30:30Z</time>
      </trkpt>
      <trkpt lat="42.77436" lon="0.11476">
        <ele>2532</ele>
        <time>2022-03-27T14:30:31Z</time>
      </trkpt>
      <trkpt lat="42.77432" lon="0.11483">
        <ele>2528</ele>
        <time>2022-03-27T14:30:32Z</time>
      </trkpt>
      <trkpt lat="42.77429" lon="0.11491">
        <ele>2526</ele>
        <time>2022-03-27T14:30:33Z</time>
      </trkpt>
      <trkpt lat="42.77434" lon="0.11508">
        <ele>2520</ele>
        <time>2022-03-27T14:30:35Z</time>
      </trkpt>
      <trkpt lat="42.7743" lon="0.1152">
        <ele>2515</ele>
        <time>2022-03-27T14:30:37Z</time>
      </trkpt>
      <trkpt lat="42.77435" lon="0.11532">
        <ele>2511</ele>
        <time>2022-03-27T14:30:39Z</time>
      </trkpt>
      <trkpt lat="42.77434" lon="0.11538">
        <ele>2508</ele>
        <time>2022-03-27T14:30:40Z</time>
      </trkpt>
      <trkpt lat="42.77435" lon="0.11543">
        <ele>2505</ele>
        <time>2022-03-27T14:30:41Z</time>
      </trkpt>
      <trkpt lat="42.77438" lon="0.11549">
        <ele>2501</ele>
        <time>2022-03-27T14:30:42Z</time>
      </trkpt>
      <trkpt lat="42.77439" lon="0.11555">
        <ele>2496</ele>
        <time>2022-03-27T14:30:43Z</time>
      </trkpt>
      <trkpt lat="42.77436" lon="0.11563">
        <ele>2495</ele>
        <time>2022-03-27T14:30:44Z</time>
      </trkpt>
      <trkpt lat="42.77431" lon="0.11579">
        <ele>2492</ele>
        <time>2022-03-27T14:30:46Z</time>
      </trkpt>
      <trkpt lat="42.77435" lon="0.11592">
        <ele>2486</ele>
        <time>2022-03-27T14:30:48Z</time>
      </trkpt>
      <trkpt lat="42.77423" lon="0.11599">
        <ele>2479</ele>
        <time>2022-03-27T14:30:51Z</time>
      </trkpt>
      <trkpt lat="42.77423" lon="0.1159">
        <ele>2479</ele>
        <time>2022-03-27T14:30:55Z</time>
      </trkpt>
      <trkpt lat="42.77423" lon="0.11587">
        <ele>2478</ele>
        <time>2022-03-27T14:31:02Z</time>
      </trkpt>
      <trkpt lat="42.77422" lon="0.11585">
        <ele>2478</ele>
        <time>2022-03-27T14:31:30Z</time>
      </trkpt>
      <trkpt lat="42.77423" lon="0.11582">
        <ele>2478</ele>
        <time>2022-03-27T14:32:00Z</time>
      </trkpt>
      <trkpt lat="42.77422" lon="0.11584">
        <ele>2477</ele>
        <time>2022-03-27T14:34:06Z</time>
      </trkpt>
      <trkpt lat="42.77422" lon="0.1159">
        <ele>2477</ele>
        <time>2022-03-27T14:34:07Z</time>
      </trkpt>
      <trkpt lat="42.77422" lon="0.11598">
        <ele>2476</ele>
        <time>2022-03-27T14:34:08Z</time>
      </trkpt>
      <trkpt lat="42.77418" lon="0.11605">
        <ele>2472</ele>
        <time>2022-03-27T14:34:09Z</time>
      </trkpt>
      <trkpt lat="42.77415" lon="0.11611">
        <ele>2470</ele>
        <time>2022-03-27T14:34:10Z</time>
      </trkpt>
      <trkpt lat="42.77415" lon="0.11619">
        <ele>2468</ele>
        <time>2022-03-27T14:34:11Z</time>
      </trkpt>
      <trkpt lat="42.77414" lon="0.11626">
        <ele>2465</ele>
        <time>2022-03-27T14:34:12Z</time>
      </trkpt>
      <trkpt lat="42.77413" lon="0.11634">
        <ele>2462</ele>
        <time>2022-03-27T14:34:13Z</time>
      </trkpt>
      <trkpt lat="42.77414" lon="0.11641">
        <ele>2460</ele>
        <time>2022-03-27T14:34:14Z</time>
      </trkpt>
      <trkpt lat="42.77412" lon="0.11648">
        <ele>2457</ele>
        <time>2022-03-27T14:34:15Z</time>
      </trkpt>
      <trkpt lat="42.77408" lon="0.11653">
        <ele>2452</ele>
        <time>2022-03-27T14:34:16Z</time>
      </trkpt>
      <trkpt lat="42.77407" lon="0.11658">
        <ele>2450</ele>
        <time>2022-03-27T14:34:17Z</time>
      </trkpt>
      <trkpt lat="42.77409" lon="0.11666">
        <ele>2448</ele>
        <time>2022-03-27T14:34:18Z</time>
      </trkpt>
      <trkpt lat="42.77407" lon="0.11672">
        <ele>2445</ele>
        <time>2022-03-27T14:34:19Z</time>
      </trkpt>
      <trkpt lat="42.77404" lon="0.11678">
        <ele>2442</ele>
        <time>2022-03-27T14:34:20Z</time>
      </trkpt>
      <trkpt lat="42.77405" lon="0.11684">
        <ele>2439</ele>
        <time>2022-03-27T14:34:21Z</time>
      </trkpt>
      <trkpt lat="42.77405" lon="0.11691">
        <ele>2436</ele>
        <time>2022-03-27T14:34:22Z</time>
      </trkpt>
      <trkpt lat="42.77404" lon="0.11699">
        <ele>2433</ele>
        <time>2022-03-27T14:34:23Z</time>
      </trkpt>
      <trkpt lat="42.77405" lon="0.11706">
        <ele>2430</ele>
        <time>2022-03-27T14:34:24Z</time>
      </trkpt>
      <trkpt lat="42.77405" lon="0.11713">
        <ele>2426</ele>
        <time>2022-03-27T14:34:25Z</time>
      </trkpt>
      <trkpt lat="42.77402" lon="0.11719">
        <ele>2423</ele>
        <time>2022-03-27T14:34:26Z</time>
      </trkpt>
      <trkpt lat="42.774" lon="0.11725">
        <ele>2420</ele>
        <time>2022-03-27T14:34:27Z</time>
      </trkpt>
      <trkpt lat="42.77403" lon="0.11731">
        <ele>2417</ele>
        <time>2022-03-27T14:34:28Z</time>
      </trkpt>
      <trkpt lat="42.77405" lon="0.11737">
        <ele>2415</ele>
        <time>2022-03-27T14:34:29Z</time>
      </trkpt>
      <trkpt lat="42.77405" lon="0.11745">
        <ele>2413</ele>
        <time>2022-03-27T14:34:30Z</time>
      </trkpt>
      <trkpt lat="42.77407" lon="0.11751">
        <ele>2410</ele>
        <time>2022-03-27T14:34:31Z</time>
      </trkpt>
      <trkpt lat="42.77411" lon="0.11756">
        <ele>2408</ele>
        <time>2022-03-27T14:34:32Z</time>
      </trkpt>
      <trkpt lat="42.77415" lon="0.1176">
        <ele>2407</ele>
        <time>2022-03-27T14:34:33Z</time>
      </trkpt>
      <trkpt lat="42.77414" lon="0.11767">
        <ele>2405</ele>
        <time>2022-03-27T14:34:34Z</time>
      </trkpt>
      <trkpt lat="42.77413" lon="0.11773">
        <ele>2402</ele>
        <time>2022-03-27T14:34:35Z</time>
      </trkpt>
      <trkpt lat="42.77416" lon="0.1178">
        <ele>2399</ele>
        <time>2022-03-27T14:34:36Z</time>
      </trkpt>
      <trkpt lat="42.77415" lon="0.11786">
        <ele>2396</ele>
        <time>2022-03-27T14:34:37Z</time>
      </trkpt>
      <trkpt lat="42.77411" lon="0.1179">
        <ele>2395</ele>
        <time>2022-03-27T14:34:38Z</time>
      </trkpt>
      <trkpt lat="42.77404" lon="0.11794">
        <ele>2392</ele>
        <time>2022-03-27T14:34:39Z</time>
      </trkpt>
      <trkpt lat="42.77397" lon="0.11797">
        <ele>2390</ele>
        <time>2022-03-27T14:34:40Z</time>
      </trkpt>
      <trkpt lat="42.7739" lon="0.11799">
        <ele>2388</ele>
        <time>2022-03-27T14:34:41Z</time>
      </trkpt>
      <trkpt lat="42.77385" lon="0.118">
        <ele>2387</ele>
        <time>2022-03-27T14:34:42Z</time>
      </trkpt>
      <trkpt lat="42.77379" lon="0.11801">
        <ele>2387</ele>
        <time>2022-03-27T14:34:43Z</time>
      </trkpt>
      <trkpt lat="42.77374" lon="0.11801">
        <ele>2387</ele>
        <time>2022-03-27T14:34:44Z</time>
      </trkpt>
      <trkpt lat="42.77371" lon="0.118">
        <ele>2386</ele>
        <time>2022-03-27T14:34:45Z</time>
      </trkpt>
      <trkpt lat="42.77368" lon="0.118">
        <ele>2386</ele>
        <time>2022-03-27T14:34:46Z</time>
      </trkpt>
      <trkpt lat="42.77365" lon="0.118">
        <ele>2386</ele>
        <time>2022-03-27T14:34:48Z</time>
      </trkpt>
      <trkpt lat="42.77364" lon="0.118">
        <ele>2386</ele>
        <time>2022-03-27T14:34:50Z</time>
      </trkpt>
      <trkpt lat="42.77361" lon="0.11801">
        <ele>2387</ele>
        <time>2022-03-27T14:35:25Z</time>
      </trkpt>
      <trkpt lat="42.77359" lon="0.11802">
        <ele>2387</ele>
        <time>2022-03-27T14:35:27Z</time>
      </trkpt>
      <trkpt lat="42.77357" lon="0.11804">
        <ele>2387</ele>
        <time>2022-03-27T14:35:29Z</time>
      </trkpt>
      <trkpt lat="42.77356" lon="0.1181">
        <ele>2386</ele>
        <time>2022-03-27T14:36:18Z</time>
      </trkpt>
      <trkpt lat="42.77359" lon="0.11815">
        <ele>2386</ele>
        <time>2022-03-27T14:36:19Z</time>
      </trkpt>
      <trkpt lat="42.77362" lon="0.1182">
        <ele>2385</ele>
        <time>2022-03-27T14:36:20Z</time>
      </trkpt>
      <trkpt lat="42.77361" lon="0.11825">
        <ele>2384</ele>
        <time>2022-03-27T14:36:21Z</time>
      </trkpt>
      <trkpt lat="42.77362" lon="0.11831">
        <ele>2382</ele>
        <time>2022-03-27T14:36:22Z</time>
      </trkpt>
      <trkpt lat="42.77362" lon="0.11838">
        <ele>2380</ele>
        <time>2022-03-27T14:36:23Z</time>
      </trkpt>
      <trkpt lat="42.7736" lon="0.11844">
        <ele>2376</ele>
        <time>2022-03-27T14:36:24Z</time>
      </trkpt>
      <trkpt lat="42.7736" lon="0.11849">
        <ele>2375</ele>
        <time>2022-03-27T14:36:25Z</time>
      </trkpt>
      <trkpt lat="42.77364" lon="0.11854">
        <ele>2373</ele>
        <time>2022-03-27T14:36:26Z</time>
      </trkpt>
      <trkpt lat="42.77365" lon="0.1186">
        <ele>2371</ele>
        <time>2022-03-27T14:36:27Z</time>
      </trkpt>
      <trkpt lat="42.77365" lon="0.11867">
        <ele>2370</ele>
        <time>2022-03-27T14:36:28Z</time>
      </trkpt>
      <trkpt lat="42.77367" lon="0.11874">
        <ele>2368</ele>
        <time>2022-03-27T14:36:29Z</time>
      </trkpt>
      <trkpt lat="42.77369" lon="0.11881">
        <ele>2366</ele>
        <time>2022-03-27T14:36:30Z</time>
      </trkpt>
      <trkpt lat="42.77371" lon="0.11889">
        <ele>2364</ele>
        <time>2022-03-27T14:36:31Z</time>
      </trkpt>
      <trkpt lat="42.77372" lon="0.11897">
        <ele>2362</ele>
        <time>2022-03-27T14:36:32Z</time>
      </trkpt>
      <trkpt lat="42.77371" lon="0.11905">
        <ele>2359</ele>
        <time>2022-03-27T14:36:33Z</time>
      </trkpt>
      <trkpt lat="42.77369" lon="0.11913">
        <ele>2357</ele>
        <time>2022-03-27T14:36:34Z</time>
      </trkpt>
      <trkpt lat="42.77369" lon="0.11921">
        <ele>2354</ele>
        <time>2022-03-27T14:36:35Z</time>
      </trkpt>
      <trkpt lat="42.77368" lon="0.11929">
        <ele>2350</ele>
        <time>2022-03-27T14:36:36Z</time>
      </trkpt>
      <trkpt lat="42.77363" lon="0.11934">
        <ele>2347</ele>
        <time>2022-03-27T14:36:37Z</time>
      </trkpt>
      <trkpt lat="42.77358" lon="0.11939">
        <ele>2346</ele>
        <time>2022-03-27T14:36:38Z</time>
      </trkpt>
      <trkpt lat="42.77354" lon="0.11946">
        <ele>2345</ele>
        <time>2022-03-27T14:36:39Z</time>
      </trkpt>
      <trkpt lat="42.77349" lon="0.11952">
        <ele>2342</ele>
        <time>2022-03-27T14:36:40Z</time>
      </trkpt>
      <trkpt lat="42.77345" lon="0.11957">
        <ele>2341</ele>
        <time>2022-03-27T14:36:41Z</time>
      </trkpt>
      <trkpt lat="42.77343" lon="0.11965">
        <ele>2339</ele>
        <time>2022-03-27T14:36:42Z</time>
      </trkpt>
      <trkpt lat="42.77341" lon="0.11972">
        <ele>2336</ele>
        <time>2022-03-27T14:36:43Z</time>
      </trkpt>
      <trkpt lat="42.77337" lon="0.11979">
        <ele>2334</ele>
        <time>2022-03-27T14:36:44Z</time>
      </trkpt>
      <trkpt lat="42.77336" lon="0.11986">
        <ele>2333</ele>
        <time>2022-03-27T14:36:45Z</time>
      </trkpt>
      <trkpt lat="42.77336" lon="0.11995">
        <ele>2330</ele>
        <time>2022-03-27T14:36:46Z</time>
      </trkpt>
      <trkpt lat="42.77333" lon="0.12003">
        <ele>2327</ele>
        <time>2022-03-27T14:36:47Z</time>
      </trkpt>
      <trkpt lat="42.77332" lon="0.12011">
        <ele>2324</ele>
        <time>2022-03-27T14:36:48Z</time>
      </trkpt>
      <trkpt lat="42.77332" lon="0.12021">
        <ele>2323</ele>
        <time>2022-03-27T14:36:49Z</time>
      </trkpt>
      <trkpt lat="42.77331" lon="0.12029">
        <ele>2320</ele>
        <time>2022-03-27T14:36:50Z</time>
      </trkpt>
      <trkpt lat="42.77332" lon="0.12039">
        <ele>2317</ele>
        <time>2022-03-27T14:36:51Z</time>
      </trkpt>
      <trkpt lat="42.77332" lon="0.12048">
        <ele>2314</ele>
        <time>2022-03-27T14:36:52Z</time>
      </trkpt>
      <trkpt lat="42.77331" lon="0.12057">
        <ele>2311</ele>
        <time>2022-03-27T14:36:53Z</time>
      </trkpt>
      <trkpt lat="42.77328" lon="0.12067">
        <ele>2308</ele>
        <time>2022-03-27T14:36:54Z</time>
      </trkpt>
      <trkpt lat="42.77326" lon="0.12077">
        <ele>2306</ele>
        <time>2022-03-27T14:36:55Z</time>
      </trkpt>
      <trkpt lat="42.77326" lon="0.12087">
        <ele>2304</ele>
        <time>2022-03-27T14:36:56Z</time>
      </trkpt>
      <trkpt lat="42.77326" lon="0.12098">
        <ele>2301</ele>
        <time>2022-03-27T14:36:57Z</time>
      </trkpt>
      <trkpt lat="42.77328" lon="0.1211">
        <ele>2297</ele>
        <time>2022-03-27T14:36:58Z</time>
      </trkpt>
      <trkpt lat="42.77329" lon="0.1212">
        <ele>2293</ele>
        <time>2022-03-27T14:36:59Z</time>
      </trkpt>
      <trkpt lat="42.7733" lon="0.12132">
        <ele>2289</ele>
        <time>2022-03-27T14:37:00Z</time>
      </trkpt>
      <trkpt lat="42.77332" lon="0.12142">
        <ele>2289</ele>
        <time>2022-03-27T14:37:01Z</time>
      </trkpt>
      <trkpt lat="42.77334" lon="0.12153">
        <ele>2288</ele>
        <time>2022-03-27T14:37:02Z</time>
      </trkpt>
      <trkpt lat="42.77336" lon="0.12164">
        <ele>2286</ele>
        <time>2022-03-27T14:37:03Z</time>
      </trkpt>
      <trkpt lat="42.77339" lon="0.12174">
        <ele>2284</ele>
        <time>2022-03-27T14:37:04Z</time>
      </trkpt>
      <trkpt lat="42.77341" lon="0.12184">
        <ele>2281</ele>
        <time>2022-03-27T14:37:05Z</time>
      </trkpt>
      <trkpt lat="42.77342" lon="0.12195">
        <ele>2279</ele>
        <time>2022-03-27T14:37:06Z</time>
      </trkpt>
      <trkpt lat="42.77344" lon="0.12205">
        <ele>2277</ele>
        <time>2022-03-27T14:37:07Z</time>
      </trkpt>
      <trkpt lat="42.77345" lon="0.12216">
        <ele>2275</ele>
        <time>2022-03-27T14:37:08Z</time>
      </trkpt>
      <trkpt lat="42.77347" lon="0.12227">
        <ele>2274</ele>
        <time>2022-03-27T14:37:09Z</time>
      </trkpt>
      <trkpt lat="42.77349" lon="0.12238">
        <ele>2270</ele>
        <time>2022-03-27T14:37:10Z</time>
      </trkpt>
      <trkpt lat="42.7735" lon="0.12249">
        <ele>2268</ele>
        <time>2022-03-27T14:37:11Z</time>
      </trkpt>
      <trkpt lat="42.77351" lon="0.1226">
        <ele>2265</ele>
        <time>2022-03-27T14:37:12Z</time>
      </trkpt>
      <trkpt lat="42.77351" lon="0.12272">
        <ele>2264</ele>
        <time>2022-03-27T14:37:13Z</time>
      </trkpt>
      <trkpt lat="42.77351" lon="0.12284">
        <ele>2263</ele>
        <time>2022-03-27T14:37:14Z</time>
      </trkpt>
      <trkpt lat="42.77351" lon="0.12295">
        <ele>2262</ele>
        <time>2022-03-27T14:37:15Z</time>
      </trkpt>
      <trkpt lat="42.77351" lon="0.12307">
        <ele>2260</ele>
        <time>2022-03-27T14:37:16Z</time>
      </trkpt>
      <trkpt lat="42.77352" lon="0.12318">
        <ele>2258</ele>
        <time>2022-03-27T14:37:17Z</time>
      </trkpt>
      <trkpt lat="42.77353" lon="0.1233">
        <ele>2256</ele>
        <time>2022-03-27T14:37:18Z</time>
      </trkpt>
      <trkpt lat="42.77354" lon="0.12341">
        <ele>2255</ele>
        <time>2022-03-27T14:37:19Z</time>
      </trkpt>
      <trkpt lat="42.77355" lon="0.12352">
        <ele>2253</ele>
        <time>2022-03-27T14:37:20Z</time>
      </trkpt>
      <trkpt lat="42.77355" lon="0.12362">
        <ele>2252</ele>
        <time>2022-03-27T14:37:21Z</time>
      </trkpt>
      <trkpt lat="42.77355" lon="0.12368">
        <ele>2251</ele>
        <time>2022-03-27T14:37:22Z</time>
      </trkpt>
      <trkpt lat="42.77356" lon="0.12372">
        <ele>2252</ele>
        <time>2022-03-27T14:37:23Z</time>
      </trkpt>
      <trkpt lat="42.77355" lon="0.12369">
        <ele>2253</ele>
        <time>2022-03-27T14:37:31Z</time>
      </trkpt>
      <trkpt lat="42.77355" lon="0.12367">
        <ele>2253</ele>
        <time>2022-03-27T14:38:29Z</time>
      </trkpt>
      <trkpt lat="42.77357" lon="0.12367">
        <ele>2252</ele>
        <time>2022-03-27T14:41:16Z</time>
      </trkpt>
      <trkpt lat="42.77361" lon="0.12371">
        <ele>2251</ele>
        <time>2022-03-27T14:41:18Z</time>
      </trkpt>
      <trkpt lat="42.77365" lon="0.12374">
        <ele>2251</ele>
        <time>2022-03-27T14:41:19Z</time>
      </trkpt>
      <trkpt lat="42.7737" lon="0.12376">
        <ele>2250</ele>
        <time>2022-03-27T14:41:20Z</time>
      </trkpt>
      <trkpt lat="42.77377" lon="0.12379">
        <ele>2248</ele>
        <time>2022-03-27T14:41:21Z</time>
      </trkpt>
      <trkpt lat="42.77384" lon="0.12383">
        <ele>2246</ele>
        <time>2022-03-27T14:41:22Z</time>
      </trkpt>
      <trkpt lat="42.7739" lon="0.12388">
        <ele>2243</ele>
        <time>2022-03-27T14:41:23Z</time>
      </trkpt>
      <trkpt lat="42.77397" lon="0.12394">
        <ele>2242</ele>
        <time>2022-03-27T14:41:24Z</time>
      </trkpt>
      <trkpt lat="42.77403" lon="0.124">
        <ele>2239</ele>
        <time>2022-03-27T14:41:25Z</time>
      </trkpt>
      <trkpt lat="42.77408" lon="0.12408">
        <ele>2237</ele>
        <time>2022-03-27T14:41:26Z</time>
      </trkpt>
      <trkpt lat="42.77412" lon="0.12418">
        <ele>2236</ele>
        <time>2022-03-27T14:41:27Z</time>
      </trkpt>
      <trkpt lat="42.77413" lon="0.12429">
        <ele>2233</ele>
        <time>2022-03-27T14:41:28Z</time>
      </trkpt>
      <trkpt lat="42.77413" lon="0.1244">
        <ele>2231</ele>
        <time>2022-03-27T14:41:29Z</time>
      </trkpt>
      <trkpt lat="42.77413" lon="0.12453">
        <ele>2228</ele>
        <time>2022-03-27T14:41:30Z</time>
      </trkpt>
      <trkpt lat="42.77413" lon="0.12465">
        <ele>2227</ele>
        <time>2022-03-27T14:41:31Z</time>
      </trkpt>
      <trkpt lat="42.77415" lon="0.12477">
        <ele>2224</ele>
        <time>2022-03-27T14:41:32Z</time>
      </trkpt>
      <trkpt lat="42.77416" lon="0.12488">
        <ele>2223</ele>
        <time>2022-03-27T14:41:33Z</time>
      </trkpt>
      <trkpt lat="42.77417" lon="0.12499">
        <ele>2220</ele>
        <time>2022-03-27T14:41:34Z</time>
      </trkpt>
      <trkpt lat="42.7742" lon="0.12508">
        <ele>2218</ele>
        <time>2022-03-27T14:41:35Z</time>
      </trkpt>
      <trkpt lat="42.77424" lon="0.12516">
        <ele>2217</ele>
        <time>2022-03-27T14:41:36Z</time>
      </trkpt>
      <trkpt lat="42.77428" lon="0.12524">
        <ele>2216</ele>
        <time>2022-03-27T14:41:37Z</time>
      </trkpt>
      <trkpt lat="42.7743" lon="0.12541">
        <ele>2212</ele>
        <time>2022-03-27T14:41:39Z</time>
      </trkpt>
      <trkpt lat="42.77427" lon="0.12545">
        <ele>2210</ele>
        <time>2022-03-27T14:41:40Z</time>
      </trkpt>
      <trkpt lat="42.77425" lon="0.12544">
        <ele>2208</ele>
        <time>2022-03-27T14:41:47Z</time>
      </trkpt>
      <trkpt lat="42.77425" lon="0.12541">
        <ele>2208</ele>
        <time>2022-03-27T14:42:01Z</time>
      </trkpt>
      <trkpt lat="42.77427" lon="0.12539">
        <ele>2208</ele>
        <time>2022-03-27T14:42:06Z</time>
      </trkpt>
      <trkpt lat="42.77428" lon="0.12537">
        <ele>2208</ele>
        <time>2022-03-27T14:42:18Z</time>
      </trkpt>
      <trkpt lat="42.77431" lon="0.12536">
        <ele>2208</ele>
        <time>2022-03-27T14:42:40Z</time>
      </trkpt>
      <trkpt lat="42.77434" lon="0.12535">
        <ele>2208</ele>
        <time>2022-03-27T14:42:41Z</time>
      </trkpt>
      <trkpt lat="42.77437" lon="0.12535">
        <ele>2208</ele>
        <time>2022-03-27T14:42:42Z</time>
      </trkpt>
      <trkpt lat="42.77439" lon="0.12534">
        <ele>2208</ele>
        <time>2022-03-27T14:42:43Z</time>
      </trkpt>
      <trkpt lat="42.77441" lon="0.12534">
        <ele>2208</ele>
        <time>2022-03-27T14:42:44Z</time>
      </trkpt>
      <trkpt lat="42.77444" lon="0.12534">
        <ele>2207</ele>
        <time>2022-03-27T14:42:45Z</time>
      </trkpt>
      <trkpt lat="42.77446" lon="0.12535">
        <ele>2207</ele>
        <time>2022-03-27T14:42:46Z</time>
      </trkpt>
      <trkpt lat="42.77449" lon="0.12534">
        <ele>2206</ele>
        <time>2022-03-27T14:42:47Z</time>
      </trkpt>
      <trkpt lat="42.77452" lon="0.12535">
        <ele>2206</ele>
        <time>2022-03-27T14:42:48Z</time>
      </trkpt>
      <trkpt lat="42.77454" lon="0.12535">
        <ele>2206</ele>
        <time>2022-03-27T14:42:49Z</time>
      </trkpt>
      <trkpt lat="42.77457" lon="0.12535">
        <ele>2205</ele>
        <time>2022-03-27T14:42:50Z</time>
      </trkpt>
      <trkpt lat="42.77459" lon="0.12535">
        <ele>2204</ele>
        <time>2022-03-27T14:42:51Z</time>
      </trkpt>
      <trkpt lat="42.77462" lon="0.12535">
        <ele>2204</ele>
        <time>2022-03-27T14:42:52Z</time>
      </trkpt>
      <trkpt lat="42.77465" lon="0.12536">
        <ele>2204</ele>
        <time>2022-03-27T14:42:53Z</time>
      </trkpt>
      <trkpt lat="42.77468" lon="0.12537">
        <ele>2204</ele>
        <time>2022-03-27T14:42:54Z</time>
      </trkpt>
      <trkpt lat="42.77471" lon="0.12538">
        <ele>2204</ele>
        <time>2022-03-27T14:42:55Z</time>
      </trkpt>
      <trkpt lat="42.77475" lon="0.12538">
        <ele>2203</ele>
        <time>2022-03-27T14:42:56Z</time>
      </trkpt>
      <trkpt lat="42.77478" lon="0.12539">
        <ele>2202</ele>
        <time>2022-03-27T14:42:57Z</time>
      </trkpt>
      <trkpt lat="42.77481" lon="0.1254">
        <ele>2202</ele>
        <time>2022-03-27T14:42:58Z</time>
      </trkpt>
      <trkpt lat="42.77483" lon="0.12542">
        <ele>2202</ele>
        <time>2022-03-27T14:42:59Z</time>
      </trkpt>
      <trkpt lat="42.77486" lon="0.12544">
        <ele>2201</ele>
        <time>2022-03-27T14:43:00Z</time>
      </trkpt>
      <trkpt lat="42.77489" lon="0.12545">
        <ele>2201</ele>
        <time>2022-03-27T14:43:01Z</time>
      </trkpt>
      <trkpt lat="42.77492" lon="0.12547">
        <ele>2200</ele>
        <time>2022-03-27T14:43:02Z</time>
      </trkpt>
      <trkpt lat="42.77495" lon="0.12549">
        <ele>2200</ele>
        <time>2022-03-27T14:43:03Z</time>
      </trkpt>
      <trkpt lat="42.77497" lon="0.12551">
        <ele>2200</ele>
        <time>2022-03-27T14:43:04Z</time>
      </trkpt>
      <trkpt lat="42.775" lon="0.12553">
        <ele>2199</ele>
        <time>2022-03-27T14:43:05Z</time>
      </trkpt>
      <trkpt lat="42.77503" lon="0.12555">
        <ele>2199</ele>
        <time>2022-03-27T14:43:06Z</time>
      </trkpt>
      <trkpt lat="42.77505" lon="0.12557">
        <ele>2198</ele>
        <time>2022-03-27T14:43:07Z</time>
      </trkpt>
      <trkpt lat="42.77507" lon="0.12558">
        <ele>2198</ele>
        <time>2022-03-27T14:43:08Z</time>
      </trkpt>
      <trkpt lat="42.77509" lon="0.1256">
        <ele>2198</ele>
        <time>2022-03-27T14:43:09Z</time>
      </trkpt>
      <trkpt lat="42.77512" lon="0.12562">
        <ele>2197</ele>
        <time>2022-03-27T14:43:10Z</time>
      </trkpt>
      <trkpt lat="42.77514" lon="0.12565">
        <ele>2196</ele>
        <time>2022-03-27T14:43:11Z</time>
      </trkpt>
      <trkpt lat="42.77517" lon="0.12567">
        <ele>2196</ele>
        <time>2022-03-27T14:43:12Z</time>
      </trkpt>
      <trkpt lat="42.7752" lon="0.1257">
        <ele>2194</ele>
        <time>2022-03-27T14:43:13Z</time>
      </trkpt>
      <trkpt lat="42.77524" lon="0.12571">
        <ele>2194</ele>
        <time>2022-03-27T14:43:14Z</time>
      </trkpt>
      <trkpt lat="42.77528" lon="0.12573">
        <ele>2193</ele>
        <time>2022-03-27T14:43:15Z</time>
      </trkpt>
      <trkpt lat="42.77532" lon="0.12574">
        <ele>2193</ele>
        <time>2022-03-27T14:43:16Z</time>
      </trkpt>
      <trkpt lat="42.77536" lon="0.12576">
        <ele>2192</ele>
        <time>2022-03-27T14:43:17Z</time>
      </trkpt>
      <trkpt lat="42.77541" lon="0.12577">
        <ele>2192</ele>
        <time>2022-03-27T14:43:18Z</time>
      </trkpt>
      <trkpt lat="42.77546" lon="0.12579">
        <ele>2191</ele>
        <time>2022-03-27T14:43:19Z</time>
      </trkpt>
      <trkpt lat="42.77551" lon="0.12581">
        <ele>2190</ele>
        <time>2022-03-27T14:43:20Z</time>
      </trkpt>
      <trkpt lat="42.77556" lon="0.12583">
        <ele>2189</ele>
        <time>2022-03-27T14:43:21Z</time>
      </trkpt>
      <trkpt lat="42.77559" lon="0.12585">
        <ele>2188</ele>
        <time>2022-03-27T14:43:22Z</time>
      </trkpt>
      <trkpt lat="42.77562" lon="0.12587">
        <ele>2187</ele>
        <time>2022-03-27T14:43:23Z</time>
      </trkpt>
      <trkpt lat="42.77566" lon="0.12589">
        <ele>2187</ele>
        <time>2022-03-27T14:43:24Z</time>
      </trkpt>
      <trkpt lat="42.77569" lon="0.1259">
        <ele>2186</ele>
        <time>2022-03-27T14:43:25Z</time>
      </trkpt>
      <trkpt lat="42.77572" lon="0.12592">
        <ele>2185</ele>
        <time>2022-03-27T14:43:26Z</time>
      </trkpt>
      <trkpt lat="42.77575" lon="0.12594">
        <ele>2185</ele>
        <time>2022-03-27T14:43:27Z</time>
      </trkpt>
      <trkpt lat="42.77578" lon="0.12596">
        <ele>2184</ele>
        <time>2022-03-27T14:43:28Z</time>
      </trkpt>
      <trkpt lat="42.77581" lon="0.12598">
        <ele>2184</ele>
        <time>2022-03-27T14:43:29Z</time>
      </trkpt>
      <trkpt lat="42.77584" lon="0.12601">
        <ele>2182</ele>
        <time>2022-03-27T14:43:30Z</time>
      </trkpt>
      <trkpt lat="42.77588" lon="0.12605">
        <ele>2181</ele>
        <time>2022-03-27T14:43:31Z</time>
      </trkpt>
      <trkpt lat="42.77594" lon="0.12613">
        <ele>2181</ele>
        <time>2022-03-27T14:43:33Z</time>
      </trkpt>
      <trkpt lat="42.77598" lon="0.12617">
        <ele>2180</ele>
        <time>2022-03-27T14:43:34Z</time>
      </trkpt>
      <trkpt lat="42.77602" lon="0.12622">
        <ele>2180</ele>
        <time>2022-03-27T14:43:35Z</time>
      </trkpt>
      <trkpt lat="42.77606" lon="0.12627">
        <ele>2179</ele>
        <time>2022-03-27T14:43:36Z</time>
      </trkpt>
      <trkpt lat="42.7761" lon="0.12632">
        <ele>2179</ele>
        <time>2022-03-27T14:43:37Z</time>
      </trkpt>
      <trkpt lat="42.77614" lon="0.12637">
        <ele>2178</ele>
        <time>2022-03-27T14:43:38Z</time>
      </trkpt>
      <trkpt lat="42.77617" lon="0.12642">
        <ele>2178</ele>
        <time>2022-03-27T14:43:39Z</time>
      </trkpt>
      <trkpt lat="42.7762" lon="0.12648">
        <ele>2178</ele>
        <time>2022-03-27T14:43:40Z</time>
      </trkpt>
      <trkpt lat="42.77624" lon="0.12656">
        <ele>2177</ele>
        <time>2022-03-27T14:43:41Z</time>
      </trkpt>
      <trkpt lat="42.77627" lon="0.12663">
        <ele>2176</ele>
        <time>2022-03-27T14:43:42Z</time>
      </trkpt>
      <trkpt lat="42.7763" lon="0.1267">
        <ele>2176</ele>
        <time>2022-03-27T14:43:43Z</time>
      </trkpt>
      <trkpt lat="42.77634" lon="0.12678">
        <ele>2176</ele>
        <time>2022-03-27T14:43:44Z</time>
      </trkpt>
      <trkpt lat="42.77637" lon="0.12685">
        <ele>2175</ele>
        <time>2022-03-27T14:43:45Z</time>
      </trkpt>
      <trkpt lat="42.77641" lon="0.12692">
        <ele>2173</ele>
        <time>2022-03-27T14:43:46Z</time>
      </trkpt>
      <trkpt lat="42.77645" lon="0.127">
        <ele>2172</ele>
        <time>2022-03-27T14:43:47Z</time>
      </trkpt>
      <trkpt lat="42.77649" lon="0.12708">
        <ele>2171</ele>
        <time>2022-03-27T14:43:48Z</time>
      </trkpt>
      <trkpt lat="42.77653" lon="0.12715">
        <ele>2170</ele>
        <time>2022-03-27T14:43:49Z</time>
      </trkpt>
      <trkpt lat="42.77657" lon="0.12722">
        <ele>2168</ele>
        <time>2022-03-27T14:43:50Z</time>
      </trkpt>
      <trkpt lat="42.77661" lon="0.1273">
        <ele>2167</ele>
        <time>2022-03-27T14:43:51Z</time>
      </trkpt>
      <trkpt lat="42.77665" lon="0.12738">
        <ele>2166</ele>
        <time>2022-03-27T14:43:52Z</time>
      </trkpt>
      <trkpt lat="42.7767" lon="0.12747">
        <ele>2164</ele>
        <time>2022-03-27T14:43:53Z</time>
      </trkpt>
      <trkpt lat="42.77675" lon="0.12757">
        <ele>2163</ele>
        <time>2022-03-27T14:43:54Z</time>
      </trkpt>
      <trkpt lat="42.77679" lon="0.12767">
        <ele>2162</ele>
        <time>2022-03-27T14:43:55Z</time>
      </trkpt>
      <trkpt lat="42.77683" lon="0.12777">
        <ele>2162</ele>
        <time>2022-03-27T14:43:56Z</time>
      </trkpt>
      <trkpt lat="42.77687" lon="0.12788">
        <ele>2161</ele>
        <time>2022-03-27T14:43:57Z</time>
      </trkpt>
      <trkpt lat="42.7769" lon="0.12798">
        <ele>2160</ele>
        <time>2022-03-27T14:43:58Z</time>
      </trkpt>
      <trkpt lat="42.77692" lon="0.12808">
        <ele>2159</ele>
        <time>2022-03-27T14:43:59Z</time>
      </trkpt>
      <trkpt lat="42.77693" lon="0.12817">
        <ele>2157</ele>
        <time>2022-03-27T14:44:00Z</time>
      </trkpt>
      <trkpt lat="42.77694" lon="0.12826">
        <ele>2157</ele>
        <time>2022-03-27T14:44:01Z</time>
      </trkpt>
      <trkpt lat="42.77695" lon="0.12834">
        <ele>2157</ele>
        <time>2022-03-27T14:44:02Z</time>
      </trkpt>
      <trkpt lat="42.77696" lon="0.12841">
        <ele>2156</ele>
        <time>2022-03-27T14:44:03Z</time>
      </trkpt>
      <trkpt lat="42.77697" lon="0.12848">
        <ele>2156</ele>
        <time>2022-03-27T14:44:04Z</time>
      </trkpt>
      <trkpt lat="42.77699" lon="0.12855">
        <ele>2155</ele>
        <time>2022-03-27T14:44:05Z</time>
      </trkpt>
      <trkpt lat="42.777" lon="0.12863">
        <ele>2154</ele>
        <time>2022-03-27T14:44:06Z</time>
      </trkpt>
      <trkpt lat="42.77702" lon="0.1287">
        <ele>2154</ele>
        <time>2022-03-27T14:44:07Z</time>
      </trkpt>
      <trkpt lat="42.77703" lon="0.12877">
        <ele>2153</ele>
        <time>2022-03-27T14:44:08Z</time>
      </trkpt>
      <trkpt lat="42.77705" lon="0.12885">
        <ele>2152</ele>
        <time>2022-03-27T14:44:09Z</time>
      </trkpt>
      <trkpt lat="42.77708" lon="0.12893">
        <ele>2151</ele>
        <time>2022-03-27T14:44:10Z</time>
      </trkpt>
      <trkpt lat="42.77711" lon="0.12901">
        <ele>2149</ele>
        <time>2022-03-27T14:44:11Z</time>
      </trkpt>
      <trkpt lat="42.77714" lon="0.1291">
        <ele>2148</ele>
        <time>2022-03-27T14:44:12Z</time>
      </trkpt>
      <trkpt lat="42.77718" lon="0.12917">
        <ele>2146</ele>
        <time>2022-03-27T14:44:13Z</time>
      </trkpt>
      <trkpt lat="42.77721" lon="0.12924">
        <ele>2145</ele>
        <time>2022-03-27T14:44:14Z</time>
      </trkpt>
      <trkpt lat="42.77724" lon="0.12931">
        <ele>2144</ele>
        <time>2022-03-27T14:44:15Z</time>
      </trkpt>
      <trkpt lat="42.77726" lon="0.12935">
        <ele>2144</ele>
        <time>2022-03-27T14:44:16Z</time>
      </trkpt>
      <trkpt lat="42.77728" lon="0.12939">
        <ele>2144</ele>
        <time>2022-03-27T14:44:17Z</time>
      </trkpt>
      <trkpt lat="42.7773" lon="0.12942">
        <ele>2142</ele>
        <time>2022-03-27T14:44:18Z</time>
      </trkpt>
      <trkpt lat="42.77731" lon="0.12943">
        <ele>2142</ele>
        <time>2022-03-27T14:44:19Z</time>
      </trkpt>
      <trkpt lat="42.77733" lon="0.12945">
        <ele>2142</ele>
        <time>2022-03-27T14:44:31Z</time>
      </trkpt>
      <trkpt lat="42.77736" lon="0.12949">
        <ele>2142</ele>
        <time>2022-03-27T14:44:33Z</time>
      </trkpt>
      <trkpt lat="42.77738" lon="0.12951">
        <ele>2141</ele>
        <time>2022-03-27T14:44:34Z</time>
      </trkpt>
      <trkpt lat="42.77741" lon="0.12954">
        <ele>2141</ele>
        <time>2022-03-27T14:44:35Z</time>
      </trkpt>
      <trkpt lat="42.77745" lon="0.12958">
        <ele>2140</ele>
        <time>2022-03-27T14:44:36Z</time>
      </trkpt>
      <trkpt lat="42.77749" lon="0.12962">
        <ele>2140</ele>
        <time>2022-03-27T14:44:37Z</time>
      </trkpt>
      <trkpt lat="42.77753" lon="0.12966">
        <ele>2139</ele>
        <time>2022-03-27T14:44:38Z</time>
      </trkpt>
      <trkpt lat="42.77757" lon="0.1297">
        <ele>2138</ele>
        <time>2022-03-27T14:44:39Z</time>
      </trkpt>
      <trkpt lat="42.77761" lon="0.12974">
        <ele>2138</ele>
        <time>2022-03-27T14:44:40Z</time>
      </trkpt>
      <trkpt lat="42.77764" lon="0.12978">
        <ele>2137</ele>
        <time>2022-03-27T14:44:41Z</time>
      </trkpt>
      <trkpt lat="42.77766" lon="0.1298">
        <ele>2137</ele>
        <time>2022-03-27T14:44:42Z</time>
      </trkpt>
      <trkpt lat="42.77769" lon="0.12983">
        <ele>2136</ele>
        <time>2022-03-27T14:44:44Z</time>
      </trkpt>
      <trkpt lat="42.77772" lon="0.12985">
        <ele>2136</ele>
        <time>2022-03-27T14:44:46Z</time>
      </trkpt>
      <trkpt lat="42.77774" lon="0.12987">
        <ele>2136</ele>
        <time>2022-03-27T14:44:48Z</time>
      </trkpt>
      <trkpt lat="42.77776" lon="0.12988">
        <ele>2135</ele>
        <time>2022-03-27T14:44:50Z</time>
      </trkpt>
      <trkpt lat="42.77778" lon="0.12989">
        <ele>2135</ele>
        <time>2022-03-27T14:44:54Z</time>
      </trkpt>
      <trkpt lat="42.77779" lon="0.12991">
        <ele>2135</ele>
        <time>2022-03-27T14:44:57Z</time>
      </trkpt>
      <trkpt lat="42.77781" lon="0.12992">
        <ele>2133</ele>
        <time>2022-03-27T14:45:00Z</time>
      </trkpt>
      <trkpt lat="42.77785" lon="0.12995">
        <ele>2133</ele>
        <time>2022-03-27T14:45:01Z</time>
      </trkpt>
      <trkpt lat="42.7779" lon="0.12999">
        <ele>2132</ele>
        <time>2022-03-27T14:45:02Z</time>
      </trkpt>
      <trkpt lat="42.77796" lon="0.13002">
        <ele>2132</ele>
        <time>2022-03-27T14:45:03Z</time>
      </trkpt>
      <trkpt lat="42.77802" lon="0.13007">
        <ele>2131</ele>
        <time>2022-03-27T14:45:04Z</time>
      </trkpt>
      <trkpt lat="42.77809" lon="0.13011">
        <ele>2130</ele>
        <time>2022-03-27T14:45:05Z</time>
      </trkpt>
      <trkpt lat="42.77815" lon="0.13015">
        <ele>2128</ele>
        <time>2022-03-27T14:45:06Z</time>
      </trkpt>
      <trkpt lat="42.7782" lon="0.1302">
        <ele>2126</ele>
        <time>2022-03-27T14:45:07Z</time>
      </trkpt>
      <trkpt lat="42.77824" lon="0.13023">
        <ele>2125</ele>
        <time>2022-03-27T14:45:08Z</time>
      </trkpt>
      <trkpt lat="42.77827" lon="0.13024">
        <ele>2125</ele>
        <time>2022-03-27T14:45:09Z</time>
      </trkpt>
      <trkpt lat="42.77829" lon="0.13024">
        <ele>2124</ele>
        <time>2022-03-27T14:46:41Z</time>
      </trkpt>
      <trkpt lat="42.77829" lon="0.13026">
        <ele>2124</ele>
        <time>2022-03-27T14:48:20Z</time>
      </trkpt>
      <trkpt lat="42.77831" lon="0.13028">
        <ele>2123</ele>
        <time>2022-03-27T14:48:21Z</time>
      </trkpt>
      <trkpt lat="42.77833" lon="0.13031">
        <ele>2123</ele>
        <time>2022-03-27T14:48:22Z</time>
      </trkpt>
      <trkpt lat="42.77835" lon="0.13034">
        <ele>2123</ele>
        <time>2022-03-27T14:48:23Z</time>
      </trkpt>
      <trkpt lat="42.77838" lon="0.13037">
        <ele>2122</ele>
        <time>2022-03-27T14:48:24Z</time>
      </trkpt>
      <trkpt lat="42.77842" lon="0.13039">
        <ele>2122</ele>
        <time>2022-03-27T14:48:25Z</time>
      </trkpt>
      <trkpt lat="42.77846" lon="0.13043">
        <ele>2122</ele>
        <time>2022-03-27T14:48:26Z</time>
      </trkpt>
      <trkpt lat="42.77848" lon="0.13048">
        <ele>2121</ele>
        <time>2022-03-27T14:48:27Z</time>
      </trkpt>
      <trkpt lat="42.77851" lon="0.13053">
        <ele>2120</ele>
        <time>2022-03-27T14:48:28Z</time>
      </trkpt>
      <trkpt lat="42.77855" lon="0.13057">
        <ele>2118</ele>
        <time>2022-03-27T14:48:29Z</time>
      </trkpt>
      <trkpt lat="42.77859" lon="0.13064">
        <ele>2114</ele>
        <time>2022-03-27T14:48:30Z</time>
      </trkpt>
      <trkpt lat="42.77861" lon="0.13072">
        <ele>2112</ele>
        <time>2022-03-27T14:48:31Z</time>
      </trkpt>
      <trkpt lat="42.77865" lon="0.13077">
        <ele>2110</ele>
        <time>2022-03-27T14:48:32Z</time>
      </trkpt>
      <trkpt lat="42.77871" lon="0.13078">
        <ele>2108</ele>
        <time>2022-03-27T14:48:33Z</time>
      </trkpt>
      <trkpt lat="42.7788" lon="0.13078">
        <ele>2106</ele>
        <time>2022-03-27T14:48:35Z</time>
      </trkpt>
      <trkpt lat="42.77884" lon="0.13078">
        <ele>2106</ele>
        <time>2022-03-27T14:48:36Z</time>
      </trkpt>
      <trkpt lat="42.77887" lon="0.13078">
        <ele>2105</ele>
        <time>2022-03-27T14:48:37Z</time>
      </trkpt>
      <trkpt lat="42.77891" lon="0.13078">
        <ele>2104</ele>
        <time>2022-03-27T14:48:38Z</time>
      </trkpt>
      <trkpt lat="42.77894" lon="0.13079">
        <ele>2103</ele>
        <time>2022-03-27T14:48:39Z</time>
      </trkpt>
      <trkpt lat="42.77896" lon="0.13081">
        <ele>2103</ele>
        <time>2022-03-27T14:48:40Z</time>
      </trkpt>
      <trkpt lat="42.77898" lon="0.13083">
        <ele>2103</ele>
        <time>2022-03-27T14:48:41Z</time>
      </trkpt>
      <trkpt lat="42.77902" lon="0.13086">
        <ele>2102</ele>
        <time>2022-03-27T14:48:43Z</time>
      </trkpt>
      <trkpt lat="42.77904" lon="0.13089">
        <ele>2102</ele>
        <time>2022-03-27T14:48:44Z</time>
      </trkpt>
      <trkpt lat="42.77905" lon="0.13091">
        <ele>2102</ele>
        <time>2022-03-27T14:48:45Z</time>
      </trkpt>
      <trkpt lat="42.77907" lon="0.13094">
        <ele>2102</ele>
        <time>2022-03-27T14:48:46Z</time>
      </trkpt>
      <trkpt lat="42.77908" lon="0.13097">
        <ele>2102</ele>
        <time>2022-03-27T14:48:47Z</time>
      </trkpt>
      <trkpt lat="42.77911" lon="0.13099">
        <ele>2102</ele>
        <time>2022-03-27T14:48:48Z</time>
      </trkpt>
      <trkpt lat="42.77913" lon="0.13101">
        <ele>2102</ele>
        <time>2022-03-27T14:48:49Z</time>
      </trkpt>
      <trkpt lat="42.77915" lon="0.13103">
        <ele>2102</ele>
        <time>2022-03-27T14:48:50Z</time>
      </trkpt>
      <trkpt lat="42.77917" lon="0.13106">
        <ele>2102</ele>
        <time>2022-03-27T14:48:51Z</time>
      </trkpt>
      <trkpt lat="42.7792" lon="0.13107">
        <ele>2101</ele>
        <time>2022-03-27T14:48:52Z</time>
      </trkpt>
      <trkpt lat="42.77924" lon="0.13108">
        <ele>2100</ele>
        <time>2022-03-27T14:48:53Z</time>
      </trkpt>
      <trkpt lat="42.77927" lon="0.13109">
        <ele>2099</ele>
        <time>2022-03-27T14:48:54Z</time>
      </trkpt>
      <trkpt lat="42.77931" lon="0.1311">
        <ele>2099</ele>
        <time>2022-03-27T14:48:55Z</time>
      </trkpt>
      <trkpt lat="42.77933" lon="0.1311">
        <ele>2099</ele>
        <time>2022-03-27T14:48:56Z</time>
      </trkpt>
      <trkpt lat="42.77935" lon="0.13109">
        <ele>2097</ele>
        <time>2022-03-27T14:49:01Z</time>
      </trkpt>
      <trkpt lat="42.77936" lon="0.13106">
        <ele>2096</ele>
        <time>2022-03-27T14:49:06Z</time>
      </trkpt>
      <trkpt lat="42.77938" lon="0.13104">
        <ele>2096</ele>
        <time>2022-03-27T14:49:07Z</time>
      </trkpt>
      <trkpt lat="42.77941" lon="0.13103">
        <ele>2096</ele>
        <time>2022-03-27T14:49:08Z</time>
      </trkpt>
      <trkpt lat="42.77945" lon="0.13105">
        <ele>2096</ele>
        <time>2022-03-27T14:49:09Z</time>
      </trkpt>
      <trkpt lat="42.77949" lon="0.13109">
        <ele>2095</ele>
        <time>2022-03-27T14:49:10Z</time>
      </trkpt>
      <trkpt lat="42.77961" lon="0.13108">
        <ele>2087</ele>
        <time>2022-03-27T14:49:12Z</time>
      </trkpt>
      <trkpt lat="42.77975" lon="0.13111">
        <ele>2083</ele>
        <time>2022-03-27T14:49:14Z</time>
      </trkpt>
      <trkpt lat="42.77989" lon="0.1312">
        <ele>2079</ele>
        <time>2022-03-27T14:49:16Z</time>
      </trkpt>
      <trkpt lat="42.78" lon="0.1313">
        <ele>2075</ele>
        <time>2022-03-27T14:49:18Z</time>
      </trkpt>
      <trkpt lat="42.7801" lon="0.13141">
        <ele>2070</ele>
        <time>2022-03-27T14:49:20Z</time>
      </trkpt>
      <trkpt lat="42.78026" lon="0.13161">
        <ele>2064</ele>
        <time>2022-03-27T14:49:22Z</time>
      </trkpt>
      <trkpt lat="42.78034" lon="0.13168">
        <ele>2062</ele>
        <time>2022-03-27T14:49:23Z</time>
      </trkpt>
      <trkpt lat="42.78043" lon="0.13176">
        <ele>2061</ele>
        <time>2022-03-27T14:49:24Z</time>
      </trkpt>
      <trkpt lat="42.78049" lon="0.13184">
        <ele>2060</ele>
        <time>2022-03-27T14:49:25Z</time>
      </trkpt>
      <trkpt lat="42.78055" lon="0.13195">
        <ele>2058</ele>
        <time>2022-03-27T14:49:26Z</time>
      </trkpt>
      <trkpt lat="42.78057" lon="0.13208">
        <ele>2056</ele>
        <time>2022-03-27T14:49:27Z</time>
      </trkpt>
      <trkpt lat="42.78058" lon="0.1322">
        <ele>2055</ele>
        <time>2022-03-27T14:49:28Z</time>
      </trkpt>
      <trkpt lat="42.7806" lon="0.13228">
        <ele>2052</ele>
        <time>2022-03-27T14:49:29Z</time>
      </trkpt>
      <trkpt lat="42.78062" lon="0.13231">
        <ele>2050</ele>
        <time>2022-03-27T14:49:30Z</time>
      </trkpt>
      <trkpt lat="42.78062" lon="0.13229">
        <ele>2048</ele>
        <time>2022-03-27T14:49:40Z</time>
      </trkpt>
      <trkpt lat="42.78064" lon="0.13227">
        <ele>2048</ele>
        <time>2022-03-27T14:49:46Z</time>
      </trkpt>
      <trkpt lat="42.78066" lon="0.13227">
        <ele>2047</ele>
        <time>2022-03-27T14:49:47Z</time>
      </trkpt>
      <trkpt lat="42.78068" lon="0.13228">
        <ele>2047</ele>
        <time>2022-03-27T14:49:48Z</time>
      </trkpt>
      <trkpt lat="42.78071" lon="0.13228">
        <ele>2047</ele>
        <time>2022-03-27T14:49:49Z</time>
      </trkpt>
      <trkpt lat="42.78073" lon="0.13229">
        <ele>2047</ele>
        <time>2022-03-27T14:49:50Z</time>
      </trkpt>
      <trkpt lat="42.78076" lon="0.1323">
        <ele>2046</ele>
        <time>2022-03-27T14:49:51Z</time>
      </trkpt>
      <trkpt lat="42.78079" lon="0.1323">
        <ele>2046</ele>
        <time>2022-03-27T14:49:52Z</time>
      </trkpt>
      <trkpt lat="42.78082" lon="0.13231">
        <ele>2045</ele>
        <time>2022-03-27T14:49:53Z</time>
      </trkpt>
      <trkpt lat="42.78084" lon="0.13231">
        <ele>2045</ele>
        <time>2022-03-27T14:49:54Z</time>
      </trkpt>
      <trkpt lat="42.78087" lon="0.13232">
        <ele>2045</ele>
        <time>2022-03-27T14:49:55Z</time>
      </trkpt>
      <trkpt lat="42.7809" lon="0.13233">
        <ele>2045</ele>
        <time>2022-03-27T14:49:56Z</time>
      </trkpt>
      <trkpt lat="42.78093" lon="0.13233">
        <ele>2044</ele>
        <time>2022-03-27T14:49:57Z</time>
      </trkpt>
      <trkpt lat="42.78095" lon="0.13233">
        <ele>2044</ele>
        <time>2022-03-27T14:49:58Z</time>
      </trkpt>
      <trkpt lat="42.78097" lon="0.13232">
        <ele>2044</ele>
        <time>2022-03-27T14:50:11Z</time>
      </trkpt>
      <trkpt lat="42.78099" lon="0.13233">
        <ele>2044</ele>
        <time>2022-03-27T14:51:16Z</time>
      </trkpt>
      <trkpt lat="42.78101" lon="0.13235">
        <ele>2043</ele>
        <time>2022-03-27T14:51:17Z</time>
      </trkpt>
      <trkpt lat="42.78104" lon="0.13238">
        <ele>2043</ele>
        <time>2022-03-27T14:51:18Z</time>
      </trkpt>
      <trkpt lat="42.78108" lon="0.13241">
        <ele>2043</ele>
        <time>2022-03-27T14:51:19Z</time>
      </trkpt>
      <trkpt lat="42.78112" lon="0.13245">
        <ele>2043</ele>
        <time>2022-03-27T14:51:20Z</time>
      </trkpt>
      <trkpt lat="42.78114" lon="0.1325">
        <ele>2042</ele>
        <time>2022-03-27T14:51:21Z</time>
      </trkpt>
      <trkpt lat="42.78113" lon="0.13257">
        <ele>2040</ele>
        <time>2022-03-27T14:51:22Z</time>
      </trkpt>
      <trkpt lat="42.78112" lon="0.13265">
        <ele>2037</ele>
        <time>2022-03-27T14:51:23Z</time>
      </trkpt>
      <trkpt lat="42.78112" lon="0.13271">
        <ele>2035</ele>
        <time>2022-03-27T14:51:24Z</time>
      </trkpt>
      <trkpt lat="42.78116" lon="0.13275">
        <ele>2034</ele>
        <time>2022-03-27T14:51:25Z</time>
      </trkpt>
      <trkpt lat="42.7812" lon="0.13281">
        <ele>2031</ele>
        <time>2022-03-27T14:51:26Z</time>
      </trkpt>
      <trkpt lat="42.78126" lon="0.13295">
        <ele>2029</ele>
        <time>2022-03-27T14:51:28Z</time>
      </trkpt>
      <trkpt lat="42.78129" lon="0.13303">
        <ele>2027</ele>
        <time>2022-03-27T14:51:29Z</time>
      </trkpt>
      <trkpt lat="42.78131" lon="0.13311">
        <ele>2026</ele>
        <time>2022-03-27T14:51:30Z</time>
      </trkpt>
      <trkpt lat="42.78132" lon="0.1332">
        <ele>2025</ele>
        <time>2022-03-27T14:51:31Z</time>
      </trkpt>
      <trkpt lat="42.78129" lon="0.13335">
        <ele>2020</ele>
        <time>2022-03-27T14:51:33Z</time>
      </trkpt>
      <trkpt lat="42.78132" lon="0.1334">
        <ele>2017</ele>
        <time>2022-03-27T14:51:34Z</time>
      </trkpt>
      <trkpt lat="42.78136" lon="0.13342">
        <ele>2016</ele>
        <time>2022-03-27T14:51:35Z</time>
      </trkpt>
      <trkpt lat="42.78136" lon="0.13339">
        <ele>2012</ele>
        <time>2022-03-27T14:51:43Z</time>
      </trkpt>
      <trkpt lat="42.78135" lon="0.13343">
        <ele>2012</ele>
        <time>2022-03-27T14:51:45Z</time>
      </trkpt>
      <trkpt lat="42.78134" lon="0.13345">
        <ele>2011</ele>
        <time>2022-03-27T14:51:47Z</time>
      </trkpt>
      <trkpt lat="42.7813" lon="0.13348">
        <ele>2011</ele>
        <time>2022-03-27T14:51:49Z</time>
      </trkpt>
      <trkpt lat="42.78128" lon="0.1335">
        <ele>2011</ele>
        <time>2022-03-27T14:51:50Z</time>
      </trkpt>
      <trkpt lat="42.78125" lon="0.1335">
        <ele>2010</ele>
        <time>2022-03-27T14:51:51Z</time>
      </trkpt>
      <trkpt lat="42.78122" lon="0.13351">
        <ele>2008</ele>
        <time>2022-03-27T14:51:53Z</time>
      </trkpt>
      <trkpt lat="42.7812" lon="0.13352">
        <ele>2007</ele>
        <time>2022-03-27T14:51:55Z</time>
      </trkpt>
      <trkpt lat="42.78117" lon="0.13354">
        <ele>2006</ele>
        <time>2022-03-27T14:51:57Z</time>
      </trkpt>
      <trkpt lat="42.78115" lon="0.13356">
        <ele>2005</ele>
        <time>2022-03-27T14:51:59Z</time>
      </trkpt>
      <trkpt lat="42.78115" lon="0.1336">
        <ele>2003</ele>
        <time>2022-03-27T14:52:01Z</time>
      </trkpt>
      <trkpt lat="42.78117" lon="0.13362">
        <ele>2002</ele>
        <time>2022-03-27T14:52:02Z</time>
      </trkpt>
      <trkpt lat="42.78119" lon="0.13366">
        <ele>2000</ele>
        <time>2022-03-27T14:52:03Z</time>
      </trkpt>
      <trkpt lat="42.78118" lon="0.13371">
        <ele>1998</ele>
        <time>2022-03-27T14:52:04Z</time>
      </trkpt>
      <trkpt lat="42.78116" lon="0.13374">
        <ele>1997</ele>
        <time>2022-03-27T14:52:05Z</time>
      </trkpt>
      <trkpt lat="42.78115" lon="0.13376">
        <ele>1995</ele>
        <time>2022-03-27T14:52:06Z</time>
      </trkpt>
      <trkpt lat="42.78115" lon="0.13373">
        <ele>1992</ele>
        <time>2022-03-27T14:52:31Z</time>
      </trkpt>
      <trkpt lat="42.78117" lon="0.13371">
        <ele>1992</ele>
        <time>2022-03-27T14:52:58Z</time>
      </trkpt>
      <trkpt lat="42.78114" lon="0.13372">
        <ele>1992</ele>
        <time>2022-03-27T14:53:03Z</time>
      </trkpt>
      <trkpt lat="42.78116" lon="0.13371">
        <ele>1991</ele>
        <time>2022-03-27T14:53:06Z</time>
      </trkpt>
      <trkpt lat="42.78118" lon="0.13375">
        <ele>1989</ele>
        <time>2022-03-27T14:53:09Z</time>
      </trkpt>
      <trkpt lat="42.7812" lon="0.13377">
        <ele>1990</ele>
        <time>2022-03-27T14:53:11Z</time>
      </trkpt>
      <trkpt lat="42.7812" lon="0.13381">
        <ele>1990</ele>
        <time>2022-03-27T14:53:12Z</time>
      </trkpt>
      <trkpt lat="42.78118" lon="0.13381">
        <ele>1986</ele>
        <time>2022-03-27T14:53:20Z</time>
      </trkpt>
      <trkpt lat="42.78115" lon="0.13387">
        <ele>1983</ele>
        <time>2022-03-27T14:55:20Z</time>
      </trkpt>
      <trkpt lat="42.78113" lon="0.13391">
        <ele>1982</ele>
        <time>2022-03-27T14:55:21Z</time>
      </trkpt>
      <trkpt lat="42.78112" lon="0.13394">
        <ele>1979</ele>
        <time>2022-03-27T14:55:23Z</time>
      </trkpt>
      <trkpt lat="42.78114" lon="0.13402">
        <ele>1976</ele>
        <time>2022-03-27T14:55:44Z</time>
      </trkpt>
      <trkpt lat="42.78111" lon="0.13405">
        <ele>1975</ele>
        <time>2022-03-27T14:55:45Z</time>
      </trkpt>
      <trkpt lat="42.7811" lon="0.13407">
        <ele>1974</ele>
        <time>2022-03-27T14:55:46Z</time>
      </trkpt>
      <trkpt lat="42.7811" lon="0.13411">
        <ele>1970</ele>
        <time>2022-03-27T14:55:48Z</time>
      </trkpt>
      <trkpt lat="42.78109" lon="0.13422">
        <ele>1968</ele>
        <time>2022-03-27T14:55:50Z</time>
      </trkpt>
      <trkpt lat="42.78108" lon="0.13426">
        <ele>1965</ele>
        <time>2022-03-27T14:55:51Z</time>
      </trkpt>
      <trkpt lat="42.78108" lon="0.13429">
        <ele>1962</ele>
        <time>2022-03-27T14:55:52Z</time>
      </trkpt>
      <trkpt lat="42.78112" lon="0.13429">
        <ele>1959</ele>
        <time>2022-03-27T14:55:53Z</time>
      </trkpt>
      <trkpt lat="42.78114" lon="0.13429">
        <ele>1958</ele>
        <time>2022-03-27T14:55:55Z</time>
      </trkpt>
      <trkpt lat="42.78115" lon="0.13431">
        <ele>1958</ele>
        <time>2022-03-27T14:55:57Z</time>
      </trkpt>
      <trkpt lat="42.78116" lon="0.13436">
        <ele>1957</ele>
        <time>2022-03-27T14:55:58Z</time>
      </trkpt>
      <trkpt lat="42.78116" lon="0.13442">
        <ele>1954</ele>
        <time>2022-03-27T14:55:59Z</time>
      </trkpt>
      <trkpt lat="42.78112" lon="0.13447">
        <ele>1950</ele>
        <time>2022-03-27T14:56:00Z</time>
      </trkpt>
      <trkpt lat="42.78114" lon="0.1345">
        <ele>1948</ele>
        <time>2022-03-27T14:56:04Z</time>
      </trkpt>
      <trkpt lat="42.78112" lon="0.13451">
        <ele>1948</ele>
        <time>2022-03-27T14:56:05Z</time>
      </trkpt>
      <trkpt lat="42.7811" lon="0.13454">
        <ele>1947</ele>
        <time>2022-03-27T14:56:06Z</time>
      </trkpt>
      <trkpt lat="42.78113" lon="0.13468">
        <ele>1941</ele>
        <time>2022-03-27T14:56:11Z</time>
      </trkpt>
      <trkpt lat="42.78115" lon="0.1347">
        <ele>1940</ele>
        <time>2022-03-27T14:56:12Z</time>
      </trkpt>
      <trkpt lat="42.78117" lon="0.13471">
        <ele>1939</ele>
        <time>2022-03-27T14:56:14Z</time>
      </trkpt>
      <trkpt lat="42.78121" lon="0.13479">
        <ele>1938</ele>
        <time>2022-03-27T14:56:17Z</time>
      </trkpt>
      <trkpt lat="42.78124" lon="0.13482">
        <ele>1937</ele>
        <time>2022-03-27T14:56:18Z</time>
      </trkpt>
      <trkpt lat="42.78127" lon="0.13487">
        <ele>1935</ele>
        <time>2022-03-27T14:56:19Z</time>
      </trkpt>
      <trkpt lat="42.78131" lon="0.1349">
        <ele>1934</ele>
        <time>2022-03-27T14:56:20Z</time>
      </trkpt>
      <trkpt lat="42.78133" lon="0.13492">
        <ele>1932</ele>
        <time>2022-03-27T14:56:21Z</time>
      </trkpt>
      <trkpt lat="42.7813" lon="0.1349">
        <ele>1931</ele>
        <time>2022-03-27T14:57:03Z</time>
      </trkpt>
      <trkpt lat="42.78132" lon="0.1349">
        <ele>1930</ele>
        <time>2022-03-27T14:57:25Z</time>
      </trkpt>
      <trkpt lat="42.78131" lon="0.13488">
        <ele>1930</ele>
        <time>2022-03-27T14:59:24Z</time>
      </trkpt>
      <trkpt lat="42.78133" lon="0.1349">
        <ele>1930</ele>
        <time>2022-03-27T15:00:24Z</time>
      </trkpt>
      <trkpt lat="42.78134" lon="0.13493">
        <ele>1930</ele>
        <time>2022-03-27T15:00:25Z</time>
      </trkpt>
      <trkpt lat="42.78136" lon="0.13497">
        <ele>1930</ele>
        <time>2022-03-27T15:00:26Z</time>
      </trkpt>
      <trkpt lat="42.78138" lon="0.13503">
        <ele>1928</ele>
        <time>2022-03-27T15:00:27Z</time>
      </trkpt>
      <trkpt lat="42.78132" lon="0.13512">
        <ele>1924</ele>
        <time>2022-03-27T15:00:29Z</time>
      </trkpt>
      <trkpt lat="42.78128" lon="0.13518">
        <ele>1922</ele>
        <time>2022-03-27T15:00:30Z</time>
      </trkpt>
      <trkpt lat="42.78133" lon="0.13532">
        <ele>1918</ele>
        <time>2022-03-27T15:00:32Z</time>
      </trkpt>
      <trkpt lat="42.78137" lon="0.13536">
        <ele>1917</ele>
        <time>2022-03-27T15:00:33Z</time>
      </trkpt>
      <trkpt lat="42.78139" lon="0.13537">
        <ele>1914</ele>
        <time>2022-03-27T15:00:34Z</time>
      </trkpt>
      <trkpt lat="42.78137" lon="0.13535">
        <ele>1913</ele>
        <time>2022-03-27T15:00:37Z</time>
      </trkpt>
      <trkpt lat="42.78139" lon="0.13537">
        <ele>1913</ele>
        <time>2022-03-27T15:00:44Z</time>
      </trkpt>
      <trkpt lat="42.78142" lon="0.1354">
        <ele>1913</ele>
        <time>2022-03-27T15:00:46Z</time>
      </trkpt>
      <trkpt lat="42.78145" lon="0.13545">
        <ele>1913</ele>
        <time>2022-03-27T15:00:47Z</time>
      </trkpt>
      <trkpt lat="42.78149" lon="0.1355">
        <ele>1912</ele>
        <time>2022-03-27T15:00:48Z</time>
      </trkpt>
      <trkpt lat="42.78153" lon="0.13557">
        <ele>1911</ele>
        <time>2022-03-27T15:00:49Z</time>
      </trkpt>
      <trkpt lat="42.78157" lon="0.13565">
        <ele>1910</ele>
        <time>2022-03-27T15:00:50Z</time>
      </trkpt>
      <trkpt lat="42.78162" lon="0.13574">
        <ele>1908</ele>
        <time>2022-03-27T15:00:51Z</time>
      </trkpt>
      <trkpt lat="42.78165" lon="0.13583">
        <ele>1906</ele>
        <time>2022-03-27T15:00:52Z</time>
      </trkpt>
      <trkpt lat="42.78166" lon="0.13591">
        <ele>1905</ele>
        <time>2022-03-27T15:00:53Z</time>
      </trkpt>
      <trkpt lat="42.78167" lon="0.13594">
        <ele>1906</ele>
        <time>2022-03-27T15:00:54Z</time>
      </trkpt>
      <trkpt lat="42.78167" lon="0.13597">
        <ele>1907</ele>
        <time>2022-03-27T15:00:58Z</time>
      </trkpt>
      <trkpt lat="42.78168" lon="0.136">
        <ele>1908</ele>
        <time>2022-03-27T15:01:02Z</time>
      </trkpt>
      <trkpt lat="42.78169" lon="0.13603">
        <ele>1909</ele>
        <time>2022-03-27T15:01:05Z</time>
      </trkpt>
      <trkpt lat="42.78169" lon="0.13606">
        <ele>1909</ele>
        <time>2022-03-27T15:01:07Z</time>
      </trkpt>
      <trkpt lat="42.7817" lon="0.13608">
        <ele>1909</ele>
        <time>2022-03-27T15:01:09Z</time>
      </trkpt>
      <trkpt lat="42.7817" lon="0.13611">
        <ele>1909</ele>
        <time>2022-03-27T15:01:12Z</time>
      </trkpt>
      <trkpt lat="42.7817" lon="0.13614">
        <ele>1910</ele>
        <time>2022-03-27T15:01:16Z</time>
      </trkpt>
      <trkpt lat="42.78171" lon="0.13618">
        <ele>1910</ele>
        <time>2022-03-27T15:01:20Z</time>
      </trkpt>
      <trkpt lat="42.78172" lon="0.1362">
        <ele>1910</ele>
        <time>2022-03-27T15:01:22Z</time>
      </trkpt>
      <trkpt lat="42.78174" lon="0.13621">
        <ele>1910</ele>
        <time>2022-03-27T15:01:31Z</time>
      </trkpt>
      <trkpt lat="42.78176" lon="0.13621">
        <ele>1911</ele>
        <time>2022-03-27T15:01:37Z</time>
      </trkpt>
      <trkpt lat="42.78177" lon="0.13623">
        <ele>1910</ele>
        <time>2022-03-27T15:01:39Z</time>
      </trkpt>
      <trkpt lat="42.78176" lon="0.13621">
        <ele>1911</ele>
        <time>2022-03-27T15:01:55Z</time>
      </trkpt>
      <trkpt lat="42.78182" lon="0.13625">
        <ele>1911</ele>
        <time>2022-03-27T15:02:17Z</time>
      </trkpt>
      <trkpt lat="42.7818" lon="0.13624">
        <ele>1911</ele>
        <time>2022-03-27T15:02:49Z</time>
      </trkpt>
      <trkpt lat="42.78178" lon="0.13623">
        <ele>1911</ele>
        <time>2022-03-27T15:03:22Z</time>
      </trkpt>
      <trkpt lat="42.78177" lon="0.1362">
        <ele>1912</ele>
        <time>2022-03-27T15:05:09Z</time>
      </trkpt>
      <trkpt lat="42.78175" lon="0.13618">
        <ele>1911</ele>
        <time>2022-03-27T15:05:12Z</time>
      </trkpt>
      <trkpt lat="42.78175" lon="0.13621">
        <ele>1911</ele>
        <time>2022-03-27T15:05:42Z</time>
      </trkpt>
      <trkpt lat="42.78177" lon="0.13621">
        <ele>1911</ele>
        <time>2022-03-27T15:05:50Z</time>
      </trkpt>
      <trkpt lat="42.78177" lon="0.13624">
        <ele>1911</ele>
        <time>2022-03-27T15:06:04Z</time>
      </trkpt>
      <trkpt lat="42.78178" lon="0.13628">
        <ele>1911</ele>
        <time>2022-03-27T15:06:05Z</time>
      </trkpt>
      <trkpt lat="42.78181" lon="0.13639">
        <ele>1910</ele>
        <time>2022-03-27T15:06:08Z</time>
      </trkpt>
      <trkpt lat="42.78183" lon="0.13644">
        <ele>1909</ele>
        <time>2022-03-27T15:06:09Z</time>
      </trkpt>
      <trkpt lat="42.78186" lon="0.13657">
        <ele>1909</ele>
        <time>2022-03-27T15:06:11Z</time>
      </trkpt>
      <trkpt lat="42.78188" lon="0.13663">
        <ele>1908</ele>
        <time>2022-03-27T15:06:12Z</time>
      </trkpt>
      <trkpt lat="42.78189" lon="0.13669">
        <ele>1908</ele>
        <time>2022-03-27T15:06:13Z</time>
      </trkpt>
      <trkpt lat="42.78191" lon="0.13674">
        <ele>1907</ele>
        <time>2022-03-27T15:06:14Z</time>
      </trkpt>
      <trkpt lat="42.78192" lon="0.13679">
        <ele>1907</ele>
        <time>2022-03-27T15:06:15Z</time>
      </trkpt>
      <trkpt lat="42.78194" lon="0.13683">
        <ele>1906</ele>
        <time>2022-03-27T15:06:16Z</time>
      </trkpt>
      <trkpt lat="42.78196" lon="0.13688">
        <ele>1906</ele>
        <time>2022-03-27T15:06:17Z</time>
      </trkpt>
      <trkpt lat="42.78197" lon="0.13693">
        <ele>1906</ele>
        <time>2022-03-27T15:06:18Z</time>
      </trkpt>
      <trkpt lat="42.78203" lon="0.1371">
        <ele>1904</ele>
        <time>2022-03-27T15:06:22Z</time>
      </trkpt>
      <trkpt lat="42.78207" lon="0.13727">
        <ele>1903</ele>
        <time>2022-03-27T15:06:24Z</time>
      </trkpt>
      <trkpt lat="42.7821" lon="0.13741">
        <ele>1902</ele>
        <time>2022-03-27T15:06:27Z</time>
      </trkpt>
      <trkpt lat="42.78214" lon="0.13757">
        <ele>1902</ele>
        <time>2022-03-27T15:06:30Z</time>
      </trkpt>
      <trkpt lat="42.78217" lon="0.13771">
        <ele>1900</ele>
        <time>2022-03-27T15:06:33Z</time>
      </trkpt>
      <trkpt lat="42.78219" lon="0.1378">
        <ele>1900</ele>
        <time>2022-03-27T15:06:35Z</time>
      </trkpt>
      <trkpt lat="42.78221" lon="0.13785">
        <ele>1899</ele>
        <time>2022-03-27T15:06:36Z</time>
      </trkpt>
      <trkpt lat="42.78224" lon="0.138">
        <ele>1898</ele>
        <time>2022-03-27T15:06:39Z</time>
      </trkpt>
      <trkpt lat="42.78228" lon="0.13813">
        <ele>1897</ele>
        <time>2022-03-27T15:06:42Z</time>
      </trkpt>
      <trkpt lat="42.78233" lon="0.13825">
        <ele>1897</ele>
        <time>2022-03-27T15:06:45Z</time>
      </trkpt>
      <trkpt lat="42.78237" lon="0.13839">
        <ele>1897</ele>
        <time>2022-03-27T15:06:49Z</time>
      </trkpt>
      <trkpt lat="42.78238" lon="0.13847">
        <ele>1896</ele>
        <time>2022-03-27T15:06:52Z</time>
      </trkpt>
      <trkpt lat="42.7824" lon="0.13853">
        <ele>1896</ele>
        <time>2022-03-27T15:06:54Z</time>
      </trkpt>
      <trkpt lat="42.7824" lon="0.13857">
        <ele>1896</ele>
        <time>2022-03-27T15:06:55Z</time>
      </trkpt>
      <trkpt lat="42.78241" lon="0.13861">
        <ele>1895</ele>
        <time>2022-03-27T15:06:57Z</time>
      </trkpt>
      <trkpt lat="42.78242" lon="0.13868">
        <ele>1895</ele>
        <time>2022-03-27T15:06:58Z</time>
      </trkpt>
      <trkpt lat="42.78243" lon="0.13872">
        <ele>1895</ele>
        <time>2022-03-27T15:06:59Z</time>
      </trkpt>
      <trkpt lat="42.78244" lon="0.13876">
        <ele>1895</ele>
        <time>2022-03-27T15:07:00Z</time>
      </trkpt>
      <trkpt lat="42.78245" lon="0.1388">
        <ele>1895</ele>
        <time>2022-03-27T15:07:01Z</time>
      </trkpt>
      <trkpt lat="42.78246" lon="0.13884">
        <ele>1894</ele>
        <time>2022-03-27T15:07:02Z</time>
      </trkpt>
      <trkpt lat="42.78247" lon="0.13888">
        <ele>1894</ele>
        <time>2022-03-27T15:07:03Z</time>
      </trkpt>
      <trkpt lat="42.78248" lon="0.13892">
        <ele>1894</ele>
        <time>2022-03-27T15:07:04Z</time>
      </trkpt>
      <trkpt lat="42.78249" lon="0.13897">
        <ele>1894</ele>
        <time>2022-03-27T15:07:05Z</time>
      </trkpt>
      <trkpt lat="42.7825" lon="0.13901">
        <ele>1894</ele>
        <time>2022-03-27T15:07:06Z</time>
      </trkpt>
      <trkpt lat="42.78251" lon="0.13905">
        <ele>1893</ele>
        <time>2022-03-27T15:07:07Z</time>
      </trkpt>
      <trkpt lat="42.78252" lon="0.1391">
        <ele>1892</ele>
        <time>2022-03-27T15:07:09Z</time>
      </trkpt>
      <trkpt lat="42.78253" lon="0.13918">
        <ele>1892</ele>
        <time>2022-03-27T15:07:10Z</time>
      </trkpt>
      <trkpt lat="42.78254" lon="0.13923">
        <ele>1891</ele>
        <time>2022-03-27T15:07:12Z</time>
      </trkpt>
      <trkpt lat="42.78256" lon="0.13932">
        <ele>1891</ele>
        <time>2022-03-27T15:07:13Z</time>
      </trkpt>
      <trkpt lat="42.78257" lon="0.13937">
        <ele>1890</ele>
        <time>2022-03-27T15:07:15Z</time>
      </trkpt>
      <trkpt lat="42.78258" lon="0.13942">
        <ele>1889</ele>
        <time>2022-03-27T15:07:16Z</time>
      </trkpt>
      <trkpt lat="42.7826" lon="0.13952">
        <ele>1889</ele>
        <time>2022-03-27T15:07:17Z</time>
      </trkpt>
      <trkpt lat="42.78261" lon="0.13956">
        <ele>1888</ele>
        <time>2022-03-27T15:07:19Z</time>
      </trkpt>
      <trkpt lat="42.78263" lon="0.13961">
        <ele>1888</ele>
        <time>2022-03-27T15:07:20Z</time>
      </trkpt>
      <trkpt lat="42.78266" lon="0.1397">
        <ele>1887</ele>
        <time>2022-03-27T15:07:21Z</time>
      </trkpt>
      <trkpt lat="42.78267" lon="0.13974">
        <ele>1886</ele>
        <time>2022-03-27T15:07:22Z</time>
      </trkpt>
      <trkpt lat="42.7827" lon="0.13983">
        <ele>1886</ele>
        <time>2022-03-27T15:07:24Z</time>
      </trkpt>
      <trkpt lat="42.78271" lon="0.13988">
        <ele>1885</ele>
        <time>2022-03-27T15:07:25Z</time>
      </trkpt>
      <trkpt lat="42.78273" lon="0.13993">
        <ele>1886</ele>
        <time>2022-03-27T15:07:26Z</time>
      </trkpt>
      <trkpt lat="42.78274" lon="0.13998">
        <ele>1886</ele>
        <time>2022-03-27T15:07:27Z</time>
      </trkpt>
      <trkpt lat="42.78276" lon="0.14004">
        <ele>1884</ele>
        <time>2022-03-27T15:07:28Z</time>
      </trkpt>
      <trkpt lat="42.78279" lon="0.14015">
        <ele>1884</ele>
        <time>2022-03-27T15:07:30Z</time>
      </trkpt>
      <trkpt lat="42.78284" lon="0.14032">
        <ele>1882</ele>
        <time>2022-03-27T15:07:33Z</time>
      </trkpt>
      <trkpt lat="42.7829" lon="0.14052">
        <ele>1880</ele>
        <time>2022-03-27T15:07:36Z</time>
      </trkpt>
      <trkpt lat="42.78292" lon="0.14058">
        <ele>1879</ele>
        <time>2022-03-27T15:07:38Z</time>
      </trkpt>
      <trkpt lat="42.78294" lon="0.14064">
        <ele>1878</ele>
        <time>2022-03-27T15:07:39Z</time>
      </trkpt>
      <trkpt lat="42.78296" lon="0.14071">
        <ele>1878</ele>
        <time>2022-03-27T15:07:40Z</time>
      </trkpt>
      <trkpt lat="42.783" lon="0.14083">
        <ele>1877</ele>
        <time>2022-03-27T15:07:42Z</time>
      </trkpt>
      <trkpt lat="42.78302" lon="0.14089">
        <ele>1877</ele>
        <time>2022-03-27T15:07:43Z</time>
      </trkpt>
      <trkpt lat="42.78307" lon="0.141">
        <ele>1876</ele>
        <time>2022-03-27T15:07:45Z</time>
      </trkpt>
      <trkpt lat="42.78312" lon="0.14116">
        <ele>1875</ele>
        <time>2022-03-27T15:07:47Z</time>
      </trkpt>
      <trkpt lat="42.78311" lon="0.14135">
        <ele>1874</ele>
        <time>2022-03-27T15:07:50Z</time>
      </trkpt>
      <trkpt lat="42.78306" lon="0.1415">
        <ele>1872</ele>
        <time>2022-03-27T15:07:52Z</time>
      </trkpt>
      <trkpt lat="42.78302" lon="0.14162">
        <ele>1873</ele>
        <time>2022-03-27T15:07:57Z</time>
      </trkpt>
      <trkpt lat="42.78294" lon="0.1417">
        <ele>1873</ele>
        <time>2022-03-27T15:08:38Z</time>
      </trkpt>
      <trkpt lat="42.78289" lon="0.14181">
        <ele>1876</ele>
        <time>2022-03-27T15:08:54Z</time>
      </trkpt>
      <trkpt lat="42.78284" lon="0.14191">
        <ele>1881</ele>
        <time>2022-03-27T15:09:16Z</time>
      </trkpt>
      <trkpt lat="42.78279" lon="0.14201">
        <ele>1886</ele>
        <time>2022-03-27T15:09:50Z</time>
      </trkpt>
      <trkpt lat="42.78273" lon="0.14212">
        <ele>1890</ele>
        <time>2022-03-27T15:10:06Z</time>
      </trkpt>
      <trkpt lat="42.78274" lon="0.14214">
        <ele>1891</ele>
        <time>2022-03-27T15:10:33Z</time>
      </trkpt>
      <trkpt lat="42.78271" lon="0.14216">
        <ele>1890</ele>
        <time>2022-03-27T15:10:51Z</time>
      </trkpt>
      <trkpt lat="42.78274" lon="0.14216">
        <ele>1891</ele>
        <time>2022-03-27T15:10:58Z</time>
      </trkpt>
      <trkpt lat="42.78275" lon="0.14218">
        <ele>1892</ele>
        <time>2022-03-27T15:11:45Z</time>
      </trkpt>
      <trkpt lat="42.78278" lon="0.14221">
        <ele>1891</ele>
        <time>2022-03-27T15:11:47Z</time>
      </trkpt>
      <trkpt lat="42.7828" lon="0.14222">
        <ele>1891</ele>
        <time>2022-03-27T15:11:48Z</time>
      </trkpt>
      <trkpt lat="42.78283" lon="0.14224">
        <ele>1890</ele>
        <time>2022-03-27T15:11:49Z</time>
      </trkpt>
      <trkpt lat="42.78287" lon="0.14227">
        <ele>1890</ele>
        <time>2022-03-27T15:11:50Z</time>
      </trkpt>
      <trkpt lat="42.7829" lon="0.1423">
        <ele>1890</ele>
        <time>2022-03-27T15:11:51Z</time>
      </trkpt>
      <trkpt lat="42.78294" lon="0.14234">
        <ele>1888</ele>
        <time>2022-03-27T15:11:52Z</time>
      </trkpt>
      <trkpt lat="42.78299" lon="0.14238">
        <ele>1888</ele>
        <time>2022-03-27T15:11:53Z</time>
      </trkpt>
      <trkpt lat="42.78308" lon="0.14249">
        <ele>1887</ele>
        <time>2022-03-27T15:11:55Z</time>
      </trkpt>
      <trkpt lat="42.7832" lon="0.14259">
        <ele>1885</ele>
        <time>2022-03-27T15:11:56Z</time>
      </trkpt>
      <trkpt lat="42.78332" lon="0.14272">
        <ele>1882</ele>
        <time>2022-03-27T15:11:58Z</time>
      </trkpt>
      <trkpt lat="42.78342" lon="0.14289">
        <ele>1881</ele>
        <time>2022-03-27T15:12:00Z</time>
      </trkpt>
      <trkpt lat="42.78351" lon="0.14309">
        <ele>1880</ele>
        <time>2022-03-27T15:12:02Z</time>
      </trkpt>
      <trkpt lat="42.78355" lon="0.14321">
        <ele>1878</ele>
        <time>2022-03-27T15:12:03Z</time>
      </trkpt>
      <trkpt lat="42.7836" lon="0.14333">
        <ele>1876</ele>
        <time>2022-03-27T15:12:04Z</time>
      </trkpt>
      <trkpt lat="42.78365" lon="0.14345">
        <ele>1875</ele>
        <time>2022-03-27T15:12:05Z</time>
      </trkpt>
      <trkpt lat="42.78369" lon="0.14355">
        <ele>1875</ele>
        <time>2022-03-27T15:12:06Z</time>
      </trkpt>
      <trkpt lat="42.78375" lon="0.14366">
        <ele>1874</ele>
        <time>2022-03-27T15:12:07Z</time>
      </trkpt>
      <trkpt lat="42.78381" lon="0.14376">
        <ele>1871</ele>
        <time>2022-03-27T15:12:09Z</time>
      </trkpt>
      <trkpt lat="42.78387" lon="0.14385">
        <ele>1870</ele>
        <time>2022-03-27T15:12:10Z</time>
      </trkpt>
      <trkpt lat="42.78393" lon="0.14394">
        <ele>1870</ele>
        <time>2022-03-27T15:12:11Z</time>
      </trkpt>
      <trkpt lat="42.78399" lon="0.14403">
        <ele>1870</ele>
        <time>2022-03-27T15:12:12Z</time>
      </trkpt>
      <trkpt lat="42.7841" lon="0.1442">
        <ele>1870</ele>
        <time>2022-03-27T15:12:13Z</time>
      </trkpt>
      <trkpt lat="42.78416" lon="0.14428">
        <ele>1869</ele>
        <time>2022-03-27T15:12:14Z</time>
      </trkpt>
      <trkpt lat="42.78421" lon="0.14438">
        <ele>1868</ele>
        <time>2022-03-27T15:12:15Z</time>
      </trkpt>
      <trkpt lat="42.78427" lon="0.14448">
        <ele>1867</ele>
        <time>2022-03-27T15:12:16Z</time>
      </trkpt>
      <trkpt lat="42.78433" lon="0.14459">
        <ele>1865</ele>
        <time>2022-03-27T15:12:17Z</time>
      </trkpt>
      <trkpt lat="42.7844" lon="0.14471">
        <ele>1863</ele>
        <time>2022-03-27T15:12:18Z</time>
      </trkpt>
      <trkpt lat="42.78446" lon="0.14483">
        <ele>1858</ele>
        <time>2022-03-27T15:12:20Z</time>
      </trkpt>
      <trkpt lat="42.7846" lon="0.14508">
        <ele>1856</ele>
        <time>2022-03-27T15:12:21Z</time>
      </trkpt>
      <trkpt lat="42.78468" lon="0.14521">
        <ele>1854</ele>
        <time>2022-03-27T15:12:22Z</time>
      </trkpt>
      <trkpt lat="42.78475" lon="0.14534">
        <ele>1852</ele>
        <time>2022-03-27T15:12:23Z</time>
      </trkpt>
      <trkpt lat="42.78482" lon="0.14548">
        <ele>1848</ele>
        <time>2022-03-27T15:12:25Z</time>
      </trkpt>
      <trkpt lat="42.78489" lon="0.14562">
        <ele>1846</ele>
        <time>2022-03-27T15:12:26Z</time>
      </trkpt>
      <trkpt lat="42.785" lon="0.1459">
        <ele>1845</ele>
        <time>2022-03-27T15:12:27Z</time>
      </trkpt>
      <trkpt lat="42.78506" lon="0.14604">
        <ele>1843</ele>
        <time>2022-03-27T15:12:28Z</time>
      </trkpt>
      <trkpt lat="42.7851" lon="0.14617">
        <ele>1842</ele>
        <time>2022-03-27T15:12:29Z</time>
      </trkpt>
      <trkpt lat="42.78515" lon="0.1463">
        <ele>1841</ele>
        <time>2022-03-27T15:12:30Z</time>
      </trkpt>
      <trkpt lat="42.78519" lon="0.14643">
        <ele>1840</ele>
        <time>2022-03-27T15:12:31Z</time>
      </trkpt>
      <trkpt lat="42.78523" lon="0.14656">
        <ele>1839</ele>
        <time>2022-03-27T15:12:33Z</time>
      </trkpt>
      <trkpt lat="42.78526" lon="0.14668">
        <ele>1839</ele>
        <time>2022-03-27T15:12:34Z</time>
      </trkpt>
      <trkpt lat="42.78529" lon="0.14679">
        <ele>1839</ele>
        <time>2022-03-27T15:12:35Z</time>
      </trkpt>
      <trkpt lat="42.78535" lon="0.14701">
        <ele>1838</ele>
        <time>2022-03-27T15:12:37Z</time>
      </trkpt>
      <trkpt lat="42.78539" lon="0.14722">
        <ele>1837</ele>
        <time>2022-03-27T15:12:38Z</time>
      </trkpt>
      <trkpt lat="42.78544" lon="0.14743">
        <ele>1836</ele>
        <time>2022-03-27T15:12:40Z</time>
      </trkpt>
      <trkpt lat="42.78549" lon="0.14764">
        <ele>1834</ele>
        <time>2022-03-27T15:12:43Z</time>
      </trkpt>
      <trkpt lat="42.78555" lon="0.14786">
        <ele>1833</ele>
        <time>2022-03-27T15:12:44Z</time>
      </trkpt>
      <trkpt lat="42.7856" lon="0.14807">
        <ele>1832</ele>
        <time>2022-03-27T15:12:46Z</time>
      </trkpt>
      <trkpt lat="42.78565" lon="0.14828">
        <ele>1831</ele>
        <time>2022-03-27T15:12:48Z</time>
      </trkpt>
      <trkpt lat="42.78569" lon="0.1485">
        <ele>1829</ele>
        <time>2022-03-27T15:12:51Z</time>
      </trkpt>
      <trkpt lat="42.78574" lon="0.1487">
        <ele>1827</ele>
        <time>2022-03-27T15:12:53Z</time>
      </trkpt>
      <trkpt lat="42.78579" lon="0.1489">
        <ele>1826</ele>
        <time>2022-03-27T15:12:55Z</time>
      </trkpt>
      <trkpt lat="42.78583" lon="0.14911">
        <ele>1826</ele>
        <time>2022-03-27T15:12:56Z</time>
      </trkpt>
      <trkpt lat="42.78588" lon="0.14931">
        <ele>1825</ele>
        <time>2022-03-27T15:12:58Z</time>
      </trkpt>
      <trkpt lat="42.78592" lon="0.14951">
        <ele>1824</ele>
        <time>2022-03-27T15:13:00Z</time>
      </trkpt>
      <trkpt lat="42.78596" lon="0.14969">
        <ele>1824</ele>
        <time>2022-03-27T15:13:03Z</time>
      </trkpt>
      <trkpt lat="42.78601" lon="0.14984">
        <ele>1823</ele>
        <time>2022-03-27T15:13:05Z</time>
      </trkpt>
      <trkpt lat="42.78606" lon="0.14999">
        <ele>1822</ele>
        <time>2022-03-27T15:13:07Z</time>
      </trkpt>
      <trkpt lat="42.78613" lon="0.1502">
        <ele>1821</ele>
        <time>2022-03-27T15:13:09Z</time>
      </trkpt>
      <trkpt lat="42.78616" lon="0.15026">
        <ele>1821</ele>
        <time>2022-03-27T15:13:10Z</time>
      </trkpt>
      <trkpt lat="42.78619" lon="0.15032">
        <ele>1821</ele>
        <time>2022-03-27T15:13:11Z</time>
      </trkpt>
      <trkpt lat="42.78622" lon="0.15037">
        <ele>1821</ele>
        <time>2022-03-27T15:13:12Z</time>
      </trkpt>
      <trkpt lat="42.78624" lon="0.15043">
        <ele>1821</ele>
        <time>2022-03-27T15:13:13Z</time>
      </trkpt>
      <trkpt lat="42.78627" lon="0.15049">
        <ele>1821</ele>
        <time>2022-03-27T15:13:14Z</time>
      </trkpt>
      <trkpt lat="42.78629" lon="0.15054">
        <ele>1821</ele>
        <time>2022-03-27T15:13:15Z</time>
      </trkpt>
      <trkpt lat="42.78635" lon="0.15064">
        <ele>1821</ele>
        <time>2022-03-27T15:13:17Z</time>
      </trkpt>
      <trkpt lat="42.78641" lon="0.15076">
        <ele>1821</ele>
        <time>2022-03-27T15:13:21Z</time>
      </trkpt>
      <trkpt lat="42.78646" lon="0.15091">
        <ele>1819</ele>
        <time>2022-03-27T15:13:23Z</time>
      </trkpt>
      <trkpt lat="42.78652" lon="0.15103">
        <ele>1820</ele>
        <time>2022-03-27T15:13:26Z</time>
      </trkpt>
      <trkpt lat="42.78654" lon="0.15116">
        <ele>1819</ele>
        <time>2022-03-27T15:13:29Z</time>
      </trkpt>
      <trkpt lat="42.78656" lon="0.15129">
        <ele>1820</ele>
        <time>2022-03-27T15:13:34Z</time>
      </trkpt>
      <trkpt lat="42.78655" lon="0.15133">
        <ele>1820</ele>
        <time>2022-03-27T15:13:36Z</time>
      </trkpt>
      <trkpt lat="42.78656" lon="0.15138">
        <ele>1820</ele>
        <time>2022-03-27T15:13:39Z</time>
      </trkpt>
      <trkpt lat="42.78656" lon="0.15141">
        <ele>1820</ele>
        <time>2022-03-27T15:13:41Z</time>
      </trkpt>
      <trkpt lat="42.78656" lon="0.15145">
        <ele>1821</ele>
        <time>2022-03-27T15:13:43Z</time>
      </trkpt>
      <trkpt lat="42.78656" lon="0.15148">
        <ele>1821</ele>
        <time>2022-03-27T15:13:45Z</time>
      </trkpt>
      <trkpt lat="42.78656" lon="0.15151">
        <ele>1820</ele>
        <time>2022-03-27T15:13:47Z</time>
      </trkpt>
      <trkpt lat="42.78656" lon="0.15155">
        <ele>1821</ele>
        <time>2022-03-27T15:13:49Z</time>
      </trkpt>
      <trkpt lat="42.78656" lon="0.15158">
        <ele>1821</ele>
        <time>2022-03-27T15:13:51Z</time>
      </trkpt>
      <trkpt lat="42.78655" lon="0.15162">
        <ele>1821</ele>
        <time>2022-03-27T15:13:53Z</time>
      </trkpt>
      <trkpt lat="42.78655" lon="0.15165">
        <ele>1821</ele>
        <time>2022-03-27T15:13:55Z</time>
      </trkpt>
      <trkpt lat="42.78655" lon="0.15169">
        <ele>1821</ele>
        <time>2022-03-27T15:13:57Z</time>
      </trkpt>
      <trkpt lat="42.78655" lon="0.15172">
        <ele>1822</ele>
        <time>2022-03-27T15:13:59Z</time>
      </trkpt>
      <trkpt lat="42.78654" lon="0.15175">
        <ele>1822</ele>
        <time>2022-03-27T15:14:01Z</time>
      </trkpt>
      <trkpt lat="42.78654" lon="0.15179">
        <ele>1822</ele>
        <time>2022-03-27T15:14:03Z</time>
      </trkpt>
      <trkpt lat="42.78654" lon="0.15182">
        <ele>1823</ele>
        <time>2022-03-27T15:14:05Z</time>
      </trkpt>
      <trkpt lat="42.78654" lon="0.15186">
        <ele>1823</ele>
        <time>2022-03-27T15:14:07Z</time>
      </trkpt>
      <trkpt lat="42.78654" lon="0.15189">
        <ele>1823</ele>
        <time>2022-03-27T15:14:09Z</time>
      </trkpt>
      <trkpt lat="42.78655" lon="0.15192">
        <ele>1823</ele>
        <time>2022-03-27T15:14:11Z</time>
      </trkpt>
      <trkpt lat="42.78654" lon="0.15196">
        <ele>1823</ele>
        <time>2022-03-27T15:14:13Z</time>
      </trkpt>
      <trkpt lat="42.78654" lon="0.15199">
        <ele>1823</ele>
        <time>2022-03-27T15:14:15Z</time>
      </trkpt>
      <trkpt lat="42.78654" lon="0.15203">
        <ele>1824</ele>
        <time>2022-03-27T15:14:18Z</time>
      </trkpt>
      <trkpt lat="42.78654" lon="0.15206">
        <ele>1824</ele>
        <time>2022-03-27T15:14:20Z</time>
      </trkpt>
      <trkpt lat="42.78654" lon="0.15209">
        <ele>1824</ele>
        <time>2022-03-27T15:14:22Z</time>
      </trkpt>
      <trkpt lat="42.78654" lon="0.15213">
        <ele>1824</ele>
        <time>2022-03-27T15:14:24Z</time>
      </trkpt>
      <trkpt lat="42.78654" lon="0.15216">
        <ele>1825</ele>
        <time>2022-03-27T15:14:26Z</time>
      </trkpt>
      <trkpt lat="42.78654" lon="0.15219">
        <ele>1825</ele>
        <time>2022-03-27T15:14:28Z</time>
      </trkpt>
      <trkpt lat="42.78654" lon="0.15223">
        <ele>1826</ele>
        <time>2022-03-27T15:14:30Z</time>
      </trkpt>
      <trkpt lat="42.78654" lon="0.15226">
        <ele>1826</ele>
        <time>2022-03-27T15:14:32Z</time>
      </trkpt>
      <trkpt lat="42.78654" lon="0.15229">
        <ele>1826</ele>
        <time>2022-03-27T15:14:34Z</time>
      </trkpt>
      <trkpt lat="42.78654" lon="0.15233">
        <ele>1826</ele>
        <time>2022-03-27T15:14:36Z</time>
      </trkpt>
      <trkpt lat="42.78654" lon="0.15236">
        <ele>1827</ele>
        <time>2022-03-27T15:14:38Z</time>
      </trkpt>
      <trkpt lat="42.78654" lon="0.1524">
        <ele>1826</ele>
        <time>2022-03-27T15:14:40Z</time>
      </trkpt>
      <trkpt lat="42.78654" lon="0.15243">
        <ele>1827</ele>
        <time>2022-03-27T15:14:42Z</time>
      </trkpt>
      <trkpt lat="42.78654" lon="0.15246">
        <ele>1827</ele>
        <time>2022-03-27T15:14:44Z</time>
      </trkpt>
      <trkpt lat="42.78654" lon="0.1525">
        <ele>1827</ele>
        <time>2022-03-27T15:14:46Z</time>
      </trkpt>
      <trkpt lat="42.78655" lon="0.15253">
        <ele>1826</ele>
        <time>2022-03-27T15:14:48Z</time>
      </trkpt>
      <trkpt lat="42.78656" lon="0.15259">
        <ele>1828</ele>
        <time>2022-03-27T15:14:52Z</time>
      </trkpt>
      <trkpt lat="42.78656" lon="0.15262">
        <ele>1828</ele>
        <time>2022-03-27T15:14:53Z</time>
      </trkpt>
      <trkpt lat="42.78656" lon="0.15266">
        <ele>1828</ele>
        <time>2022-03-27T15:14:56Z</time>
      </trkpt>
      <trkpt lat="42.78657" lon="0.15279">
        <ele>1830</ele>
        <time>2022-03-27T15:15:03Z</time>
      </trkpt>
      <trkpt lat="42.78657" lon="0.15282">
        <ele>1830</ele>
        <time>2022-03-27T15:15:06Z</time>
      </trkpt>
      <trkpt lat="42.78658" lon="0.15289">
        <ele>1831</ele>
        <time>2022-03-27T15:15:10Z</time>
      </trkpt>
      <trkpt lat="42.78657" lon="0.15293">
        <ele>1831</ele>
        <time>2022-03-27T15:15:12Z</time>
      </trkpt>
      <trkpt lat="42.78657" lon="0.15297">
        <ele>1832</ele>
        <time>2022-03-27T15:15:14Z</time>
      </trkpt>
      <trkpt lat="42.78655" lon="0.153">
        <ele>1832</ele>
        <time>2022-03-27T15:15:16Z</time>
      </trkpt>
      <trkpt lat="42.78652" lon="0.15301">
        <ele>1832</ele>
        <time>2022-03-27T15:15:18Z</time>
      </trkpt>
      <trkpt lat="42.78652" lon="0.15301">
        <ele>1832</ele>
        <time>2022-03-27T15:15:52Z</time>
      </trkpt>
    </trkseg>
  </trk>
</gpx>